<?xml version='1.0' encoding='UTF-8'?>
<gpx version="1.1" creator="https://www.komoot.de" xmlns="http://www.topografix.com/GPX/1/1" xmlns:xsi="http://www.w3.org/2001/XMLSchema-instance" xsi:schemaLocation="http://www.topografix.com/GPX/1/1 http://www.topografix.com/GPX/1/1/gpx.xsd">
  <metadata>
    <name>85_1300HauenstSaal</name>
    <author>
      <link href="https://www.komoot.de">
        <text>komoot</text>
        <type>text/html</type>
      </link>
    </author>
  </metadata>
  <trk>
    <name>85_1300HauenstSaal</name>
    <trkseg>
      <trkpt lat="47.541631" lon="7.870760">
        <ele>341.582930</ele>
        <time>2021-11-22T09:27:52.600Z</time>
      </trkpt>
      <trkpt lat="47.541796" lon="7.871042">
        <ele>341.582930</ele>
        <time>2021-11-22T09:27:57.675Z</time>
      </trkpt>
      <trkpt lat="47.541953" lon="7.871286">
        <ele>341.582930</ele>
        <time>2021-11-22T09:28:02.692Z</time>
      </trkpt>
      <trkpt lat="47.542039" lon="7.871556">
        <ele>341.582930</ele>
        <time>2021-11-22T09:28:07.328Z</time>
      </trkpt>
      <trkpt lat="47.542067" lon="7.871664">
        <ele>341.582930</ele>
        <time>2021-11-22T09:28:09.053Z</time>
      </trkpt>
      <trkpt lat="47.542091" lon="7.871721">
        <ele>341.582930</ele>
        <time>2021-11-22T09:28:09.681Z</time>
      </trkpt>
      <trkpt lat="47.542218" lon="7.871866">
        <ele>341.862900</ele>
        <time>2021-11-22T09:28:15.015Z</time>
      </trkpt>
      <trkpt lat="47.542394" lon="7.872341">
        <ele>343.427004</ele>
        <time>2021-11-22T09:28:25.212Z</time>
      </trkpt>
      <trkpt lat="47.542436" lon="7.872494">
        <ele>343.903774</ele>
        <time>2021-11-22T09:28:28.532Z</time>
      </trkpt>
      <trkpt lat="47.542515" lon="7.872444">
        <ele>344.271130</ele>
        <time>2021-11-22T09:28:29.969Z</time>
      </trkpt>
      <trkpt lat="47.542537" lon="7.872430">
        <ele>344.373518</ele>
        <time>2021-11-22T09:28:30.497Z</time>
      </trkpt>
      <trkpt lat="47.542714" lon="7.872334">
        <ele>345.179532</ele>
        <time>2021-11-22T09:28:37.175Z</time>
      </trkpt>
      <trkpt lat="47.542814" lon="7.872280">
        <ele>345.634671</ele>
        <time>2021-11-22T09:28:39.949Z</time>
      </trkpt>
      <trkpt lat="47.542919" lon="7.872226">
        <ele>346.109955</ele>
        <time>2021-11-22T09:28:43.729Z</time>
      </trkpt>
      <trkpt lat="47.543013" lon="7.872182">
        <ele>346.531502</ele>
        <time>2021-11-22T09:28:47.588Z</time>
      </trkpt>
      <trkpt lat="47.543233" lon="7.872082">
        <ele>347.515545</ele>
        <time>2021-11-22T09:28:54.364Z</time>
      </trkpt>
      <trkpt lat="47.543251" lon="7.872152">
        <ele>347.731767</ele>
        <time>2021-11-22T09:28:57.916Z</time>
      </trkpt>
      <trkpt lat="47.543332" lon="7.872237">
        <ele>348.156232</ele>
        <time>2021-11-22T09:29:01.506Z</time>
      </trkpt>
      <trkpt lat="47.544252" lon="7.872398">
        <ele>353.790145</ele>
        <time>2021-11-22T09:29:35.737Z</time>
      </trkpt>
      <trkpt lat="47.544390" lon="7.872423">
        <ele>354.734334</ele>
        <time>2021-11-22T09:29:43.248Z</time>
      </trkpt>
      <trkpt lat="47.544883" lon="7.872555">
        <ele>358.136721</ele>
        <time>2021-11-22T09:30:05.342Z</time>
      </trkpt>
      <trkpt lat="47.545131" lon="7.872664">
        <ele>359.893538</ele>
        <time>2021-11-22T09:30:16.600Z</time>
      </trkpt>
      <trkpt lat="47.545375" lon="7.872836">
        <ele>361.712623</ele>
        <time>2021-11-22T09:30:27.652Z</time>
      </trkpt>
      <trkpt lat="47.545478" lon="7.872968">
        <ele>362.575541</ele>
        <time>2021-11-22T09:30:34.608Z</time>
      </trkpt>
      <trkpt lat="47.545515" lon="7.873015">
        <ele>362.884356</ele>
        <time>2021-11-22T09:30:36.527Z</time>
      </trkpt>
      <trkpt lat="47.545746" lon="7.873302">
        <ele>364.794567</ele>
        <time>2021-11-22T09:30:50.373Z</time>
      </trkpt>
      <trkpt lat="47.545934" lon="7.873549">
        <ele>366.386696</ele>
        <time>2021-11-22T09:31:00.473Z</time>
      </trkpt>
      <trkpt lat="47.546077" lon="7.873763">
        <ele>367.674572</ele>
        <time>2021-11-22T09:31:09.669Z</time>
      </trkpt>
      <trkpt lat="47.546135" lon="7.873859">
        <ele>368.225594</ele>
        <time>2021-11-22T09:31:12.908Z</time>
      </trkpt>
      <trkpt lat="47.546309" lon="7.874154">
        <ele>369.901083</ele>
        <time>2021-11-22T09:31:24.023Z</time>
      </trkpt>
      <trkpt lat="47.547126" lon="7.875801">
        <ele>375.708301</ele>
        <time>2021-11-22T09:32:09.784Z</time>
      </trkpt>
      <trkpt lat="47.547574" lon="7.876801">
        <ele>378.224984</ele>
        <time>2021-11-22T09:32:28.780Z</time>
      </trkpt>
      <trkpt lat="47.547992" lon="7.877974">
        <ele>377.122292</ele>
        <time>2021-11-22T09:32:41.580Z</time>
      </trkpt>
      <trkpt lat="47.548234" lon="7.878638">
        <ele>376.278290</ele>
        <time>2021-11-22T09:32:46.893Z</time>
      </trkpt>
      <trkpt lat="47.548422" lon="7.878959">
        <ele>375.802955</ele>
        <time>2021-11-22T09:32:49.735Z</time>
      </trkpt>
      <trkpt lat="47.548718" lon="7.879258">
        <ele>374.764769</ele>
        <time>2021-11-22T09:32:53.274Z</time>
      </trkpt>
      <trkpt lat="47.549140" lon="7.879391">
        <ele>372.929333</ele>
        <time>2021-11-22T09:32:57.460Z</time>
      </trkpt>
      <trkpt lat="47.549318" lon="7.879398">
        <ele>372.171821</ele>
        <time>2021-11-22T09:32:59.087Z</time>
      </trkpt>
      <trkpt lat="47.549327" lon="7.879547">
        <ele>371.742275</ele>
        <time>2021-11-22T09:33:00.074Z</time>
      </trkpt>
      <trkpt lat="47.549726" lon="7.880786">
        <ele>367.807537</ele>
        <time>2021-11-22T09:33:09.008Z</time>
      </trkpt>
      <trkpt lat="47.549927" lon="7.881490">
        <ele>365.994628</ele>
        <time>2021-11-22T09:33:14.040Z</time>
      </trkpt>
      <trkpt lat="47.550234" lon="7.883221">
        <ele>361.749887</ele>
        <time>2021-11-22T09:33:26.441Z</time>
      </trkpt>
      <trkpt lat="47.550332" lon="7.884727">
        <ele>357.167751</ele>
        <time>2021-11-22T09:33:36.290Z</time>
      </trkpt>
      <trkpt lat="47.550391" lon="7.885109">
        <ele>355.963404</ele>
        <time>2021-11-22T09:33:38.823Z</time>
      </trkpt>
      <trkpt lat="47.550548" lon="7.885799">
        <ele>353.725570</ele>
        <time>2021-11-22T09:33:43.426Z</time>
      </trkpt>
      <trkpt lat="47.550623" lon="7.886196">
        <ele>352.211243</ele>
        <time>2021-11-22T09:33:46.029Z</time>
      </trkpt>
      <trkpt lat="47.550677" lon="7.886476">
        <ele>351.062544</ele>
        <time>2021-11-22T09:33:47.856Z</time>
      </trkpt>
      <trkpt lat="47.550758" lon="7.887295">
        <ele>347.797403</ele>
        <time>2021-11-22T09:33:53.000Z</time>
      </trkpt>
      <trkpt lat="47.550789" lon="7.887816">
        <ele>345.734289</ele>
        <time>2021-11-22T09:33:56.232Z</time>
      </trkpt>
      <trkpt lat="47.550831" lon="7.888611">
        <ele>342.575815</ele>
        <time>2021-11-22T09:34:01.184Z</time>
      </trkpt>
      <trkpt lat="47.550833" lon="7.889069">
        <ele>340.667772</ele>
        <time>2021-11-22T09:34:03.994Z</time>
      </trkpt>
      <trkpt lat="47.550915" lon="7.890600">
        <ele>334.269663</ele>
        <time>2021-11-22T09:34:13.387Z</time>
      </trkpt>
      <trkpt lat="47.550904" lon="7.891725">
        <ele>330.495832</ele>
        <time>2021-11-22T09:34:20.391Z</time>
      </trkpt>
      <trkpt lat="47.550892" lon="7.893176">
        <ele>327.037228</ele>
        <time>2021-11-22T09:34:30.003Z</time>
      </trkpt>
      <trkpt lat="47.550908" lon="7.894308">
        <ele>325.009976</ele>
        <time>2021-11-22T09:34:39.208Z</time>
      </trkpt>
      <trkpt lat="47.550878" lon="7.895158">
        <ele>324.307675</ele>
        <time>2021-11-22T09:34:46.393Z</time>
      </trkpt>
      <trkpt lat="47.550838" lon="7.895509">
        <ele>324.013963</ele>
        <time>2021-11-22T09:34:49.557Z</time>
      </trkpt>
      <trkpt lat="47.550660" lon="7.896255">
        <ele>323.361098</ele>
        <time>2021-11-22T09:34:56.046Z</time>
      </trkpt>
      <trkpt lat="47.550639" lon="7.896345">
        <ele>323.282526</ele>
        <time>2021-11-22T09:34:57.233Z</time>
      </trkpt>
      <trkpt lat="47.550648" lon="7.896481">
        <ele>323.169772</ele>
        <time>2021-11-22T09:34:58.188Z</time>
      </trkpt>
      <trkpt lat="47.550819" lon="7.898109">
        <ele>319.742913</ele>
        <time>2021-11-22T09:35:09.936Z</time>
      </trkpt>
      <trkpt lat="47.550801" lon="7.900244">
        <ele>314.439897</ele>
        <time>2021-11-22T09:35:23.773Z</time>
      </trkpt>
      <trkpt lat="47.550769" lon="7.901362">
        <ele>311.249552</ele>
        <time>2021-11-22T09:35:31.045Z</time>
      </trkpt>
      <trkpt lat="47.550757" lon="7.901591">
        <ele>310.594695</ele>
        <time>2021-11-22T09:35:33.181Z</time>
      </trkpt>
      <trkpt lat="47.550688" lon="7.902451">
        <ele>308.358767</ele>
        <time>2021-11-22T09:35:41.615Z</time>
      </trkpt>
      <trkpt lat="47.550498" lon="7.903445">
        <ele>305.776316</ele>
        <time>2021-11-22T09:35:51.866Z</time>
      </trkpt>
      <trkpt lat="47.550302" lon="7.904164">
        <ele>303.837949</ele>
        <time>2021-11-22T09:35:59.125Z</time>
      </trkpt>
      <trkpt lat="47.550025" lon="7.904774">
        <ele>302.007780</ele>
        <time>2021-11-22T09:36:05.999Z</time>
      </trkpt>
      <trkpt lat="47.549868" lon="7.905010">
        <ele>301.184125</ele>
        <time>2021-11-22T09:36:09.106Z</time>
      </trkpt>
      <trkpt lat="47.549867" lon="7.905155">
        <ele>300.823689</ele>
        <time>2021-11-22T09:36:10.501Z</time>
      </trkpt>
      <trkpt lat="47.550067" lon="7.905245">
        <ele>300.053925</ele>
        <time>2021-11-22T09:36:13.398Z</time>
      </trkpt>
      <trkpt lat="47.550283" lon="7.905413">
        <ele>299.155515</ele>
        <time>2021-11-22T09:36:16.839Z</time>
      </trkpt>
      <trkpt lat="47.550497" lon="7.905558">
        <ele>298.288914</ele>
        <time>2021-11-22T09:36:20.195Z</time>
      </trkpt>
      <trkpt lat="47.550398" lon="7.905873">
        <ele>297.425224</ele>
        <time>2021-11-22T09:36:22.501Z</time>
      </trkpt>
      <trkpt lat="47.549539" lon="7.908625">
        <ele>292.878822</ele>
        <time>2021-11-22T09:36:44.800Z</time>
      </trkpt>
      <trkpt lat="47.549520" lon="7.908678">
        <ele>292.829506</ele>
        <time>2021-11-22T09:36:45.305Z</time>
      </trkpt>
      <trkpt lat="47.549325" lon="7.909325">
        <ele>292.247216</ele>
        <time>2021-11-22T09:36:51.172Z</time>
      </trkpt>
      <trkpt lat="47.549253" lon="7.909561">
        <ele>292.034384</ele>
        <time>2021-11-22T09:36:53.358Z</time>
      </trkpt>
      <trkpt lat="47.549195" lon="7.909756">
        <ele>291.859267</ele>
        <time>2021-11-22T09:36:55.096Z</time>
      </trkpt>
      <trkpt lat="47.549102" lon="7.910058">
        <ele>291.586479</ele>
        <time>2021-11-22T09:36:57.846Z</time>
      </trkpt>
      <trkpt lat="47.549012" lon="7.910340">
        <ele>291.330135</ele>
        <time>2021-11-22T09:37:00.355Z</time>
      </trkpt>
      <trkpt lat="47.548412" lon="7.912168">
        <ele>289.837882</ele>
        <time>2021-11-22T09:37:16.693Z</time>
      </trkpt>
      <trkpt lat="47.548027" lon="7.913334">
        <ele>288.943627</ele>
        <time>2021-11-22T09:37:27.448Z</time>
      </trkpt>
      <trkpt lat="47.547994" lon="7.913433">
        <ele>288.914919</ele>
        <time>2021-11-22T09:37:28.364Z</time>
      </trkpt>
      <trkpt lat="47.547423" lon="7.915080">
        <ele>288.674529</ele>
        <time>2021-11-22T09:37:45.824Z</time>
      </trkpt>
      <trkpt lat="47.547224" lon="7.915651">
        <ele>288.591096</ele>
        <time>2021-11-22T09:37:52.537Z</time>
      </trkpt>
      <trkpt lat="47.547113" lon="7.915971">
        <ele>288.672017</ele>
        <time>2021-11-22T09:37:56.277Z</time>
      </trkpt>
      <trkpt lat="47.547091" lon="7.916039">
        <ele>288.697362</ele>
        <time>2021-11-22T09:37:57.293Z</time>
      </trkpt>
      <trkpt lat="47.547032" lon="7.916218">
        <ele>288.764317</ele>
        <time>2021-11-22T09:37:59.486Z</time>
      </trkpt>
      <trkpt lat="47.546821" lon="7.916867">
        <ele>289.006442</ele>
        <time>2021-11-22T09:38:07.608Z</time>
      </trkpt>
      <trkpt lat="47.546262" lon="7.919081">
        <ele>289.726279</ele>
        <time>2021-11-22T09:38:35.165Z</time>
      </trkpt>
      <trkpt lat="47.546128" lon="7.919617">
        <ele>289.874298</ele>
        <time>2021-11-22T09:38:40.633Z</time>
      </trkpt>
      <trkpt lat="47.545973" lon="7.920313">
        <ele>290.064093</ele>
        <time>2021-11-22T09:38:49.096Z</time>
      </trkpt>
      <trkpt lat="47.545913" lon="7.920765">
        <ele>290.238233</ele>
        <time>2021-11-22T09:38:53.270Z</time>
      </trkpt>
      <trkpt lat="47.545881" lon="7.921096">
        <ele>290.592668</ele>
        <time>2021-11-22T09:38:57.286Z</time>
      </trkpt>
      <trkpt lat="47.545810" lon="7.921755">
        <ele>291.300041</ele>
        <time>2021-11-22T09:39:06.195Z</time>
      </trkpt>
      <trkpt lat="47.545778" lon="7.921947">
        <ele>291.509670</ele>
        <time>2021-11-22T09:39:09.804Z</time>
      </trkpt>
      <trkpt lat="47.545714" lon="7.922249">
        <ele>291.845192</ele>
        <time>2021-11-22T09:39:13.002Z</time>
      </trkpt>
      <trkpt lat="47.545699" lon="7.922325">
        <ele>291.929124</ele>
        <time>2021-11-22T09:39:14.200Z</time>
      </trkpt>
      <trkpt lat="47.545690" lon="7.922369">
        <ele>291.977858</ele>
        <time>2021-11-22T09:39:16.298Z</time>
      </trkpt>
      <trkpt lat="47.545641" lon="7.922610">
        <ele>292.244653</ele>
        <time>2021-11-22T09:39:18.652Z</time>
      </trkpt>
      <trkpt lat="47.545587" lon="7.922895">
        <ele>292.558426</ele>
        <time>2021-11-22T09:39:24.448Z</time>
      </trkpt>
      <trkpt lat="47.545553" lon="7.923142">
        <ele>292.825632</ele>
        <time>2021-11-22T09:39:27.095Z</time>
      </trkpt>
      <trkpt lat="47.545536" lon="7.923407">
        <ele>293.269454</ele>
        <time>2021-11-22T09:39:32.984Z</time>
      </trkpt>
      <trkpt lat="47.545521" lon="7.923709">
        <ele>294.031511</ele>
        <time>2021-11-22T09:39:37.138Z</time>
      </trkpt>
      <trkpt lat="47.545481" lon="7.924396">
        <ele>295.766812</ele>
        <time>2021-11-22T09:39:51.741Z</time>
      </trkpt>
      <trkpt lat="47.545466" lon="7.924880">
        <ele>296.986114</ele>
        <time>2021-11-22T09:40:03.048Z</time>
      </trkpt>
      <trkpt lat="47.545446" lon="7.925350">
        <ele>298.171250</ele>
        <time>2021-11-22T09:40:13.423Z</time>
      </trkpt>
      <trkpt lat="47.545417" lon="7.925848">
        <ele>299.429157</ele>
        <time>2021-11-22T09:40:23.902Z</time>
      </trkpt>
      <trkpt lat="47.545409" lon="7.926773">
        <ele>300.663842</ele>
        <time>2021-11-22T09:40:41.103Z</time>
      </trkpt>
      <trkpt lat="47.545407" lon="7.927001">
        <ele>300.933302</ele>
        <time>2021-11-22T09:40:44.912Z</time>
      </trkpt>
      <trkpt lat="47.545406" lon="7.927306">
        <ele>301.293739</ele>
        <time>2021-11-22T09:40:49.516Z</time>
      </trkpt>
      <trkpt lat="47.545421" lon="7.927686">
        <ele>301.743569</ele>
        <time>2021-11-22T09:40:55.052Z</time>
      </trkpt>
      <trkpt lat="47.545475" lon="7.928419">
        <ele>302.614931</ele>
        <time>2021-11-22T09:41:04.369Z</time>
      </trkpt>
      <trkpt lat="47.545563" lon="7.929641">
        <ele>301.658082</ele>
        <time>2021-11-22T09:41:14.249Z</time>
      </trkpt>
      <trkpt lat="47.545661" lon="7.930955">
        <ele>300.141417</ele>
        <time>2021-11-22T09:41:23.645Z</time>
      </trkpt>
      <trkpt lat="47.545696" lon="7.931497">
        <ele>299.641006</ele>
        <time>2021-11-22T09:41:27.613Z</time>
      </trkpt>
      <trkpt lat="47.545721" lon="7.931992">
        <ele>299.332582</ele>
        <time>2021-11-22T09:41:31.406Z</time>
      </trkpt>
      <trkpt lat="47.545724" lon="7.932758">
        <ele>298.856625</ele>
        <time>2021-11-22T09:41:37.615Z</time>
      </trkpt>
      <trkpt lat="47.545702" lon="7.933290">
        <ele>298.525451</ele>
        <time>2021-11-22T09:41:42.258Z</time>
      </trkpt>
      <trkpt lat="47.545674" lon="7.933625">
        <ele>298.315712</ele>
        <time>2021-11-22T09:41:45.459Z</time>
      </trkpt>
      <trkpt lat="47.545457" lon="7.935110">
        <ele>299.078476</ele>
        <time>2021-11-22T09:42:03.594Z</time>
      </trkpt>
      <trkpt lat="47.545074" lon="7.936484">
        <ele>300.247347</ele>
        <time>2021-11-22T09:42:25.121Z</time>
      </trkpt>
      <trkpt lat="47.544903" lon="7.936917">
        <ele>300.848259</ele>
        <time>2021-11-22T09:42:32.437Z</time>
      </trkpt>
      <trkpt lat="47.544705" lon="7.937395">
        <ele>301.520042</ele>
        <time>2021-11-22T09:42:40.621Z</time>
      </trkpt>
      <trkpt lat="47.544472" lon="7.937932">
        <ele>302.284714</ele>
        <time>2021-11-22T09:42:50.028Z</time>
      </trkpt>
      <trkpt lat="47.543826" lon="7.939433">
        <ele>304.330007</ele>
        <time>2021-11-22T09:43:16.910Z</time>
      </trkpt>
      <trkpt lat="47.543435" lon="7.940670">
        <ele>305.828274</ele>
        <time>2021-11-22T09:43:36.871Z</time>
      </trkpt>
      <trkpt lat="47.543161" lon="7.942213">
        <ele>306.497923</ele>
        <time>2021-11-22T09:43:57.720Z</time>
      </trkpt>
      <trkpt lat="47.543007" lon="7.943867">
        <ele>306.572239</ele>
        <time>2021-11-22T09:44:13.264Z</time>
      </trkpt>
      <trkpt lat="47.542913" lon="7.945267">
        <ele>305.084282</ele>
        <time>2021-11-22T09:44:24.171Z</time>
      </trkpt>
      <trkpt lat="47.542872" lon="7.945781">
        <ele>304.536888</ele>
        <time>2021-11-22T09:44:27.987Z</time>
      </trkpt>
      <trkpt lat="47.542875" lon="7.946089">
        <ele>304.211111</ele>
        <time>2021-11-22T09:44:30.221Z</time>
      </trkpt>
      <trkpt lat="47.542902" lon="7.946514">
        <ele>303.774630</ele>
        <time>2021-11-22T09:44:33.315Z</time>
      </trkpt>
      <trkpt lat="47.542943" lon="7.946806">
        <ele>303.487294</ele>
        <time>2021-11-22T09:44:35.526Z</time>
      </trkpt>
      <trkpt lat="47.542974" lon="7.946965">
        <ele>303.327851</ele>
        <time>2021-11-22T09:44:36.834Z</time>
      </trkpt>
      <trkpt lat="47.542979" lon="7.946989">
        <ele>303.303654</ele>
        <time>2021-11-22T09:44:36.990Z</time>
      </trkpt>
      <trkpt lat="47.542989" lon="7.947104">
        <ele>303.191947</ele>
        <time>2021-11-22T09:44:37.861Z</time>
      </trkpt>
      <trkpt lat="47.542984" lon="7.947304">
        <ele>302.999133</ele>
        <time>2021-11-22T09:44:39.437Z</time>
      </trkpt>
      <trkpt lat="47.542979" lon="7.947370">
        <ele>302.935150</ele>
        <time>2021-11-22T09:44:39.938Z</time>
      </trkpt>
      <trkpt lat="47.542935" lon="7.947564">
        <ele>302.737981</ele>
        <time>2021-11-22T09:44:41.505Z</time>
      </trkpt>
      <trkpt lat="47.542892" lon="7.947789">
        <ele>302.512695</ele>
        <time>2021-11-22T09:44:43.423Z</time>
      </trkpt>
      <trkpt lat="47.542875" lon="7.948001">
        <ele>302.307017</ele>
        <time>2021-11-22T09:44:45.239Z</time>
      </trkpt>
      <trkpt lat="47.542838" lon="7.948225">
        <ele>302.084847</ele>
        <time>2021-11-22T09:44:47.024Z</time>
      </trkpt>
      <trkpt lat="47.542826" lon="7.948298">
        <ele>302.012463</ele>
        <time>2021-11-22T09:44:47.645Z</time>
      </trkpt>
      <trkpt lat="47.542719" lon="7.949175">
        <ele>301.304476</ele>
        <time>2021-11-22T09:44:54.870Z</time>
      </trkpt>
      <trkpt lat="47.542609" lon="7.949914">
        <ele>301.105729</ele>
        <time>2021-11-22T09:45:01.644Z</time>
      </trkpt>
      <trkpt lat="47.542560" lon="7.950202">
        <ele>301.027726</ele>
        <time>2021-11-22T09:45:04.513Z</time>
      </trkpt>
      <trkpt lat="47.542554" lon="7.950231">
        <ele>301.019760</ele>
        <time>2021-11-22T09:45:04.788Z</time>
      </trkpt>
      <trkpt lat="47.542546" lon="7.950274">
        <ele>301.008046</ele>
        <time>2021-11-22T09:45:05.193Z</time>
      </trkpt>
      <trkpt lat="47.542444" lon="7.950687">
        <ele>300.892547</ele>
        <time>2021-11-22T09:45:09.656Z</time>
      </trkpt>
      <trkpt lat="47.542357" lon="7.951037">
        <ele>300.794591</ele>
        <time>2021-11-22T09:45:13.300Z</time>
      </trkpt>
      <trkpt lat="47.542192" lon="7.951713">
        <ele>300.627598</ele>
        <time>2021-11-22T09:45:20.246Z</time>
      </trkpt>
      <trkpt lat="47.542169" lon="7.951815">
        <ele>300.610478</ele>
        <time>2021-11-22T09:45:21.175Z</time>
      </trkpt>
      <trkpt lat="47.541991" lon="7.952667">
        <ele>300.468499</ele>
        <time>2021-11-22T09:45:29.456Z</time>
      </trkpt>
      <trkpt lat="47.541791" lon="7.953601">
        <ele>300.312511</ele>
        <time>2021-11-22T09:45:38.507Z</time>
      </trkpt>
      <trkpt lat="47.541773" lon="7.953695">
        <ele>300.296957</ele>
        <time>2021-11-22T09:45:39.443Z</time>
      </trkpt>
      <trkpt lat="47.541735" lon="7.953892">
        <ele>300.264340</ele>
        <time>2021-11-22T09:45:41.326Z</time>
      </trkpt>
      <trkpt lat="47.541660" lon="7.954250">
        <ele>300.384878</ele>
        <time>2021-11-22T09:45:45.085Z</time>
      </trkpt>
      <trkpt lat="47.541530" lon="7.954936">
        <ele>300.904094</ele>
        <time>2021-11-22T09:45:52.306Z</time>
      </trkpt>
      <trkpt lat="47.541482" lon="7.955294">
        <ele>301.170067</ele>
        <time>2021-11-22T09:45:56.354Z</time>
      </trkpt>
      <trkpt lat="47.541465" lon="7.955512">
        <ele>301.329981</ele>
        <time>2021-11-22T09:45:58.690Z</time>
      </trkpt>
      <trkpt lat="47.541442" lon="7.955866">
        <ele>301.589136</ele>
        <time>2021-11-22T09:46:03.982Z</time>
      </trkpt>
      <trkpt lat="47.541410" lon="7.956569">
        <ele>302.102581</ele>
        <time>2021-11-22T09:46:15.282Z</time>
      </trkpt>
      <trkpt lat="47.541404" lon="7.956677">
        <ele>302.187783</ele>
        <time>2021-11-22T09:46:17.388Z</time>
      </trkpt>
      <trkpt lat="47.541280" lon="7.957569">
        <ele>304.241486</ele>
        <time>2021-11-22T09:46:33.036Z</time>
      </trkpt>
      <trkpt lat="47.541237" lon="7.957756">
        <ele>304.686973</ele>
        <time>2021-11-22T09:46:37.384Z</time>
      </trkpt>
      <trkpt lat="47.541141" lon="7.958127">
        <ele>305.582952</ele>
        <time>2021-11-22T09:46:44.935Z</time>
      </trkpt>
      <trkpt lat="47.540957" lon="7.959132">
        <ele>307.931152</ele>
        <time>2021-11-22T09:47:06.378Z</time>
      </trkpt>
      <trkpt lat="47.540954" lon="7.959705">
        <ele>309.025489</ele>
        <time>2021-11-22T09:47:17.805Z</time>
      </trkpt>
      <trkpt lat="47.540979" lon="7.959950">
        <ele>309.477582</ele>
        <time>2021-11-22T09:47:23.255Z</time>
      </trkpt>
      <trkpt lat="47.541002" lon="7.960092">
        <ele>309.744022</ele>
        <time>2021-11-22T09:47:25.848Z</time>
      </trkpt>
      <trkpt lat="47.541060" lon="7.960321">
        <ele>310.190284</ele>
        <time>2021-11-22T09:47:30.570Z</time>
      </trkpt>
      <trkpt lat="47.541153" lon="7.960814">
        <ele>311.124246</ele>
        <time>2021-11-22T09:47:39.140Z</time>
      </trkpt>
      <trkpt lat="47.541242" lon="7.961294">
        <ele>312.032463</ele>
        <time>2021-11-22T09:47:47.098Z</time>
      </trkpt>
      <trkpt lat="47.541316" lon="7.962197">
        <ele>313.281773</ele>
        <time>2021-11-22T09:48:00.214Z</time>
      </trkpt>
      <trkpt lat="47.541314" lon="7.962377">
        <ele>313.400880</ele>
        <time>2021-11-22T09:48:02.855Z</time>
      </trkpt>
      <trkpt lat="47.541308" lon="7.962513">
        <ele>313.491051</ele>
        <time>2021-11-22T09:48:04.206Z</time>
      </trkpt>
      <trkpt lat="47.541293" lon="7.962730">
        <ele>313.635372</ele>
        <time>2021-11-22T09:48:06.567Z</time>
      </trkpt>
      <trkpt lat="47.541258" lon="7.962975">
        <ele>313.801058</ele>
        <time>2021-11-22T09:48:09.959Z</time>
      </trkpt>
      <trkpt lat="47.541217" lon="7.963187">
        <ele>313.946963</ele>
        <time>2021-11-22T09:48:12.015Z</time>
      </trkpt>
      <trkpt lat="47.541123" lon="7.963520">
        <ele>314.185768</ele>
        <time>2021-11-22T09:48:16.798Z</time>
      </trkpt>
      <trkpt lat="47.541019" lon="7.963815">
        <ele>314.405958</ele>
        <time>2021-11-22T09:48:21.055Z</time>
      </trkpt>
      <trkpt lat="47.541129" lon="7.964008">
        <ele>314.573075</ele>
        <time>2021-11-22T09:48:23.787Z</time>
      </trkpt>
      <trkpt lat="47.541169" lon="7.964123">
        <ele>314.658667</ele>
        <time>2021-11-22T09:48:24.953Z</time>
      </trkpt>
      <trkpt lat="47.541095" lon="7.964204">
        <ele>314.748844</ele>
        <time>2021-11-22T09:48:27.353Z</time>
      </trkpt>
      <trkpt lat="47.540896" lon="7.964711">
        <ele>315.088949</ele>
        <time>2021-11-22T09:48:34.380Z</time>
      </trkpt>
      <trkpt lat="47.540214" lon="7.967628">
        <ele>317.190175</ele>
        <time>2021-11-22T09:49:12.227Z</time>
      </trkpt>
      <trkpt lat="47.539783" lon="7.969587">
        <ele>319.349813</ele>
        <time>2021-11-22T09:49:41.926Z</time>
      </trkpt>
      <trkpt lat="47.539262" lon="7.971768">
        <ele>322.961775</ele>
        <time>2021-11-22T09:50:20.877Z</time>
      </trkpt>
      <trkpt lat="47.538706" lon="7.974459">
        <ele>327.313920</ele>
        <time>2021-11-22T09:51:06.674Z</time>
      </trkpt>
      <trkpt lat="47.538242" lon="7.976347">
        <ele>330.007866</ele>
        <time>2021-11-22T09:51:37.492Z</time>
      </trkpt>
      <trkpt lat="47.538107" lon="7.977240">
        <ele>330.948397</ele>
        <time>2021-11-22T09:51:51.186Z</time>
      </trkpt>
      <trkpt lat="47.537955" lon="7.978125">
        <ele>331.465983</ele>
        <time>2021-11-22T09:52:04.729Z</time>
      </trkpt>
      <trkpt lat="47.537583" lon="7.979760">
        <ele>331.746203</ele>
        <time>2021-11-22T09:52:23.027Z</time>
      </trkpt>
      <trkpt lat="47.537461" lon="7.980118">
        <ele>331.161066</ele>
        <time>2021-11-22T09:52:26.036Z</time>
      </trkpt>
      <trkpt lat="47.537107" lon="7.981082">
        <ele>329.559862</ele>
        <time>2021-11-22T09:52:33.846Z</time>
      </trkpt>
      <trkpt lat="47.536959" lon="7.981602">
        <ele>328.736450</ele>
        <time>2021-11-22T09:52:37.686Z</time>
      </trkpt>
      <trkpt lat="47.536896" lon="7.981697">
        <ele>328.542144</ele>
        <time>2021-11-22T09:52:38.613Z</time>
      </trkpt>
      <trkpt lat="47.536842" lon="7.981878">
        <ele>328.241494</ele>
        <time>2021-11-22T09:52:39.947Z</time>
      </trkpt>
      <trkpt lat="47.536775" lon="7.982096">
        <ele>327.853415</ele>
        <time>2021-11-22T09:52:41.552Z</time>
      </trkpt>
      <trkpt lat="47.536764" lon="7.982225">
        <ele>327.642749</ele>
        <time>2021-11-22T09:52:42.446Z</time>
      </trkpt>
      <trkpt lat="47.536530" lon="7.982859">
        <ele>326.472061</ele>
        <time>2021-11-22T09:52:47.367Z</time>
      </trkpt>
      <trkpt lat="47.536410" lon="7.983244">
        <ele>325.785014</ele>
        <time>2021-11-22T09:52:50.351Z</time>
      </trkpt>
      <trkpt lat="47.536199" lon="7.983737">
        <ele>324.839268</ele>
        <time>2021-11-22T09:52:54.640Z</time>
      </trkpt>
      <trkpt lat="47.536026" lon="7.984206">
        <ele>324.047128</ele>
        <time>2021-11-22T09:52:58.939Z</time>
      </trkpt>
      <trkpt lat="47.535614" lon="7.985212">
        <ele>324.109417</ele>
        <time>2021-11-22T09:53:09.878Z</time>
      </trkpt>
      <trkpt lat="47.535270" lon="7.985985">
        <ele>324.158430</ele>
        <time>2021-11-22T09:53:20.100Z</time>
      </trkpt>
      <trkpt lat="47.534974" lon="7.986602">
        <ele>324.511112</ele>
        <time>2021-11-22T09:53:29.175Z</time>
      </trkpt>
      <trkpt lat="47.534590" lon="7.987330">
        <ele>325.766852</ele>
        <time>2021-11-22T09:53:43.164Z</time>
      </trkpt>
      <trkpt lat="47.534466" lon="7.987626">
        <ele>326.240354</ele>
        <time>2021-11-22T09:53:48.718Z</time>
      </trkpt>
      <trkpt lat="47.534363" lon="7.987895">
        <ele>326.660707</ele>
        <time>2021-11-22T09:53:54.374Z</time>
      </trkpt>
      <trkpt lat="47.534280" lon="7.987862">
        <ele>326.833726</ele>
        <time>2021-11-22T09:53:56.461Z</time>
      </trkpt>
      <trkpt lat="47.534072" lon="7.987749">
        <ele>327.279772</ele>
        <time>2021-11-22T09:54:02.537Z</time>
      </trkpt>
      <trkpt lat="47.533728" lon="7.987557">
        <ele>328.002263</ele>
        <time>2021-11-22T09:54:11.717Z</time>
      </trkpt>
      <trkpt lat="47.533587" lon="7.987464">
        <ele>328.287285</ele>
        <time>2021-11-22T09:54:14.822Z</time>
      </trkpt>
      <trkpt lat="47.533509" lon="7.987411">
        <ele>328.445754</ele>
        <time>2021-11-22T09:54:16.380Z</time>
      </trkpt>
      <trkpt lat="47.533465" lon="7.987384">
        <ele>328.533702</ele>
        <time>2021-11-22T09:54:17.477Z</time>
      </trkpt>
      <trkpt lat="47.533195" lon="7.987215">
        <ele>329.074980</ele>
        <time>2021-11-22T09:54:24.765Z</time>
      </trkpt>
      <trkpt lat="47.533142" lon="7.987165">
        <ele>329.191017</ele>
        <time>2021-11-22T09:54:26.028Z</time>
      </trkpt>
      <trkpt lat="47.533114" lon="7.987128">
        <ele>329.260309</ele>
        <time>2021-11-22T09:54:27.314Z</time>
      </trkpt>
      <trkpt lat="47.532879" lon="7.987447">
        <ele>329.848947</ele>
        <time>2021-11-22T09:54:34.639Z</time>
      </trkpt>
      <trkpt lat="47.532716" lon="7.987667">
        <ele>330.256174</ele>
        <time>2021-11-22T09:54:40.212Z</time>
      </trkpt>
      <trkpt lat="47.532621" lon="7.987826">
        <ele>330.520887</ele>
        <time>2021-11-22T09:54:42.669Z</time>
      </trkpt>
      <trkpt lat="47.532544" lon="7.987973">
        <ele>330.752852</ele>
        <time>2021-11-22T09:54:46.772Z</time>
      </trkpt>
      <trkpt lat="47.532464" lon="7.988171">
        <ele>331.040541</ele>
        <time>2021-11-22T09:54:48.764Z</time>
      </trkpt>
      <trkpt lat="47.532401" lon="7.988331">
        <ele>331.097470</ele>
        <time>2021-11-22T09:54:51.105Z</time>
      </trkpt>
      <trkpt lat="47.532373" lon="7.988399">
        <ele>331.075987</ele>
        <time>2021-11-22T09:54:53.376Z</time>
      </trkpt>
      <trkpt lat="47.532299" lon="7.988577">
        <ele>331.019605</ele>
        <time>2021-11-22T09:54:54.969Z</time>
      </trkpt>
      <trkpt lat="47.532014" lon="7.989225">
        <ele>330.811012</ele>
        <time>2021-11-22T09:55:01.485Z</time>
      </trkpt>
      <trkpt lat="47.531897" lon="7.989450">
        <ele>330.734411</ele>
        <time>2021-11-22T09:55:04.395Z</time>
      </trkpt>
      <trkpt lat="47.531823" lon="7.989607">
        <ele>330.682766</ele>
        <time>2021-11-22T09:55:05.757Z</time>
      </trkpt>
      <trkpt lat="47.531667" lon="7.989873">
        <ele>330.587733</ele>
        <time>2021-11-22T09:55:08.907Z</time>
      </trkpt>
      <trkpt lat="47.531363" lon="7.990436">
        <ele>330.401116</ele>
        <time>2021-11-22T09:55:14.829Z</time>
      </trkpt>
      <trkpt lat="47.530979" lon="7.991211">
        <ele>330.264147</ele>
        <time>2021-11-22T09:55:23.278Z</time>
      </trkpt>
      <trkpt lat="47.530933" lon="7.991310">
        <ele>330.247024</ele>
        <time>2021-11-22T09:55:24.263Z</time>
      </trkpt>
      <trkpt lat="47.530776" lon="7.991586">
        <ele>330.195602</ele>
        <time>2021-11-22T09:55:27.779Z</time>
      </trkpt>
      <trkpt lat="47.530495" lon="7.992103">
        <ele>330.101035</ele>
        <time>2021-11-22T09:55:33.707Z</time>
      </trkpt>
      <trkpt lat="47.530141" lon="7.992757">
        <ele>330.647966</ele>
        <time>2021-11-22T09:55:42.383Z</time>
      </trkpt>
      <trkpt lat="47.529350" lon="7.994228">
        <ele>334.045130</ele>
        <time>2021-11-22T09:56:18.287Z</time>
      </trkpt>
      <trkpt lat="47.529261" lon="7.994394">
        <ele>334.428059</ele>
        <time>2021-11-22T09:56:22.437Z</time>
      </trkpt>
      <trkpt lat="47.529180" lon="7.994531">
        <ele>334.757029</ele>
        <time>2021-11-22T09:56:25.899Z</time>
      </trkpt>
      <trkpt lat="47.528851" lon="7.994185">
        <ele>335.453435</ele>
        <time>2021-11-22T09:56:39.424Z</time>
      </trkpt>
      <trkpt lat="47.528522" lon="7.994788">
        <ele>336.314059</ele>
        <time>2021-11-22T09:56:55.913Z</time>
      </trkpt>
      <trkpt lat="47.527390" lon="7.996879">
        <ele>337.760720</ele>
        <time>2021-11-22T09:57:33.934Z</time>
      </trkpt>
      <trkpt lat="47.527239" lon="7.997118">
        <ele>337.751200</ele>
        <time>2021-11-22T09:57:37.614Z</time>
      </trkpt>
      <trkpt lat="47.527061" lon="7.997361">
        <ele>337.740772</ele>
        <time>2021-11-22T09:57:42.347Z</time>
      </trkpt>
      <trkpt lat="47.527005" lon="7.997436">
        <ele>337.737520</ele>
        <time>2021-11-22T09:57:43.714Z</time>
      </trkpt>
      <trkpt lat="47.526659" lon="7.997896">
        <ele>337.825249</ele>
        <time>2021-11-22T09:57:53.118Z</time>
      </trkpt>
      <trkpt lat="47.526462" lon="7.998465">
        <ele>338.226040</ele>
        <time>2021-11-22T09:58:02.720Z</time>
      </trkpt>
      <trkpt lat="47.526232" lon="7.998874">
        <ele>338.559656</ele>
        <time>2021-11-22T09:58:10.886Z</time>
      </trkpt>
      <trkpt lat="47.522812" lon="8.002772">
        <ele>344.823556</ele>
        <time>2021-11-22T10:00:04.768Z</time>
      </trkpt>
      <trkpt lat="47.522593" lon="8.003040">
        <ele>345.239930</ele>
        <time>2021-11-22T10:00:13.031Z</time>
      </trkpt>
      <trkpt lat="47.522286" lon="8.003405">
        <ele>345.708952</ele>
        <time>2021-11-22T10:00:24.331Z</time>
      </trkpt>
      <trkpt lat="47.521941" lon="8.003805">
        <ele>346.230942</ele>
        <time>2021-11-22T10:00:35.625Z</time>
      </trkpt>
      <trkpt lat="47.521691" lon="8.004044">
        <ele>346.585441</ele>
        <time>2021-11-22T10:00:43.340Z</time>
      </trkpt>
      <trkpt lat="47.521488" lon="8.004236">
        <ele>346.872396</ele>
        <time>2021-11-22T10:00:48.687Z</time>
      </trkpt>
      <trkpt lat="47.521214" lon="8.004538">
        <ele>347.233653</ele>
        <time>2021-11-22T10:00:56.533Z</time>
      </trkpt>
      <trkpt lat="47.521327" lon="8.004951">
        <ele>346.877060</ele>
        <time>2021-11-22T10:01:02.479Z</time>
      </trkpt>
      <trkpt lat="47.521277" lon="8.005104">
        <ele>346.741041</ele>
        <time>2021-11-22T10:01:04.612Z</time>
      </trkpt>
      <trkpt lat="47.520956" lon="8.005345">
        <ele>346.314564</ele>
        <time>2021-11-22T10:01:10.874Z</time>
      </trkpt>
      <trkpt lat="47.518926" lon="8.007732">
        <ele>342.479893</ele>
        <time>2021-11-22T10:01:51.850Z</time>
      </trkpt>
      <trkpt lat="47.518239" lon="8.008485">
        <ele>342.697423</ele>
        <time>2021-11-22T10:02:07.875Z</time>
      </trkpt>
      <trkpt lat="47.517851" lon="8.008946">
        <ele>343.135605</ele>
        <time>2021-11-22T10:02:20.087Z</time>
      </trkpt>
      <trkpt lat="47.517791" lon="8.009018">
        <ele>343.203631</ele>
        <time>2021-11-22T10:02:22.435Z</time>
      </trkpt>
      <trkpt lat="47.517615" lon="8.009232">
        <ele>343.404226</ele>
        <time>2021-11-22T10:02:28.163Z</time>
      </trkpt>
      <trkpt lat="47.517564" lon="8.009350">
        <ele>343.487565</ele>
        <time>2021-11-22T10:02:31.408Z</time>
      </trkpt>
      <trkpt lat="47.517508" lon="8.009440">
        <ele>343.560362</ele>
        <time>2021-11-22T10:02:33.755Z</time>
      </trkpt>
      <trkpt lat="47.517409" lon="8.009275">
        <ele>343.691657</ele>
        <time>2021-11-22T10:02:37.706Z</time>
      </trkpt>
      <trkpt lat="47.517345" lon="8.009165">
        <ele>343.940735</ele>
        <time>2021-11-22T10:02:41.098Z</time>
      </trkpt>
      <trkpt lat="47.516966" lon="8.008595">
        <ele>345.626352</ele>
        <time>2021-11-22T10:02:58.339Z</time>
      </trkpt>
      <trkpt lat="47.516886" lon="8.008468">
        <ele>345.992326</ele>
        <time>2021-11-22T10:03:01.923Z</time>
      </trkpt>
      <trkpt lat="47.516850" lon="8.008403">
        <ele>346.169471</ele>
        <time>2021-11-22T10:03:04.293Z</time>
      </trkpt>
      <trkpt lat="47.516778" lon="8.008407">
        <ele>346.394288</ele>
        <time>2021-11-22T10:03:06.965Z</time>
      </trkpt>
      <trkpt lat="47.516279" lon="8.008426">
        <ele>347.951808</ele>
        <time>2021-11-22T10:03:23.937Z</time>
      </trkpt>
      <trkpt lat="47.515777" lon="8.008451">
        <ele>349.459749</ele>
        <time>2021-11-22T10:03:41.293Z</time>
      </trkpt>
      <trkpt lat="47.514868" lon="8.008490">
        <ele>351.424383</ele>
        <time>2021-11-22T10:04:09.393Z</time>
      </trkpt>
      <trkpt lat="47.514604" lon="8.008601">
        <ele>352.017281</ele>
        <time>2021-11-22T10:04:17.018Z</time>
      </trkpt>
      <trkpt lat="47.514240" lon="8.009205">
        <ele>353.198442</ele>
        <time>2021-11-22T10:04:30.988Z</time>
      </trkpt>
      <trkpt lat="47.513914" lon="8.009618">
        <ele>353.283748</ele>
        <time>2021-11-22T10:04:40.766Z</time>
      </trkpt>
      <trkpt lat="47.513230" lon="8.010045">
        <ele>353.409643</ele>
        <time>2021-11-22T10:04:55.857Z</time>
      </trkpt>
      <trkpt lat="47.513001" lon="8.010158">
        <ele>353.450581</ele>
        <time>2021-11-22T10:05:00.395Z</time>
      </trkpt>
      <trkpt lat="47.512828" lon="8.010284">
        <ele>353.483279</ele>
        <time>2021-11-22T10:05:04.103Z</time>
      </trkpt>
      <trkpt lat="47.512231" lon="8.010689">
        <ele>353.925263</ele>
        <time>2021-11-22T10:05:16.389Z</time>
      </trkpt>
      <trkpt lat="47.511819" lon="8.010960">
        <ele>354.327663</ele>
        <time>2021-11-22T10:05:26.392Z</time>
      </trkpt>
      <trkpt lat="47.511743" lon="8.011016">
        <ele>354.403435</ele>
        <time>2021-11-22T10:05:28.571Z</time>
      </trkpt>
      <trkpt lat="47.511725" lon="8.011067">
        <ele>354.438126</ele>
        <time>2021-11-22T10:05:29.083Z</time>
      </trkpt>
      <trkpt lat="47.511369" lon="8.012112">
        <ele>355.155877</ele>
        <time>2021-11-22T10:05:46.801Z</time>
      </trkpt>
      <trkpt lat="47.511339" lon="8.012189">
        <ele>355.240137</ele>
        <time>2021-11-22T10:05:48.210Z</time>
      </trkpt>
      <trkpt lat="47.511240" lon="8.012453">
        <ele>355.526364</ele>
        <time>2021-11-22T10:05:53.500Z</time>
      </trkpt>
      <trkpt lat="47.511153" lon="8.012630">
        <ele>355.733866</ele>
        <time>2021-11-22T10:05:56.347Z</time>
      </trkpt>
      <trkpt lat="47.511060" lon="8.012793">
        <ele>355.936120</ele>
        <time>2021-11-22T10:06:00.189Z</time>
      </trkpt>
      <trkpt lat="47.510610" lon="8.013245">
        <ele>356.699265</ele>
        <time>2021-11-22T10:06:11.439Z</time>
      </trkpt>
      <trkpt lat="47.510195" lon="8.013657">
        <ele>357.400488</ele>
        <time>2021-11-22T10:06:21.609Z</time>
      </trkpt>
      <trkpt lat="47.510139" lon="8.013722">
        <ele>357.500351</ele>
        <time>2021-11-22T10:06:23.078Z</time>
      </trkpt>
      <trkpt lat="47.510028" lon="8.013857">
        <ele>357.609549</ele>
        <time>2021-11-22T10:06:25.023Z</time>
      </trkpt>
      <trkpt lat="47.509928" lon="8.014411">
        <ele>357.244298</ele>
        <time>2021-11-22T10:06:30.909Z</time>
      </trkpt>
      <trkpt lat="47.509891" lon="8.014585">
        <ele>357.128107</ele>
        <time>2021-11-22T10:06:32.623Z</time>
      </trkpt>
      <trkpt lat="47.509823" lon="8.014904">
        <ele>356.915043</ele>
        <time>2021-11-22T10:06:35.183Z</time>
      </trkpt>
      <trkpt lat="47.509799" lon="8.014989">
        <ele>356.856362</ele>
        <time>2021-11-22T10:06:35.965Z</time>
      </trkpt>
      <trkpt lat="47.509686" lon="8.015069">
        <ele>356.738249</ele>
        <time>2021-11-22T10:06:37.446Z</time>
      </trkpt>
      <trkpt lat="47.509612" lon="8.015079">
        <ele>356.668178</ele>
        <time>2021-11-22T10:06:38.233Z</time>
      </trkpt>
      <trkpt lat="47.509546" lon="8.015060">
        <ele>356.604776</ele>
        <time>2021-11-22T10:06:38.935Z</time>
      </trkpt>
      <trkpt lat="47.509444" lon="8.014982">
        <ele>356.496519</ele>
        <time>2021-11-22T10:06:40.314Z</time>
      </trkpt>
      <trkpt lat="47.509142" lon="8.014737">
        <ele>356.171784</ele>
        <time>2021-11-22T10:06:44.138Z</time>
      </trkpt>
      <trkpt lat="47.508749" lon="8.014436">
        <ele>355.775816</ele>
        <time>2021-11-22T10:06:49.364Z</time>
      </trkpt>
      <trkpt lat="47.508646" lon="8.014383">
        <ele>355.684150</ele>
        <time>2021-11-22T10:06:50.592Z</time>
      </trkpt>
      <trkpt lat="47.508562" lon="8.014341">
        <ele>355.609618</ele>
        <time>2021-11-22T10:06:51.606Z</time>
      </trkpt>
      <trkpt lat="47.508375" lon="8.014403">
        <ele>355.448525</ele>
        <time>2021-11-22T10:06:54.207Z</time>
      </trkpt>
      <trkpt lat="47.508333" lon="8.014419">
        <ele>355.412068</ele>
        <time>2021-11-22T10:06:54.681Z</time>
      </trkpt>
      <trkpt lat="47.508281" lon="8.014277">
        <ele>355.320349</ele>
        <time>2021-11-22T10:06:55.936Z</time>
      </trkpt>
      <trkpt lat="47.508214" lon="8.014183">
        <ele>355.242752</ele>
        <time>2021-11-22T10:06:57.194Z</time>
      </trkpt>
      <trkpt lat="47.508075" lon="8.014054">
        <ele>355.104842</ele>
        <time>2021-11-22T10:06:59.264Z</time>
      </trkpt>
      <trkpt lat="47.508011" lon="8.013995">
        <ele>355.041463</ele>
        <time>2021-11-22T10:07:00.238Z</time>
      </trkpt>
      <trkpt lat="47.507595" lon="8.013616">
        <ele>354.630844</ele>
        <time>2021-11-22T10:07:06.642Z</time>
      </trkpt>
      <trkpt lat="47.507559" lon="8.013585">
        <ele>354.595833</ele>
        <time>2021-11-22T10:07:07.271Z</time>
      </trkpt>
      <trkpt lat="47.507231" lon="8.013292">
        <ele>354.355583</ele>
        <time>2021-11-22T10:07:12.392Z</time>
      </trkpt>
      <trkpt lat="47.507191" lon="8.013279">
        <ele>354.338241</ele>
        <time>2021-11-22T10:07:12.937Z</time>
      </trkpt>
      <trkpt lat="47.507106" lon="8.013288">
        <ele>354.302155</ele>
        <time>2021-11-22T10:07:14.069Z</time>
      </trkpt>
      <trkpt lat="47.507084" lon="8.013290">
        <ele>354.292821</ele>
        <time>2021-11-22T10:07:14.360Z</time>
      </trkpt>
      <trkpt lat="47.507038" lon="8.013279">
        <ele>354.273090</ele>
        <time>2021-11-22T10:07:15.061Z</time>
      </trkpt>
      <trkpt lat="47.507007" lon="8.013263">
        <ele>354.259188</ele>
        <time>2021-11-22T10:07:15.514Z</time>
      </trkpt>
      <trkpt lat="47.506989" lon="8.013246">
        <ele>354.250146</ele>
        <time>2021-11-22T10:07:15.827Z</time>
      </trkpt>
      <trkpt lat="47.506955" lon="8.013213">
        <ele>354.232930</ele>
        <time>2021-11-22T10:07:16.437Z</time>
      </trkpt>
      <trkpt lat="47.506929" lon="8.013191">
        <ele>354.220249</ele>
        <time>2021-11-22T10:07:16.912Z</time>
      </trkpt>
      <trkpt lat="47.506890" lon="8.013159">
        <ele>354.201367</ele>
        <time>2021-11-22T10:07:17.564Z</time>
      </trkpt>
      <trkpt lat="47.506825" lon="8.013107">
        <ele>354.170080</ele>
        <time>2021-11-22T10:07:18.587Z</time>
      </trkpt>
      <trkpt lat="47.506760" lon="8.013057">
        <ele>354.139061</ele>
        <time>2021-11-22T10:07:19.591Z</time>
      </trkpt>
      <trkpt lat="47.506697" lon="8.013001">
        <ele>354.107943</ele>
        <time>2021-11-22T10:07:20.595Z</time>
      </trkpt>
      <trkpt lat="47.506663" lon="8.012973">
        <ele>354.091468</ele>
        <time>2021-11-22T10:07:21.168Z</time>
      </trkpt>
      <trkpt lat="47.506633" lon="8.012949">
        <ele>354.077028</ele>
        <time>2021-11-22T10:07:21.663Z</time>
      </trkpt>
      <trkpt lat="47.506533" lon="8.012868">
        <ele>354.028757</ele>
        <time>2021-11-22T10:07:23.189Z</time>
      </trkpt>
      <trkpt lat="47.506492" lon="8.012798">
        <ele>354.002255</ele>
        <time>2021-11-22T10:07:24.071Z</time>
      </trkpt>
      <trkpt lat="47.506472" lon="8.012743">
        <ele>353.984387</ele>
        <time>2021-11-22T10:07:24.582Z</time>
      </trkpt>
      <trkpt lat="47.506389" lon="8.012514">
        <ele>353.910049</ele>
        <time>2021-11-22T10:07:26.830Z</time>
      </trkpt>
      <trkpt lat="47.506346" lon="8.012464">
        <ele>353.886894</ele>
        <time>2021-11-22T10:07:27.551Z</time>
      </trkpt>
      <trkpt lat="47.506308" lon="8.012429">
        <ele>353.867943</ele>
        <time>2021-11-22T10:07:28.134Z</time>
      </trkpt>
      <trkpt lat="47.506101" lon="8.012240">
        <ele>353.764955</ele>
        <time>2021-11-22T10:07:31.209Z</time>
      </trkpt>
      <trkpt lat="47.505808" lon="8.011926">
        <ele>353.829564</ele>
        <time>2021-11-22T10:07:35.836Z</time>
      </trkpt>
      <trkpt lat="47.505388" lon="8.011390">
        <ele>354.379491</ele>
        <time>2021-11-22T10:07:44.505Z</time>
      </trkpt>
      <trkpt lat="47.505237" lon="8.011270">
        <ele>354.549453</ele>
        <time>2021-11-22T10:07:47.486Z</time>
      </trkpt>
      <trkpt lat="47.504446" lon="8.010688">
        <ele>355.425445</ele>
        <time>2021-11-22T10:08:06.462Z</time>
      </trkpt>
      <trkpt lat="47.504256" lon="8.010566">
        <ele>355.898198</ele>
        <time>2021-11-22T10:08:11.556Z</time>
      </trkpt>
      <trkpt lat="47.504178" lon="8.010516">
        <ele>356.114941</ele>
        <time>2021-11-22T10:08:13.757Z</time>
      </trkpt>
      <trkpt lat="47.504018" lon="8.010447">
        <ele>356.539891</ele>
        <time>2021-11-22T10:08:18.646Z</time>
      </trkpt>
      <trkpt lat="47.503467" lon="8.010296">
        <ele>357.968782</ele>
        <time>2021-11-22T10:08:32.510Z</time>
      </trkpt>
      <trkpt lat="47.502991" lon="8.010405">
        <ele>359.196991</ele>
        <time>2021-11-22T10:08:45.085Z</time>
      </trkpt>
      <trkpt lat="47.502959" lon="8.010415">
        <ele>359.280387</ele>
        <time>2021-11-22T10:08:46.700Z</time>
      </trkpt>
      <trkpt lat="47.502773" lon="8.009928">
        <ele>360.162293</ele>
        <time>2021-11-22T10:08:56.496Z</time>
      </trkpt>
      <trkpt lat="47.502267" lon="8.008979">
        <ele>361.380105</ele>
        <time>2021-11-22T10:09:13.927Z</time>
      </trkpt>
      <trkpt lat="47.502158" lon="8.008808">
        <ele>361.616929</ele>
        <time>2021-11-22T10:09:16.959Z</time>
      </trkpt>
      <trkpt lat="47.502062" lon="8.008650">
        <ele>361.830987</ele>
        <time>2021-11-22T10:09:20.345Z</time>
      </trkpt>
      <trkpt lat="47.501943" lon="8.008353">
        <ele>362.178822</ele>
        <time>2021-11-22T10:09:24.570Z</time>
      </trkpt>
      <trkpt lat="47.501537" lon="8.007308">
        <ele>362.965042</ele>
        <time>2021-11-22T10:09:38.807Z</time>
      </trkpt>
      <trkpt lat="47.501496" lon="8.007247">
        <ele>362.995847</ele>
        <time>2021-11-22T10:09:39.838Z</time>
      </trkpt>
      <trkpt lat="47.501293" lon="8.006936">
        <ele>363.150662</ele>
        <time>2021-11-22T10:09:44.633Z</time>
      </trkpt>
      <trkpt lat="47.501276" lon="8.006911">
        <ele>363.163360</ele>
        <time>2021-11-22T10:09:45.009Z</time>
      </trkpt>
      <trkpt lat="47.500997" lon="8.006551">
        <ele>363.359493</ele>
        <time>2021-11-22T10:09:50.754Z</time>
      </trkpt>
      <trkpt lat="47.500764" lon="8.006290">
        <ele>363.514333</ele>
        <time>2021-11-22T10:09:55.237Z</time>
      </trkpt>
      <trkpt lat="47.500647" lon="8.006180">
        <ele>363.587782</ele>
        <time>2021-11-22T10:09:58.394Z</time>
      </trkpt>
      <trkpt lat="47.500540" lon="8.006079">
        <ele>363.655031</ele>
        <time>2021-11-22T10:10:00.063Z</time>
      </trkpt>
      <trkpt lat="47.500310" lon="8.005852">
        <ele>363.923788</ele>
        <time>2021-11-22T10:10:05.057Z</time>
      </trkpt>
      <trkpt lat="47.500252" lon="8.005784">
        <ele>364.003156</ele>
        <time>2021-11-22T10:10:06.223Z</time>
      </trkpt>
      <trkpt lat="47.500207" lon="8.005727">
        <ele>364.066688</ele>
        <time>2021-11-22T10:10:07.112Z</time>
      </trkpt>
      <trkpt lat="47.500009" lon="8.005488">
        <ele>364.340748</ele>
        <time>2021-11-22T10:10:12.049Z</time>
      </trkpt>
      <trkpt lat="47.499991" lon="8.005468">
        <ele>364.364891</ele>
        <time>2021-11-22T10:10:12.408Z</time>
      </trkpt>
      <trkpt lat="47.499880" lon="8.005358">
        <ele>364.508181</ele>
        <time>2021-11-22T10:10:14.795Z</time>
      </trkpt>
      <trkpt lat="47.499856" lon="8.005338">
        <ele>364.537725</ele>
        <time>2021-11-22T10:10:15.284Z</time>
      </trkpt>
      <trkpt lat="47.499770" lon="8.005268">
        <ele>364.643004</ele>
        <time>2021-11-22T10:10:18.036Z</time>
      </trkpt>
      <trkpt lat="47.499523" lon="8.005078">
        <ele>364.941600</ele>
        <time>2021-11-22T10:10:22.767Z</time>
      </trkpt>
      <trkpt lat="47.499496" lon="8.005059">
        <ele>364.973669</ele>
        <time>2021-11-22T10:10:24.114Z</time>
      </trkpt>
      <trkpt lat="47.499409" lon="8.005000">
        <ele>365.076321</ele>
        <time>2021-11-22T10:10:25.572Z</time>
      </trkpt>
      <trkpt lat="47.499183" lon="8.004875">
        <ele>365.335120</ele>
        <time>2021-11-22T10:10:30.135Z</time>
      </trkpt>
      <trkpt lat="47.499012" lon="8.004762">
        <ele>365.535999</ele>
        <time>2021-11-22T10:10:33.805Z</time>
      </trkpt>
      <trkpt lat="47.498965" lon="8.004710">
        <ele>365.598943</ele>
        <time>2021-11-22T10:10:34.968Z</time>
      </trkpt>
      <trkpt lat="47.498898" lon="8.004636">
        <ele>365.737101</ele>
        <time>2021-11-22T10:10:36.629Z</time>
      </trkpt>
      <trkpt lat="47.498753" lon="8.004410">
        <ele>366.105028</ele>
        <time>2021-11-22T10:10:41.116Z</time>
      </trkpt>
      <trkpt lat="47.498698" lon="8.004313">
        <ele>366.254521</ele>
        <time>2021-11-22T10:10:43.011Z</time>
      </trkpt>
      <trkpt lat="47.498450" lon="8.003874">
        <ele>366.930060</ele>
        <time>2021-11-22T10:10:51.805Z</time>
      </trkpt>
      <trkpt lat="47.498213" lon="8.003454">
        <ele>367.576066</ele>
        <time>2021-11-22T10:10:59.998Z</time>
      </trkpt>
      <trkpt lat="47.498166" lon="8.003383">
        <ele>367.693409</ele>
        <time>2021-11-22T10:11:01.427Z</time>
      </trkpt>
      <trkpt lat="47.498072" lon="8.003250">
        <ele>367.920630</ele>
        <time>2021-11-22T10:11:04.174Z</time>
      </trkpt>
      <trkpt lat="47.497951" lon="8.003094">
        <ele>368.201015</ele>
        <time>2021-11-22T10:11:08.009Z</time>
      </trkpt>
      <trkpt lat="47.497607" lon="8.002710">
        <ele>368.950070</ele>
        <time>2021-11-22T10:11:17.410Z</time>
      </trkpt>
      <trkpt lat="47.497540" lon="8.002634">
        <ele>369.094756</ele>
        <time>2021-11-22T10:11:19.268Z</time>
      </trkpt>
      <trkpt lat="47.497390" lon="8.002409">
        <ele>369.460807</ele>
        <time>2021-11-22T10:11:24.004Z</time>
      </trkpt>
      <trkpt lat="47.497307" lon="8.002279">
        <ele>369.667937</ele>
        <time>2021-11-22T10:11:26.585Z</time>
      </trkpt>
      <trkpt lat="47.497264" lon="8.002219">
        <ele>369.769228</ele>
        <time>2021-11-22T10:11:28.128Z</time>
      </trkpt>
      <trkpt lat="47.497207" lon="8.002132">
        <ele>369.909570</ele>
        <time>2021-11-22T10:11:29.756Z</time>
      </trkpt>
      <trkpt lat="47.496932" lon="8.001715">
        <ele>370.584384</ele>
        <time>2021-11-22T10:11:38.871Z</time>
      </trkpt>
      <trkpt lat="47.496908" lon="8.001680">
        <ele>370.642134</ele>
        <time>2021-11-22T10:11:39.616Z</time>
      </trkpt>
      <trkpt lat="47.496861" lon="8.001608">
        <ele>370.758073</ele>
        <time>2021-11-22T10:11:41.128Z</time>
      </trkpt>
      <trkpt lat="47.496820" lon="8.001547">
        <ele>370.857716</ele>
        <time>2021-11-22T10:11:42.443Z</time>
      </trkpt>
      <trkpt lat="47.496585" lon="8.001187">
        <ele>371.437414</ele>
        <time>2021-11-22T10:11:49.543Z</time>
      </trkpt>
      <trkpt lat="47.496535" lon="8.001108">
        <ele>371.562771</ele>
        <time>2021-11-22T10:11:51.102Z</time>
      </trkpt>
      <trkpt lat="47.496533" lon="8.001104">
        <ele>371.568534</ele>
        <time>2021-11-22T10:11:51.175Z</time>
      </trkpt>
      <trkpt lat="47.496517" lon="8.001077">
        <ele>371.610124</ele>
        <time>2021-11-22T10:11:51.975Z</time>
      </trkpt>
      <trkpt lat="47.496429" lon="8.000925">
        <ele>371.839060</ele>
        <time>2021-11-22T10:11:54.305Z</time>
      </trkpt>
      <trkpt lat="47.496280" lon="8.000664">
        <ele>371.991902</ele>
        <time>2021-11-22T10:11:59.167Z</time>
      </trkpt>
      <trkpt lat="47.496272" lon="8.000651">
        <ele>371.999768</ele>
        <time>2021-11-22T10:11:59.378Z</time>
      </trkpt>
      <trkpt lat="47.496234" lon="8.000584">
        <ele>372.038897</ele>
        <time>2021-11-22T10:12:00.268Z</time>
      </trkpt>
      <trkpt lat="47.496011" lon="8.000286">
        <ele>372.237806</ele>
        <time>2021-11-22T10:12:05.962Z</time>
      </trkpt>
      <trkpt lat="47.495718" lon="8.000005">
        <ele>372.468950</ele>
        <time>2021-11-22T10:12:12.118Z</time>
      </trkpt>
      <trkpt lat="47.495430" lon="7.999752">
        <ele>372.690676</ele>
        <time>2021-11-22T10:12:17.642Z</time>
      </trkpt>
      <trkpt lat="47.495197" lon="7.999589">
        <ele>372.861297</ele>
        <time>2021-11-22T10:12:21.830Z</time>
      </trkpt>
      <trkpt lat="47.494812" lon="7.999457">
        <ele>373.071755</ele>
        <time>2021-11-22T10:12:27.959Z</time>
      </trkpt>
      <trkpt lat="47.494643" lon="7.999430">
        <ele>373.123594</ele>
        <time>2021-11-22T10:12:30.414Z</time>
      </trkpt>
      <trkpt lat="47.494489" lon="7.999417">
        <ele>373.170636</ele>
        <time>2021-11-22T10:12:32.509Z</time>
      </trkpt>
      <trkpt lat="47.494272" lon="7.999381">
        <ele>373.237229</ele>
        <time>2021-11-22T10:12:35.514Z</time>
      </trkpt>
      <trkpt lat="47.493961" lon="7.999292">
        <ele>373.333831</ele>
        <time>2021-11-22T10:12:40.173Z</time>
      </trkpt>
      <trkpt lat="47.493937" lon="7.999285">
        <ele>373.341291</ele>
        <time>2021-11-22T10:12:40.659Z</time>
      </trkpt>
      <trkpt lat="47.493742" lon="7.999216">
        <ele>373.402436</ele>
        <time>2021-11-22T10:12:43.833Z</time>
      </trkpt>
      <trkpt lat="47.493603" lon="7.999152">
        <ele>373.446831</ele>
        <time>2021-11-22T10:12:46.417Z</time>
      </trkpt>
      <trkpt lat="47.493614" lon="7.999095">
        <ele>373.459046</ele>
        <time>2021-11-22T10:12:47.089Z</time>
      </trkpt>
      <trkpt lat="47.493634" lon="7.998744">
        <ele>373.531629</ele>
        <time>2021-11-22T10:12:51.019Z</time>
      </trkpt>
      <trkpt lat="47.493506" lon="7.998323">
        <ele>373.743747</ele>
        <time>2021-11-22T10:12:56.981Z</time>
      </trkpt>
      <trkpt lat="47.493473" lon="7.998227">
        <ele>373.817681</ele>
        <time>2021-11-22T10:12:58.388Z</time>
      </trkpt>
      <trkpt lat="47.493432" lon="7.998154">
        <ele>373.882840</ele>
        <time>2021-11-22T10:12:59.843Z</time>
      </trkpt>
      <trkpt lat="47.493360" lon="7.998025">
        <ele>373.997692</ele>
        <time>2021-11-22T10:13:01.997Z</time>
      </trkpt>
      <trkpt lat="47.493293" lon="7.997765">
        <ele>374.188700</ele>
        <time>2021-11-22T10:13:05.528Z</time>
      </trkpt>
      <trkpt lat="47.493293" lon="7.997679">
        <ele>374.247733</ele>
        <time>2021-11-22T10:13:06.843Z</time>
      </trkpt>
      <trkpt lat="47.493330" lon="7.997491">
        <ele>374.382143</ele>
        <time>2021-11-22T10:13:09.310Z</time>
      </trkpt>
      <trkpt lat="47.493376" lon="7.997354">
        <ele>374.487153</ele>
        <time>2021-11-22T10:13:11.131Z</time>
      </trkpt>
      <trkpt lat="47.493439" lon="7.997189">
        <ele>374.617245</ele>
        <time>2021-11-22T10:13:13.658Z</time>
      </trkpt>
      <trkpt lat="47.493629" lon="7.996681">
        <ele>375.015804</ele>
        <time>2021-11-22T10:13:21.006Z</time>
      </trkpt>
      <trkpt lat="47.493684" lon="7.996562">
        <ele>375.114769</ele>
        <time>2021-11-22T10:13:22.956Z</time>
      </trkpt>
      <trkpt lat="47.493652" lon="7.996488">
        <ele>375.175076</ele>
        <time>2021-11-22T10:13:24.062Z</time>
      </trkpt>
      <trkpt lat="47.493617" lon="7.996352">
        <ele>375.274971</ele>
        <time>2021-11-22T10:13:25.824Z</time>
      </trkpt>
      <trkpt lat="47.493567" lon="7.996156">
        <ele>375.418544</ele>
        <time>2021-11-22T10:13:28.576Z</time>
      </trkpt>
      <trkpt lat="47.493567" lon="7.996156">
        <ele>375.418544</ele>
        <time>2021-11-22T10:13:28.768Z</time>
      </trkpt>
      <trkpt lat="47.493567" lon="7.996156">
        <ele>375.418544</ele>
        <time>2021-11-22T10:13:28.841Z</time>
      </trkpt>
      <trkpt lat="47.493524" lon="7.995985">
        <ele>375.541823</ele>
        <time>2021-11-22T10:13:31.203Z</time>
      </trkpt>
      <trkpt lat="47.493430" lon="7.995894">
        <ele>375.654144</ele>
        <time>2021-11-22T10:13:33.202Z</time>
      </trkpt>
      <trkpt lat="47.492867" lon="7.995700">
        <ele>376.232189</ele>
        <time>2021-11-22T10:13:44.334Z</time>
      </trkpt>
      <trkpt lat="47.492390" lon="7.995213">
        <ele>376.811666</ele>
        <time>2021-11-22T10:13:55.222Z</time>
      </trkpt>
      <trkpt lat="47.492344" lon="7.995171">
        <ele>376.865714</ele>
        <time>2021-11-22T10:13:56.227Z</time>
      </trkpt>
      <trkpt lat="47.492271" lon="7.995104">
        <ele>376.951610</ele>
        <time>2021-11-22T10:13:57.842Z</time>
      </trkpt>
      <trkpt lat="47.492156" lon="7.994971">
        <ele>377.097555</ele>
        <time>2021-11-22T10:14:00.371Z</time>
      </trkpt>
      <trkpt lat="47.491996" lon="7.994807">
        <ele>377.303335</ele>
        <time>2021-11-22T10:14:05.051Z</time>
      </trkpt>
      <trkpt lat="47.491759" lon="7.994592">
        <ele>377.615862</ele>
        <time>2021-11-22T10:14:11.546Z</time>
      </trkpt>
      <trkpt lat="47.491577" lon="7.994479">
        <ele>377.837757</ele>
        <time>2021-11-22T10:14:16.303Z</time>
      </trkpt>
      <trkpt lat="47.491370" lon="7.994298">
        <ele>378.108067</ele>
        <time>2021-11-22T10:14:22.233Z</time>
      </trkpt>
      <trkpt lat="47.490495" lon="7.993473">
        <ele>379.281993</ele>
        <time>2021-11-22T10:14:48.463Z</time>
      </trkpt>
      <trkpt lat="47.489739" lon="7.992457">
        <ele>380.602765</ele>
        <time>2021-11-22T10:15:14.412Z</time>
      </trkpt>
      <trkpt lat="47.489640" lon="7.992334">
        <ele>380.769947</ele>
        <time>2021-11-22T10:15:17.680Z</time>
      </trkpt>
      <trkpt lat="47.489544" lon="7.992214">
        <ele>380.932472</ele>
        <time>2021-11-22T10:15:20.994Z</time>
      </trkpt>
      <trkpt lat="47.489090" lon="7.991643">
        <ele>381.732557</ele>
        <time>2021-11-22T10:15:36.019Z</time>
      </trkpt>
      <trkpt lat="47.488771" lon="7.991233">
        <ele>382.384915</ele>
        <time>2021-11-22T10:15:46.781Z</time>
      </trkpt>
      <trkpt lat="47.488698" lon="7.991149">
        <ele>382.527690</ele>
        <time>2021-11-22T10:15:49.264Z</time>
      </trkpt>
      <trkpt lat="47.487359" lon="7.989771">
        <ele>385.080616</ele>
        <time>2021-11-22T10:16:32.877Z</time>
      </trkpt>
      <trkpt lat="47.487298" lon="7.989709">
        <ele>385.200405</ele>
        <time>2021-11-22T10:16:35.187Z</time>
      </trkpt>
      <trkpt lat="47.487127" lon="7.989547">
        <ele>385.529069</ele>
        <time>2021-11-22T10:16:40.347Z</time>
      </trkpt>
      <trkpt lat="47.486511" lon="7.989012">
        <ele>386.685248</ele>
        <time>2021-11-22T10:16:59.555Z</time>
      </trkpt>
      <trkpt lat="47.486162" lon="7.988596">
        <ele>387.400565</ele>
        <time>2021-11-22T10:17:11.484Z</time>
      </trkpt>
      <trkpt lat="47.485848" lon="7.988106">
        <ele>388.095688</ele>
        <time>2021-11-22T10:17:23.636Z</time>
      </trkpt>
      <trkpt lat="47.485496" lon="7.987549">
        <ele>388.880709</ele>
        <time>2021-11-22T10:17:36.564Z</time>
      </trkpt>
      <trkpt lat="47.484679" lon="7.986270">
        <ele>390.920879</ele>
        <time>2021-11-22T10:18:08.067Z</time>
      </trkpt>
      <trkpt lat="47.484546" lon="7.985963">
        <ele>391.416536</ele>
        <time>2021-11-22T10:18:15.164Z</time>
      </trkpt>
      <trkpt lat="47.484451" lon="7.985647">
        <ele>391.886628</ele>
        <time>2021-11-22T10:18:21.949Z</time>
      </trkpt>
      <trkpt lat="47.484219" lon="7.985842">
        <ele>392.423267</ele>
        <time>2021-11-22T10:18:29.861Z</time>
      </trkpt>
      <trkpt lat="47.484091" lon="7.985948">
        <ele>392.718286</ele>
        <time>2021-11-22T10:18:34.090Z</time>
      </trkpt>
      <trkpt lat="47.484049" lon="7.985980">
        <ele>392.813300</ele>
        <time>2021-11-22T10:18:35.502Z</time>
      </trkpt>
      <trkpt lat="47.483826" lon="7.986159">
        <ele>393.323557</ele>
        <time>2021-11-22T10:18:42.927Z</time>
      </trkpt>
      <trkpt lat="47.483550" lon="7.986378">
        <ele>393.959071</ele>
        <time>2021-11-22T10:18:52.109Z</time>
      </trkpt>
      <trkpt lat="47.483462" lon="7.986151">
        <ele>394.320388</ele>
        <time>2021-11-22T10:18:56.128Z</time>
      </trkpt>
      <trkpt lat="47.483382" lon="7.985915">
        <ele>394.684920</ele>
        <time>2021-11-22T10:19:00.339Z</time>
      </trkpt>
      <trkpt lat="47.483274" lon="7.985553">
        <ele>395.231262</ele>
        <time>2021-11-22T10:19:06.388Z</time>
      </trkpt>
      <trkpt lat="47.483173" lon="7.985106">
        <ele>395.882007</ele>
        <time>2021-11-22T10:19:13.721Z</time>
      </trkpt>
      <trkpt lat="47.483153" lon="7.984996">
        <ele>396.039282</ele>
        <time>2021-11-22T10:19:15.540Z</time>
      </trkpt>
      <trkpt lat="47.483130" lon="7.984873">
        <ele>396.215487</ele>
        <time>2021-11-22T10:19:17.515Z</time>
      </trkpt>
      <trkpt lat="47.483001" lon="7.984129">
        <ele>397.274598</ele>
        <time>2021-11-22T10:19:29.712Z</time>
      </trkpt>
      <trkpt lat="47.482897" lon="7.983529">
        <ele>397.864679</ele>
        <time>2021-11-22T10:19:38.471Z</time>
      </trkpt>
      <trkpt lat="47.482840" lon="7.983205">
        <ele>398.183620</ele>
        <time>2021-11-22T10:19:43.073Z</time>
      </trkpt>
      <trkpt lat="47.482729" lon="7.982770">
        <ele>398.626573</ele>
        <time>2021-11-22T10:19:49.155Z</time>
      </trkpt>
      <trkpt lat="47.482704" lon="7.982687">
        <ele>398.713140</ele>
        <time>2021-11-22T10:19:50.346Z</time>
      </trkpt>
      <trkpt lat="47.482704" lon="7.982687">
        <ele>398.713140</ele>
        <time>2021-11-22T10:19:50.367Z</time>
      </trkpt>
      <trkpt lat="47.482652" lon="7.982524">
        <ele>398.884852</ele>
        <time>2021-11-22T10:19:52.507Z</time>
      </trkpt>
      <trkpt lat="47.482594" lon="7.982339">
        <ele>399.079131</ele>
        <time>2021-11-22T10:19:55.311Z</time>
      </trkpt>
      <trkpt lat="47.482563" lon="7.982231">
        <ele>399.190911</ele>
        <time>2021-11-22T10:19:56.917Z</time>
      </trkpt>
      <trkpt lat="47.482472" lon="7.981944">
        <ele>399.492916</ele>
        <time>2021-11-22T10:20:00.970Z</time>
      </trkpt>
      <trkpt lat="47.482458" lon="7.981897">
        <ele>399.541847</ele>
        <time>2021-11-22T10:20:01.716Z</time>
      </trkpt>
      <trkpt lat="47.482159" lon="7.980898">
        <ele>400.637401</ele>
        <time>2021-11-22T10:20:16.979Z</time>
      </trkpt>
      <trkpt lat="47.482099" lon="7.980698">
        <ele>400.860559</ele>
        <time>2021-11-22T10:20:20.073Z</time>
      </trkpt>
      <trkpt lat="47.482025" lon="7.980480">
        <ele>401.109351</ele>
        <time>2021-11-22T10:20:23.459Z</time>
      </trkpt>
      <trkpt lat="47.481977" lon="7.980334">
        <ele>401.274930</ele>
        <time>2021-11-22T10:20:25.871Z</time>
      </trkpt>
      <trkpt lat="47.481757" lon="7.979824">
        <ele>401.891966</ele>
        <time>2021-11-22T10:20:34.421Z</time>
      </trkpt>
      <trkpt lat="47.481673" lon="7.979611">
        <ele>402.143471</ele>
        <time>2021-11-22T10:20:37.939Z</time>
      </trkpt>
      <trkpt lat="47.481627" lon="7.979494">
        <ele>402.281514</ele>
        <time>2021-11-22T10:20:39.945Z</time>
      </trkpt>
      <trkpt lat="47.481508" lon="7.979190">
        <ele>402.683910</ele>
        <time>2021-11-22T10:20:44.663Z</time>
      </trkpt>
      <trkpt lat="47.481417" lon="7.978989">
        <ele>403.022350</ele>
        <time>2021-11-22T10:20:48.387Z</time>
      </trkpt>
      <trkpt lat="47.481331" lon="7.978796">
        <ele>403.345741</ele>
        <time>2021-11-22T10:20:51.588Z</time>
      </trkpt>
      <trkpt lat="47.481075" lon="7.978353">
        <ele>404.161116</ele>
        <time>2021-11-22T10:21:00.561Z</time>
      </trkpt>
      <trkpt lat="47.481057" lon="7.978315">
        <ele>404.226032</ele>
        <time>2021-11-22T10:21:01.666Z</time>
      </trkpt>
      <trkpt lat="47.480540" lon="7.977249">
        <ele>406.061520</ele>
        <time>2021-11-22T10:21:22.818Z</time>
      </trkpt>
      <trkpt lat="47.480294" lon="7.976615">
        <ele>407.463658</ele>
        <time>2021-11-22T10:21:34.861Z</time>
      </trkpt>
      <trkpt lat="47.480258" lon="7.976521">
        <ele>407.683071</ele>
        <time>2021-11-22T10:21:36.950Z</time>
      </trkpt>
      <trkpt lat="47.480172" lon="7.976321">
        <ele>408.164466</ele>
        <time>2021-11-22T10:21:40.361Z</time>
      </trkpt>
      <trkpt lat="47.480019" lon="7.976061">
        <ele>408.864572</ele>
        <time>2021-11-22T10:21:46.100Z</time>
      </trkpt>
      <trkpt lat="47.479744" lon="7.975611">
        <ele>410.096623</ele>
        <time>2021-11-22T10:21:56.625Z</time>
      </trkpt>
      <trkpt lat="47.479662" lon="7.975458">
        <ele>410.493175</ele>
        <time>2021-11-22T10:22:00.643Z</time>
      </trkpt>
      <trkpt lat="47.479650" lon="7.975428">
        <ele>410.563970</ele>
        <time>2021-11-22T10:22:01.248Z</time>
      </trkpt>
      <trkpt lat="47.479548" lon="7.975187">
        <ele>411.141442</ele>
        <time>2021-11-22T10:22:07.030Z</time>
      </trkpt>
      <trkpt lat="47.479521" lon="7.975122">
        <ele>411.296384</ele>
        <time>2021-11-22T10:22:08.687Z</time>
      </trkpt>
      <trkpt lat="47.479256" lon="7.974388">
        <ele>413.593392</ele>
        <time>2021-11-22T10:22:26.907Z</time>
      </trkpt>
      <trkpt lat="47.479198" lon="7.974266">
        <ele>414.033776</ele>
        <time>2021-11-22T10:22:30.618Z</time>
      </trkpt>
      <trkpt lat="47.479172" lon="7.974215">
        <ele>414.222384</ele>
        <time>2021-11-22T10:22:32.392Z</time>
      </trkpt>
      <trkpt lat="47.479095" lon="7.974066">
        <ele>414.776161</ele>
        <time>2021-11-22T10:22:36.670Z</time>
      </trkpt>
      <trkpt lat="47.479061" lon="7.974014">
        <ele>414.989774</ele>
        <time>2021-11-22T10:22:37.869Z</time>
      </trkpt>
      <trkpt lat="47.478952" lon="7.973850">
        <ele>415.668876</ele>
        <time>2021-11-22T10:22:42.945Z</time>
      </trkpt>
      <trkpt lat="47.478606" lon="7.973396">
        <ele>417.689095</ele>
        <time>2021-11-22T10:22:58.709Z</time>
      </trkpt>
      <trkpt lat="47.478494" lon="7.973191">
        <ele>418.467372</ele>
        <time>2021-11-22T10:23:03.584Z</time>
      </trkpt>
      <trkpt lat="47.478424" lon="7.973015">
        <ele>419.070307</ele>
        <time>2021-11-22T10:23:09.187Z</time>
      </trkpt>
      <trkpt lat="47.478295" lon="7.972689">
        <ele>419.949321</ele>
        <time>2021-11-22T10:23:16.531Z</time>
      </trkpt>
      <trkpt lat="47.478213" lon="7.972508">
        <ele>420.368977</ele>
        <time>2021-11-22T10:23:21.799Z</time>
      </trkpt>
      <trkpt lat="47.478198" lon="7.972475">
        <ele>420.445567</ele>
        <time>2021-11-22T10:23:22.593Z</time>
      </trkpt>
      <trkpt lat="47.478083" lon="7.972275">
        <ele>420.951282</ele>
        <time>2021-11-22T10:23:26.902Z</time>
      </trkpt>
      <trkpt lat="47.477778" lon="7.971876">
        <ele>422.111384</ele>
        <time>2021-11-22T10:23:39.006Z</time>
      </trkpt>
      <trkpt lat="47.477698" lon="7.971759">
        <ele>422.431916</ele>
        <time>2021-11-22T10:23:42.501Z</time>
      </trkpt>
      <trkpt lat="47.477623" lon="7.971640">
        <ele>422.745283</ele>
        <time>2021-11-22T10:23:44.750Z</time>
      </trkpt>
      <trkpt lat="47.477553" lon="7.971461">
        <ele>423.143570</ele>
        <time>2021-11-22T10:23:48.410Z</time>
      </trkpt>
      <trkpt lat="47.477522" lon="7.971381">
        <ele>423.321171</ele>
        <time>2021-11-22T10:23:50.399Z</time>
      </trkpt>
      <trkpt lat="47.477370" lon="7.970827">
        <ele>424.472697</ele>
        <time>2021-11-22T10:23:58.779Z</time>
      </trkpt>
      <trkpt lat="47.477322" lon="7.970682">
        <ele>424.646382</ele>
        <time>2021-11-22T10:24:00.902Z</time>
      </trkpt>
      <trkpt lat="47.477284" lon="7.970600">
        <ele>424.665425</ele>
        <time>2021-11-22T10:24:01.841Z</time>
      </trkpt>
      <trkpt lat="47.477262" lon="7.970548">
        <ele>424.677176</ele>
        <time>2021-11-22T10:24:02.636Z</time>
      </trkpt>
      <trkpt lat="47.477203" lon="7.970445">
        <ele>424.703036</ele>
        <time>2021-11-22T10:24:04.448Z</time>
      </trkpt>
      <trkpt lat="47.477135" lon="7.970342">
        <ele>424.730614</ele>
        <time>2021-11-22T10:24:06.140Z</time>
      </trkpt>
      <trkpt lat="47.477029" lon="7.970212">
        <ele>424.769632</ele>
        <time>2021-11-22T10:24:07.902Z</time>
      </trkpt>
      <trkpt lat="47.476944" lon="7.970103">
        <ele>424.801508</ele>
        <time>2021-11-22T10:24:09.804Z</time>
      </trkpt>
      <trkpt lat="47.476670" lon="7.969631">
        <ele>424.920683</ele>
        <time>2021-11-22T10:24:15.477Z</time>
      </trkpt>
      <trkpt lat="47.476396" lon="7.969182">
        <ele>425.036551</ele>
        <time>2021-11-22T10:24:21.298Z</time>
      </trkpt>
      <trkpt lat="47.476327" lon="7.969094">
        <ele>425.062367</ele>
        <time>2021-11-22T10:24:22.815Z</time>
      </trkpt>
      <trkpt lat="47.476103" lon="7.968806">
        <ele>425.163366</ele>
        <time>2021-11-22T10:24:27.665Z</time>
      </trkpt>
      <trkpt lat="47.475871" lon="7.968576">
        <ele>425.484403</ele>
        <time>2021-11-22T10:24:32.297Z</time>
      </trkpt>
      <trkpt lat="47.475729" lon="7.968403">
        <ele>425.695864</ele>
        <time>2021-11-22T10:24:35.484Z</time>
      </trkpt>
      <trkpt lat="47.475684" lon="7.968334">
        <ele>425.770365</ele>
        <time>2021-11-22T10:24:36.359Z</time>
      </trkpt>
      <trkpt lat="47.475616" lon="7.968229">
        <ele>425.883354</ele>
        <time>2021-11-22T10:24:37.655Z</time>
      </trkpt>
      <trkpt lat="47.475607" lon="7.968209">
        <ele>425.902023</ele>
        <time>2021-11-22T10:24:37.871Z</time>
      </trkpt>
      <trkpt lat="47.475436" lon="7.967868">
        <ele>426.231938</ele>
        <time>2021-11-22T10:24:42.734Z</time>
      </trkpt>
      <trkpt lat="47.475359" lon="7.967770">
        <ele>426.348701</ele>
        <time>2021-11-22T10:24:44.466Z</time>
      </trkpt>
      <trkpt lat="47.475280" lon="7.967711">
        <ele>426.450431</ele>
        <time>2021-11-22T10:24:46.274Z</time>
      </trkpt>
      <trkpt lat="47.475217" lon="7.967697">
        <ele>426.523666</ele>
        <time>2021-11-22T10:24:47.699Z</time>
      </trkpt>
      <trkpt lat="47.474560" lon="7.967748">
        <ele>427.461097</ele>
        <time>2021-11-22T10:25:02.471Z</time>
      </trkpt>
      <trkpt lat="47.474238" lon="7.967666">
        <ele>428.789889</ele>
        <time>2021-11-22T10:25:11.549Z</time>
      </trkpt>
      <trkpt lat="47.474076" lon="7.967608">
        <ele>429.467740</ele>
        <time>2021-11-22T10:25:16.598Z</time>
      </trkpt>
      <trkpt lat="47.473664" lon="7.967490">
        <ele>431.174401</ele>
        <time>2021-11-22T10:25:31.076Z</time>
      </trkpt>
      <trkpt lat="47.473444" lon="7.967380">
        <ele>432.118829</ele>
        <time>2021-11-22T10:25:38.382Z</time>
      </trkpt>
      <trkpt lat="47.472859" lon="7.966644">
        <ele>435.225845</ele>
        <time>2021-11-22T10:26:04.635Z</time>
      </trkpt>
      <trkpt lat="47.472594" lon="7.966357">
        <ele>436.531612</ele>
        <time>2021-11-22T10:26:15.510Z</time>
      </trkpt>
      <trkpt lat="47.472564" lon="7.966330">
        <ele>436.671227</ele>
        <time>2021-11-22T10:26:17.093Z</time>
      </trkpt>
      <trkpt lat="47.471880" lon="7.965766">
        <ele>439.784642</ele>
        <time>2021-11-22T10:26:40.450Z</time>
      </trkpt>
      <trkpt lat="47.471503" lon="7.965463">
        <ele>441.490482</ele>
        <time>2021-11-22T10:26:52.863Z</time>
      </trkpt>
      <trkpt lat="47.471250" lon="7.965231">
        <ele>442.522906</ele>
        <time>2021-11-22T10:27:01.380Z</time>
      </trkpt>
      <trkpt lat="47.470610" lon="7.964511">
        <ele>445.236436</ele>
        <time>2021-11-22T10:27:21.983Z</time>
      </trkpt>
      <trkpt lat="47.470351" lon="7.964220">
        <ele>446.334053</ele>
        <time>2021-11-22T10:27:31.212Z</time>
      </trkpt>
      <trkpt lat="47.470318" lon="7.964176">
        <ele>446.483985</ele>
        <time>2021-11-22T10:27:32.839Z</time>
      </trkpt>
      <trkpt lat="47.469749" lon="7.963424">
        <ele>450.117142</ele>
        <time>2021-11-22T10:27:56.313Z</time>
      </trkpt>
      <trkpt lat="47.469373" lon="7.963006">
        <ele>452.982634</ele>
        <time>2021-11-22T10:28:12.263Z</time>
      </trkpt>
      <trkpt lat="47.468616" lon="7.962000">
        <ele>459.515462</ele>
        <time>2021-11-22T10:28:57.582Z</time>
      </trkpt>
      <trkpt lat="47.468509" lon="7.961184">
        <ele>465.318614</ele>
        <time>2021-11-22T10:29:24.781Z</time>
      </trkpt>
      <trkpt lat="47.468498" lon="7.960883">
        <ele>467.423138</ele>
        <time>2021-11-22T10:29:39.162Z</time>
      </trkpt>
      <trkpt lat="47.468503" lon="7.960562">
        <ele>469.664820</ele>
        <time>2021-11-22T10:29:50.794Z</time>
      </trkpt>
      <trkpt lat="47.468516" lon="7.960416">
        <ele>470.692935</ele>
        <time>2021-11-22T10:29:58.025Z</time>
      </trkpt>
      <trkpt lat="47.468634" lon="7.959800">
        <ele>475.162919</ele>
        <time>2021-11-22T10:30:23.083Z</time>
      </trkpt>
      <trkpt lat="47.468655" lon="7.959428">
        <ele>477.745807</ele>
        <time>2021-11-22T10:30:39.470Z</time>
      </trkpt>
      <trkpt lat="47.468645" lon="7.959223">
        <ele>479.112525</ele>
        <time>2021-11-22T10:30:47.395Z</time>
      </trkpt>
      <trkpt lat="47.468641" lon="7.959158">
        <ele>479.546538</ele>
        <time>2021-11-22T10:30:50.543Z</time>
      </trkpt>
      <trkpt lat="47.468637" lon="7.959076">
        <ele>480.093225</ele>
        <time>2021-11-22T10:30:53.167Z</time>
      </trkpt>
      <trkpt lat="47.468627" lon="7.958965">
        <ele>480.837860</ele>
        <time>2021-11-22T10:30:59.278Z</time>
      </trkpt>
      <trkpt lat="47.468536" lon="7.958296">
        <ele>485.375633</ele>
        <time>2021-11-22T10:31:26.425Z</time>
      </trkpt>
      <trkpt lat="47.468524" lon="7.957646">
        <ele>489.699512</ele>
        <time>2021-11-22T10:31:48.377Z</time>
      </trkpt>
      <trkpt lat="47.468507" lon="7.957558">
        <ele>490.308106</ele>
        <time>2021-11-22T10:31:52.643Z</time>
      </trkpt>
      <trkpt lat="47.468479" lon="7.957453">
        <ele>491.058682</ele>
        <time>2021-11-22T10:31:56.375Z</time>
      </trkpt>
      <trkpt lat="47.468267" lon="7.956746">
        <ele>495.708910</ele>
        <time>2021-11-22T10:32:21.661Z</time>
      </trkpt>
      <trkpt lat="47.468322" lon="7.956470">
        <ele>496.855415</ele>
        <time>2021-11-22T10:32:29.929Z</time>
      </trkpt>
      <trkpt lat="47.468475" lon="7.956375">
        <ele>497.833451</ele>
        <time>2021-11-22T10:32:35.292Z</time>
      </trkpt>
      <trkpt lat="47.468875" lon="7.956583">
        <ele>500.332561</ele>
        <time>2021-11-22T10:32:53.506Z</time>
      </trkpt>
      <trkpt lat="47.469049" lon="7.956742">
        <ele>501.538048</ele>
        <time>2021-11-22T10:33:01.931Z</time>
      </trkpt>
      <trkpt lat="47.469296" lon="7.957034">
        <ele>503.401695</ele>
        <time>2021-11-22T10:33:11.798Z</time>
      </trkpt>
      <trkpt lat="47.469604" lon="7.957623">
        <ele>506.033338</ele>
        <time>2021-11-22T10:33:27.721Z</time>
      </trkpt>
      <trkpt lat="47.469781" lon="7.958087">
        <ele>507.260621</ele>
        <time>2021-11-22T10:33:38.465Z</time>
      </trkpt>
      <trkpt lat="47.469974" lon="7.958722">
        <ele>508.864416</ele>
        <time>2021-11-22T10:33:51.337Z</time>
      </trkpt>
      <trkpt lat="47.470268" lon="7.959615">
        <ele>511.152459</ele>
        <time>2021-11-22T10:34:09.061Z</time>
      </trkpt>
      <trkpt lat="47.470924" lon="7.960881">
        <ele>516.305318</ele>
        <time>2021-11-22T10:34:40.736Z</time>
      </trkpt>
      <trkpt lat="47.471375" lon="7.961461">
        <ele>519.305426</ele>
        <time>2021-11-22T10:35:04.797Z</time>
      </trkpt>
      <trkpt lat="47.471484" lon="7.961507">
        <ele>519.874477</ele>
        <time>2021-11-22T10:35:08.226Z</time>
      </trkpt>
      <trkpt lat="47.471568" lon="7.961446">
        <ele>520.344256</ele>
        <time>2021-11-22T10:35:11.256Z</time>
      </trkpt>
      <trkpt lat="47.471579" lon="7.961404">
        <ele>520.497109</ele>
        <time>2021-11-22T10:35:13.201Z</time>
      </trkpt>
      <trkpt lat="47.471575" lon="7.961333">
        <ele>520.741860</ele>
        <time>2021-11-22T10:35:17.271Z</time>
      </trkpt>
      <trkpt lat="47.471231" lon="7.960809">
        <ele>524.429213</ele>
        <time>2021-11-22T10:35:37.738Z</time>
      </trkpt>
      <trkpt lat="47.470999" lon="7.960100">
        <ele>528.405588</ele>
        <time>2021-11-22T10:36:01.852Z</time>
      </trkpt>
      <trkpt lat="47.470622" lon="7.958630">
        <ele>536.382836</ele>
        <time>2021-11-22T10:36:51.137Z</time>
      </trkpt>
      <trkpt lat="47.470611" lon="7.957558">
        <ele>541.895500</ele>
        <time>2021-11-22T10:37:24.032Z</time>
      </trkpt>
      <trkpt lat="47.470551" lon="7.956984">
        <ele>544.881985</ele>
        <time>2021-11-22T10:37:41.730Z</time>
      </trkpt>
      <trkpt lat="47.470344" lon="7.955464">
        <ele>552.559860</ele>
        <time>2021-11-22T10:38:28.151Z</time>
      </trkpt>
      <trkpt lat="47.470173" lon="7.954771">
        <ele>556.129897</ele>
        <time>2021-11-22T10:38:50.647Z</time>
      </trkpt>
      <trkpt lat="47.469948" lon="7.954438">
        <ele>558.408355</ele>
        <time>2021-11-22T10:39:04.417Z</time>
      </trkpt>
      <trkpt lat="47.469129" lon="7.954175">
        <ele>564.453905</ele>
        <time>2021-11-22T10:39:38.193Z</time>
      </trkpt>
      <trkpt lat="47.468825" lon="7.953883">
        <ele>567.081019</ele>
        <time>2021-11-22T10:39:52.883Z</time>
      </trkpt>
      <trkpt lat="47.468688" lon="7.953623">
        <ele>568.696195</ele>
        <time>2021-11-22T10:40:02.220Z</time>
      </trkpt>
      <trkpt lat="47.468338" lon="7.952658">
        <ele>574.252633</ele>
        <time>2021-11-22T10:40:36.294Z</time>
      </trkpt>
      <trkpt lat="47.468258" lon="7.952349">
        <ele>576.896438</ele>
        <time>2021-11-22T10:40:47.562Z</time>
      </trkpt>
      <trkpt lat="47.468208" lon="7.951691">
        <ele>582.187013</ele>
        <time>2021-11-22T10:41:12.384Z</time>
      </trkpt>
      <trkpt lat="47.468300" lon="7.950849">
        <ele>589.001959</ele>
        <time>2021-11-22T10:41:49.795Z</time>
      </trkpt>
      <trkpt lat="47.468441" lon="7.950143">
        <ele>594.883967</ele>
        <time>2021-11-22T10:42:25.877Z</time>
      </trkpt>
      <trkpt lat="47.468558" lon="7.949650">
        <ele>600.020625</ele>
        <time>2021-11-22T10:42:52.533Z</time>
      </trkpt>
      <trkpt lat="47.468810" lon="7.949041">
        <ele>607.084114</ele>
        <time>2021-11-22T10:43:29.681Z</time>
      </trkpt>
      <trkpt lat="47.469180" lon="7.948713">
        <ele>613.396369</ele>
        <time>2021-11-22T10:44:02.927Z</time>
      </trkpt>
      <trkpt lat="47.469469" lon="7.948624">
        <ele>617.716194</ele>
        <time>2021-11-22T10:44:25.037Z</time>
      </trkpt>
      <trkpt lat="47.469762" lon="7.948654">
        <ele>621.790368</ele>
        <time>2021-11-22T10:44:45.767Z</time>
      </trkpt>
      <trkpt lat="47.470079" lon="7.948808">
        <ele>625.053081</ele>
        <time>2021-11-22T10:45:07.050Z</time>
      </trkpt>
      <trkpt lat="47.470241" lon="7.948800">
        <ele>626.638112</ele>
        <time>2021-11-22T10:45:16.551Z</time>
      </trkpt>
      <trkpt lat="47.470338" lon="7.948724">
        <ele>627.711467</ele>
        <time>2021-11-22T10:45:22.619Z</time>
      </trkpt>
      <trkpt lat="47.470426" lon="7.948527">
        <ele>629.272303</ele>
        <time>2021-11-22T10:45:31.005Z</time>
      </trkpt>
      <trkpt lat="47.470333" lon="7.948107">
        <ele>632.193706</ele>
        <time>2021-11-22T10:45:47.098Z</time>
      </trkpt>
      <trkpt lat="47.470368" lon="7.947828">
        <ele>634.069418</ele>
        <time>2021-11-22T10:45:56.256Z</time>
      </trkpt>
      <trkpt lat="47.470424" lon="7.947722">
        <ele>634.958696</ele>
        <time>2021-11-22T10:46:00.853Z</time>
      </trkpt>
      <trkpt lat="47.470644" lon="7.947609">
        <ele>637.235990</ele>
        <time>2021-11-22T10:46:11.830Z</time>
      </trkpt>
      <trkpt lat="47.471433" lon="7.947675">
        <ele>641.029379</ele>
        <time>2021-11-22T10:46:42.729Z</time>
      </trkpt>
      <trkpt lat="47.471526" lon="7.947625">
        <ele>641.366257</ele>
        <time>2021-11-22T10:46:46.654Z</time>
      </trkpt>
      <trkpt lat="47.471588" lon="7.947530">
        <ele>641.670148</ele>
        <time>2021-11-22T10:46:50.191Z</time>
      </trkpt>
      <trkpt lat="47.471655" lon="7.947281">
        <ele>642.286900</ele>
        <time>2021-11-22T10:46:54.766Z</time>
      </trkpt>
      <trkpt lat="47.471580" lon="7.947013">
        <ele>642.954411</ele>
        <time>2021-11-22T10:47:01.589Z</time>
      </trkpt>
      <trkpt lat="47.470904" lon="7.946018">
        <ele>640.536337</ele>
        <time>2021-11-22T10:47:21.909Z</time>
      </trkpt>
      <trkpt lat="47.470096" lon="7.944809">
        <ele>625.166695</ele>
        <time>2021-11-22T10:47:31.433Z</time>
      </trkpt>
      <trkpt lat="47.469843" lon="7.944430">
        <ele>620.894586</ele>
        <time>2021-11-22T10:47:34.596Z</time>
      </trkpt>
      <trkpt lat="47.469517" lon="7.943834">
        <ele>619.795632</ele>
        <time>2021-11-22T10:47:53.352Z</time>
      </trkpt>
      <trkpt lat="47.469215" lon="7.943133">
        <ele>618.604099</ele>
        <time>2021-11-22T10:47:58.757Z</time>
      </trkpt>
      <trkpt lat="47.469058" lon="7.942569">
        <ele>617.729791</ele>
        <time>2021-11-22T10:48:02.359Z</time>
      </trkpt>
      <trkpt lat="47.469044" lon="7.942317">
        <ele>617.367352</ele>
        <time>2021-11-22T10:48:23.329Z</time>
      </trkpt>
      <trkpt lat="47.468954" lon="7.942332">
        <ele>617.238658</ele>
        <time>2021-11-22T10:48:24.416Z</time>
      </trkpt>
      <trkpt lat="47.468737" lon="7.942334">
        <ele>620.576496</ele>
        <time>2021-11-22T10:48:42.947Z</time>
      </trkpt>
      <trkpt lat="47.468260" lon="7.942246">
        <ele>627.970278</ele>
        <time>2021-11-22T10:49:21.848Z</time>
      </trkpt>
      <trkpt lat="47.468006" lon="7.941992">
        <ele>632.686096</ele>
        <time>2021-11-22T10:49:56.584Z</time>
      </trkpt>
      <trkpt lat="47.467899" lon="7.941853">
        <ele>634.876442</ele>
        <time>2021-11-22T10:49:58.221Z</time>
      </trkpt>
      <trkpt lat="47.467399" lon="7.941540">
        <ele>643.227449</ele>
        <time>2021-11-22T10:51:00.153Z</time>
      </trkpt>
      <trkpt lat="47.467100" lon="7.941411">
        <ele>645.293270</ele>
        <time>2021-11-22T10:51:05.911Z</time>
      </trkpt>
      <trkpt lat="47.466822" lon="7.941310">
        <ele>645.910888</ele>
        <time>2021-11-22T10:51:11.233Z</time>
      </trkpt>
      <trkpt lat="47.466651" lon="7.941234">
        <ele>646.296118</ele>
        <time>2021-11-22T10:51:14.264Z</time>
      </trkpt>
      <trkpt lat="47.466346" lon="7.941118">
        <ele>646.975567</ele>
        <time>2021-11-22T10:51:20.636Z</time>
      </trkpt>
      <trkpt lat="47.465949" lon="7.940958">
        <ele>647.863328</ele>
        <time>2021-11-22T10:51:28.083Z</time>
      </trkpt>
      <trkpt lat="47.465632" lon="7.940899">
        <ele>648.552658</ele>
        <time>2021-11-22T10:51:33.502Z</time>
      </trkpt>
      <trkpt lat="47.465246" lon="7.940877">
        <ele>647.713532</ele>
        <time>2021-11-22T10:51:39.920Z</time>
      </trkpt>
      <trkpt lat="47.464912" lon="7.940831">
        <ele>646.594144</ele>
        <time>2021-11-22T10:51:45.914Z</time>
      </trkpt>
      <trkpt lat="47.464341" lon="7.940728">
        <ele>644.674585</ele>
        <time>2021-11-22T10:51:54.919Z</time>
      </trkpt>
      <trkpt lat="47.464307" lon="7.940722">
        <ele>644.560321</ele>
        <time>2021-11-22T10:51:55.329Z</time>
      </trkpt>
      <trkpt lat="47.463757" lon="7.940617">
        <ele>642.687160</ele>
        <time>2021-11-22T10:52:02.676Z</time>
      </trkpt>
      <trkpt lat="47.463351" lon="7.940342">
        <ele>639.271928</ele>
        <time>2021-11-22T10:52:08.311Z</time>
      </trkpt>
      <trkpt lat="47.463169" lon="7.940192">
        <ele>637.678469</ele>
        <time>2021-11-22T10:52:10.862Z</time>
      </trkpt>
      <trkpt lat="47.462895" lon="7.940071">
        <ele>635.491472</ele>
        <time>2021-11-22T10:52:14.410Z</time>
      </trkpt>
      <trkpt lat="47.462671" lon="7.939972">
        <ele>633.703443</ele>
        <time>2021-11-22T10:52:17.357Z</time>
      </trkpt>
      <trkpt lat="47.462207" lon="7.939778">
        <ele>630.015648</ele>
        <time>2021-11-22T10:52:23.449Z</time>
      </trkpt>
      <trkpt lat="47.462056" lon="7.939688">
        <ele>628.845187</ele>
        <time>2021-11-22T10:52:25.494Z</time>
      </trkpt>
      <trkpt lat="47.461855" lon="7.939515">
        <ele>627.729224</ele>
        <time>2021-11-22T10:52:28.457Z</time>
      </trkpt>
      <trkpt lat="47.461309" lon="7.938844">
        <ele>624.322740</ele>
        <time>2021-11-22T10:52:37.810Z</time>
      </trkpt>
      <trkpt lat="47.461076" lon="7.938696">
        <ele>623.105891</ele>
        <time>2021-11-22T10:52:41.357Z</time>
      </trkpt>
      <trkpt lat="47.460640" lon="7.938599">
        <ele>620.990106</ele>
        <time>2021-11-22T10:52:47.943Z</time>
      </trkpt>
      <trkpt lat="47.460344" lon="7.938606">
        <ele>620.113104</ele>
        <time>2021-11-22T10:52:52.641Z</time>
      </trkpt>
      <trkpt lat="47.459661" lon="7.938631">
        <ele>619.148593</ele>
        <time>2021-11-22T10:53:03.725Z</time>
      </trkpt>
      <trkpt lat="47.458684" lon="7.938601">
        <ele>617.787695</ele>
        <time>2021-11-22T10:53:20.557Z</time>
      </trkpt>
      <trkpt lat="47.457759" lon="7.938112">
        <ele>617.224117</ele>
        <time>2021-11-22T10:53:39.273Z</time>
      </trkpt>
      <trkpt lat="47.456885" lon="7.937800">
        <ele>616.603521</ele>
        <time>2021-11-22T10:53:55.802Z</time>
      </trkpt>
      <trkpt lat="47.456612" lon="7.937840">
        <ele>616.172528</ele>
        <time>2021-11-22T10:54:00.774Z</time>
      </trkpt>
      <trkpt lat="47.456527" lon="7.937909">
        <ele>616.020197</ele>
        <time>2021-11-22T10:54:01.854Z</time>
      </trkpt>
      <trkpt lat="47.455980" lon="7.938143">
        <ele>615.125613</ele>
        <time>2021-11-22T10:54:08.519Z</time>
      </trkpt>
      <trkpt lat="47.455114" lon="7.938524">
        <ele>613.467777</ele>
        <time>2021-11-22T10:54:18.285Z</time>
      </trkpt>
      <trkpt lat="47.454590" lon="7.938738">
        <ele>611.753375</ele>
        <time>2021-11-22T10:54:23.910Z</time>
      </trkpt>
      <trkpt lat="47.454409" lon="7.938779">
        <ele>611.175894</ele>
        <time>2021-11-22T10:54:25.821Z</time>
      </trkpt>
      <trkpt lat="47.454186" lon="7.938810">
        <ele>610.469514</ele>
        <time>2021-11-22T10:54:28.102Z</time>
      </trkpt>
      <trkpt lat="47.453952" lon="7.938831">
        <ele>609.730186</ele>
        <time>2021-11-22T10:54:30.430Z</time>
      </trkpt>
      <trkpt lat="47.453896" lon="7.938837">
        <ele>609.553114</ele>
        <time>2021-11-22T10:54:31.000Z</time>
      </trkpt>
      <trkpt lat="47.453527" lon="7.938907">
        <ele>608.379856</ele>
        <time>2021-11-22T10:54:34.687Z</time>
      </trkpt>
      <trkpt lat="47.453399" lon="7.938926">
        <ele>607.754062</ele>
        <time>2021-11-22T10:54:36.007Z</time>
      </trkpt>
      <trkpt lat="47.453247" lon="7.938949">
        <ele>606.914192</ele>
        <time>2021-11-22T10:54:37.449Z</time>
      </trkpt>
      <trkpt lat="47.452671" lon="7.939085">
        <ele>603.707958</ele>
        <time>2021-11-22T10:54:43.016Z</time>
      </trkpt>
      <trkpt lat="47.452569" lon="7.939136">
        <ele>603.116110</ele>
        <time>2021-11-22T10:54:44.006Z</time>
      </trkpt>
      <trkpt lat="47.452527" lon="7.939169">
        <ele>602.854685</ele>
        <time>2021-11-22T10:54:44.663Z</time>
      </trkpt>
      <trkpt lat="47.451870" lon="7.939623">
        <ele>598.868504</ele>
        <time>2021-11-22T10:54:51.238Z</time>
      </trkpt>
      <trkpt lat="47.451687" lon="7.939736">
        <ele>597.672943</ele>
        <time>2021-11-22T10:54:53.018Z</time>
      </trkpt>
      <trkpt lat="47.451066" lon="7.940265">
        <ele>593.047058</ele>
        <time>2021-11-22T10:54:59.435Z</time>
      </trkpt>
      <trkpt lat="47.450926" lon="7.940417">
        <ele>591.925991</ele>
        <time>2021-11-22T10:55:01.029Z</time>
      </trkpt>
      <trkpt lat="47.450818" lon="7.940534">
        <ele>591.061831</ele>
        <time>2021-11-22T10:55:02.208Z</time>
      </trkpt>
      <trkpt lat="47.450647" lon="7.940719">
        <ele>589.694221</ele>
        <time>2021-11-22T10:55:04.196Z</time>
      </trkpt>
      <trkpt lat="47.450568" lon="7.940770">
        <ele>589.137821</ele>
        <time>2021-11-22T10:55:04.950Z</time>
      </trkpt>
      <trkpt lat="47.450538" lon="7.940621">
        <ele>588.459237</ele>
        <time>2021-11-22T10:55:05.888Z</time>
      </trkpt>
      <trkpt lat="47.450383" lon="7.940114">
        <ele>586.387296</ele>
        <time>2021-11-22T10:55:09.395Z</time>
      </trkpt>
      <trkpt lat="47.450248" lon="7.939948">
        <ele>585.797905</ele>
        <time>2021-11-22T10:55:11.098Z</time>
      </trkpt>
      <trkpt lat="47.449913" lon="7.939726">
        <ele>584.565569</ele>
        <time>2021-11-22T10:55:14.595Z</time>
      </trkpt>
      <trkpt lat="47.449814" lon="7.939672">
        <ele>584.211344</ele>
        <time>2021-11-22T10:55:15.548Z</time>
      </trkpt>
      <trkpt lat="47.449589" lon="7.939535">
        <ele>583.394507</ele>
        <time>2021-11-22T10:55:18.234Z</time>
      </trkpt>
      <trkpt lat="47.449443" lon="7.939446">
        <ele>582.864382</ele>
        <time>2021-11-22T10:55:19.722Z</time>
      </trkpt>
      <trkpt lat="47.449351" lon="7.939383">
        <ele>582.524036</ele>
        <time>2021-11-22T10:55:21.600Z</time>
      </trkpt>
      <trkpt lat="47.449278" lon="7.939333">
        <ele>582.253968</ele>
        <time>2021-11-22T10:55:22.443Z</time>
      </trkpt>
      <trkpt lat="47.449215" lon="7.939276">
        <ele>582.006036</ele>
        <time>2021-11-22T10:55:23.220Z</time>
      </trkpt>
      <trkpt lat="47.449121" lon="7.939164">
        <ele>581.600797</ele>
        <time>2021-11-22T10:55:24.489Z</time>
      </trkpt>
      <trkpt lat="47.449095" lon="7.939194">
        <ele>581.490090</ele>
        <time>2021-11-22T10:55:25.098Z</time>
      </trkpt>
      <trkpt lat="47.448995" lon="7.939236">
        <ele>581.141117</ele>
        <time>2021-11-22T10:55:26.435Z</time>
      </trkpt>
      <trkpt lat="47.448737" lon="7.939187">
        <ele>580.967522</ele>
        <time>2021-11-22T10:55:29.357Z</time>
      </trkpt>
      <trkpt lat="47.448632" lon="7.939166">
        <ele>581.143576</ele>
        <time>2021-11-22T10:55:30.738Z</time>
      </trkpt>
      <trkpt lat="47.448566" lon="7.939145">
        <ele>581.255751</ele>
        <time>2021-11-22T10:55:31.504Z</time>
      </trkpt>
      <trkpt lat="47.448504" lon="7.939113">
        <ele>581.364863</ele>
        <time>2021-11-22T10:55:32.188Z</time>
      </trkpt>
      <trkpt lat="47.448323" lon="7.938940">
        <ele>581.722964</ele>
        <time>2021-11-22T10:55:35.172Z</time>
      </trkpt>
      <trkpt lat="47.448076" lon="7.938764">
        <ele>582.178538</ele>
        <time>2021-11-22T10:55:40.872Z</time>
      </trkpt>
      <trkpt lat="47.447884" lon="7.938706">
        <ele>582.504150</ele>
        <time>2021-11-22T10:55:45.795Z</time>
      </trkpt>
      <trkpt lat="47.447622" lon="7.938729">
        <ele>582.940251</ele>
        <time>2021-11-22T10:55:50.659Z</time>
      </trkpt>
      <trkpt lat="47.447579" lon="7.938758">
        <ele>583.018779</ele>
        <time>2021-11-22T10:55:52.506Z</time>
      </trkpt>
      <trkpt lat="47.447514" lon="7.938816">
        <ele>583.144922</ele>
        <time>2021-11-22T10:55:54.930Z</time>
      </trkpt>
      <trkpt lat="47.447375" lon="7.938987">
        <ele>583.445361</ele>
        <time>2021-11-22T10:55:59.000Z</time>
      </trkpt>
      <trkpt lat="47.447148" lon="7.939307">
        <ele>584.667558</ele>
        <time>2021-11-22T10:56:10.972Z</time>
      </trkpt>
      <trkpt lat="47.447088" lon="7.939400">
        <ele>585.230413</ele>
        <time>2021-11-22T10:56:14.325Z</time>
      </trkpt>
      <trkpt lat="47.447023" lon="7.939500">
        <ele>585.837802</ele>
        <time>2021-11-22T10:56:19.742Z</time>
      </trkpt>
      <trkpt lat="47.446911" lon="7.939640">
        <ele>586.787452</ele>
        <time>2021-11-22T10:56:24.562Z</time>
      </trkpt>
      <trkpt lat="47.446714" lon="7.939663">
        <ele>588.067068</ele>
        <time>2021-11-22T10:56:33.600Z</time>
      </trkpt>
      <trkpt lat="47.446350" lon="7.939484">
        <ele>590.551026</ele>
        <time>2021-11-22T10:56:50.286Z</time>
      </trkpt>
      <trkpt lat="47.446200" lon="7.939305">
        <ele>591.799178</ele>
        <time>2021-11-22T10:56:56.802Z</time>
      </trkpt>
      <trkpt lat="47.446136" lon="7.939210">
        <ele>592.386393</ele>
        <time>2021-11-22T10:57:01.982Z</time>
      </trkpt>
      <trkpt lat="47.445987" lon="7.938989">
        <ele>593.752969</ele>
        <time>2021-11-22T10:57:11.246Z</time>
      </trkpt>
      <trkpt lat="47.445739" lon="7.938730">
        <ele>595.590063</ele>
        <time>2021-11-22T10:57:25.456Z</time>
      </trkpt>
      <trkpt lat="47.445088" lon="7.938426">
        <ele>598.371125</ele>
        <time>2021-11-22T10:57:51.826Z</time>
      </trkpt>
      <trkpt lat="47.444935" lon="7.938269">
        <ele>599.129778</ele>
        <time>2021-11-22T10:57:58.108Z</time>
      </trkpt>
      <trkpt lat="47.444544" lon="7.937668">
        <ele>601.427298</ele>
        <time>2021-11-22T10:58:13.754Z</time>
      </trkpt>
      <trkpt lat="47.444304" lon="7.937471">
        <ele>602.545524</ele>
        <time>2021-11-22T10:58:18.947Z</time>
      </trkpt>
      <trkpt lat="47.444030" lon="7.937346">
        <ele>602.108881</ele>
        <time>2021-11-22T10:58:23.673Z</time>
      </trkpt>
      <trkpt lat="47.443821" lon="7.937284">
        <ele>601.604620</ele>
        <time>2021-11-22T10:58:26.512Z</time>
      </trkpt>
      <trkpt lat="47.443543" lon="7.937251">
        <ele>600.944869</ele>
        <time>2021-11-22T10:58:29.809Z</time>
      </trkpt>
      <trkpt lat="47.442638" lon="7.937187">
        <ele>598.801558</ele>
        <time>2021-11-22T10:58:38.992Z</time>
      </trkpt>
      <trkpt lat="47.441541" lon="7.937289">
        <ele>593.451827</ele>
        <time>2021-11-22T10:58:48.995Z</time>
      </trkpt>
      <trkpt lat="47.441000" lon="7.937143">
        <ele>590.555590</ele>
        <time>2021-11-22T10:58:54.201Z</time>
      </trkpt>
      <trkpt lat="47.440806" lon="7.937210">
        <ele>589.506390</ele>
        <time>2021-11-22T10:58:56.012Z</time>
      </trkpt>
      <trkpt lat="47.440583" lon="7.937384">
        <ele>588.528442</ele>
        <time>2021-11-22T10:58:58.582Z</time>
      </trkpt>
      <trkpt lat="47.440535" lon="7.937445">
        <ele>588.342298</ele>
        <time>2021-11-22T10:58:59.115Z</time>
      </trkpt>
      <trkpt lat="47.440493" lon="7.937497">
        <ele>588.181192</ele>
        <time>2021-11-22T10:59:00.633Z</time>
      </trkpt>
      <trkpt lat="47.440276" lon="7.938174">
        <ele>586.690997</ele>
        <time>2021-11-22T10:59:05.853Z</time>
      </trkpt>
      <trkpt lat="47.440111" lon="7.938384">
        <ele>586.050720</ele>
        <time>2021-11-22T10:59:08.017Z</time>
      </trkpt>
      <trkpt lat="47.439973" lon="7.938391">
        <ele>585.644634</ele>
        <time>2021-11-22T10:59:09.677Z</time>
      </trkpt>
      <trkpt lat="47.439513" lon="7.938183">
        <ele>584.229957</ele>
        <time>2021-11-22T10:59:14.731Z</time>
      </trkpt>
      <trkpt lat="47.439305" lon="7.937977">
        <ele>583.533812</ele>
        <time>2021-11-22T10:59:17.633Z</time>
      </trkpt>
      <trkpt lat="47.439053" lon="7.937594">
        <ele>582.698194</ele>
        <time>2021-11-22T10:59:21.865Z</time>
      </trkpt>
      <trkpt lat="47.438795" lon="7.937030">
        <ele>581.633375</ele>
        <time>2021-11-22T10:59:26.822Z</time>
      </trkpt>
      <trkpt lat="47.438488" lon="7.936601">
        <ele>580.656654</ele>
        <time>2021-11-22T10:59:31.143Z</time>
      </trkpt>
      <trkpt lat="47.438097" lon="7.936295">
        <ele>579.633752</ele>
        <time>2021-11-22T10:59:35.715Z</time>
      </trkpt>
      <trkpt lat="47.437455" lon="7.935929">
        <ele>579.409120</ele>
        <time>2021-11-22T10:59:43.233Z</time>
      </trkpt>
      <trkpt lat="47.437163" lon="7.935805">
        <ele>579.355240</ele>
        <time>2021-11-22T10:59:47.419Z</time>
      </trkpt>
      <trkpt lat="47.436959" lon="7.935813">
        <ele>579.319049</ele>
        <time>2021-11-22T10:59:52.987Z</time>
      </trkpt>
      <trkpt lat="47.436817" lon="7.935819">
        <ele>579.293855</ele>
        <time>2021-11-22T10:59:54.499Z</time>
      </trkpt>
      <trkpt lat="47.436754" lon="7.935830">
        <ele>579.282604</ele>
        <time>2021-11-22T10:59:56.872Z</time>
      </trkpt>
      <trkpt lat="47.436645" lon="7.935783">
        <ele>579.262468</ele>
        <time>2021-11-22T11:00:00.066Z</time>
      </trkpt>
      <trkpt lat="47.436379" lon="7.935508">
        <ele>579.204903</ele>
        <time>2021-11-22T11:00:06.105Z</time>
      </trkpt>
      <trkpt lat="47.436041" lon="7.935466">
        <ele>579.458131</ele>
        <time>2021-11-22T11:00:12.257Z</time>
      </trkpt>
      <trkpt lat="47.435987" lon="7.935459">
        <ele>579.499674</ele>
        <time>2021-11-22T11:00:14.523Z</time>
      </trkpt>
      <trkpt lat="47.435945" lon="7.935453">
        <ele>579.532012</ele>
        <time>2021-11-22T11:00:15.262Z</time>
      </trkpt>
      <trkpt lat="47.435218" lon="7.935133">
        <ele>580.113347</ele>
        <time>2021-11-22T11:00:29.230Z</time>
      </trkpt>
      <trkpt lat="47.435139" lon="7.935085">
        <ele>580.178805</ele>
        <time>2021-11-22T11:00:30.370Z</time>
      </trkpt>
      <trkpt lat="47.435108" lon="7.935067">
        <ele>580.204330</ele>
        <time>2021-11-22T11:00:30.695Z</time>
      </trkpt>
      <trkpt lat="47.435021" lon="7.934988">
        <ele>580.282579</ele>
        <time>2021-11-22T11:00:32.321Z</time>
      </trkpt>
      <trkpt lat="47.434953" lon="7.934914">
        <ele>580.347290</ele>
        <time>2021-11-22T11:00:35.237Z</time>
      </trkpt>
      <trkpt lat="47.434806" lon="7.934720">
        <ele>580.498308</ele>
        <time>2021-11-22T11:00:37.440Z</time>
      </trkpt>
      <trkpt lat="47.434668" lon="7.934617">
        <ele>580.628292</ele>
        <time>2021-11-22T11:00:41.560Z</time>
      </trkpt>
      <trkpt lat="47.434614" lon="7.934590">
        <ele>580.686473</ele>
        <time>2021-11-22T11:00:42.145Z</time>
      </trkpt>
      <trkpt lat="47.434567" lon="7.934576">
        <ele>580.735406</ele>
        <time>2021-11-22T11:00:42.660Z</time>
      </trkpt>
      <trkpt lat="47.434298" lon="7.934609">
        <ele>581.010899</ele>
        <time>2021-11-22T11:00:46.267Z</time>
      </trkpt>
      <trkpt lat="47.433620" lon="7.934930">
        <ele>581.737505</ele>
        <time>2021-11-22T11:00:55.730Z</time>
      </trkpt>
      <trkpt lat="47.433512" lon="7.934950">
        <ele>581.848595</ele>
        <time>2021-11-22T11:00:56.910Z</time>
      </trkpt>
      <trkpt lat="47.433385" lon="7.935078">
        <ele>582.005473</ele>
        <time>2021-11-22T11:01:01.059Z</time>
      </trkpt>
      <trkpt lat="47.433187" lon="7.935304">
        <ele>582.260783</ele>
        <time>2021-11-22T11:01:07.020Z</time>
      </trkpt>
      <trkpt lat="47.433050" lon="7.935392">
        <ele>582.413238</ele>
        <time>2021-11-22T11:01:11.727Z</time>
      </trkpt>
      <trkpt lat="47.432965" lon="7.935043">
        <ele>583.807787</ele>
        <time>2021-11-22T11:01:21.483Z</time>
      </trkpt>
      <trkpt lat="47.432802" lon="7.934732">
        <ele>585.309004</ele>
        <time>2021-11-22T11:01:30.854Z</time>
      </trkpt>
      <trkpt lat="47.432647" lon="7.934240">
        <ele>587.379975</ele>
        <time>2021-11-22T11:01:45.435Z</time>
      </trkpt>
      <trkpt lat="47.432578" lon="7.933907">
        <ele>588.708902</ele>
        <time>2021-11-22T11:01:54.982Z</time>
      </trkpt>
      <trkpt lat="47.432569" lon="7.933827">
        <ele>589.018357</ele>
        <time>2021-11-22T11:01:56.614Z</time>
      </trkpt>
      <trkpt lat="47.432554" lon="7.933755">
        <ele>589.305827</ele>
        <time>2021-11-22T11:01:59.177Z</time>
      </trkpt>
      <trkpt lat="47.432488" lon="7.933576">
        <ele>590.083726</ele>
        <time>2021-11-22T11:02:04.166Z</time>
      </trkpt>
      <trkpt lat="47.432362" lon="7.933398">
        <ele>591.066824</ele>
        <time>2021-11-22T11:02:10.591Z</time>
      </trkpt>
      <trkpt lat="47.432257" lon="7.933273">
        <ele>591.827290</ele>
        <time>2021-11-22T11:02:16.861Z</time>
      </trkpt>
      <trkpt lat="47.431934" lon="7.932867">
        <ele>594.685956</ele>
        <time>2021-11-22T11:02:33.663Z</time>
      </trkpt>
      <trkpt lat="47.431916" lon="7.932769">
        <ele>595.182789</ele>
        <time>2021-11-22T11:02:37.132Z</time>
      </trkpt>
      <trkpt lat="47.431940" lon="7.932715">
        <ele>595.498910</ele>
        <time>2021-11-22T11:02:37.960Z</time>
      </trkpt>
      <trkpt lat="47.432246" lon="7.932289">
        <ele>598.538999</ele>
        <time>2021-11-22T11:02:56.171Z</time>
      </trkpt>
      <trkpt lat="47.432474" lon="7.931798">
        <ele>601.452767</ele>
        <time>2021-11-22T11:03:13.580Z</time>
      </trkpt>
      <trkpt lat="47.432491" lon="7.931730">
        <ele>601.807453</ele>
        <time>2021-11-22T11:03:15.370Z</time>
      </trkpt>
      <trkpt lat="47.432518" lon="7.931622">
        <ele>602.370777</ele>
        <time>2021-11-22T11:03:19.219Z</time>
      </trkpt>
      <trkpt lat="47.432664" lon="7.930471">
        <ele>609.173823</ele>
        <time>2021-11-22T11:03:56.643Z</time>
      </trkpt>
      <trkpt lat="47.432655" lon="7.930328">
        <ele>610.174911</ele>
        <time>2021-11-22T11:04:01.800Z</time>
      </trkpt>
      <trkpt lat="47.432626" lon="7.930198">
        <ele>611.129079</ele>
        <time>2021-11-22T11:04:07.608Z</time>
      </trkpt>
      <trkpt lat="47.432548" lon="7.929945">
        <ele>613.067142</ele>
        <time>2021-11-22T11:04:16.757Z</time>
      </trkpt>
      <trkpt lat="47.432376" lon="7.929666">
        <ele>615.698386</ele>
        <time>2021-11-22T11:04:31.438Z</time>
      </trkpt>
      <trkpt lat="47.432320" lon="7.929632">
        <ele>616.322208</ele>
        <time>2021-11-22T11:04:34.904Z</time>
      </trkpt>
      <trkpt lat="47.432180" lon="7.929578">
        <ele>617.813130</ele>
        <time>2021-11-22T11:04:43.155Z</time>
      </trkpt>
      <trkpt lat="47.431897" lon="7.929454">
        <ele>620.854691</ele>
        <time>2021-11-22T11:05:00.736Z</time>
      </trkpt>
      <trkpt lat="47.431830" lon="7.929410">
        <ele>621.610150</ele>
        <time>2021-11-22T11:05:06.056Z</time>
      </trkpt>
      <trkpt lat="47.431760" lon="7.929353">
        <ele>622.433654</ele>
        <time>2021-11-22T11:05:12.285Z</time>
      </trkpt>
      <trkpt lat="47.431165" lon="7.928287">
        <ele>632.575717</ele>
        <time>2021-11-22T11:06:10.314Z</time>
      </trkpt>
      <trkpt lat="47.431009" lon="7.928039">
        <ele>635.087115</ele>
        <time>2021-11-22T11:06:25.323Z</time>
      </trkpt>
      <trkpt lat="47.430877" lon="7.927868">
        <ele>637.011206</ele>
        <time>2021-11-22T11:06:34.832Z</time>
      </trkpt>
      <trkpt lat="47.430593" lon="7.927648">
        <ele>640.526162</ele>
        <time>2021-11-22T11:06:52.147Z</time>
      </trkpt>
      <trkpt lat="47.430441" lon="7.927596">
        <ele>642.236514</ele>
        <time>2021-11-22T11:07:00.670Z</time>
      </trkpt>
      <trkpt lat="47.430337" lon="7.927447">
        <ele>643.824230</ele>
        <time>2021-11-22T11:07:07.104Z</time>
      </trkpt>
      <trkpt lat="47.430261" lon="7.927320">
        <ele>644.681019</ele>
        <time>2021-11-22T11:07:14.987Z</time>
      </trkpt>
      <trkpt lat="47.429803" lon="7.926167">
        <ele>651.437229</ele>
        <time>2021-11-22T11:07:58.448Z</time>
      </trkpt>
      <trkpt lat="47.429591" lon="7.925737">
        <ele>654.125825</ele>
        <time>2021-11-22T11:08:13.667Z</time>
      </trkpt>
      <trkpt lat="47.429521" lon="7.925613">
        <ele>654.941899</ele>
        <time>2021-11-22T11:08:17.979Z</time>
      </trkpt>
      <trkpt lat="47.429490" lon="7.925556">
        <ele>655.311457</ele>
        <time>2021-11-22T11:08:21.044Z</time>
      </trkpt>
      <trkpt lat="47.429062" lon="7.924899">
        <ele>658.735572</ele>
        <time>2021-11-22T11:08:40.731Z</time>
      </trkpt>
      <trkpt lat="47.428690" lon="7.923945">
        <ele>661.822632</ele>
        <time>2021-11-22T11:09:05.363Z</time>
      </trkpt>
      <trkpt lat="47.428337" lon="7.923093">
        <ele>664.623628</ele>
        <time>2021-11-22T11:09:24.928Z</time>
      </trkpt>
      <trkpt lat="47.428022" lon="7.922357">
        <ele>666.154696</ele>
        <time>2021-11-22T11:09:39.469Z</time>
      </trkpt>
      <trkpt lat="47.427532" lon="7.921193">
        <ele>668.510429</ele>
        <time>2021-11-22T11:10:01.154Z</time>
      </trkpt>
      <trkpt lat="47.427306" lon="7.920667">
        <ele>669.631133</ele>
        <time>2021-11-22T11:10:12.289Z</time>
      </trkpt>
      <trkpt lat="47.427128" lon="7.920327">
        <ele>670.493045</ele>
        <time>2021-11-22T11:10:20.021Z</time>
      </trkpt>
      <trkpt lat="47.426784" lon="7.919771">
        <ele>672.003601</ele>
        <time>2021-11-22T11:10:33.266Z</time>
      </trkpt>
      <trkpt lat="47.426747" lon="7.919704">
        <ele>672.176997</ele>
        <time>2021-11-22T11:10:35.715Z</time>
      </trkpt>
      <trkpt lat="47.426476" lon="7.919218">
        <ele>673.439671</ele>
        <time>2021-11-22T11:10:47.876Z</time>
      </trkpt>
      <trkpt lat="47.425963" lon="7.918061">
        <ele>675.121585</ele>
        <time>2021-11-22T11:11:11.078Z</time>
      </trkpt>
      <trkpt lat="47.425854" lon="7.917881">
        <ele>675.275829</ele>
        <time>2021-11-22T11:11:16.107Z</time>
      </trkpt>
      <trkpt lat="47.425791" lon="7.917776">
        <ele>675.365438</ele>
        <time>2021-11-22T11:11:17.468Z</time>
      </trkpt>
      <trkpt lat="47.425734" lon="7.917658">
        <ele>675.458014</ele>
        <time>2021-11-22T11:11:19.029Z</time>
      </trkpt>
      <trkpt lat="47.425453" lon="7.916868">
        <ele>676.027894</ele>
        <time>2021-11-22T11:11:28.808Z</time>
      </trkpt>
      <trkpt lat="47.425318" lon="7.916466">
        <ele>676.289721</ele>
        <time>2021-11-22T11:11:32.797Z</time>
      </trkpt>
      <trkpt lat="47.425092" lon="7.916017">
        <ele>675.017973</ele>
        <time>2021-11-22T11:11:37.182Z</time>
      </trkpt>
      <trkpt lat="47.424835" lon="7.915741">
        <ele>673.950937</ele>
        <time>2021-11-22T11:11:40.403Z</time>
      </trkpt>
      <trkpt lat="47.423738" lon="7.915097">
        <ele>669.695887</ele>
        <time>2021-11-22T11:11:51.772Z</time>
      </trkpt>
      <trkpt lat="47.423576" lon="7.915003">
        <ele>668.508048</ele>
        <time>2021-11-22T11:11:53.426Z</time>
      </trkpt>
      <trkpt lat="47.423480" lon="7.914911">
        <ele>667.727150</ele>
        <time>2021-11-22T11:11:54.496Z</time>
      </trkpt>
      <trkpt lat="47.423376" lon="7.914788">
        <ele>666.818052</ele>
        <time>2021-11-22T11:11:55.777Z</time>
      </trkpt>
      <trkpt lat="47.423166" lon="7.914532">
        <ele>664.960140</ele>
        <time>2021-11-22T11:11:58.308Z</time>
      </trkpt>
      <trkpt lat="47.422861" lon="7.914016">
        <ele>661.796098</ele>
        <time>2021-11-22T11:12:02.488Z</time>
      </trkpt>
      <trkpt lat="47.422678" lon="7.913093">
        <ele>656.955895</ele>
        <time>2021-11-22T11:12:08.158Z</time>
      </trkpt>
      <trkpt lat="47.422400" lon="7.912432">
        <ele>651.111623</ele>
        <time>2021-11-22T11:12:12.667Z</time>
      </trkpt>
      <trkpt lat="47.422296" lon="7.912177">
        <ele>648.875832</ele>
        <time>2021-11-22T11:12:14.432Z</time>
      </trkpt>
      <trkpt lat="47.422258" lon="7.912054">
        <ele>647.860484</ele>
        <time>2021-11-22T11:12:15.192Z</time>
      </trkpt>
      <trkpt lat="47.422227" lon="7.911924">
        <ele>646.825448</ele>
        <time>2021-11-22T11:12:15.986Z</time>
      </trkpt>
      <trkpt lat="47.422105" lon="7.911328">
        <ele>642.149691</ele>
        <time>2021-11-22T11:12:19.554Z</time>
      </trkpt>
      <trkpt lat="47.422076" lon="7.911139">
        <ele>640.694433</ele>
        <time>2021-11-22T11:12:20.673Z</time>
      </trkpt>
      <trkpt lat="47.422044" lon="7.910942">
        <ele>639.173104</ele>
        <time>2021-11-22T11:12:21.820Z</time>
      </trkpt>
      <trkpt lat="47.421971" lon="7.910739">
        <ele>637.300841</ele>
        <time>2021-11-22T11:12:23.149Z</time>
      </trkpt>
      <trkpt lat="47.421663" lon="7.910330">
        <ele>631.553791</ele>
        <time>2021-11-22T11:12:26.625Z</time>
      </trkpt>
      <trkpt lat="47.421579" lon="7.910148">
        <ele>629.484817</ele>
        <time>2021-11-22T11:12:27.858Z</time>
      </trkpt>
      <trkpt lat="47.421470" lon="7.909931">
        <ele>626.946741</ele>
        <time>2021-11-22T11:12:29.376Z</time>
      </trkpt>
      <trkpt lat="47.420948" lon="7.908934">
        <ele>615.107804</ele>
        <time>2021-11-22T11:12:36.511Z</time>
      </trkpt>
      <trkpt lat="47.420889" lon="7.908860">
        <ele>614.033757</ele>
        <time>2021-11-22T11:12:37.148Z</time>
      </trkpt>
      <trkpt lat="47.420741" lon="7.908673">
        <ele>611.019619</ele>
        <time>2021-11-22T11:12:38.778Z</time>
      </trkpt>
      <trkpt lat="47.420624" lon="7.908565">
        <ele>608.760777</ele>
        <time>2021-11-22T11:12:39.925Z</time>
      </trkpt>
      <trkpt lat="47.420459" lon="7.908421">
        <ele>605.623015</ele>
        <time>2021-11-22T11:12:41.511Z</time>
      </trkpt>
      <trkpt lat="47.420164" lon="7.908011">
        <ele>598.992014</ele>
        <time>2021-11-22T11:12:44.867Z</time>
      </trkpt>
      <trkpt lat="47.419862" lon="7.907847">
        <ele>593.723515</ele>
        <time>2021-11-22T11:12:47.516Z</time>
      </trkpt>
      <trkpt lat="47.419634" lon="7.907870">
        <ele>589.981337</ele>
        <time>2021-11-22T11:12:49.397Z</time>
      </trkpt>
      <trkpt lat="47.419267" lon="7.908161">
        <ele>583.217688</ele>
        <time>2021-11-22T11:12:52.816Z</time>
      </trkpt>
      <trkpt lat="47.419141" lon="7.908164">
        <ele>581.411975</ele>
        <time>2021-11-22T11:12:53.853Z</time>
      </trkpt>
      <trkpt lat="47.418922" lon="7.907954">
        <ele>577.671224</ele>
        <time>2021-11-22T11:12:56.019Z</time>
      </trkpt>
      <trkpt lat="47.418822" lon="7.907858">
        <ele>575.962538</ele>
        <time>2021-11-22T11:12:56.999Z</time>
      </trkpt>
      <trkpt lat="47.418439" lon="7.907589">
        <ele>569.886241</ele>
        <time>2021-11-22T11:13:00.516Z</time>
      </trkpt>
      <trkpt lat="47.417978" lon="7.907279">
        <ele>562.628821</ele>
        <time>2021-11-22T11:13:04.756Z</time>
      </trkpt>
      <trkpt lat="47.417761" lon="7.907149">
        <ele>559.273626</ele>
        <time>2021-11-22T11:13:06.729Z</time>
      </trkpt>
      <trkpt lat="47.417654" lon="7.907109">
        <ele>557.769572</ele>
        <time>2021-11-22T11:13:07.665Z</time>
      </trkpt>
      <trkpt lat="47.417526" lon="7.907135">
        <ele>556.897779</ele>
        <time>2021-11-22T11:13:08.760Z</time>
      </trkpt>
      <trkpt lat="47.417211" lon="7.907291">
        <ele>554.656167</ele>
        <time>2021-11-22T11:13:11.720Z</time>
      </trkpt>
      <trkpt lat="47.417045" lon="7.907386">
        <ele>553.455040</ele>
        <time>2021-11-22T11:13:13.302Z</time>
      </trkpt>
      <trkpt lat="47.416991" lon="7.907401">
        <ele>553.084297</ele>
        <time>2021-11-22T11:13:13.806Z</time>
      </trkpt>
      <trkpt lat="47.416851" lon="7.907423">
        <ele>552.134328</ele>
        <time>2021-11-22T11:13:15.074Z</time>
      </trkpt>
      <trkpt lat="47.416753" lon="7.907390">
        <ele>551.456130</ele>
        <time>2021-11-22T11:13:15.959Z</time>
      </trkpt>
      <trkpt lat="47.416673" lon="7.907346">
        <ele>550.880163</ele>
        <time>2021-11-22T11:13:16.723Z</time>
      </trkpt>
      <trkpt lat="47.416637" lon="7.907164">
        <ele>550.014421</ele>
        <time>2021-11-22T11:13:17.902Z</time>
      </trkpt>
      <trkpt lat="47.416608" lon="7.907067">
        <ele>549.530242</ele>
        <time>2021-11-22T11:13:18.562Z</time>
      </trkpt>
      <trkpt lat="47.416442" lon="7.906759">
        <ele>547.732432</ele>
        <time>2021-11-22T11:13:21.005Z</time>
      </trkpt>
      <trkpt lat="47.416410" lon="7.906687">
        <ele>547.339128</ele>
        <time>2021-11-22T11:13:21.617Z</time>
      </trkpt>
      <trkpt lat="47.416398" lon="7.906605">
        <ele>546.956080</ele>
        <time>2021-11-22T11:13:22.144Z</time>
      </trkpt>
      <trkpt lat="47.416460" lon="7.906294">
        <ele>545.729443</ele>
        <time>2021-11-22T11:13:24.475Z</time>
      </trkpt>
      <trkpt lat="47.416580" lon="7.905705">
        <ele>546.066701</ele>
        <time>2021-11-22T11:13:29.301Z</time>
      </trkpt>
      <trkpt lat="47.416651" lon="7.905415">
        <ele>546.235790</ele>
        <time>2021-11-22T11:13:32.353Z</time>
      </trkpt>
      <trkpt lat="47.416685" lon="7.905282">
        <ele>546.313742</ele>
        <time>2021-11-22T11:13:33.688Z</time>
      </trkpt>
      <trkpt lat="47.416735" lon="7.905083">
        <ele>546.430129</ele>
        <time>2021-11-22T11:13:36.151Z</time>
      </trkpt>
      <trkpt lat="47.416773" lon="7.904932">
        <ele>546.518459</ele>
        <time>2021-11-22T11:13:38.103Z</time>
      </trkpt>
      <trkpt lat="47.416808" lon="7.904773">
        <ele>546.610132</ele>
        <time>2021-11-22T11:13:40.220Z</time>
      </trkpt>
      <trkpt lat="47.416822" lon="7.904701">
        <ele>546.651206</ele>
        <time>2021-11-22T11:13:41.410Z</time>
      </trkpt>
      <trkpt lat="47.416754" lon="7.904710">
        <ele>546.706525</ele>
        <time>2021-11-22T11:13:42.647Z</time>
      </trkpt>
      <trkpt lat="47.416543" lon="7.904651">
        <ele>546.880526</ele>
        <time>2021-11-22T11:13:47.400Z</time>
      </trkpt>
      <trkpt lat="47.416158" lon="7.904395">
        <ele>547.647894</ele>
        <time>2021-11-22T11:13:59.002Z</time>
      </trkpt>
      <trkpt lat="47.415794" lon="7.903917">
        <ele>550.707475</ele>
        <time>2021-11-22T11:14:20.773Z</time>
      </trkpt>
      <trkpt lat="47.415429" lon="7.903578">
        <ele>553.416165</ele>
        <time>2021-11-22T11:14:41.539Z</time>
      </trkpt>
      <trkpt lat="47.414946" lon="7.903337">
        <ele>556.619279</ele>
        <time>2021-11-22T11:15:03.712Z</time>
      </trkpt>
      <trkpt lat="47.414457" lon="7.903126">
        <ele>559.090323</ele>
        <time>2021-11-22T11:15:22.421Z</time>
      </trkpt>
      <trkpt lat="47.414360" lon="7.903055">
        <ele>559.405286</ele>
        <time>2021-11-22T11:15:25.119Z</time>
      </trkpt>
      <trkpt lat="47.413979" lon="7.902876">
        <ele>560.568550</ele>
        <time>2021-11-22T11:15:36.758Z</time>
      </trkpt>
      <trkpt lat="47.413779" lon="7.902818">
        <ele>561.161586</ele>
        <time>2021-11-22T11:15:42.677Z</time>
      </trkpt>
      <trkpt lat="47.413454" lon="7.902818">
        <ele>562.107232</ele>
        <time>2021-11-22T11:15:50.526Z</time>
      </trkpt>
      <trkpt lat="47.413324" lon="7.902797">
        <ele>562.487743</ele>
        <time>2021-11-22T11:15:53.590Z</time>
      </trkpt>
      <trkpt lat="47.413185" lon="7.902732">
        <ele>562.911956</ele>
        <time>2021-11-22T11:15:56.564Z</time>
      </trkpt>
      <trkpt lat="47.412722" lon="7.902491">
        <ele>564.146982</ele>
        <time>2021-11-22T11:16:04.288Z</time>
      </trkpt>
      <trkpt lat="47.412218" lon="7.902425">
        <ele>565.178624</ele>
        <time>2021-11-22T11:16:12.707Z</time>
      </trkpt>
      <trkpt lat="47.412053" lon="7.902324">
        <ele>565.542767</ele>
        <time>2021-11-22T11:16:16.718Z</time>
      </trkpt>
      <trkpt lat="47.411995" lon="7.902289">
        <ele>565.670505</ele>
        <time>2021-11-22T11:16:18.539Z</time>
      </trkpt>
      <trkpt lat="47.411203" lon="7.901793">
        <ele>567.466332</ele>
        <time>2021-11-22T11:16:41.828Z</time>
      </trkpt>
      <trkpt lat="47.410416" lon="7.901443">
        <ele>570.263894</ele>
        <time>2021-11-22T11:17:06.395Z</time>
      </trkpt>
      <trkpt lat="47.410305" lon="7.901395">
        <ele>570.657574</ele>
        <time>2021-11-22T11:17:09.868Z</time>
      </trkpt>
      <trkpt lat="47.410000" lon="7.901340">
        <ele>571.703465</ele>
        <time>2021-11-22T11:17:18.059Z</time>
      </trkpt>
      <trkpt lat="47.408980" lon="7.901427">
        <ele>575.556359</ele>
        <time>2021-11-22T11:17:46.637Z</time>
      </trkpt>
      <trkpt lat="47.408633" lon="7.901528">
        <ele>577.026310</ele>
        <time>2021-11-22T11:17:57.641Z</time>
      </trkpt>
      <trkpt lat="47.408249" lon="7.901503">
        <ele>578.623878</ele>
        <time>2021-11-22T11:18:09.734Z</time>
      </trkpt>
      <trkpt lat="47.407950" lon="7.901419">
        <ele>579.888875</ele>
        <time>2021-11-22T11:18:19.707Z</time>
      </trkpt>
      <trkpt lat="47.407700" lon="7.901346">
        <ele>580.948046</ele>
        <time>2021-11-22T11:18:28.270Z</time>
      </trkpt>
      <trkpt lat="47.407183" lon="7.901226">
        <ele>584.699502</ele>
        <time>2021-11-22T11:18:46.754Z</time>
      </trkpt>
      <trkpt lat="47.406056" lon="7.900591">
        <ele>593.365331</ele>
        <time>2021-11-22T11:19:44.062Z</time>
      </trkpt>
      <trkpt lat="47.405726" lon="7.900247">
        <ele>596.577339</ele>
        <time>2021-11-22T11:20:03.639Z</time>
      </trkpt>
      <trkpt lat="47.405648" lon="7.900181">
        <ele>597.307195</ele>
        <time>2021-11-22T11:20:08.590Z</time>
      </trkpt>
      <trkpt lat="47.405377" lon="7.900042">
        <ele>599.636500</ele>
        <time>2021-11-22T11:20:22.081Z</time>
      </trkpt>
      <trkpt lat="47.404734" lon="7.899896">
        <ele>604.918874</ele>
        <time>2021-11-22T11:20:53.652Z</time>
      </trkpt>
      <trkpt lat="47.404452" lon="7.899711">
        <ele>607.424246</ele>
        <time>2021-11-22T11:21:08.433Z</time>
      </trkpt>
      <trkpt lat="47.403746" lon="7.898667">
        <ele>614.315499</ele>
        <time>2021-11-22T11:21:50.712Z</time>
      </trkpt>
      <trkpt lat="47.403389" lon="7.898027">
        <ele>618.084798</ele>
        <time>2021-11-22T11:22:11.864Z</time>
      </trkpt>
      <trkpt lat="47.403337" lon="7.897962">
        <ele>618.542182</ele>
        <time>2021-11-22T11:22:15.404Z</time>
      </trkpt>
      <trkpt lat="47.403251" lon="7.897904">
        <ele>619.176991</ele>
        <time>2021-11-22T11:22:19.276Z</time>
      </trkpt>
      <trkpt lat="47.402533" lon="7.897738">
        <ele>624.686084</ele>
        <time>2021-11-22T11:22:49.066Z</time>
      </trkpt>
      <trkpt lat="47.402452" lon="7.897680">
        <ele>625.399394</ele>
        <time>2021-11-22T11:22:52.311Z</time>
      </trkpt>
      <trkpt lat="47.401903" lon="7.897350">
        <ele>630.096310</ele>
        <time>2021-11-22T11:23:23.346Z</time>
      </trkpt>
      <trkpt lat="47.400945" lon="7.896926">
        <ele>638.162560</ele>
        <time>2021-11-22T11:24:10.504Z</time>
      </trkpt>
      <trkpt lat="47.400890" lon="7.896903">
        <ele>638.635496</ele>
        <time>2021-11-22T11:24:15.295Z</time>
      </trkpt>
      <trkpt lat="47.400751" lon="7.896863">
        <ele>639.807166</ele>
        <time>2021-11-22T11:24:21.617Z</time>
      </trkpt>
      <trkpt lat="47.399796" lon="7.896698">
        <ele>647.762482</ele>
        <time>2021-11-22T11:25:08.944Z</time>
      </trkpt>
      <trkpt lat="47.399633" lon="7.896675">
        <ele>649.117247</ele>
        <time>2021-11-22T11:25:15.236Z</time>
      </trkpt>
      <trkpt lat="47.399538" lon="7.896644">
        <ele>649.852268</ele>
        <time>2021-11-22T11:25:19.977Z</time>
      </trkpt>
      <trkpt lat="47.399246" lon="7.896363">
        <ele>651.827211</ele>
        <time>2021-11-22T11:25:36.036Z</time>
      </trkpt>
      <trkpt lat="47.398784" lon="7.895173">
        <ele>657.089711</ele>
        <time>2021-11-22T11:26:10.063Z</time>
      </trkpt>
      <trkpt lat="47.397727" lon="7.893516">
        <ele>663.472740</ele>
        <time>2021-11-22T11:26:58.764Z</time>
      </trkpt>
      <trkpt lat="47.397426" lon="7.893177">
        <ele>664.767315</ele>
        <time>2021-11-22T11:27:08.198Z</time>
      </trkpt>
      <trkpt lat="47.396808" lon="7.892644">
        <ele>666.650853</ele>
        <time>2021-11-22T11:27:25.070Z</time>
      </trkpt>
      <trkpt lat="47.396399" lon="7.892118">
        <ele>667.610972</ele>
        <time>2021-11-22T11:27:36.896Z</time>
      </trkpt>
      <trkpt lat="47.395697" lon="7.890534">
        <ele>669.855624</ele>
        <time>2021-11-22T11:28:03.846Z</time>
      </trkpt>
      <trkpt lat="47.394937" lon="7.889307">
        <ele>671.773828</ele>
        <time>2021-11-22T11:28:27.747Z</time>
      </trkpt>
      <trkpt lat="47.394848" lon="7.889167">
        <ele>671.995341</ele>
        <time>2021-11-22T11:28:30.577Z</time>
      </trkpt>
      <trkpt lat="47.394678" lon="7.888935">
        <ele>672.508894</ele>
        <time>2021-11-22T11:28:35.848Z</time>
      </trkpt>
      <trkpt lat="47.394482" lon="7.888702">
        <ele>673.475140</ele>
        <time>2021-11-22T11:28:41.853Z</time>
      </trkpt>
      <trkpt lat="47.394359" lon="7.888578">
        <ele>674.047066</ele>
        <time>2021-11-22T11:28:45.527Z</time>
      </trkpt>
      <trkpt lat="47.394146" lon="7.888371">
        <ele>675.026284</ele>
        <time>2021-11-22T11:28:51.618Z</time>
      </trkpt>
      <trkpt lat="47.393995" lon="7.888223">
        <ele>675.722269</ele>
        <time>2021-11-22T11:28:57.018Z</time>
      </trkpt>
      <trkpt lat="47.393916" lon="7.888143">
        <ele>676.090130</ele>
        <time>2021-11-22T11:28:59.211Z</time>
      </trkpt>
      <trkpt lat="47.393730" lon="7.887967">
        <ele>676.938484</ele>
        <time>2021-11-22T11:29:06.525Z</time>
      </trkpt>
      <trkpt lat="47.393623" lon="7.887857">
        <ele>677.439158</ele>
        <time>2021-11-22T11:29:09.673Z</time>
      </trkpt>
      <trkpt lat="47.393478" lon="7.887667">
        <ele>678.183579</ele>
        <time>2021-11-22T11:29:17.603Z</time>
      </trkpt>
      <trkpt lat="47.393429" lon="7.887604">
        <ele>678.433071</ele>
        <time>2021-11-22T11:29:19.943Z</time>
      </trkpt>
      <trkpt lat="47.393034" lon="7.887066">
        <ele>682.093280</ele>
        <time>2021-11-22T11:29:41.144Z</time>
      </trkpt>
      <trkpt lat="47.392970" lon="7.886964">
        <ele>682.901052</ele>
        <time>2021-11-22T11:29:45.489Z</time>
      </trkpt>
      <trkpt lat="47.392849" lon="7.886770">
        <ele>684.433180</ele>
        <time>2021-11-22T11:29:54.041Z</time>
      </trkpt>
      <trkpt lat="47.392831" lon="7.886731">
        <ele>684.707337</ele>
        <time>2021-11-22T11:29:55.684Z</time>
      </trkpt>
      <trkpt lat="47.392756" lon="7.886570">
        <ele>685.842469</ele>
        <time>2021-11-22T11:30:03.630Z</time>
      </trkpt>
      <trkpt lat="47.392679" lon="7.886220">
        <ele>687.980002</ele>
        <time>2021-11-22T11:30:16.791Z</time>
      </trkpt>
      <trkpt lat="47.392677" lon="7.886170">
        <ele>688.270920</ele>
        <time>2021-11-22T11:30:19.543Z</time>
      </trkpt>
      <trkpt lat="47.392666" lon="7.885811">
        <ele>690.358211</ele>
        <time>2021-11-22T11:30:33.204Z</time>
      </trkpt>
      <trkpt lat="47.392623" lon="7.885495">
        <ele>692.230326</ele>
        <time>2021-11-22T11:30:44.842Z</time>
      </trkpt>
      <trkpt lat="47.392609" lon="7.885409">
        <ele>692.744074</ele>
        <time>2021-11-22T11:30:48.311Z</time>
      </trkpt>
      <trkpt lat="47.392513" lon="7.884798">
        <ele>695.609985</ele>
        <time>2021-11-22T11:31:09.532Z</time>
      </trkpt>
      <trkpt lat="47.392466" lon="7.884585">
        <ele>696.334176</ele>
        <time>2021-11-22T11:31:17.235Z</time>
      </trkpt>
      <trkpt lat="47.392294" lon="7.884155">
        <ele>697.948695</ele>
        <time>2021-11-22T11:31:31.170Z</time>
      </trkpt>
      <trkpt lat="47.392254" lon="7.884010">
        <ele>698.454842</ele>
        <time>2021-11-22T11:31:34.689Z</time>
      </trkpt>
      <trkpt lat="47.392243" lon="7.883926">
        <ele>698.731413</ele>
        <time>2021-11-22T11:31:37.597Z</time>
      </trkpt>
      <trkpt lat="47.392257" lon="7.883748">
        <ele>699.310684</ele>
        <time>2021-11-22T11:31:41.946Z</time>
      </trkpt>
      <trkpt lat="47.392295" lon="7.883568">
        <ele>699.920185</ele>
        <time>2021-11-22T11:31:45.861Z</time>
      </trkpt>
      <trkpt lat="47.392327" lon="7.883402">
        <ele>700.478126</ele>
        <time>2021-11-22T11:31:49.495Z</time>
      </trkpt>
      <trkpt lat="47.392391" lon="7.882852">
        <ele>702.282119</ele>
        <time>2021-11-22T11:31:58.570Z</time>
      </trkpt>
      <trkpt lat="47.392399" lon="7.882631">
        <ele>702.997539</ele>
        <time>2021-11-22T11:32:01.729Z</time>
      </trkpt>
      <trkpt lat="47.392394" lon="7.882220">
        <ele>702.561665</ele>
        <time>2021-11-22T11:32:05.349Z</time>
      </trkpt>
      <trkpt lat="47.392492" lon="7.881363">
        <ele>700.877228</ele>
        <time>2021-11-22T11:32:11.529Z</time>
      </trkpt>
      <trkpt lat="47.392530" lon="7.881231">
        <ele>700.599236</ele>
        <time>2021-11-22T11:32:12.445Z</time>
      </trkpt>
      <trkpt lat="47.392576" lon="7.881042">
        <ele>700.209992</ele>
        <time>2021-11-22T11:32:13.809Z</time>
      </trkpt>
      <trkpt lat="47.392973" lon="7.879797">
        <ele>696.874733</ele>
        <time>2021-11-22T11:32:22.835Z</time>
      </trkpt>
      <trkpt lat="47.393030" lon="7.879335">
        <ele>694.819586</ele>
        <time>2021-11-22T11:32:25.788Z</time>
      </trkpt>
      <trkpt lat="47.392980" lon="7.878739">
        <ele>692.191368</ele>
        <time>2021-11-22T11:32:29.509Z</time>
      </trkpt>
      <trkpt lat="47.392853" lon="7.877912">
        <ele>688.480222</ele>
        <time>2021-11-22T11:32:34.739Z</time>
      </trkpt>
      <trkpt lat="47.392796" lon="7.877526">
        <ele>686.751249</ele>
        <time>2021-11-22T11:32:37.128Z</time>
      </trkpt>
      <trkpt lat="47.392627" lon="7.875850">
        <ele>675.076032</ele>
        <time>2021-11-22T11:32:46.943Z</time>
      </trkpt>
      <trkpt lat="47.392620" lon="7.875265">
        <ele>670.981645</ele>
        <time>2021-11-22T11:32:50.326Z</time>
      </trkpt>
      <trkpt lat="47.392622" lon="7.875217">
        <ele>670.645113</ele>
        <time>2021-11-22T11:32:50.592Z</time>
      </trkpt>
      <trkpt lat="47.392645" lon="7.874997">
        <ele>669.087334</ele>
        <time>2021-11-22T11:32:51.905Z</time>
      </trkpt>
      <trkpt lat="47.392733" lon="7.874549">
        <ele>666.313572</ele>
        <time>2021-11-22T11:32:54.579Z</time>
      </trkpt>
      <trkpt lat="47.392729" lon="7.874456">
        <ele>665.818984</ele>
        <time>2021-11-22T11:32:55.114Z</time>
      </trkpt>
      <trkpt lat="47.392680" lon="7.874314">
        <ele>664.973064</ele>
        <time>2021-11-22T11:32:56.041Z</time>
      </trkpt>
      <trkpt lat="47.392178" lon="7.872950">
        <ele>656.733007</ele>
        <time>2021-11-22T11:33:05.132Z</time>
      </trkpt>
      <trkpt lat="47.392145" lon="7.872809">
        <ele>655.941188</ele>
        <time>2021-11-22T11:33:05.999Z</time>
      </trkpt>
      <trkpt lat="47.392122" lon="7.872711">
        <ele>655.390682</ele>
        <time>2021-11-22T11:33:06.732Z</time>
      </trkpt>
      <trkpt lat="47.392003" lon="7.871960">
        <ele>655.120337</ele>
        <time>2021-11-22T11:33:15.929Z</time>
      </trkpt>
      <trkpt lat="47.391971" lon="7.871747">
        <ele>655.765412</ele>
        <time>2021-11-22T11:33:17.466Z</time>
      </trkpt>
      <trkpt lat="47.391928" lon="7.871611">
        <ele>656.209201</ele>
        <time>2021-11-22T11:33:21.481Z</time>
      </trkpt>
      <trkpt lat="47.391668" lon="7.871191">
        <ele>657.891871</ele>
        <time>2021-11-22T11:33:33.977Z</time>
      </trkpt>
      <trkpt lat="47.391313" lon="7.870991">
        <ele>659.551212</ele>
        <time>2021-11-22T11:33:48.024Z</time>
      </trkpt>
      <trkpt lat="47.391248" lon="7.870968">
        <ele>659.843120</ele>
        <time>2021-11-22T11:33:52.894Z</time>
      </trkpt>
      <trkpt lat="47.391237" lon="7.871032">
        <ele>660.038348</ele>
        <time>2021-11-22T11:33:56.121Z</time>
      </trkpt>
      <trkpt lat="47.391155" lon="7.871190">
        <ele>660.626973</ele>
        <time>2021-11-22T11:34:00.467Z</time>
      </trkpt>
      <trkpt lat="47.391042" lon="7.871238">
        <ele>661.140482</ele>
        <time>2021-11-22T11:34:06.780Z</time>
      </trkpt>
      <trkpt lat="47.390859" lon="7.871070">
        <ele>662.510229</ele>
        <time>2021-11-22T11:34:18.015Z</time>
      </trkpt>
      <trkpt lat="47.390762" lon="7.870887">
        <ele>663.819356</ele>
        <time>2021-11-22T11:34:27.642Z</time>
      </trkpt>
      <trkpt lat="47.390678" lon="7.870726">
        <ele>664.964270</ele>
        <time>2021-11-22T11:34:37.317Z</time>
      </trkpt>
      <trkpt lat="47.390389" lon="7.870365">
        <ele>668.113286</ele>
        <time>2021-11-22T11:34:57.629Z</time>
      </trkpt>
      <trkpt lat="47.389733" lon="7.870073">
        <ele>673.813686</ele>
        <time>2021-11-22T11:35:31.635Z</time>
      </trkpt>
      <trkpt lat="47.389569" lon="7.869837">
        <ele>675.718668</ele>
        <time>2021-11-22T11:35:41.450Z</time>
      </trkpt>
      <trkpt lat="47.388898" lon="7.868496">
        <ele>679.500551</ele>
        <time>2021-11-22T11:36:13.874Z</time>
      </trkpt>
      <trkpt lat="47.388714" lon="7.868237">
        <ele>680.225686</ele>
        <time>2021-11-22T11:36:19.699Z</time>
      </trkpt>
      <trkpt lat="47.388570" lon="7.868126">
        <ele>680.689088</ele>
        <time>2021-11-22T11:36:22.655Z</time>
      </trkpt>
      <trkpt lat="47.388489" lon="7.868068">
        <ele>680.945899</ele>
        <time>2021-11-22T11:36:25.503Z</time>
      </trkpt>
      <trkpt lat="47.388334" lon="7.867941">
        <ele>681.451586</ele>
        <time>2021-11-22T11:36:27.482Z</time>
      </trkpt>
      <trkpt lat="47.387851" lon="7.867311">
        <ele>682.187845</ele>
        <time>2021-11-22T11:36:39.432Z</time>
      </trkpt>
      <trkpt lat="47.387697" lon="7.867213">
        <ele>682.333792</ele>
        <time>2021-11-22T11:36:41.857Z</time>
      </trkpt>
      <trkpt lat="47.387496" lon="7.867166">
        <ele>682.510914</ele>
        <time>2021-11-22T11:36:45.521Z</time>
      </trkpt>
      <trkpt lat="47.386883" lon="7.867395">
        <ele>683.061249</ele>
        <time>2021-11-22T11:36:57.155Z</time>
      </trkpt>
      <trkpt lat="47.386603" lon="7.867395">
        <ele>683.306826</ele>
        <time>2021-11-22T11:37:02.986Z</time>
      </trkpt>
      <trkpt lat="47.386464" lon="7.867362">
        <ele>683.435837</ele>
        <time>2021-11-22T11:37:05.824Z</time>
      </trkpt>
      <trkpt lat="47.386040" lon="7.867365">
        <ele>683.824386</ele>
        <time>2021-11-22T11:37:13.834Z</time>
      </trkpt>
      <trkpt lat="47.385944" lon="7.867392">
        <ele>683.913939</ele>
        <time>2021-11-22T11:37:16.188Z</time>
      </trkpt>
      <trkpt lat="47.385795" lon="7.867435">
        <ele>684.053062</ele>
        <time>2021-11-22T11:37:18.998Z</time>
      </trkpt>
      <trkpt lat="47.385102" lon="7.867627">
        <ele>684.699188</ele>
        <time>2021-11-22T11:37:29.970Z</time>
      </trkpt>
      <trkpt lat="47.384894" lon="7.867633">
        <ele>684.889831</ele>
        <time>2021-11-22T11:37:33.594Z</time>
      </trkpt>
      <trkpt lat="47.384400" lon="7.867647">
        <ele>686.006687</ele>
        <time>2021-11-22T11:37:44.115Z</time>
      </trkpt>
      <trkpt lat="47.383776" lon="7.867821">
        <ele>687.498157</ele>
        <time>2021-11-22T11:37:59.340Z</time>
      </trkpt>
      <trkpt lat="47.383471" lon="7.867892">
        <ele>688.223349</ele>
        <time>2021-11-22T11:38:08.975Z</time>
      </trkpt>
      <trkpt lat="47.382207" lon="7.868506">
        <ele>689.607552</ele>
        <time>2021-11-22T11:38:44.043Z</time>
      </trkpt>
      <trkpt lat="47.381814" lon="7.868690">
        <ele>689.811792</ele>
        <time>2021-11-22T11:38:50.844Z</time>
      </trkpt>
      <trkpt lat="47.381482" lon="7.868872">
        <ele>689.987229</ele>
        <time>2021-11-22T11:38:54.582Z</time>
      </trkpt>
      <trkpt lat="47.381410" lon="7.868929">
        <ele>690.027699</ele>
        <time>2021-11-22T11:38:55.387Z</time>
      </trkpt>
      <trkpt lat="47.381343" lon="7.868980">
        <ele>689.698948</ele>
        <time>2021-11-22T11:38:56.037Z</time>
      </trkpt>
      <trkpt lat="47.381084" lon="7.869193">
        <ele>688.156386</ele>
        <time>2021-11-22T11:38:58.982Z</time>
      </trkpt>
      <trkpt lat="47.380950" lon="7.869325">
        <ele>687.318245</ele>
        <time>2021-11-22T11:39:00.421Z</time>
      </trkpt>
      <trkpt lat="47.380843" lon="7.869437">
        <ele>686.635810</ele>
        <time>2021-11-22T11:39:01.729Z</time>
      </trkpt>
      <trkpt lat="47.380725" lon="7.869588">
        <ele>685.823368</ele>
        <time>2021-11-22T11:39:03.075Z</time>
      </trkpt>
      <trkpt lat="47.380570" lon="7.869787">
        <ele>684.754668</ele>
        <time>2021-11-22T11:39:05.060Z</time>
      </trkpt>
      <trkpt lat="47.380483" lon="7.869921">
        <ele>684.100565</ele>
        <time>2021-11-22T11:39:06.146Z</time>
      </trkpt>
      <trkpt lat="47.380441" lon="7.869986">
        <ele>683.784001</ele>
        <time>2021-11-22T11:39:06.696Z</time>
      </trkpt>
      <trkpt lat="47.380320" lon="7.870168">
        <ele>682.885316</ele>
        <time>2021-11-22T11:39:08.450Z</time>
      </trkpt>
      <trkpt lat="47.380175" lon="7.870437">
        <ele>681.673871</ele>
        <time>2021-11-22T11:39:10.535Z</time>
      </trkpt>
      <trkpt lat="47.380138" lon="7.870450">
        <ele>681.475970</ele>
        <time>2021-11-22T11:39:10.928Z</time>
      </trkpt>
      <trkpt lat="47.380051" lon="7.870618">
        <ele>680.730767</ele>
        <time>2021-11-22T11:39:12.376Z</time>
      </trkpt>
      <trkpt lat="47.380047" lon="7.870663">
        <ele>680.586145</ele>
        <time>2021-11-22T11:39:12.654Z</time>
      </trkpt>
      <trkpt lat="47.379746" lon="7.871189">
        <ele>678.519228</ele>
        <time>2021-11-22T11:39:17.086Z</time>
      </trkpt>
      <trkpt lat="47.379717" lon="7.871234">
        <ele>678.332780</ele>
        <time>2021-11-22T11:39:17.560Z</time>
      </trkpt>
      <trkpt lat="47.379412" lon="7.871620">
        <ele>676.552422</ele>
        <time>2021-11-22T11:39:21.509Z</time>
      </trkpt>
      <trkpt lat="47.379227" lon="7.871763">
        <ele>675.626907</ele>
        <time>2021-11-22T11:39:23.504Z</time>
      </trkpt>
      <trkpt lat="47.379044" lon="7.871852">
        <ele>674.772936</ele>
        <time>2021-11-22T11:39:25.435Z</time>
      </trkpt>
      <trkpt lat="47.378769" lon="7.871985">
        <ele>673.490342</ele>
        <time>2021-11-22T11:39:28.258Z</time>
      </trkpt>
      <trkpt lat="47.378682" lon="7.872035">
        <ele>673.076557</ele>
        <time>2021-11-22T11:39:29.188Z</time>
      </trkpt>
      <trkpt lat="47.378353" lon="7.872202">
        <ele>671.622442</ele>
        <time>2021-11-22T11:39:32.445Z</time>
      </trkpt>
      <trkpt lat="47.378315" lon="7.872222">
        <ele>671.457096</ele>
        <time>2021-11-22T11:39:32.815Z</time>
      </trkpt>
      <trkpt lat="47.378209" lon="7.872290">
        <ele>670.983411</ele>
        <time>2021-11-22T11:39:33.873Z</time>
      </trkpt>
      <trkpt lat="47.377943" lon="7.872488">
        <ele>669.762487</ele>
        <time>2021-11-22T11:39:36.579Z</time>
      </trkpt>
      <trkpt lat="47.377865" lon="7.872546">
        <ele>669.404547</ele>
        <time>2021-11-22T11:39:37.528Z</time>
      </trkpt>
      <trkpt lat="47.377490" lon="7.872740">
        <ele>667.775948</ele>
        <time>2021-11-22T11:39:41.342Z</time>
      </trkpt>
      <trkpt lat="47.377176" lon="7.872785">
        <ele>666.482908</ele>
        <time>2021-11-22T11:39:44.532Z</time>
      </trkpt>
      <trkpt lat="47.377111" lon="7.872787">
        <ele>666.216435</ele>
        <time>2021-11-22T11:39:45.159Z</time>
      </trkpt>
      <trkpt lat="47.376987" lon="7.872792">
        <ele>665.708006</ele>
        <time>2021-11-22T11:39:46.606Z</time>
      </trkpt>
      <trkpt lat="47.376847" lon="7.872808">
        <ele>665.164653</ele>
        <time>2021-11-22T11:39:47.987Z</time>
      </trkpt>
      <trkpt lat="47.376796" lon="7.872820">
        <ele>664.987514</ele>
        <time>2021-11-22T11:39:50.861Z</time>
      </trkpt>
      <trkpt lat="47.376624" lon="7.872912">
        <ele>664.360039</ele>
        <time>2021-11-22T11:39:52.592Z</time>
      </trkpt>
      <trkpt lat="47.376583" lon="7.872961">
        <ele>664.179122</ele>
        <time>2021-11-22T11:39:53.103Z</time>
      </trkpt>
      <trkpt lat="47.376544" lon="7.873026">
        <ele>663.977406</ele>
        <time>2021-11-22T11:39:53.688Z</time>
      </trkpt>
      <trkpt lat="47.376514" lon="7.873091">
        <ele>663.794696</ele>
        <time>2021-11-22T11:39:56.563Z</time>
      </trkpt>
      <trkpt lat="47.376283" lon="7.873972">
        <ele>661.600312</ele>
        <time>2021-11-22T11:40:03.203Z</time>
      </trkpt>
      <trkpt lat="47.376139" lon="7.874122">
        <ele>660.995866</ele>
        <time>2021-11-22T11:40:05.359Z</time>
      </trkpt>
      <trkpt lat="47.375897" lon="7.874176">
        <ele>660.156373</ele>
        <time>2021-11-22T11:40:07.797Z</time>
      </trkpt>
      <trkpt lat="47.375857" lon="7.874168">
        <ele>660.017919</ele>
        <time>2021-11-22T11:40:10.294Z</time>
      </trkpt>
      <trkpt lat="47.375850" lon="7.874167">
        <ele>659.993797</ele>
        <time>2021-11-22T11:40:10.367Z</time>
      </trkpt>
      <trkpt lat="47.375267" lon="7.873862">
        <ele>654.268059</ele>
        <time>2021-11-22T11:40:15.996Z</time>
      </trkpt>
      <trkpt lat="47.374696" lon="7.873249">
        <ele>645.070735</ele>
        <time>2021-11-22T11:40:21.984Z</time>
      </trkpt>
      <trkpt lat="47.374570" lon="7.873080">
        <ele>642.853090</ele>
        <time>2021-11-22T11:40:23.372Z</time>
      </trkpt>
      <trkpt lat="47.374445" lon="7.872909">
        <ele>640.633115</ele>
        <time>2021-11-22T11:40:24.792Z</time>
      </trkpt>
      <trkpt lat="47.373838" lon="7.872164">
        <ele>629.262750</ele>
        <time>2021-11-22T11:40:31.250Z</time>
      </trkpt>
      <trkpt lat="47.373794" lon="7.872130">
        <ele>628.484948</ele>
        <time>2021-11-22T11:40:31.654Z</time>
      </trkpt>
      <trkpt lat="47.373696" lon="7.872069">
        <ele>626.819235</ele>
        <time>2021-11-22T11:40:32.521Z</time>
      </trkpt>
      <trkpt lat="47.372848" lon="7.871871">
        <ele>613.372486</ele>
        <time>2021-11-22T11:40:39.678Z</time>
      </trkpt>
      <trkpt lat="47.372805" lon="7.871854">
        <ele>612.675281</ele>
        <time>2021-11-22T11:40:40.048Z</time>
      </trkpt>
      <trkpt lat="47.372762" lon="7.871829">
        <ele>611.951473</ele>
        <time>2021-11-22T11:40:40.436Z</time>
      </trkpt>
      <trkpt lat="47.372614" lon="7.871667">
        <ele>609.065996</ele>
        <time>2021-11-22T11:40:42.011Z</time>
      </trkpt>
      <trkpt lat="47.372524" lon="7.871415">
        <ele>607.048785</ele>
        <time>2021-11-22T11:40:43.624Z</time>
      </trkpt>
      <trkpt lat="47.372517" lon="7.871351">
        <ele>606.818088</ele>
        <time>2021-11-22T11:40:43.988Z</time>
      </trkpt>
      <trkpt lat="47.372514" lon="7.871286">
        <ele>606.586248</ele>
        <time>2021-11-22T11:40:44.379Z</time>
      </trkpt>
      <trkpt lat="47.372517" lon="7.870863">
        <ele>605.080911</ele>
        <time>2021-11-22T11:40:46.877Z</time>
      </trkpt>
      <trkpt lat="47.372529" lon="7.870460">
        <ele>603.645441</ele>
        <time>2021-11-22T11:40:49.497Z</time>
      </trkpt>
      <trkpt lat="47.372536" lon="7.870217">
        <ele>602.779939</ele>
        <time>2021-11-22T11:40:51.189Z</time>
      </trkpt>
      <trkpt lat="47.372588" lon="7.869625">
        <ele>600.655651</ele>
        <time>2021-11-22T11:40:55.256Z</time>
      </trkpt>
      <trkpt lat="47.373152" lon="7.867027">
        <ele>596.145615</ele>
        <time>2021-11-22T11:41:17.849Z</time>
      </trkpt>
      <trkpt lat="47.373241" lon="7.866286">
        <ele>595.390244</ele>
        <time>2021-11-22T11:41:23.351Z</time>
      </trkpt>
      <trkpt lat="47.373270" lon="7.866048">
        <ele>595.104809</ele>
        <time>2021-11-22T11:41:25.023Z</time>
      </trkpt>
      <trkpt lat="47.373315" lon="7.865737">
        <ele>594.729433</ele>
        <time>2021-11-22T11:41:27.356Z</time>
      </trkpt>
      <trkpt lat="47.373428" lon="7.864805">
        <ele>593.611852</ele>
        <time>2021-11-22T11:41:34.242Z</time>
      </trkpt>
      <trkpt lat="47.373394" lon="7.863499">
        <ele>592.503414</ele>
        <time>2021-11-22T11:41:44.385Z</time>
      </trkpt>
      <trkpt lat="47.373617" lon="7.861720">
        <ele>593.323791</ele>
        <time>2021-11-22T11:42:07.897Z</time>
      </trkpt>
      <trkpt lat="47.373518" lon="7.859432">
        <ele>592.970462</ele>
        <time>2021-11-22T11:42:38.722Z</time>
      </trkpt>
      <trkpt lat="47.373453" lon="7.859231">
        <ele>592.890208</ele>
        <time>2021-11-22T11:42:40.484Z</time>
      </trkpt>
      <trkpt lat="47.373331" lon="7.859191">
        <ele>592.823718</ele>
        <time>2021-11-22T11:42:41.872Z</time>
      </trkpt>
      <trkpt lat="47.373310" lon="7.859204">
        <ele>592.811603</ele>
        <time>2021-11-22T11:42:42.887Z</time>
      </trkpt>
      <trkpt lat="47.373291" lon="7.859227">
        <ele>592.798532</ele>
        <time>2021-11-22T11:42:43.095Z</time>
      </trkpt>
      <trkpt lat="47.373250" lon="7.859421">
        <ele>592.725307</ele>
        <time>2021-11-22T11:42:44.523Z</time>
      </trkpt>
      <trkpt lat="47.373378" lon="7.860466">
        <ele>588.561297</ele>
        <time>2021-11-22T11:42:51.337Z</time>
      </trkpt>
      <trkpt lat="47.373335" lon="7.861886">
        <ele>581.315017</ele>
        <time>2021-11-22T11:42:59.751Z</time>
      </trkpt>
      <trkpt lat="47.372968" lon="7.863468">
        <ele>571.347058</ele>
        <time>2021-11-22T11:43:09.491Z</time>
      </trkpt>
      <trkpt lat="47.372834" lon="7.864650">
        <ele>563.838181</ele>
        <time>2021-11-22T11:43:16.552Z</time>
      </trkpt>
      <trkpt lat="47.372573" lon="7.866144">
        <ele>555.438802</ele>
        <time>2021-11-22T11:43:25.828Z</time>
      </trkpt>
      <trkpt lat="47.371930" lon="7.868187">
        <ele>543.371838</ele>
        <time>2021-11-22T11:43:39.370Z</time>
      </trkpt>
      <trkpt lat="47.371175" lon="7.871226">
        <ele>527.524086</ele>
        <time>2021-11-22T11:43:58.675Z</time>
      </trkpt>
      <trkpt lat="47.371130" lon="7.871809">
        <ele>525.014144</ele>
        <time>2021-11-22T11:44:02.649Z</time>
      </trkpt>
      <trkpt lat="47.371247" lon="7.872282">
        <ele>522.860147</ele>
        <time>2021-11-22T11:44:06.065Z</time>
      </trkpt>
      <trkpt lat="47.371259" lon="7.872308">
        <ele>522.725561</ele>
        <time>2021-11-22T11:44:06.237Z</time>
      </trkpt>
      <trkpt lat="47.371283" lon="7.872360">
        <ele>522.483005</ele>
        <time>2021-11-22T11:44:08.390Z</time>
      </trkpt>
      <trkpt lat="47.371596" lon="7.872945">
        <ele>519.993255</ele>
        <time>2021-11-22T11:44:13.031Z</time>
      </trkpt>
      <trkpt lat="47.371615" lon="7.872996">
        <ele>519.798870</ele>
        <time>2021-11-22T11:44:14.578Z</time>
      </trkpt>
      <trkpt lat="47.371633" lon="7.873056">
        <ele>519.579719</ele>
        <time>2021-11-22T11:44:15.038Z</time>
      </trkpt>
      <trkpt lat="47.371661" lon="7.873321">
        <ele>518.684038</ele>
        <time>2021-11-22T11:44:16.940Z</time>
      </trkpt>
      <trkpt lat="47.371653" lon="7.873396">
        <ele>518.430486</ele>
        <time>2021-11-22T11:44:17.358Z</time>
      </trkpt>
      <trkpt lat="47.371653" lon="7.873396">
        <ele>518.430486</ele>
        <time>2021-11-22T11:44:17.361Z</time>
      </trkpt>
      <trkpt lat="47.371641" lon="7.873462">
        <ele>518.202272</ele>
        <time>2021-11-22T11:44:17.785Z</time>
      </trkpt>
      <trkpt lat="47.371543" lon="7.873707">
        <ele>517.252032</ele>
        <time>2021-11-22T11:44:19.890Z</time>
      </trkpt>
      <trkpt lat="47.371492" lon="7.873769">
        <ele>516.926279</ele>
        <time>2021-11-22T11:44:21.173Z</time>
      </trkpt>
      <trkpt lat="47.371443" lon="7.873817">
        <ele>516.636319</ele>
        <time>2021-11-22T11:44:21.659Z</time>
      </trkpt>
      <trkpt lat="47.370953" lon="7.874086">
        <ele>514.058491</ele>
        <time>2021-11-22T11:44:26.832Z</time>
      </trkpt>
      <trkpt lat="47.370698" lon="7.874356">
        <ele>511.715865</ele>
        <time>2021-11-22T11:44:29.680Z</time>
      </trkpt>
      <trkpt lat="47.370566" lon="7.874710">
        <ele>509.469863</ele>
        <time>2021-11-22T11:44:32.052Z</time>
      </trkpt>
      <trkpt lat="47.370311" lon="7.875855">
        <ele>502.770783</ele>
        <time>2021-11-22T11:44:39.111Z</time>
      </trkpt>
      <trkpt lat="47.370247" lon="7.876149">
        <ele>501.054411</ele>
        <time>2021-11-22T11:44:40.934Z</time>
      </trkpt>
      <trkpt lat="47.369840" lon="7.878037">
        <ele>491.670165</ele>
        <time>2021-11-22T11:44:52.881Z</time>
      </trkpt>
      <trkpt lat="47.369770" lon="7.878360">
        <ele>490.129823</ele>
        <time>2021-11-22T11:44:55.059Z</time>
      </trkpt>
      <trkpt lat="47.369658" lon="7.878791">
        <ele>488.033069</ele>
        <time>2021-11-22T11:44:57.975Z</time>
      </trkpt>
      <trkpt lat="47.369625" lon="7.878900">
        <ele>487.490776</ele>
        <time>2021-11-22T11:44:58.746Z</time>
      </trkpt>
      <trkpt lat="47.369584" lon="7.879020">
        <ele>486.882229</ele>
        <time>2021-11-22T11:44:59.539Z</time>
      </trkpt>
      <trkpt lat="47.369108" lon="7.880014">
        <ele>483.420238</ele>
        <time>2021-11-22T11:45:07.358Z</time>
      </trkpt>
      <trkpt lat="47.369029" lon="7.880400">
        <ele>482.273491</ele>
        <time>2021-11-22T11:45:09.942Z</time>
      </trkpt>
      <trkpt lat="47.369074" lon="7.880860">
        <ele>480.951749</ele>
        <time>2021-11-22T11:45:13.024Z</time>
      </trkpt>
      <trkpt lat="47.369474" lon="7.881651">
        <ele>478.714825</ele>
        <time>2021-11-22T11:45:20.075Z</time>
      </trkpt>
      <trkpt lat="47.369499" lon="7.881993">
        <ele>478.206038</ele>
        <time>2021-11-22T11:45:22.675Z</time>
      </trkpt>
      <trkpt lat="47.369458" lon="7.882276">
        <ele>477.777986</ele>
        <time>2021-11-22T11:45:24.971Z</time>
      </trkpt>
      <trkpt lat="47.369335" lon="7.882577">
        <ele>477.258018</ele>
        <time>2021-11-22T11:45:28.132Z</time>
      </trkpt>
      <trkpt lat="47.369187" lon="7.882782">
        <ele>476.814837</ele>
        <time>2021-11-22T11:45:31.326Z</time>
      </trkpt>
      <trkpt lat="47.368507" lon="7.883191">
        <ele>474.840346</ele>
        <time>2021-11-22T11:45:38.890Z</time>
      </trkpt>
      <trkpt lat="47.368406" lon="7.883291">
        <ele>474.066105</ele>
        <time>2021-11-22T11:45:40.095Z</time>
      </trkpt>
      <trkpt lat="47.368344" lon="7.883352">
        <ele>473.591753</ele>
        <time>2021-11-22T11:45:40.799Z</time>
      </trkpt>
      <trkpt lat="47.368213" lon="7.883529">
        <ele>472.461188</ele>
        <time>2021-11-22T11:45:42.501Z</time>
      </trkpt>
      <trkpt lat="47.368153" lon="7.883601">
        <ele>471.968925</ele>
        <time>2021-11-22T11:45:43.220Z</time>
      </trkpt>
      <trkpt lat="47.368040" lon="7.883694">
        <ele>471.145258</ele>
        <time>2021-11-22T11:45:44.479Z</time>
      </trkpt>
      <trkpt lat="47.368007" lon="7.883717">
        <ele>470.912922</ele>
        <time>2021-11-22T11:45:45.514Z</time>
      </trkpt>
      <trkpt lat="47.367966" lon="7.883738">
        <ele>470.636623</ele>
        <time>2021-11-22T11:45:45.890Z</time>
      </trkpt>
      <trkpt lat="47.367923" lon="7.883750">
        <ele>470.358004</ele>
        <time>2021-11-22T11:45:46.253Z</time>
      </trkpt>
      <trkpt lat="47.367886" lon="7.883755">
        <ele>470.121449</ele>
        <time>2021-11-22T11:45:46.577Z</time>
      </trkpt>
      <trkpt lat="47.367839" lon="7.883755">
        <ele>469.822210</ele>
        <time>2021-11-22T11:45:46.980Z</time>
      </trkpt>
      <trkpt lat="47.367659" lon="7.883669">
        <ele>468.617681</ele>
        <time>2021-11-22T11:45:48.988Z</time>
      </trkpt>
      <trkpt lat="47.367616" lon="7.883630">
        <ele>468.296381</ele>
        <time>2021-11-22T11:45:49.408Z</time>
      </trkpt>
      <trkpt lat="47.367580" lon="7.883575">
        <ele>467.966557</ele>
        <time>2021-11-22T11:45:49.836Z</time>
      </trkpt>
      <trkpt lat="47.367334" lon="7.882994">
        <ele>465.011901</ele>
        <time>2021-11-22T11:45:53.950Z</time>
      </trkpt>
      <trkpt lat="47.367293" lon="7.882923">
        <ele>464.609560</ele>
        <time>2021-11-22T11:45:54.505Z</time>
      </trkpt>
      <trkpt lat="47.367257" lon="7.882864">
        <ele>464.267122</ele>
        <time>2021-11-22T11:45:55.049Z</time>
      </trkpt>
      <trkpt lat="47.367212" lon="7.882810">
        <ele>463.874693</ele>
        <time>2021-11-22T11:45:55.629Z</time>
      </trkpt>
      <trkpt lat="47.367147" lon="7.882758">
        <ele>463.206893</ele>
        <time>2021-11-22T11:45:56.243Z</time>
      </trkpt>
      <trkpt lat="47.367100" lon="7.882728">
        <ele>462.744363</ele>
        <time>2021-11-22T11:45:56.668Z</time>
      </trkpt>
      <trkpt lat="47.366881" lon="7.882725">
        <ele>460.766036</ele>
        <time>2021-11-22T11:45:58.702Z</time>
      </trkpt>
      <trkpt lat="47.366821" lon="7.882753">
        <ele>460.197624</ele>
        <time>2021-11-22T11:45:59.221Z</time>
      </trkpt>
      <trkpt lat="47.366821" lon="7.882753">
        <ele>460.197624</ele>
        <time>2021-11-22T11:45:59.229Z</time>
      </trkpt>
      <trkpt lat="47.366780" lon="7.882783">
        <ele>459.784282</ele>
        <time>2021-11-22T11:45:59.605Z</time>
      </trkpt>
      <trkpt lat="47.366602" lon="7.883054">
        <ele>457.474671</ele>
        <time>2021-11-22T11:46:01.818Z</time>
      </trkpt>
      <trkpt lat="47.366587" lon="7.883103">
        <ele>457.145684</ele>
        <time>2021-11-22T11:46:02.116Z</time>
      </trkpt>
      <trkpt lat="47.366576" lon="7.883147">
        <ele>456.858733</ele>
        <time>2021-11-22T11:46:02.376Z</time>
      </trkpt>
      <trkpt lat="47.366562" lon="7.883219">
        <ele>456.400434</ele>
        <time>2021-11-22T11:46:02.801Z</time>
      </trkpt>
      <trkpt lat="47.366551" lon="7.883328">
        <ele>455.726194</ele>
        <time>2021-11-22T11:46:03.483Z</time>
      </trkpt>
      <trkpt lat="47.366557" lon="7.883815">
        <ele>452.746165</ele>
        <time>2021-11-22T11:46:06.354Z</time>
      </trkpt>
      <trkpt lat="47.366578" lon="7.884153">
        <ele>450.669550</ele>
        <time>2021-11-22T11:46:08.367Z</time>
      </trkpt>
      <trkpt lat="47.366596" lon="7.884449">
        <ele>448.851296</ele>
        <time>2021-11-22T11:46:10.147Z</time>
      </trkpt>
      <trkpt lat="47.366596" lon="7.884916">
        <ele>446.741389</ele>
        <time>2021-11-22T11:46:12.986Z</time>
      </trkpt>
      <trkpt lat="47.366586" lon="7.885013">
        <ele>446.403114</ele>
        <time>2021-11-22T11:46:13.577Z</time>
      </trkpt>
      <trkpt lat="47.366578" lon="7.885091">
        <ele>446.131131</ele>
        <time>2021-11-22T11:46:14.057Z</time>
      </trkpt>
      <trkpt lat="47.366453" lon="7.885555">
        <ele>444.409517</ele>
        <time>2021-11-22T11:46:17.153Z</time>
      </trkpt>
      <trkpt lat="47.366080" lon="7.886488">
        <ele>440.674275</ele>
        <time>2021-11-22T11:46:24.138Z</time>
      </trkpt>
      <trkpt lat="47.365937" lon="7.886847">
        <ele>439.238373</ele>
        <time>2021-11-22T11:46:27.069Z</time>
      </trkpt>
      <trkpt lat="47.365872" lon="7.887003">
        <ele>438.606909</ele>
        <time>2021-11-22T11:46:28.241Z</time>
      </trkpt>
      <trkpt lat="47.365744" lon="7.887315">
        <ele>437.854153</ele>
        <time>2021-11-22T11:46:30.881Z</time>
      </trkpt>
      <trkpt lat="47.365601" lon="7.887633">
        <ele>437.091233</ele>
        <time>2021-11-22T11:46:33.659Z</time>
      </trkpt>
      <trkpt lat="47.365425" lon="7.888058">
        <ele>436.095584</ele>
        <time>2021-11-22T11:46:37.112Z</time>
      </trkpt>
      <trkpt lat="47.365097" lon="7.888835">
        <ele>434.265639</ele>
        <time>2021-11-22T11:46:43.462Z</time>
      </trkpt>
      <trkpt lat="47.365027" lon="7.888996">
        <ele>433.883249</ele>
        <time>2021-11-22T11:46:44.872Z</time>
      </trkpt>
      <trkpt lat="47.364923" lon="7.889243">
        <ele>433.301944</ele>
        <time>2021-11-22T11:46:46.884Z</time>
      </trkpt>
      <trkpt lat="47.364764" lon="7.889618">
        <ele>432.263241</ele>
        <time>2021-11-22T11:46:50.036Z</time>
      </trkpt>
      <trkpt lat="47.364681" lon="7.889814">
        <ele>431.714761</ele>
        <time>2021-11-22T11:46:51.584Z</time>
      </trkpt>
      <trkpt lat="47.364609" lon="7.889980">
        <ele>431.247040</ele>
        <time>2021-11-22T11:46:53.020Z</time>
      </trkpt>
      <trkpt lat="47.364536" lon="7.890155">
        <ele>430.759370</ele>
        <time>2021-11-22T11:46:54.369Z</time>
      </trkpt>
      <trkpt lat="47.364430" lon="7.890406">
        <ele>430.057517</ele>
        <time>2021-11-22T11:46:56.369Z</time>
      </trkpt>
      <trkpt lat="47.364335" lon="7.890641">
        <ele>429.408145</ele>
        <time>2021-11-22T11:46:58.137Z</time>
      </trkpt>
      <trkpt lat="47.364254" lon="7.890853">
        <ele>428.830596</ele>
        <time>2021-11-22T11:46:59.778Z</time>
      </trkpt>
      <trkpt lat="47.364191" lon="7.891027">
        <ele>428.362440</ele>
        <time>2021-11-22T11:47:01.062Z</time>
      </trkpt>
      <trkpt lat="47.364146" lon="7.891178">
        <ele>427.970999</ele>
        <time>2021-11-22T11:47:02.110Z</time>
      </trkpt>
      <trkpt lat="47.364096" lon="7.891355">
        <ele>427.515948</ele>
        <time>2021-11-22T11:47:03.493Z</time>
      </trkpt>
      <trkpt lat="47.364052" lon="7.891533">
        <ele>427.066339</ele>
        <time>2021-11-22T11:47:04.809Z</time>
      </trkpt>
      <trkpt lat="47.363935" lon="7.892057">
        <ele>425.904546</ele>
        <time>2021-11-22T11:47:08.529Z</time>
      </trkpt>
      <trkpt lat="47.363897" lon="7.892240">
        <ele>425.506869</ele>
        <time>2021-11-22T11:47:09.761Z</time>
      </trkpt>
      <trkpt lat="47.363886" lon="7.892295">
        <ele>425.387720</ele>
        <time>2021-11-22T11:47:10.201Z</time>
      </trkpt>
      <trkpt lat="47.363838" lon="7.892520">
        <ele>424.897608</ele>
        <time>2021-11-22T11:47:11.957Z</time>
      </trkpt>
      <trkpt lat="47.363797" lon="7.892711">
        <ele>424.481323</ele>
        <time>2021-11-22T11:47:13.262Z</time>
      </trkpt>
      <trkpt lat="47.363683" lon="7.893247">
        <ele>423.314084</ele>
        <time>2021-11-22T11:47:17.157Z</time>
      </trkpt>
      <trkpt lat="47.363594" lon="7.893669">
        <ele>422.395790</ele>
        <time>2021-11-22T11:47:20.476Z</time>
      </trkpt>
      <trkpt lat="47.363582" lon="7.893727">
        <ele>422.269789</ele>
        <time>2021-11-22T11:47:20.839Z</time>
      </trkpt>
      <trkpt lat="47.363562" lon="7.893823">
        <ele>422.061111</ele>
        <time>2021-11-22T11:47:21.585Z</time>
      </trkpt>
      <trkpt lat="47.363531" lon="7.893966">
        <ele>421.749158</ele>
        <time>2021-11-22T11:47:22.593Z</time>
      </trkpt>
      <trkpt lat="47.363505" lon="7.894096">
        <ele>421.467532</ele>
        <time>2021-11-22T11:47:23.610Z</time>
      </trkpt>
      <trkpt lat="47.363473" lon="7.894233">
        <ele>421.236167</ele>
        <time>2021-11-22T11:47:24.562Z</time>
      </trkpt>
      <trkpt lat="47.363446" lon="7.894343">
        <ele>421.058679</ele>
        <time>2021-11-22T11:47:25.473Z</time>
      </trkpt>
      <trkpt lat="47.363408" lon="7.894474">
        <ele>420.842495</ele>
        <time>2021-11-22T11:47:26.444Z</time>
      </trkpt>
      <trkpt lat="47.363399" lon="7.894505">
        <ele>420.791331</ele>
        <time>2021-11-22T11:47:26.719Z</time>
      </trkpt>
      <trkpt lat="47.362957" lon="7.895788">
        <ele>418.607736</ele>
        <time>2021-11-22T11:47:37.489Z</time>
      </trkpt>
      <trkpt lat="47.362890" lon="7.895942">
        <ele>418.330076</ele>
        <time>2021-11-22T11:47:38.714Z</time>
      </trkpt>
      <trkpt lat="47.362505" lon="7.896852">
        <ele>416.876975</ele>
        <time>2021-11-22T11:47:46.525Z</time>
      </trkpt>
      <trkpt lat="47.362472" lon="7.896930">
        <ele>416.772545</ele>
        <time>2021-11-22T11:47:47.255Z</time>
      </trkpt>
      <trkpt lat="47.362330" lon="7.897288">
        <ele>416.301448</ele>
        <time>2021-11-22T11:47:50.560Z</time>
      </trkpt>
      <trkpt lat="47.362248" lon="7.897504">
        <ele>416.020274</ele>
        <time>2021-11-22T11:47:52.484Z</time>
      </trkpt>
      <trkpt lat="47.362166" lon="7.897746">
        <ele>415.713005</ele>
        <time>2021-11-22T11:47:54.534Z</time>
      </trkpt>
      <trkpt lat="47.362122" lon="7.897885">
        <ele>415.538778</ele>
        <time>2021-11-22T11:47:55.667Z</time>
      </trkpt>
      <trkpt lat="47.362082" lon="7.898011">
        <ele>415.380764</ele>
        <time>2021-11-22T11:47:56.806Z</time>
      </trkpt>
      <trkpt lat="47.361971" lon="7.898351">
        <ele>414.952171</ele>
        <time>2021-11-22T11:48:00.839Z</time>
      </trkpt>
      <trkpt lat="47.361883" lon="7.898598">
        <ele>414.635258</ele>
        <time>2021-11-22T11:48:02.861Z</time>
      </trkpt>
      <trkpt lat="47.361853" lon="7.898673">
        <ele>414.536350</ele>
        <time>2021-11-22T11:48:03.642Z</time>
      </trkpt>
      <trkpt lat="47.361834" lon="7.898718">
        <ele>414.476135</ele>
        <time>2021-11-22T11:48:04.122Z</time>
      </trkpt>
      <trkpt lat="47.361807" lon="7.898775">
        <ele>414.397152</ele>
        <time>2021-11-22T11:48:04.708Z</time>
      </trkpt>
      <trkpt lat="47.361773" lon="7.898845">
        <ele>414.245035</ele>
        <time>2021-11-22T11:48:05.479Z</time>
      </trkpt>
      <trkpt lat="47.361729" lon="7.898932">
        <ele>414.039987</ele>
        <time>2021-11-22T11:48:06.358Z</time>
      </trkpt>
      <trkpt lat="47.361681" lon="7.899018">
        <ele>413.829540</ele>
        <time>2021-11-22T11:48:07.020Z</time>
      </trkpt>
      <trkpt lat="47.361398" lon="7.899405">
        <ele>412.754029</ele>
        <time>2021-11-22T11:48:11.216Z</time>
      </trkpt>
      <trkpt lat="47.361310" lon="7.899513">
        <ele>412.434972</ele>
        <time>2021-11-22T11:48:12.840Z</time>
      </trkpt>
      <trkpt lat="47.361267" lon="7.899569">
        <ele>412.275104</ele>
        <time>2021-11-22T11:48:13.689Z</time>
      </trkpt>
      <trkpt lat="47.361141" lon="7.899776">
        <ele>411.749522</ele>
        <time>2021-11-22T11:48:15.449Z</time>
      </trkpt>
      <trkpt lat="47.361124" lon="7.899822">
        <ele>411.650559</ele>
        <time>2021-11-22T11:48:16.014Z</time>
      </trkpt>
      <trkpt lat="47.361106" lon="7.899813">
        <ele>411.597574</ele>
        <time>2021-11-22T11:48:16.435Z</time>
      </trkpt>
      <trkpt lat="47.361087" lon="7.899811">
        <ele>411.544466</ele>
        <time>2021-11-22T11:48:16.627Z</time>
      </trkpt>
      <trkpt lat="47.361068" lon="7.899819">
        <ele>411.489381</ele>
        <time>2021-11-22T11:48:16.921Z</time>
      </trkpt>
      <trkpt lat="47.361051" lon="7.899836">
        <ele>411.432133</ele>
        <time>2021-11-22T11:48:17.120Z</time>
      </trkpt>
      <trkpt lat="47.361032" lon="7.899891">
        <ele>411.315534</ele>
        <time>2021-11-22T11:48:17.730Z</time>
      </trkpt>
      <trkpt lat="47.361033" lon="7.899922">
        <ele>411.256922</ele>
        <time>2021-11-22T11:48:17.983Z</time>
      </trkpt>
      <trkpt lat="47.361039" lon="7.899947">
        <ele>411.206832</ele>
        <time>2021-11-22T11:48:18.136Z</time>
      </trkpt>
      <trkpt lat="47.361114" lon="7.899990">
        <ele>410.982512</ele>
        <time>2021-11-22T11:48:19.025Z</time>
      </trkpt>
      <trkpt lat="47.361130" lon="7.899979">
        <ele>410.933303</ele>
        <time>2021-11-22T11:48:19.169Z</time>
      </trkpt>
      <trkpt lat="47.361157" lon="7.900058">
        <ele>410.766191</ele>
        <time>2021-11-22T11:48:19.719Z</time>
      </trkpt>
      <trkpt lat="47.361259" lon="7.900276">
        <ele>410.265816</ele>
        <time>2021-11-22T11:48:21.864Z</time>
      </trkpt>
      <trkpt lat="47.361312" lon="7.900389">
        <ele>410.006244</ele>
        <time>2021-11-22T11:48:22.889Z</time>
      </trkpt>
      <trkpt lat="47.361335" lon="7.900435">
        <ele>409.898267</ele>
        <time>2021-11-22T11:48:23.211Z</time>
      </trkpt>
      <trkpt lat="47.361433" lon="7.900633">
        <ele>409.435146</ele>
        <time>2021-11-22T11:48:25.024Z</time>
      </trkpt>
      <trkpt lat="47.361610" lon="7.901001">
        <ele>408.557592</ele>
        <time>2021-11-22T11:48:27.998Z</time>
      </trkpt>
      <trkpt lat="47.361859" lon="7.901518">
        <ele>407.321071</ele>
        <time>2021-11-22T11:48:32.411Z</time>
      </trkpt>
      <trkpt lat="47.361920" lon="7.901635">
        <ele>407.033280</ele>
        <time>2021-11-22T11:48:33.475Z</time>
      </trkpt>
      <trkpt lat="47.361991" lon="7.901756">
        <ele>406.721236</ele>
        <time>2021-11-22T11:48:34.413Z</time>
      </trkpt>
      <trkpt lat="47.362059" lon="7.901865">
        <ele>406.432390</ele>
        <time>2021-11-22T11:48:35.638Z</time>
      </trkpt>
      <trkpt lat="47.362196" lon="7.902074">
        <ele>405.865480</ele>
        <time>2021-11-22T11:48:37.975Z</time>
      </trkpt>
      <trkpt lat="47.362314" lon="7.902236">
        <ele>405.401784</ele>
        <time>2021-11-22T11:48:39.557Z</time>
      </trkpt>
      <trkpt lat="47.362435" lon="7.902402">
        <ele>404.926456</ele>
        <time>2021-11-22T11:48:41.369Z</time>
      </trkpt>
      <trkpt lat="47.362502" lon="7.902496">
        <ele>404.660478</ele>
        <time>2021-11-22T11:48:42.441Z</time>
      </trkpt>
      <trkpt lat="47.362548" lon="7.902551">
        <ele>404.490139</ele>
        <time>2021-11-22T11:48:43.174Z</time>
      </trkpt>
      <trkpt lat="47.363157" lon="7.903174">
        <ele>403.502547</ele>
        <time>2021-11-22T11:48:51.589Z</time>
      </trkpt>
      <trkpt lat="47.363227" lon="7.903250">
        <ele>403.408663</ele>
        <time>2021-11-22T11:48:52.695Z</time>
      </trkpt>
      <trkpt lat="47.363434" lon="7.903477">
        <ele>403.130052</ele>
        <time>2021-11-22T11:48:56.605Z</time>
      </trkpt>
      <trkpt lat="47.363608" lon="7.903668">
        <ele>402.895776</ele>
        <time>2021-11-22T11:48:59.493Z</time>
      </trkpt>
      <trkpt lat="47.363634" lon="7.903701">
        <ele>402.858729</ele>
        <time>2021-11-22T11:49:00.057Z</time>
      </trkpt>
      <trkpt lat="47.363822" lon="7.903939">
        <ele>402.591144</ele>
        <time>2021-11-22T11:49:03.358Z</time>
      </trkpt>
      <trkpt lat="47.363933" lon="7.904088">
        <ele>402.429048</ele>
        <time>2021-11-22T11:49:05.373Z</time>
      </trkpt>
      <trkpt lat="47.364013" lon="7.904222">
        <ele>402.298323</ele>
        <time>2021-11-22T11:49:06.697Z</time>
      </trkpt>
      <trkpt lat="47.364246" lon="7.904580">
        <ele>401.701530</ele>
        <time>2021-11-22T11:49:10.675Z</time>
      </trkpt>
      <trkpt lat="47.364913" lon="7.905748">
        <ele>399.747644</ele>
        <time>2021-11-22T11:49:21.820Z</time>
      </trkpt>
      <trkpt lat="47.364950" lon="7.905822">
        <ele>399.630008</ele>
        <time>2021-11-22T11:49:22.378Z</time>
      </trkpt>
      <trkpt lat="47.365308" lon="7.906518">
        <ele>398.670916</ele>
        <time>2021-11-22T11:49:29.815Z</time>
      </trkpt>
      <trkpt lat="47.365385" lon="7.906641">
        <ele>398.557026</ele>
        <time>2021-11-22T11:49:30.950Z</time>
      </trkpt>
      <trkpt lat="47.365446" lon="7.906752">
        <ele>398.459830</ele>
        <time>2021-11-22T11:49:31.787Z</time>
      </trkpt>
      <trkpt lat="47.365549" lon="7.906937">
        <ele>398.296989</ele>
        <time>2021-11-22T11:49:37.507Z</time>
      </trkpt>
      <trkpt lat="47.365659" lon="7.907165">
        <ele>398.106645</ele>
        <time>2021-11-22T11:49:39.217Z</time>
      </trkpt>
      <trkpt lat="47.365752" lon="7.907357">
        <ele>397.946141</ele>
        <time>2021-11-22T11:49:44.717Z</time>
      </trkpt>
      <trkpt lat="47.365974" lon="7.907816">
        <ele>397.562627</ele>
        <time>2021-11-22T11:49:49.219Z</time>
      </trkpt>
      <trkpt lat="47.366031" lon="7.907926">
        <ele>397.468451</ele>
        <time>2021-11-22T11:49:50.149Z</time>
      </trkpt>
      <trkpt lat="47.366690" lon="7.909199">
        <ele>397.024497</ele>
        <time>2021-11-22T11:50:05.941Z</time>
      </trkpt>
      <trkpt lat="47.366915" lon="7.909630">
        <ele>397.012944</ele>
        <time>2021-11-22T11:50:11.251Z</time>
      </trkpt>
      <trkpt lat="47.367146" lon="7.910073">
        <ele>397.001075</ele>
        <time>2021-11-22T11:50:16.299Z</time>
      </trkpt>
      <trkpt lat="47.368105" lon="7.911910">
        <ele>397.460950</ele>
        <time>2021-11-22T11:50:44.107Z</time>
      </trkpt>
      <trkpt lat="47.368243" lon="7.912225">
        <ele>397.562316</ele>
        <time>2021-11-22T11:50:48.759Z</time>
      </trkpt>
      <trkpt lat="47.368301" lon="7.912366">
        <ele>397.606890</ele>
        <time>2021-11-22T11:50:49.921Z</time>
      </trkpt>
      <trkpt lat="47.368356" lon="7.912493">
        <ele>397.647621</ele>
        <time>2021-11-22T11:50:53.585Z</time>
      </trkpt>
      <trkpt lat="47.368566" lon="7.913200">
        <ele>397.337462</ele>
        <time>2021-11-22T11:50:59.898Z</time>
      </trkpt>
      <trkpt lat="47.368747" lon="7.913813">
        <ele>396.892161</ele>
        <time>2021-11-22T11:51:05.189Z</time>
      </trkpt>
      <trkpt lat="47.368873" lon="7.914274">
        <ele>396.561128</ele>
        <time>2021-11-22T11:51:09.523Z</time>
      </trkpt>
      <trkpt lat="47.368996" lon="7.914804">
        <ele>396.188059</ele>
        <time>2021-11-22T11:51:14.143Z</time>
      </trkpt>
      <trkpt lat="47.369139" lon="7.915622">
        <ele>396.213292</ele>
        <time>2021-11-22T11:51:20.282Z</time>
      </trkpt>
      <trkpt lat="47.369304" lon="7.916658">
        <ele>396.837355</ele>
        <time>2021-11-22T11:51:32.402Z</time>
      </trkpt>
      <trkpt lat="47.369376" lon="7.917030">
        <ele>397.064222</ele>
        <time>2021-11-22T11:51:38.124Z</time>
      </trkpt>
      <trkpt lat="47.369475" lon="7.917455">
        <ele>397.327762</ele>
        <time>2021-11-22T11:51:46.414Z</time>
      </trkpt>
      <trkpt lat="47.369656" lon="7.918014">
        <ele>398.085128</ele>
        <time>2021-11-22T11:51:57.141Z</time>
      </trkpt>
      <trkpt lat="47.369770" lon="7.918344">
        <ele>398.739611</ele>
        <time>2021-11-22T11:52:04.567Z</time>
      </trkpt>
      <trkpt lat="47.369847" lon="7.918720">
        <ele>399.433602</ele>
        <time>2021-11-22T11:52:11.889Z</time>
      </trkpt>
      <trkpt lat="47.369831" lon="7.919130">
        <ele>400.159159</ele>
        <time>2021-11-22T11:52:17.480Z</time>
      </trkpt>
      <trkpt lat="47.369812" lon="7.919224">
        <ele>400.332469</ele>
        <time>2021-11-22T11:52:20.937Z</time>
      </trkpt>
      <trkpt lat="47.369786" lon="7.919335">
        <ele>400.539973</ele>
        <time>2021-11-22T11:52:22.503Z</time>
      </trkpt>
      <trkpt lat="47.369532" lon="7.919759">
        <ele>401.540054</ele>
        <time>2021-11-22T11:52:33.533Z</time>
      </trkpt>
      <trkpt lat="47.368868" lon="7.920580">
        <ele>402.063902</ele>
        <time>2021-11-22T11:52:50.435Z</time>
      </trkpt>
      <trkpt lat="47.368669" lon="7.920826">
        <ele>402.012076</ele>
        <time>2021-11-22T11:52:54.947Z</time>
      </trkpt>
      <trkpt lat="47.368490" lon="7.921047">
        <ele>401.965482</ele>
        <time>2021-11-22T11:52:57.677Z</time>
      </trkpt>
      <trkpt lat="47.368446" lon="7.921104">
        <ele>401.953794</ele>
        <time>2021-11-22T11:52:58.511Z</time>
      </trkpt>
      <trkpt lat="47.368427" lon="7.921129">
        <ele>401.948712</ele>
        <time>2021-11-22T11:52:58.797Z</time>
      </trkpt>
      <trkpt lat="47.368388" lon="7.921161">
        <ele>401.939802</ele>
        <time>2021-11-22T11:52:59.380Z</time>
      </trkpt>
      <trkpt lat="47.368344" lon="7.921194">
        <ele>401.929947</ele>
        <time>2021-11-22T11:53:00.559Z</time>
      </trkpt>
      <trkpt lat="47.368337" lon="7.921158">
        <ele>401.924882</ele>
        <time>2021-11-22T11:53:00.773Z</time>
      </trkpt>
      <trkpt lat="47.368259" lon="7.921078">
        <ele>401.905917</ele>
        <time>2021-11-22T11:53:01.919Z</time>
      </trkpt>
      <trkpt lat="47.368234" lon="7.921081">
        <ele>401.900909</ele>
        <time>2021-11-22T11:53:02.135Z</time>
      </trkpt>
      <trkpt lat="47.368211" lon="7.921093">
        <ele>401.896037</ele>
        <time>2021-11-22T11:53:03.100Z</time>
      </trkpt>
      <trkpt lat="47.368162" lon="7.921209">
        <ele>401.877548</ele>
        <time>2021-11-22T11:53:04.267Z</time>
      </trkpt>
      <trkpt lat="47.368187" lon="7.921308">
        <ele>401.863258</ele>
        <time>2021-11-22T11:53:05.155Z</time>
      </trkpt>
      <trkpt lat="47.368207" lon="7.921330">
        <ele>401.858278</ele>
        <time>2021-11-22T11:53:06.076Z</time>
      </trkpt>
      <trkpt lat="47.368110" lon="7.921561">
        <ele>401.736551</ele>
        <time>2021-11-22T11:53:07.990Z</time>
      </trkpt>
      <trkpt lat="47.366479" lon="7.924071">
        <ele>395.407563</ele>
        <time>2021-11-22T11:53:32.160Z</time>
      </trkpt>
      <trkpt lat="47.366255" lon="7.924383">
        <ele>394.652315</ele>
        <time>2021-11-22T11:53:35.340Z</time>
      </trkpt>
      <trkpt lat="47.366230" lon="7.924410">
        <ele>394.576349</ele>
        <time>2021-11-22T11:53:35.646Z</time>
      </trkpt>
      <trkpt lat="47.366130" lon="7.924518">
        <ele>394.272487</ele>
        <time>2021-11-22T11:53:37.014Z</time>
      </trkpt>
      <trkpt lat="47.365940" lon="7.924742">
        <ele>393.676176</ele>
        <time>2021-11-22T11:53:39.585Z</time>
      </trkpt>
      <trkpt lat="47.365661" lon="7.925079">
        <ele>392.792109</ele>
        <time>2021-11-22T11:53:43.553Z</time>
      </trkpt>
      <trkpt lat="47.365189" lon="7.925812">
        <ele>392.230514</ele>
        <time>2021-11-22T11:53:51.468Z</time>
      </trkpt>
      <trkpt lat="47.364897" lon="7.926270">
        <ele>392.062879</ele>
        <time>2021-11-22T11:53:57.743Z</time>
      </trkpt>
      <trkpt lat="47.364831" lon="7.926380">
        <ele>392.023713</ele>
        <time>2021-11-22T11:53:59.287Z</time>
      </trkpt>
      <trkpt lat="47.364432" lon="7.927349">
        <ele>391.773601</ele>
        <time>2021-11-22T11:54:11.290Z</time>
      </trkpt>
      <trkpt lat="47.364389" lon="7.927636">
        <ele>391.966832</ele>
        <time>2021-11-22T11:54:14.716Z</time>
      </trkpt>
      <trkpt lat="47.364412" lon="7.928394">
        <ele>392.465634</ele>
        <time>2021-11-22T11:54:23.197Z</time>
      </trkpt>
      <trkpt lat="47.364425" lon="7.928548">
        <ele>392.567655</ele>
        <time>2021-11-22T11:54:25.333Z</time>
      </trkpt>
      <trkpt lat="47.364398" lon="7.928563">
        <ele>392.595654</ele>
        <time>2021-11-22T11:54:25.840Z</time>
      </trkpt>
      <trkpt lat="47.364346" lon="7.928708">
        <ele>392.703512</ele>
        <time>2021-11-22T11:54:27.877Z</time>
      </trkpt>
      <trkpt lat="47.364353" lon="7.928750">
        <ele>392.731946</ele>
        <time>2021-11-22T11:54:28.277Z</time>
      </trkpt>
      <trkpt lat="47.364370" lon="7.928792">
        <ele>392.764110</ele>
        <time>2021-11-22T11:54:28.993Z</time>
      </trkpt>
      <trkpt lat="47.364461" lon="7.928840">
        <ele>392.857898</ele>
        <time>2021-11-22T11:54:30.738Z</time>
      </trkpt>
      <trkpt lat="47.364492" lon="7.928825">
        <ele>392.889560</ele>
        <time>2021-11-22T11:54:31.517Z</time>
      </trkpt>
      <trkpt lat="47.364536" lon="7.928932">
        <ele>392.971849</ele>
        <time>2021-11-22T11:54:33.220Z</time>
      </trkpt>
      <trkpt lat="47.364642" lon="7.929429">
        <ele>393.314386</ele>
        <time>2021-11-22T11:54:40.674Z</time>
      </trkpt>
      <trkpt lat="47.364649" lon="7.930291">
        <ele>394.282527</ele>
        <time>2021-11-22T11:54:53.255Z</time>
      </trkpt>
      <trkpt lat="47.364642" lon="7.930354">
        <ele>394.366731</ele>
        <time>2021-11-22T11:54:54.432Z</time>
      </trkpt>
      <trkpt lat="47.364601" lon="7.930798">
        <ele>394.957764</ele>
        <time>2021-11-22T11:55:01.245Z</time>
      </trkpt>
      <trkpt lat="47.364596" lon="7.931067">
        <ele>395.312696</ele>
        <time>2021-11-22T11:55:05.839Z</time>
      </trkpt>
      <trkpt lat="47.364616" lon="7.931277">
        <ele>395.592401</ele>
        <time>2021-11-22T11:55:09.224Z</time>
      </trkpt>
      <trkpt lat="47.364660" lon="7.931587">
        <ele>396.010158</ele>
        <time>2021-11-22T11:55:14.209Z</time>
      </trkpt>
      <trkpt lat="47.364673" lon="7.931823">
        <ele>396.322458</ele>
        <time>2021-11-22T11:55:17.897Z</time>
      </trkpt>
      <trkpt lat="47.364660" lon="7.932180">
        <ele>396.794004</ele>
        <time>2021-11-22T11:55:23.579Z</time>
      </trkpt>
      <trkpt lat="47.364652" lon="7.932263">
        <ele>396.904580</ele>
        <time>2021-11-22T11:55:24.871Z</time>
      </trkpt>
      <trkpt lat="47.364646" lon="7.932377">
        <ele>397.007698</ele>
        <time>2021-11-22T11:55:26.391Z</time>
      </trkpt>
      <trkpt lat="47.364647" lon="7.932776">
        <ele>397.179080</ele>
        <time>2021-11-22T11:55:32.675Z</time>
      </trkpt>
      <trkpt lat="47.364648" lon="7.933106">
        <ele>397.320825</ele>
        <time>2021-11-22T11:55:36.804Z</time>
      </trkpt>
      <trkpt lat="47.364646" lon="7.933225">
        <ele>397.371954</ele>
        <time>2021-11-22T11:55:38.622Z</time>
      </trkpt>
      <trkpt lat="47.364636" lon="7.933797">
        <ele>397.617724</ele>
        <time>2021-11-22T11:55:45.841Z</time>
      </trkpt>
      <trkpt lat="47.364620" lon="7.934079">
        <ele>397.739275</ele>
        <time>2021-11-22T11:55:48.460Z</time>
      </trkpt>
      <trkpt lat="47.364475" lon="7.934843">
        <ele>398.080072</ele>
        <time>2021-11-22T11:55:56.570Z</time>
      </trkpt>
      <trkpt lat="47.364442" lon="7.935020">
        <ele>398.066641</ele>
        <time>2021-11-22T11:55:58.054Z</time>
      </trkpt>
      <trkpt lat="47.364312" lon="7.935925">
        <ele>397.374581</ele>
        <time>2021-11-22T11:56:05.903Z</time>
      </trkpt>
      <trkpt lat="47.364300" lon="7.935998">
        <ele>397.318387</ele>
        <time>2021-11-22T11:56:06.477Z</time>
      </trkpt>
      <trkpt lat="47.364272" lon="7.936171">
        <ele>397.185327</ele>
        <time>2021-11-22T11:56:07.857Z</time>
      </trkpt>
      <trkpt lat="47.364226" lon="7.936475">
        <ele>396.952308</ele>
        <time>2021-11-22T11:56:10.344Z</time>
      </trkpt>
      <trkpt lat="47.364198" lon="7.936665">
        <ele>396.806849</ele>
        <time>2021-11-22T11:56:11.866Z</time>
      </trkpt>
      <trkpt lat="47.364045" lon="7.937687">
        <ele>396.094385</ele>
        <time>2021-11-22T11:56:20.080Z</time>
      </trkpt>
      <trkpt lat="47.364025" lon="7.937821">
        <ele>396.054727</ele>
        <time>2021-11-22T11:56:21.099Z</time>
      </trkpt>
      <trkpt lat="47.364006" lon="7.937950">
        <ele>396.016572</ele>
        <time>2021-11-22T11:56:22.183Z</time>
      </trkpt>
      <trkpt lat="47.363975" lon="7.938172">
        <ele>395.951060</ele>
        <time>2021-11-22T11:56:23.944Z</time>
      </trkpt>
      <trkpt lat="47.363903" lon="7.938594">
        <ele>395.825283</ele>
        <time>2021-11-22T11:56:27.470Z</time>
      </trkpt>
      <trkpt lat="47.363846" lon="7.938985">
        <ele>395.709687</ele>
        <time>2021-11-22T11:56:30.890Z</time>
      </trkpt>
      <trkpt lat="47.363761" lon="7.939516">
        <ele>395.551989</ele>
        <time>2021-11-22T11:56:36.487Z</time>
      </trkpt>
      <trkpt lat="47.363744" lon="7.939608">
        <ele>395.524427</ele>
        <time>2021-11-22T11:56:37.587Z</time>
      </trkpt>
      <trkpt lat="47.363613" lon="7.940336">
        <ele>395.472060</ele>
        <time>2021-11-22T11:56:47.037Z</time>
      </trkpt>
      <trkpt lat="47.363476" lon="7.941100">
        <ele>395.828457</ele>
        <time>2021-11-22T11:56:57.303Z</time>
      </trkpt>
      <trkpt lat="47.363360" lon="7.941744">
        <ele>396.128964</ele>
        <time>2021-11-22T11:57:05.888Z</time>
      </trkpt>
      <trkpt lat="47.363313" lon="7.942018">
        <ele>396.256426</ele>
        <time>2021-11-22T11:57:09.720Z</time>
      </trkpt>
      <trkpt lat="47.363076" lon="7.943399">
        <ele>395.774172</ele>
        <time>2021-11-22T11:57:23.983Z</time>
      </trkpt>
      <trkpt lat="47.363016" lon="7.944004">
        <ele>395.110428</ele>
        <time>2021-11-22T11:57:28.665Z</time>
      </trkpt>
      <trkpt lat="47.363025" lon="7.944329">
        <ele>394.757337</ele>
        <time>2021-11-22T11:57:31.060Z</time>
      </trkpt>
      <trkpt lat="47.363031" lon="7.944471">
        <ele>394.602893</ele>
        <time>2021-11-22T11:57:32.027Z</time>
      </trkpt>
      <trkpt lat="47.363052" lon="7.944793">
        <ele>394.251737</ele>
        <time>2021-11-22T11:57:34.355Z</time>
      </trkpt>
      <trkpt lat="47.363052" lon="7.944804">
        <ele>394.239797</ele>
        <time>2021-11-22T11:57:34.421Z</time>
      </trkpt>
      <trkpt lat="47.363066" lon="7.944961">
        <ele>394.067899</ele>
        <time>2021-11-22T11:57:35.530Z</time>
      </trkpt>
      <trkpt lat="47.363168" lon="7.946132">
        <ele>392.413406</ele>
        <time>2021-11-22T11:57:43.829Z</time>
      </trkpt>
      <trkpt lat="47.363169" lon="7.946145">
        <ele>392.393319</ele>
        <time>2021-11-22T11:57:43.915Z</time>
      </trkpt>
      <trkpt lat="47.363246" lon="7.946672">
        <ele>391.565620</ele>
        <time>2021-11-22T11:57:47.700Z</time>
      </trkpt>
      <trkpt lat="47.363276" lon="7.946839">
        <ele>391.300366</ele>
        <time>2021-11-22T11:57:48.955Z</time>
      </trkpt>
      <trkpt lat="47.363484" lon="7.948105">
        <ele>389.531232</ele>
        <time>2021-11-22T11:57:58.844Z</time>
      </trkpt>
      <trkpt lat="47.363496" lon="7.948176">
        <ele>389.502797</ele>
        <time>2021-11-22T11:57:59.364Z</time>
      </trkpt>
      <trkpt lat="47.363562" lon="7.948591">
        <ele>389.337154</ele>
        <time>2021-11-22T11:58:03.098Z</time>
      </trkpt>
      <trkpt lat="47.363643" lon="7.949066">
        <ele>389.146822</ele>
        <time>2021-11-22T11:58:07.308Z</time>
      </trkpt>
      <trkpt lat="47.363662" lon="7.949174">
        <ele>389.103464</ele>
        <time>2021-11-22T11:58:08.219Z</time>
      </trkpt>
      <trkpt lat="47.363702" lon="7.949380">
        <ele>389.020194</ele>
        <time>2021-11-22T11:58:10.077Z</time>
      </trkpt>
      <trkpt lat="47.363890" lon="7.949934">
        <ele>388.779419</ele>
        <time>2021-11-22T11:58:15.700Z</time>
      </trkpt>
      <trkpt lat="47.364102" lon="7.950350">
        <ele>388.578811</ele>
        <time>2021-11-22T11:58:21.108Z</time>
      </trkpt>
      <trkpt lat="47.364283" lon="7.950725">
        <ele>388.995569</ele>
        <time>2021-11-22T11:58:26.664Z</time>
      </trkpt>
      <trkpt lat="47.364318" lon="7.950800">
        <ele>389.078000</ele>
        <time>2021-11-22T11:58:28.023Z</time>
      </trkpt>
      <trkpt lat="47.364414" lon="7.951020">
        <ele>389.314858</ele>
        <time>2021-11-22T11:58:31.588Z</time>
      </trkpt>
      <trkpt lat="47.364501" lon="7.951174">
        <ele>389.496354</ele>
        <time>2021-11-22T11:58:33.726Z</time>
      </trkpt>
      <trkpt lat="47.364489" lon="7.951205">
        <ele>389.528670</ele>
        <time>2021-11-22T11:58:34.218Z</time>
      </trkpt>
      <trkpt lat="47.364517" lon="7.951367">
        <ele>389.679988</ele>
        <time>2021-11-22T11:58:36.953Z</time>
      </trkpt>
      <trkpt lat="47.364538" lon="7.951385">
        <ele>389.712435</ele>
        <time>2021-11-22T11:58:37.419Z</time>
      </trkpt>
      <trkpt lat="47.364565" lon="7.951396">
        <ele>389.749861</ele>
        <time>2021-11-22T11:58:38.054Z</time>
      </trkpt>
      <trkpt lat="47.364657" lon="7.951323">
        <ele>389.889423</ele>
        <time>2021-11-22T11:58:39.766Z</time>
      </trkpt>
      <trkpt lat="47.364660" lon="7.951204">
        <ele>389.997200</ele>
        <time>2021-11-22T11:58:41.179Z</time>
      </trkpt>
      <trkpt lat="47.364646" lon="7.951169">
        <ele>390.033988</ele>
        <time>2021-11-22T11:58:41.913Z</time>
      </trkpt>
      <trkpt lat="47.364732" lon="7.951071">
        <ele>390.179152</ele>
        <time>2021-11-22T11:58:44.480Z</time>
      </trkpt>
      <trkpt lat="47.364899" lon="7.950935">
        <ele>390.433996</ele>
        <time>2021-11-22T11:58:48.131Z</time>
      </trkpt>
      <trkpt lat="47.364962" lon="7.950889">
        <ele>390.527910</ele>
        <time>2021-11-22T11:58:49.790Z</time>
      </trkpt>
      <trkpt lat="47.365056" lon="7.950812">
        <ele>390.671552</ele>
        <time>2021-11-22T11:58:52.334Z</time>
      </trkpt>
      <trkpt lat="47.365777" lon="7.950227">
        <ele>392.809129</ele>
        <time>2021-11-22T11:59:12.439Z</time>
      </trkpt>
      <trkpt lat="47.365941" lon="7.949982">
        <ele>393.530680</ele>
        <time>2021-11-22T11:59:19.097Z</time>
      </trkpt>
      <trkpt lat="47.366027" lon="7.949853">
        <ele>393.909836</ele>
        <time>2021-11-22T11:59:22.389Z</time>
      </trkpt>
      <trkpt lat="47.366068" lon="7.949760">
        <ele>394.142277</ele>
        <time>2021-11-22T11:59:24.584Z</time>
      </trkpt>
      <trkpt lat="47.366151" lon="7.949573">
        <ele>394.610603</ele>
        <time>2021-11-22T11:59:28.849Z</time>
      </trkpt>
      <trkpt lat="47.366247" lon="7.949399">
        <ele>395.080704</ele>
        <time>2021-11-22T11:59:33.305Z</time>
      </trkpt>
      <trkpt lat="47.366337" lon="7.949233">
        <ele>395.526108</ele>
        <time>2021-11-22T11:59:37.678Z</time>
      </trkpt>
      <trkpt lat="47.366405" lon="7.949150">
        <ele>395.798972</ele>
        <time>2021-11-22T11:59:39.873Z</time>
      </trkpt>
      <trkpt lat="47.366481" lon="7.949071">
        <ele>396.086427</ele>
        <time>2021-11-22T11:59:42.441Z</time>
      </trkpt>
      <trkpt lat="47.366514" lon="7.949031">
        <ele>396.218474</ele>
        <time>2021-11-22T11:59:44.130Z</time>
      </trkpt>
      <trkpt lat="47.366618" lon="7.948936">
        <ele>396.594749</ele>
        <time>2021-11-22T11:59:48.371Z</time>
      </trkpt>
      <trkpt lat="47.366760" lon="7.948813">
        <ele>397.085212</ele>
        <time>2021-11-22T11:59:52.418Z</time>
      </trkpt>
      <trkpt lat="47.367427" lon="7.948241">
        <ele>399.383150</ele>
        <time>2021-11-22T12:00:14.731Z</time>
      </trkpt>
      <trkpt lat="47.367585" lon="7.948104">
        <ele>399.929019</ele>
        <time>2021-11-22T12:00:20.283Z</time>
      </trkpt>
      <trkpt lat="47.367728" lon="7.947996">
        <ele>400.407532</ele>
        <time>2021-11-22T12:00:23.857Z</time>
      </trkpt>
      <trkpt lat="47.367872" lon="7.947929">
        <ele>400.857321</ele>
        <time>2021-11-22T12:00:28.390Z</time>
      </trkpt>
      <trkpt lat="47.367993" lon="7.947892">
        <ele>401.225444</ele>
        <time>2021-11-22T12:00:30.985Z</time>
      </trkpt>
      <trkpt lat="47.368755" lon="7.947668">
        <ele>402.519352</ele>
        <time>2021-11-22T12:00:48.103Z</time>
      </trkpt>
      <trkpt lat="47.368835" lon="7.947637">
        <ele>402.612210</ele>
        <time>2021-11-22T12:00:49.710Z</time>
      </trkpt>
      <trkpt lat="47.369501" lon="7.947461">
        <ele>403.371817</ele>
        <time>2021-11-22T12:01:01.651Z</time>
      </trkpt>
      <trkpt lat="47.370849" lon="7.947237">
        <ele>404.737803</ele>
        <time>2021-11-22T12:01:25.429Z</time>
      </trkpt>
      <trkpt lat="47.371718" lon="7.947163">
        <ele>405.557454</ele>
        <time>2021-11-22T12:01:42.312Z</time>
      </trkpt>
      <trkpt lat="47.371847" lon="7.947152">
        <ele>405.728800</ele>
        <time>2021-11-22T12:01:44.690Z</time>
      </trkpt>
      <trkpt lat="47.371937" lon="7.947139">
        <ele>405.879988</ele>
        <time>2021-11-22T12:01:46.632Z</time>
      </trkpt>
      <trkpt lat="47.372767" lon="7.947118">
        <ele>407.267862</ele>
        <time>2021-11-22T12:02:03.435Z</time>
      </trkpt>
      <trkpt lat="47.372921" lon="7.947156">
        <ele>407.528903</ele>
        <time>2021-11-22T12:02:06.691Z</time>
      </trkpt>
      <trkpt lat="47.373138" lon="7.947249">
        <ele>407.906676</ele>
        <time>2021-11-22T12:02:12.029Z</time>
      </trkpt>
      <trkpt lat="47.373278" lon="7.947331">
        <ele>408.158482</ele>
        <time>2021-11-22T12:02:15.255Z</time>
      </trkpt>
      <trkpt lat="47.373405" lon="7.947404">
        <ele>408.386332</ele>
        <time>2021-11-22T12:02:18.686Z</time>
      </trkpt>
      <trkpt lat="47.373677" lon="7.947590">
        <ele>409.148102</ele>
        <time>2021-11-22T12:02:25.664Z</time>
      </trkpt>
      <trkpt lat="47.373944" lon="7.947741">
        <ele>410.095756</ele>
        <time>2021-11-22T12:02:32.500Z</time>
      </trkpt>
      <trkpt lat="47.373982" lon="7.947754">
        <ele>410.225043</ele>
        <time>2021-11-22T12:02:33.537Z</time>
      </trkpt>
      <trkpt lat="47.374247" lon="7.947854">
        <ele>411.131610</ele>
        <time>2021-11-22T12:02:40.597Z</time>
      </trkpt>
      <trkpt lat="47.375589" lon="7.948250">
        <ele>416.058996</ele>
        <time>2021-11-22T12:03:22.476Z</time>
      </trkpt>
      <trkpt lat="47.376339" lon="7.948396">
        <ele>419.471882</ele>
        <time>2021-11-22T12:03:48.280Z</time>
      </trkpt>
      <trkpt lat="47.376472" lon="7.948420">
        <ele>420.076373</ele>
        <time>2021-11-22T12:03:52.802Z</time>
      </trkpt>
      <trkpt lat="47.377233" lon="7.948525">
        <ele>423.290303</ele>
        <time>2021-11-22T12:04:18.493Z</time>
      </trkpt>
      <trkpt lat="47.377439" lon="7.948570">
        <ele>423.963404</ele>
        <time>2021-11-22T12:04:25.022Z</time>
      </trkpt>
      <trkpt lat="47.377502" lon="7.948588">
        <ele>424.170816</ele>
        <time>2021-11-22T12:04:26.813Z</time>
      </trkpt>
      <trkpt lat="47.377577" lon="7.948614">
        <ele>424.419829</ele>
        <time>2021-11-22T12:04:29.378Z</time>
      </trkpt>
      <trkpt lat="47.377712" lon="7.948683">
        <ele>424.881588</ele>
        <time>2021-11-22T12:04:33.735Z</time>
      </trkpt>
      <trkpt lat="47.377831" lon="7.948752">
        <ele>425.294820</ele>
        <time>2021-11-22T12:04:37.227Z</time>
      </trkpt>
      <trkpt lat="47.378024" lon="7.948882">
        <ele>425.980485</ele>
        <time>2021-11-22T12:04:43.406Z</time>
      </trkpt>
      <trkpt lat="47.378475" lon="7.949170">
        <ele>427.568711</ele>
        <time>2021-11-22T12:04:55.667Z</time>
      </trkpt>
      <trkpt lat="47.378814" lon="7.949362">
        <ele>428.614681</ele>
        <time>2021-11-22T12:05:04.207Z</time>
      </trkpt>
      <trkpt lat="47.379046" lon="7.949400">
        <ele>428.950870</ele>
        <time>2021-11-22T12:05:09.328Z</time>
      </trkpt>
      <trkpt lat="47.379150" lon="7.949388">
        <ele>429.101113</ele>
        <time>2021-11-22T12:05:11.499Z</time>
      </trkpt>
      <trkpt lat="47.379250" lon="7.949357">
        <ele>429.248278</ele>
        <time>2021-11-22T12:05:13.388Z</time>
      </trkpt>
      <trkpt lat="47.379348" lon="7.949316">
        <ele>429.394978</ele>
        <time>2021-11-22T12:05:15.611Z</time>
      </trkpt>
      <trkpt lat="47.379466" lon="7.949263">
        <ele>429.572615</ele>
        <time>2021-11-22T12:05:18.573Z</time>
      </trkpt>
      <trkpt lat="47.379590" lon="7.949207">
        <ele>429.759372</ele>
        <time>2021-11-22T12:05:20.846Z</time>
      </trkpt>
      <trkpt lat="47.379639" lon="7.949185">
        <ele>429.833134</ele>
        <time>2021-11-22T12:05:21.874Z</time>
      </trkpt>
      <trkpt lat="47.379787" lon="7.949118">
        <ele>430.056082</ele>
        <time>2021-11-22T12:05:25.255Z</time>
      </trkpt>
      <trkpt lat="47.379878" lon="7.949081">
        <ele>430.192023</ele>
        <time>2021-11-22T12:05:26.721Z</time>
      </trkpt>
      <trkpt lat="47.379953" lon="7.949052">
        <ele>430.303683</ele>
        <time>2021-11-22T12:05:28.007Z</time>
      </trkpt>
      <trkpt lat="47.380023" lon="7.949011">
        <ele>430.412141</ele>
        <time>2021-11-22T12:05:29.222Z</time>
      </trkpt>
      <trkpt lat="47.380122" lon="7.948931">
        <ele>430.574677</ele>
        <time>2021-11-22T12:05:31.814Z</time>
      </trkpt>
      <trkpt lat="47.380426" lon="7.948375">
        <ele>431.322447</ele>
        <time>2021-11-22T12:05:40.603Z</time>
      </trkpt>
      <trkpt lat="47.380486" lon="7.948257">
        <ele>431.509652</ele>
        <time>2021-11-22T12:05:42.783Z</time>
      </trkpt>
      <trkpt lat="47.380531" lon="7.948185">
        <ele>431.633955</ele>
        <time>2021-11-22T12:05:44.103Z</time>
      </trkpt>
      <trkpt lat="47.380588" lon="7.948113">
        <ele>431.774481</ele>
        <time>2021-11-22T12:05:45.859Z</time>
      </trkpt>
      <trkpt lat="47.380664" lon="7.948037">
        <ele>431.946441</ele>
        <time>2021-11-22T12:05:47.438Z</time>
      </trkpt>
      <trkpt lat="47.380746" lon="7.947971">
        <ele>432.121406</ele>
        <time>2021-11-22T12:05:49.460Z</time>
      </trkpt>
      <trkpt lat="47.380792" lon="7.947949">
        <ele>432.211995</ele>
        <time>2021-11-22T12:05:50.442Z</time>
      </trkpt>
      <trkpt lat="47.380873" lon="7.947916">
        <ele>432.369420</ele>
        <time>2021-11-22T12:05:52.419Z</time>
      </trkpt>
      <trkpt lat="47.380952" lon="7.947878">
        <ele>432.525082</ele>
        <time>2021-11-22T12:05:54.174Z</time>
      </trkpt>
      <trkpt lat="47.381036" lon="7.947837">
        <ele>432.690832</ele>
        <time>2021-11-22T12:05:55.877Z</time>
      </trkpt>
      <trkpt lat="47.381127" lon="7.947801">
        <ele>432.867334</ele>
        <time>2021-11-22T12:05:58.307Z</time>
      </trkpt>
      <trkpt lat="47.381292" lon="7.947731">
        <ele>433.188970</ele>
        <time>2021-11-22T12:06:02.594Z</time>
      </trkpt>
      <trkpt lat="47.381371" lon="7.947698">
        <ele>433.342786</ele>
        <time>2021-11-22T12:06:04.371Z</time>
      </trkpt>
      <trkpt lat="47.381384" lon="7.947692">
        <ele>433.368303</ele>
        <time>2021-11-22T12:06:04.705Z</time>
      </trkpt>
      <trkpt lat="47.381471" lon="7.947656">
        <ele>433.537578</ele>
        <time>2021-11-22T12:06:07.152Z</time>
      </trkpt>
      <trkpt lat="47.381625" lon="7.947606">
        <ele>433.832993</ele>
        <time>2021-11-22T12:06:10.485Z</time>
      </trkpt>
      <trkpt lat="47.381706" lon="7.947587">
        <ele>433.986651</ele>
        <time>2021-11-22T12:06:12.374Z</time>
      </trkpt>
      <trkpt lat="47.381748" lon="7.947578">
        <ele>434.066164</ele>
        <time>2021-11-22T12:06:13.385Z</time>
      </trkpt>
      <trkpt lat="47.381821" lon="7.947561">
        <ele>434.204622</ele>
        <time>2021-11-22T12:06:15.647Z</time>
      </trkpt>
      <trkpt lat="47.381913" lon="7.947550">
        <ele>434.377551</ele>
        <time>2021-11-22T12:06:17.796Z</time>
      </trkpt>
      <trkpt lat="47.381958" lon="7.947544">
        <ele>434.462203</ele>
        <time>2021-11-22T12:06:18.953Z</time>
      </trkpt>
      <trkpt lat="47.382091" lon="7.947529">
        <ele>434.768776</ele>
        <time>2021-11-22T12:06:21.996Z</time>
      </trkpt>
      <trkpt lat="47.382182" lon="7.947517">
        <ele>434.980421</ele>
        <time>2021-11-22T12:06:24.488Z</time>
      </trkpt>
      <trkpt lat="47.382444" lon="7.947485">
        <ele>435.589431</ele>
        <time>2021-11-22T12:06:30.563Z</time>
      </trkpt>
      <trkpt lat="47.382561" lon="7.947470">
        <ele>435.861487</ele>
        <time>2021-11-22T12:06:33.759Z</time>
      </trkpt>
      <trkpt lat="47.382644" lon="7.947460">
        <ele>436.054399</ele>
        <time>2021-11-22T12:06:35.706Z</time>
      </trkpt>
      <trkpt lat="47.382770" lon="7.947452">
        <ele>436.346555</ele>
        <time>2021-11-22T12:06:38.945Z</time>
      </trkpt>
      <trkpt lat="47.383180" lon="7.947436">
        <ele>437.296674</ele>
        <time>2021-11-22T12:06:49.517Z</time>
      </trkpt>
      <trkpt lat="47.383343" lon="7.947439">
        <ele>437.674302</ele>
        <time>2021-11-22T12:06:53.701Z</time>
      </trkpt>
      <trkpt lat="47.383409" lon="7.947441">
        <ele>437.827226</ele>
        <time>2021-11-22T12:06:55.199Z</time>
      </trkpt>
      <trkpt lat="47.383515" lon="7.947462">
        <ele>438.074981</ele>
        <time>2021-11-22T12:06:57.512Z</time>
      </trkpt>
      <trkpt lat="47.383565" lon="7.947483">
        <ele>438.195401</ele>
        <time>2021-11-22T12:06:58.740Z</time>
      </trkpt>
      <trkpt lat="47.383608" lon="7.947525">
        <ele>438.314826</ele>
        <time>2021-11-22T12:06:59.915Z</time>
      </trkpt>
      <trkpt lat="47.383644" lon="7.947575">
        <ele>438.429305</ele>
        <time>2021-11-22T12:07:01.011Z</time>
      </trkpt>
      <trkpt lat="47.383667" lon="7.947613">
        <ele>438.509251</ele>
        <time>2021-11-22T12:07:01.870Z</time>
      </trkpt>
      <trkpt lat="47.383709" lon="7.947698">
        <ele>438.660076</ele>
        <time>2021-11-22T12:07:03.335Z</time>
      </trkpt>
      <trkpt lat="47.383754" lon="7.947797">
        <ele>438.771487</ele>
        <time>2021-11-22T12:07:04.978Z</time>
      </trkpt>
      <trkpt lat="47.383768" lon="7.947833">
        <ele>438.810277</ele>
        <time>2021-11-22T12:07:05.540Z</time>
      </trkpt>
      <trkpt lat="47.383835" lon="7.948007">
        <ele>438.997305</ele>
        <time>2021-11-22T12:07:08.422Z</time>
      </trkpt>
      <trkpt lat="47.383903" lon="7.948183">
        <ele>439.186640</ele>
        <time>2021-11-22T12:07:11.250Z</time>
      </trkpt>
      <trkpt lat="47.384017" lon="7.948478">
        <ele>439.504006</ele>
        <time>2021-11-22T12:07:15.862Z</time>
      </trkpt>
      <trkpt lat="47.384034" lon="7.948522">
        <ele>439.551340</ele>
        <time>2021-11-22T12:07:16.748Z</time>
      </trkpt>
      <trkpt lat="47.384045" lon="7.948550">
        <ele>439.581586</ele>
        <time>2021-11-22T12:07:17.115Z</time>
      </trkpt>
      <trkpt lat="47.384100" lon="7.948692">
        <ele>439.734438</ele>
        <time>2021-11-22T12:07:19.092Z</time>
      </trkpt>
      <trkpt lat="47.384163" lon="7.948936">
        <ele>439.978432</ele>
        <time>2021-11-22T12:07:22.779Z</time>
      </trkpt>
      <trkpt lat="47.384163" lon="7.949013">
        <ele>440.050376</ele>
        <time>2021-11-22T12:07:24.142Z</time>
      </trkpt>
      <trkpt lat="47.384153" lon="7.949072">
        <ele>440.107203</ele>
        <time>2021-11-22T12:07:24.844Z</time>
      </trkpt>
      <trkpt lat="47.384085" lon="7.949258">
        <ele>440.304707</ele>
        <time>2021-11-22T12:07:27.653Z</time>
      </trkpt>
      <trkpt lat="47.384033" lon="7.949370">
        <ele>440.431593</ele>
        <time>2021-11-22T12:07:29.690Z</time>
      </trkpt>
      <trkpt lat="47.383998" lon="7.949485">
        <ele>440.549399</ele>
        <time>2021-11-22T12:07:31.673Z</time>
      </trkpt>
      <trkpt lat="47.383959" lon="7.949707">
        <ele>440.763692</ele>
        <time>2021-11-22T12:07:34.373Z</time>
      </trkpt>
      <trkpt lat="47.383989" lon="7.950037">
        <ele>441.074793</ele>
        <time>2021-11-22T12:07:38.902Z</time>
      </trkpt>
      <trkpt lat="47.384064" lon="7.950389">
        <ele>441.276342</ele>
        <time>2021-11-22T12:07:43.324Z</time>
      </trkpt>
      <trkpt lat="47.384092" lon="7.950497">
        <ele>441.332528</ele>
        <time>2021-11-22T12:07:45.020Z</time>
      </trkpt>
      <trkpt lat="47.384202" lon="7.950894">
        <ele>441.540935</ele>
        <time>2021-11-22T12:07:49.900Z</time>
      </trkpt>
      <trkpt lat="47.384321" lon="7.951320">
        <ele>441.764827</ele>
        <time>2021-11-22T12:07:54.935Z</time>
      </trkpt>
      <trkpt lat="47.384334" lon="7.951362">
        <ele>441.787264</ele>
        <time>2021-11-22T12:07:55.664Z</time>
      </trkpt>
      <trkpt lat="47.384360" lon="7.951436">
        <ele>441.827769</ele>
        <time>2021-11-22T12:07:56.811Z</time>
      </trkpt>
      <trkpt lat="47.384839" lon="7.952820">
        <ele>442.450766</ele>
        <time>2021-11-22T12:08:15.411Z</time>
      </trkpt>
      <trkpt lat="47.384912" lon="7.953029">
        <ele>442.476778</ele>
        <time>2021-11-22T12:08:17.694Z</time>
      </trkpt>
      <trkpt lat="47.384971" lon="7.953205">
        <ele>442.498500</ele>
        <time>2021-11-22T12:08:19.585Z</time>
      </trkpt>
      <trkpt lat="47.384997" lon="7.953279">
        <ele>442.507722</ele>
        <time>2021-11-22T12:08:20.711Z</time>
      </trkpt>
      <trkpt lat="47.385278" lon="7.954228">
        <ele>442.622287</ele>
        <time>2021-11-22T12:08:30.445Z</time>
      </trkpt>
      <trkpt lat="47.385317" lon="7.954499">
        <ele>442.652931</ele>
        <time>2021-11-22T12:08:33.245Z</time>
      </trkpt>
      <trkpt lat="47.385317" lon="7.954499">
        <ele>442.652931</ele>
        <time>2021-11-22T12:08:33.248Z</time>
      </trkpt>
      <trkpt lat="47.385326" lon="7.954577">
        <ele>442.661682</ele>
        <time>2021-11-22T12:08:33.982Z</time>
      </trkpt>
      <trkpt lat="47.385343" lon="7.955285">
        <ele>442.917406</ele>
        <time>2021-11-22T12:08:41.476Z</time>
      </trkpt>
      <trkpt lat="47.385260" lon="7.956651">
        <ele>443.851186</ele>
        <time>2021-11-22T12:08:59.141Z</time>
      </trkpt>
      <trkpt lat="47.385272" lon="7.957298">
        <ele>444.291862</ele>
        <time>2021-11-22T12:09:07.998Z</time>
      </trkpt>
      <trkpt lat="47.385308" lon="7.957696">
        <ele>444.548164</ele>
        <time>2021-11-22T12:09:13.787Z</time>
      </trkpt>
      <trkpt lat="47.385309" lon="7.957708">
        <ele>444.553633</ele>
        <time>2021-11-22T12:09:13.948Z</time>
      </trkpt>
      <trkpt lat="47.385309" lon="7.957719">
        <ele>444.558609</ele>
        <time>2021-11-22T12:09:14.094Z</time>
      </trkpt>
      <trkpt lat="47.385340" lon="7.958672">
        <ele>444.990212</ele>
        <time>2021-11-22T12:09:27.552Z</time>
      </trkpt>
      <trkpt lat="47.385398" lon="7.961009">
        <ele>445.053609</ele>
        <time>2021-11-22T12:09:52.256Z</time>
      </trkpt>
      <trkpt lat="47.385403" lon="7.961112">
        <ele>444.960410</ele>
        <time>2021-11-22T12:09:53.215Z</time>
      </trkpt>
      <trkpt lat="47.385406" lon="7.961176">
        <ele>444.902509</ele>
        <time>2021-11-22T12:09:53.724Z</time>
      </trkpt>
      <trkpt lat="47.385413" lon="7.961324">
        <ele>444.768609</ele>
        <time>2021-11-22T12:09:54.762Z</time>
      </trkpt>
      <trkpt lat="47.385502" lon="7.962404">
        <ele>443.786682</ele>
        <time>2021-11-22T12:10:02.584Z</time>
      </trkpt>
      <trkpt lat="47.385655" lon="7.963193">
        <ele>443.416133</ele>
        <time>2021-11-22T12:10:08.885Z</time>
      </trkpt>
      <trkpt lat="47.385967" lon="7.964083">
        <ele>443.740353</ele>
        <time>2021-11-22T12:10:17.495Z</time>
      </trkpt>
      <trkpt lat="47.386032" lon="7.964265">
        <ele>443.806919</ele>
        <time>2021-11-22T12:10:19.522Z</time>
      </trkpt>
      <trkpt lat="47.386413" lon="7.965373">
        <ele>444.407912</ele>
        <time>2021-11-22T12:10:39.051Z</time>
      </trkpt>
      <trkpt lat="47.386574" lon="7.965880">
        <ele>445.748902</ele>
        <time>2021-11-22T12:10:49.588Z</time>
      </trkpt>
      <trkpt lat="47.386746" lon="7.966669">
        <ele>447.733789</ele>
        <time>2021-11-22T12:11:06.944Z</time>
      </trkpt>
      <trkpt lat="47.386777" lon="7.966866">
        <ele>448.218105</ele>
        <time>2021-11-22T12:11:12.404Z</time>
      </trkpt>
      <trkpt lat="47.386854" lon="7.967549">
        <ele>449.876152</ele>
        <time>2021-11-22T12:11:25.732Z</time>
      </trkpt>
      <trkpt lat="47.386880" lon="7.967784">
        <ele>450.446353</ele>
        <time>2021-11-22T12:11:30.434Z</time>
      </trkpt>
      <trkpt lat="47.386889" lon="7.967865">
        <ele>450.608432</ele>
        <time>2021-11-22T12:11:32.640Z</time>
      </trkpt>
      <trkpt lat="47.386924" lon="7.967985">
        <ele>450.817065</ele>
        <time>2021-11-22T12:11:34.861Z</time>
      </trkpt>
      <trkpt lat="47.386952" lon="7.968049">
        <ele>450.938736</ele>
        <time>2021-11-22T12:11:35.993Z</time>
      </trkpt>
      <trkpt lat="47.386996" lon="7.968107">
        <ele>451.077823</ele>
        <time>2021-11-22T12:11:37.235Z</time>
      </trkpt>
      <trkpt lat="47.387037" lon="7.968147">
        <ele>451.193707</ele>
        <time>2021-11-22T12:11:38.499Z</time>
      </trkpt>
      <trkpt lat="47.387100" lon="7.968206">
        <ele>451.369636</ele>
        <time>2021-11-22T12:11:41.295Z</time>
      </trkpt>
      <trkpt lat="47.387710" lon="7.968509">
        <ele>452.887439</ele>
        <time>2021-11-22T12:11:57.403Z</time>
      </trkpt>
      <trkpt lat="47.387790" lon="7.968563">
        <ele>453.094880</ele>
        <time>2021-11-22T12:11:59.700Z</time>
      </trkpt>
      <trkpt lat="47.387860" lon="7.968626">
        <ele>453.288201</ele>
        <time>2021-11-22T12:12:01.316Z</time>
      </trkpt>
      <trkpt lat="47.387958" lon="7.968730">
        <ele>453.572795</ele>
        <time>2021-11-22T12:12:03.500Z</time>
      </trkpt>
      <trkpt lat="47.388088" lon="7.968937">
        <ele>454.023619</ele>
        <time>2021-11-22T12:12:08.090Z</time>
      </trkpt>
      <trkpt lat="47.388628" lon="7.969537">
        <ele>455.393330</ele>
        <time>2021-11-22T12:12:21.778Z</time>
      </trkpt>
      <trkpt lat="47.388736" lon="7.969820">
        <ele>455.773076</ele>
        <time>2021-11-22T12:12:25.862Z</time>
      </trkpt>
      <trkpt lat="47.388970" lon="7.970788">
        <ele>456.974575</ele>
        <time>2021-11-22T12:12:41.586Z</time>
      </trkpt>
      <trkpt lat="47.389042" lon="7.971025">
        <ele>457.278226</ele>
        <time>2021-11-22T12:12:45.333Z</time>
      </trkpt>
      <trkpt lat="47.389069" lon="7.971105">
        <ele>457.382717</ele>
        <time>2021-11-22T12:12:46.660Z</time>
      </trkpt>
      <trkpt lat="47.389120" lon="7.971246">
        <ele>457.569584</ele>
        <time>2021-11-22T12:12:49.311Z</time>
      </trkpt>
      <trkpt lat="47.389370" lon="7.971904">
        <ele>458.624554</ele>
        <time>2021-11-22T12:13:00.790Z</time>
      </trkpt>
      <trkpt lat="47.389388" lon="7.971953">
        <ele>458.709680</ele>
        <time>2021-11-22T12:13:01.601Z</time>
      </trkpt>
      <trkpt lat="47.389555" lon="7.972367">
        <ele>459.445557</ele>
        <time>2021-11-22T12:13:09.202Z</time>
      </trkpt>
      <trkpt lat="47.389585" lon="7.972421">
        <ele>459.552223</ele>
        <time>2021-11-22T12:13:10.196Z</time>
      </trkpt>
      <trkpt lat="47.389630" lon="7.972485">
        <ele>459.693120</ele>
        <time>2021-11-22T12:13:11.676Z</time>
      </trkpt>
      <trkpt lat="47.389701" lon="7.972549">
        <ele>459.880723</ele>
        <time>2021-11-22T12:13:13.865Z</time>
      </trkpt>
      <trkpt lat="47.390313" lon="7.972996">
        <ele>461.420607</ele>
        <time>2021-11-22T12:13:30.536Z</time>
      </trkpt>
      <trkpt lat="47.390938" lon="7.973345">
        <ele>462.949210</ele>
        <time>2021-11-22T12:13:47.338Z</time>
      </trkpt>
      <trkpt lat="47.391347" lon="7.973721">
        <ele>464.059582</ele>
        <time>2021-11-22T12:13:59.123Z</time>
      </trkpt>
      <trkpt lat="47.391575" lon="7.973978">
        <ele>464.720632</ele>
        <time>2021-11-22T12:14:06.049Z</time>
      </trkpt>
      <trkpt lat="47.391602" lon="7.974009">
        <ele>464.799453</ele>
        <time>2021-11-22T12:14:06.807Z</time>
      </trkpt>
      <trkpt lat="47.391621" lon="7.974031">
        <ele>464.855097</ele>
        <time>2021-11-22T12:14:07.349Z</time>
      </trkpt>
      <trkpt lat="47.391914" lon="7.974400">
        <ele>465.742568</ele>
        <time>2021-11-22T12:14:16.329Z</time>
      </trkpt>
      <trkpt lat="47.392385" lon="7.975039">
        <ele>466.956797</ele>
        <time>2021-11-22T12:14:30.988Z</time>
      </trkpt>
      <trkpt lat="47.392426" lon="7.975095">
        <ele>467.055842</ele>
        <time>2021-11-22T12:14:32.177Z</time>
      </trkpt>
      <trkpt lat="47.392462" lon="7.975143">
        <ele>467.141859</ele>
        <time>2021-11-22T12:14:33.248Z</time>
      </trkpt>
      <trkpt lat="47.392493" lon="7.975186">
        <ele>467.217286</ele>
        <time>2021-11-22T12:14:34.376Z</time>
      </trkpt>
      <trkpt lat="47.392777" lon="7.975534">
        <ele>467.871769</ele>
        <time>2021-11-22T12:14:42.494Z</time>
      </trkpt>
      <trkpt lat="47.393306" lon="7.976033">
        <ele>468.985042</ele>
        <time>2021-11-22T12:14:55.788Z</time>
      </trkpt>
      <trkpt lat="47.393999" lon="7.976500">
        <ele>470.692671</ele>
        <time>2021-11-22T12:15:11.319Z</time>
      </trkpt>
      <trkpt lat="47.394194" lon="7.976656">
        <ele>471.218774</ele>
        <time>2021-11-22T12:15:15.766Z</time>
      </trkpt>
      <trkpt lat="47.394203" lon="7.976663">
        <ele>471.242904</ele>
        <time>2021-11-22T12:15:16.052Z</time>
      </trkpt>
      <trkpt lat="47.394377" lon="7.976949">
        <ele>471.860458</ele>
        <time>2021-11-22T12:15:21.112Z</time>
      </trkpt>
      <trkpt lat="47.394736" lon="7.977946">
        <ele>473.856235</ele>
        <time>2021-11-22T12:15:42.287Z</time>
      </trkpt>
      <trkpt lat="47.394840" lon="7.978472">
        <ele>475.995616</ele>
        <time>2021-11-22T12:15:56.097Z</time>
      </trkpt>
      <trkpt lat="47.394888" lon="7.979082">
        <ele>478.393177</ele>
        <time>2021-11-22T12:16:11.402Z</time>
      </trkpt>
      <trkpt lat="47.394891" lon="7.979156">
        <ele>478.682600</ele>
        <time>2021-11-22T12:16:13.802Z</time>
      </trkpt>
      <trkpt lat="47.394904" lon="7.979455">
        <ele>479.852342</ele>
        <time>2021-11-22T12:16:21.979Z</time>
      </trkpt>
      <trkpt lat="47.394933" lon="7.979919">
        <ele>481.671565</ele>
        <time>2021-11-22T12:16:34.878Z</time>
      </trkpt>
      <trkpt lat="47.394968" lon="7.980191">
        <ele>482.752504</ele>
        <time>2021-11-22T12:16:42.277Z</time>
      </trkpt>
      <trkpt lat="47.394979" lon="7.980277">
        <ele>483.094200</ele>
        <time>2021-11-22T12:16:45.790Z</time>
      </trkpt>
      <trkpt lat="47.395249" lon="7.981221">
        <ele>486.120508</ele>
        <time>2021-11-22T12:17:14.045Z</time>
      </trkpt>
      <trkpt lat="47.395545" lon="7.981948">
        <ele>488.415907</ele>
        <time>2021-11-22T12:17:34.962Z</time>
      </trkpt>
      <trkpt lat="47.395636" lon="7.982164">
        <ele>489.104268</ele>
        <time>2021-11-22T12:17:41.387Z</time>
      </trkpt>
      <trkpt lat="47.396175" lon="7.983469">
        <ele>489.065680</ele>
        <time>2021-11-22T12:17:55.334Z</time>
      </trkpt>
      <trkpt lat="47.396416" lon="7.984053">
        <ele>487.291424</ele>
        <time>2021-11-22T12:17:59.902Z</time>
      </trkpt>
      <trkpt lat="47.396579" lon="7.984448">
        <ele>486.091385</ele>
        <time>2021-11-22T12:18:02.779Z</time>
      </trkpt>
      <trkpt lat="47.396615" lon="7.984541">
        <ele>485.813477</ele>
        <time>2021-11-22T12:18:03.423Z</time>
      </trkpt>
      <trkpt lat="47.396807" lon="7.985018">
        <ele>484.373883</ele>
        <time>2021-11-22T12:18:06.824Z</time>
      </trkpt>
      <trkpt lat="47.396909" lon="7.985270">
        <ele>483.143012</ele>
        <time>2021-11-22T12:18:08.632Z</time>
      </trkpt>
      <trkpt lat="47.397138" lon="7.985840">
        <ele>480.088374</ele>
        <time>2021-11-22T12:18:12.639Z</time>
      </trkpt>
      <trkpt lat="47.397211" lon="7.986093">
        <ele>478.820933</ele>
        <time>2021-11-22T12:18:14.293Z</time>
      </trkpt>
      <trkpt lat="47.397256" lon="7.986330">
        <ele>477.686578</ele>
        <time>2021-11-22T12:18:15.766Z</time>
      </trkpt>
      <trkpt lat="47.397286" lon="7.986798">
        <ele>475.520179</ele>
        <time>2021-11-22T12:18:18.602Z</time>
      </trkpt>
      <trkpt lat="47.397242" lon="7.987219">
        <ele>473.557037</ele>
        <time>2021-11-22T12:18:21.244Z</time>
      </trkpt>
      <trkpt lat="47.396961" lon="7.988226">
        <ele>469.422165</ele>
        <time>2021-11-22T12:18:28.047Z</time>
      </trkpt>
      <trkpt lat="47.396918" lon="7.988400">
        <ele>468.788462</ele>
        <time>2021-11-22T12:18:29.204Z</time>
      </trkpt>
      <trkpt lat="47.396863" lon="7.988601">
        <ele>468.046760</ele>
        <time>2021-11-22T12:18:30.622Z</time>
      </trkpt>
      <trkpt lat="47.396806" lon="7.989040">
        <ele>466.517508</ele>
        <time>2021-11-22T12:18:33.528Z</time>
      </trkpt>
      <trkpt lat="47.396806" lon="7.989459">
        <ele>465.084057</ele>
        <time>2021-11-22T12:18:36.235Z</time>
      </trkpt>
      <trkpt lat="47.396851" lon="7.990086">
        <ele>462.926990</ele>
        <time>2021-11-22T12:18:40.293Z</time>
      </trkpt>
      <trkpt lat="47.396903" lon="7.990819">
        <ele>460.946624</ele>
        <time>2021-11-22T12:18:45.030Z</time>
      </trkpt>
      <trkpt lat="47.396939" lon="7.991355">
        <ele>459.506674</ele>
        <time>2021-11-22T12:18:48.645Z</time>
      </trkpt>
      <trkpt lat="47.397030" lon="7.992689">
        <ele>455.922371</ele>
        <time>2021-11-22T12:18:57.612Z</time>
      </trkpt>
      <trkpt lat="47.397042" lon="7.992877">
        <ele>455.404744</ele>
        <time>2021-11-22T12:18:58.959Z</time>
      </trkpt>
      <trkpt lat="47.397063" lon="7.993052">
        <ele>454.912706</ele>
        <time>2021-11-22T12:19:00.111Z</time>
      </trkpt>
      <trkpt lat="47.397136" lon="7.993457">
        <ele>453.752405</ele>
        <time>2021-11-22T12:19:03.047Z</time>
      </trkpt>
      <trkpt lat="47.397565" lon="7.994923">
        <ele>449.330825</ele>
        <time>2021-11-22T12:19:13.801Z</time>
      </trkpt>
      <trkpt lat="47.398318" lon="7.996503">
        <ele>441.062254</ele>
        <time>2021-11-22T12:19:25.646Z</time>
      </trkpt>
      <trkpt lat="47.398472" lon="7.996836">
        <ele>439.211731</ele>
        <time>2021-11-22T12:19:28.085Z</time>
      </trkpt>
      <trkpt lat="47.398801" lon="7.997499">
        <ele>435.413230</ele>
        <time>2021-11-22T12:19:33.031Z</time>
      </trkpt>
      <trkpt lat="47.398904" lon="7.997751">
        <ele>434.017233</ele>
        <time>2021-11-22T12:19:34.791Z</time>
      </trkpt>
      <trkpt lat="47.398936" lon="7.997856">
        <ele>433.471163</ele>
        <time>2021-11-22T12:19:35.483Z</time>
      </trkpt>
      <trkpt lat="47.399028" lon="7.998500">
        <ele>430.349929</ele>
        <time>2021-11-22T12:19:39.462Z</time>
      </trkpt>
      <trkpt lat="47.399063" lon="7.998781">
        <ele>428.995008</ele>
        <time>2021-11-22T12:19:41.175Z</time>
      </trkpt>
      <trkpt lat="47.399152" lon="7.999395">
        <ele>426.017307</ele>
        <time>2021-11-22T12:19:45.042Z</time>
      </trkpt>
      <trkpt lat="47.399265" lon="8.000456">
        <ele>421.338330</ele>
        <time>2021-11-22T12:19:51.692Z</time>
      </trkpt>
      <trkpt lat="47.399261" lon="8.001450">
        <ele>417.346893</ele>
        <time>2021-11-22T12:19:57.875Z</time>
      </trkpt>
      <trkpt lat="47.399255" lon="8.001537">
        <ele>416.995740</ele>
        <time>2021-11-22T12:19:58.380Z</time>
      </trkpt>
      <trkpt lat="47.399243" lon="8.001716">
        <ele>416.273456</ele>
        <time>2021-11-22T12:19:59.554Z</time>
      </trkpt>
      <trkpt lat="47.399217" lon="8.001947">
        <ele>415.333148</ele>
        <time>2021-11-22T12:20:01.064Z</time>
      </trkpt>
      <trkpt lat="47.399213" lon="8.001977">
        <ele>415.210369</ele>
        <time>2021-11-22T12:20:01.245Z</time>
      </trkpt>
      <trkpt lat="47.399102" lon="8.002695">
        <ele>412.474678</ele>
        <time>2021-11-22T12:20:05.833Z</time>
      </trkpt>
      <trkpt lat="47.399046" lon="8.003031">
        <ele>411.522135</ele>
        <time>2021-11-22T12:20:08.009Z</time>
      </trkpt>
      <trkpt lat="47.399018" lon="8.003198">
        <ele>411.048536</ele>
        <time>2021-11-22T12:20:09.080Z</time>
      </trkpt>
      <trkpt lat="47.398985" lon="8.003390">
        <ele>410.503238</ele>
        <time>2021-11-22T12:20:10.384Z</time>
      </trkpt>
      <trkpt lat="47.398962" lon="8.003520">
        <ele>410.133360</ele>
        <time>2021-11-22T12:20:11.235Z</time>
      </trkpt>
      <trkpt lat="47.398916" lon="8.003760">
        <ele>409.446728</ele>
        <time>2021-11-22T12:20:12.797Z</time>
      </trkpt>
      <trkpt lat="47.398736" lon="8.004398">
        <ele>407.544030</ele>
        <time>2021-11-22T12:20:17.506Z</time>
      </trkpt>
      <trkpt lat="47.398532" lon="8.005056">
        <ele>405.618401</ele>
        <time>2021-11-22T12:20:22.632Z</time>
      </trkpt>
      <trkpt lat="47.398478" lon="8.005253">
        <ele>405.459495</ele>
        <time>2021-11-22T12:20:24.191Z</time>
      </trkpt>
      <trkpt lat="47.398456" lon="8.005336">
        <ele>405.392852</ele>
        <time>2021-11-22T12:20:24.855Z</time>
      </trkpt>
      <trkpt lat="47.398434" lon="8.005419">
        <ele>405.326209</ele>
        <time>2021-11-22T12:20:25.539Z</time>
      </trkpt>
      <trkpt lat="47.398366" lon="8.005776">
        <ele>405.048930</ele>
        <time>2021-11-22T12:20:28.371Z</time>
      </trkpt>
      <trkpt lat="47.398340" lon="8.005973">
        <ele>404.898869</ele>
        <time>2021-11-22T12:20:29.929Z</time>
      </trkpt>
      <trkpt lat="47.398325" lon="8.006092">
        <ele>404.808368</ele>
        <time>2021-11-22T12:20:30.905Z</time>
      </trkpt>
      <trkpt lat="47.398315" lon="8.006322">
        <ele>404.636053</ele>
        <time>2021-11-22T12:20:32.721Z</time>
      </trkpt>
      <trkpt lat="47.398309" lon="8.006503">
        <ele>404.500566</ele>
        <time>2021-11-22T12:20:34.241Z</time>
      </trkpt>
      <trkpt lat="47.398305" lon="8.006599">
        <ele>404.428655</ele>
        <time>2021-11-22T12:20:35.073Z</time>
      </trkpt>
      <trkpt lat="47.398332" lon="8.007138">
        <ele>404.024567</ele>
        <time>2021-11-22T12:20:39.902Z</time>
      </trkpt>
      <trkpt lat="47.398342" lon="8.007301">
        <ele>403.902200</ele>
        <time>2021-11-22T12:20:41.426Z</time>
      </trkpt>
      <trkpt lat="47.398355" lon="8.007511">
        <ele>403.744537</ele>
        <time>2021-11-22T12:20:43.580Z</time>
      </trkpt>
      <trkpt lat="47.398361" lon="8.007613">
        <ele>403.667989</ele>
        <time>2021-11-22T12:20:44.713Z</time>
      </trkpt>
      <trkpt lat="47.398369" lon="8.007869">
        <ele>403.834722</ele>
        <time>2021-11-22T12:20:47.379Z</time>
      </trkpt>
      <trkpt lat="47.398359" lon="8.008044">
        <ele>403.964518</ele>
        <time>2021-11-22T12:20:49.276Z</time>
      </trkpt>
      <trkpt lat="47.398326" lon="8.008322">
        <ele>404.173112</ele>
        <time>2021-11-22T12:20:52.535Z</time>
      </trkpt>
      <trkpt lat="47.398321" lon="8.008362">
        <ele>404.203174</ele>
        <time>2021-11-22T12:20:52.870Z</time>
      </trkpt>
      <trkpt lat="47.398514" lon="8.008377">
        <ele>404.414190</ele>
        <time>2021-11-22T12:20:56.228Z</time>
      </trkpt>
      <trkpt lat="47.398777" lon="8.008383">
        <ele>404.701377</ele>
        <time>2021-11-22T12:21:00.972Z</time>
      </trkpt>
      <trkpt lat="47.399079" lon="8.008371">
        <ele>405.031230</ele>
        <time>2021-11-22T12:21:06.685Z</time>
      </trkpt>
      <trkpt lat="47.399120" lon="8.008370">
        <ele>405.076002</ele>
        <time>2021-11-22T12:21:07.522Z</time>
      </trkpt>
      <trkpt lat="47.399318" lon="8.008362">
        <ele>405.292266</ele>
        <time>2021-11-22T12:21:11.441Z</time>
      </trkpt>
      <trkpt lat="47.399363" lon="8.008358">
        <ele>405.341487</ele>
        <time>2021-11-22T12:21:12.434Z</time>
      </trkpt>
      <trkpt lat="47.399521" lon="8.008344">
        <ele>405.514307</ele>
        <time>2021-11-22T12:21:15.669Z</time>
      </trkpt>
      <trkpt lat="47.399704" lon="8.008325">
        <ele>405.870430</ele>
        <time>2021-11-22T12:21:19.632Z</time>
      </trkpt>
      <trkpt lat="47.399749" lon="8.008324">
        <ele>406.000856</ele>
        <time>2021-11-22T12:21:20.752Z</time>
      </trkpt>
      <trkpt lat="47.399904" lon="8.008326">
        <ele>406.450070</ele>
        <time>2021-11-22T12:21:24.924Z</time>
      </trkpt>
      <trkpt lat="47.400262" lon="8.008339">
        <ele>407.487884</ele>
        <time>2021-11-22T12:21:37.133Z</time>
      </trkpt>
      <trkpt lat="47.400342" lon="8.008339">
        <ele>407.719728</ele>
        <time>2021-11-22T12:21:43.684Z</time>
      </trkpt>
      <trkpt lat="47.400495" lon="8.008328">
        <ele>408.163653</ele>
        <time>2021-11-22T12:21:45.406Z</time>
      </trkpt>
      <trkpt lat="47.400645" lon="8.008316">
        <ele>408.598997</ele>
        <time>2021-11-22T12:21:46.982Z</time>
      </trkpt>
      <trkpt lat="47.400970" lon="8.008293">
        <ele>409.541941</ele>
        <time>2021-11-22T12:21:56.149Z</time>
      </trkpt>
      <trkpt lat="47.401050" lon="8.008287">
        <ele>409.774083</ele>
        <time>2021-11-22T12:22:01.409Z</time>
      </trkpt>
      <trkpt lat="47.401162" lon="8.008282">
        <ele>410.098813</ele>
        <time>2021-11-22T12:22:03.719Z</time>
      </trkpt>
      <trkpt lat="47.401334" lon="8.008291">
        <ele>410.597589</ele>
        <time>2021-11-22T12:22:05.812Z</time>
      </trkpt>
      <trkpt lat="47.401361" lon="8.008293">
        <ele>410.675934</ele>
        <time>2021-11-22T12:22:06.042Z</time>
      </trkpt>
      <trkpt lat="47.401439" lon="8.008298">
        <ele>410.894554</ele>
        <time>2021-11-22T12:22:14.384Z</time>
      </trkpt>
      <trkpt lat="47.401679" lon="8.008305">
        <ele>411.513451</ele>
        <time>2021-11-22T12:22:16.769Z</time>
      </trkpt>
      <trkpt lat="47.401893" lon="8.008300">
        <ele>412.065261</ele>
        <time>2021-11-22T12:22:24.568Z</time>
      </trkpt>
      <trkpt lat="47.401904" lon="8.008300">
        <ele>412.093622</ele>
        <time>2021-11-22T12:22:24.721Z</time>
      </trkpt>
      <trkpt lat="47.402040" lon="8.008299">
        <ele>412.444266</ele>
        <time>2021-11-22T12:22:26.382Z</time>
      </trkpt>
      <trkpt lat="47.402104" lon="8.008297">
        <ele>412.609310</ele>
        <time>2021-11-22T12:22:28.756Z</time>
      </trkpt>
      <trkpt lat="47.402278" lon="8.008293">
        <ele>413.057977</ele>
        <time>2021-11-22T12:22:34.757Z</time>
      </trkpt>
      <trkpt lat="47.402363" lon="8.008290">
        <ele>413.277189</ele>
        <time>2021-11-22T12:22:35.748Z</time>
      </trkpt>
      <trkpt lat="47.402426" lon="8.008291">
        <ele>413.439627</ele>
        <time>2021-11-22T12:22:36.454Z</time>
      </trkpt>
      <trkpt lat="47.402695" lon="8.008273">
        <ele>414.133882</ele>
        <time>2021-11-22T12:22:45.624Z</time>
      </trkpt>
      <trkpt lat="47.402781" lon="8.008263">
        <ele>414.356296</ele>
        <time>2021-11-22T12:22:46.746Z</time>
      </trkpt>
      <trkpt lat="47.403133" lon="8.008099">
        <ele>415.307889</ele>
        <time>2021-11-22T12:22:56.394Z</time>
      </trkpt>
      <trkpt lat="47.403304" lon="8.007981">
        <ele>415.792133</ele>
        <time>2021-11-22T12:22:58.727Z</time>
      </trkpt>
      <trkpt lat="47.403452" lon="8.007880">
        <ele>416.209402</ele>
        <time>2021-11-22T12:23:03.499Z</time>
      </trkpt>
      <trkpt lat="47.403520" lon="8.007837">
        <ele>416.398723</ele>
        <time>2021-11-22T12:23:05.478Z</time>
      </trkpt>
      <trkpt lat="47.403562" lon="8.007823">
        <ele>416.508926</ele>
        <time>2021-11-22T12:23:06.952Z</time>
      </trkpt>
      <trkpt lat="47.403653" lon="8.007796">
        <ele>416.746494</ele>
        <time>2021-11-22T12:23:09.525Z</time>
      </trkpt>
      <trkpt lat="47.403772" lon="8.007787">
        <ele>417.051479</ele>
        <time>2021-11-22T12:23:12.746Z</time>
      </trkpt>
      <trkpt lat="47.403792" lon="8.007790">
        <ele>417.102933</ele>
        <time>2021-11-22T12:23:13.578Z</time>
      </trkpt>
      <trkpt lat="47.403985" lon="8.007820">
        <ele>417.599652</ele>
        <time>2021-11-22T12:23:19.154Z</time>
      </trkpt>
      <trkpt lat="47.404137" lon="8.007834">
        <ele>417.989458</ele>
        <time>2021-11-22T12:23:23.281Z</time>
      </trkpt>
      <trkpt lat="47.404271" lon="8.007832">
        <ele>418.332454</ele>
        <time>2021-11-22T12:23:27.315Z</time>
      </trkpt>
      <trkpt lat="47.404646" lon="8.007793">
        <ele>419.294659</ele>
        <time>2021-11-22T12:23:36.729Z</time>
      </trkpt>
      <trkpt lat="47.404814" lon="8.007770">
        <ele>419.726504</ele>
        <time>2021-11-22T12:23:40.380Z</time>
      </trkpt>
      <trkpt lat="47.404973" lon="8.007737">
        <ele>420.092569</ele>
        <time>2021-11-22T12:23:44.281Z</time>
      </trkpt>
      <trkpt lat="47.405164" lon="8.007669">
        <ele>420.239744</ele>
        <time>2021-11-22T12:23:47.940Z</time>
      </trkpt>
      <trkpt lat="47.405336" lon="8.007607">
        <ele>420.372371</ele>
        <time>2021-11-22T12:23:51.749Z</time>
      </trkpt>
      <trkpt lat="47.405463" lon="8.007552">
        <ele>420.471511</ele>
        <time>2021-11-22T12:23:53.597Z</time>
      </trkpt>
      <trkpt lat="47.405495" lon="8.007540">
        <ele>420.496243</ele>
        <time>2021-11-22T12:23:54.173Z</time>
      </trkpt>
      <trkpt lat="47.405569" lon="8.007513">
        <ele>420.553342</ele>
        <time>2021-11-22T12:23:55.669Z</time>
      </trkpt>
      <trkpt lat="47.405697" lon="8.007460">
        <ele>420.652923</ele>
        <time>2021-11-22T12:23:57.987Z</time>
      </trkpt>
      <trkpt lat="47.405727" lon="8.007587">
        <ele>420.721121</ele>
        <time>2021-11-22T12:23:59.778Z</time>
      </trkpt>
      <trkpt lat="47.405783" lon="8.007758">
        <ele>420.817435</ele>
        <time>2021-11-22T12:24:02.835Z</time>
      </trkpt>
      <trkpt lat="47.406043" lon="8.008364">
        <ele>421.181211</ele>
        <time>2021-11-22T12:24:13.807Z</time>
      </trkpt>
      <trkpt lat="47.406048" lon="8.008375">
        <ele>421.187929</ele>
        <time>2021-11-22T12:24:13.928Z</time>
      </trkpt>
      <trkpt lat="47.406189" lon="8.008745">
        <ele>421.403211</ele>
        <time>2021-11-22T12:24:20.036Z</time>
      </trkpt>
      <trkpt lat="47.406274" lon="8.009096">
        <ele>421.569494</ele>
        <time>2021-11-22T12:24:24.978Z</time>
      </trkpt>
      <trkpt lat="47.406357" lon="8.009389">
        <ele>421.709113</ele>
        <time>2021-11-22T12:24:29.361Z</time>
      </trkpt>
      <trkpt lat="47.406502" lon="8.009908">
        <ele>421.955920</ele>
        <time>2021-11-22T12:24:37.109Z</time>
      </trkpt>
      <trkpt lat="47.406625" lon="8.010347">
        <ele>422.164771</ele>
        <time>2021-11-22T12:24:44.088Z</time>
      </trkpt>
      <trkpt lat="47.406735" lon="8.010774">
        <ele>422.365601</ele>
        <time>2021-11-22T12:24:51.837Z</time>
      </trkpt>
      <trkpt lat="47.406771" lon="8.011214">
        <ele>422.560416</ele>
        <time>2021-11-22T12:24:59.599Z</time>
      </trkpt>
      <trkpt lat="47.406756" lon="8.011354">
        <ele>422.694553</ele>
        <time>2021-11-22T12:25:02.200Z</time>
      </trkpt>
      <trkpt lat="47.406733" lon="8.011362">
        <ele>422.743145</ele>
        <time>2021-11-22T12:25:02.778Z</time>
      </trkpt>
      <trkpt lat="47.406717" lon="8.011377">
        <ele>422.782113</ele>
        <time>2021-11-22T12:25:03.265Z</time>
      </trkpt>
      <trkpt lat="47.406698" lon="8.011415">
        <ele>422.847869</ele>
        <time>2021-11-22T12:25:04.064Z</time>
      </trkpt>
      <trkpt lat="47.406692" lon="8.011449">
        <ele>422.896773</ele>
        <time>2021-11-22T12:25:04.756Z</time>
      </trkpt>
      <trkpt lat="47.406725" lon="8.011540">
        <ele>423.040463</ele>
        <time>2021-11-22T12:25:06.748Z</time>
      </trkpt>
      <trkpt lat="47.406753" lon="8.011554">
        <ele>423.101252</ele>
        <time>2021-11-22T12:25:07.619Z</time>
      </trkpt>
      <trkpt lat="47.406746" lon="8.011698">
        <ele>423.302187</ele>
        <time>2021-11-22T12:25:10.313Z</time>
      </trkpt>
      <trkpt lat="47.406813" lon="8.012251">
        <ele>424.084089</ele>
        <time>2021-11-22T12:25:20.968Z</time>
      </trkpt>
      <trkpt lat="47.406882" lon="8.012406">
        <ele>424.342301</ele>
        <time>2021-11-22T12:25:24.127Z</time>
      </trkpt>
      <trkpt lat="47.406967" lon="8.012566">
        <ele>424.625400</ele>
        <time>2021-11-22T12:25:28.074Z</time>
      </trkpt>
      <trkpt lat="47.407509" lon="8.013393">
        <ele>426.227642</ele>
        <time>2021-11-22T12:25:50.958Z</time>
      </trkpt>
      <trkpt lat="47.407720" lon="8.013717">
        <ele>427.119975</ele>
        <time>2021-11-22T12:26:00.477Z</time>
      </trkpt>
      <trkpt lat="47.407760" lon="8.013778">
        <ele>427.293952</ele>
        <time>2021-11-22T12:26:02.419Z</time>
      </trkpt>
      <trkpt lat="47.408086" lon="8.014424">
        <ele>428.944521</ele>
        <time>2021-11-22T12:26:19.861Z</time>
      </trkpt>
      <trkpt lat="47.408124" lon="8.014522">
        <ele>429.175867</ele>
        <time>2021-11-22T12:26:22.283Z</time>
      </trkpt>
      <trkpt lat="47.408124" lon="8.014522">
        <ele>429.175867</ele>
        <time>2021-11-22T12:26:22.330Z</time>
      </trkpt>
      <trkpt lat="47.408179" lon="8.014663">
        <ele>429.509215</ele>
        <time>2021-11-22T12:26:26.010Z</time>
      </trkpt>
      <trkpt lat="47.408266" lon="8.014890">
        <ele>430.043559</ele>
        <time>2021-11-22T12:26:31.572Z</time>
      </trkpt>
      <trkpt lat="47.408588" lon="8.015721">
        <ele>432.079017</ele>
        <time>2021-11-22T12:26:53.334Z</time>
      </trkpt>
      <trkpt lat="47.408667" lon="8.015926">
        <ele>432.693445</ele>
        <time>2021-11-22T12:26:58.733Z</time>
      </trkpt>
      <trkpt lat="47.408732" lon="8.016063">
        <ele>433.129221</ele>
        <time>2021-11-22T12:27:02.521Z</time>
      </trkpt>
      <trkpt lat="47.408776" lon="8.016155">
        <ele>433.422634</ele>
        <time>2021-11-22T12:27:05.108Z</time>
      </trkpt>
      <trkpt lat="47.408915" lon="8.016447">
        <ele>434.352456</ele>
        <time>2021-11-22T12:27:13.681Z</time>
      </trkpt>
      <trkpt lat="47.409060" lon="8.016753">
        <ele>435.325388</ele>
        <time>2021-11-22T12:27:22.901Z</time>
      </trkpt>
      <trkpt lat="47.409343" lon="8.017378">
        <ele>437.283970</ele>
        <time>2021-11-22T12:27:41.260Z</time>
      </trkpt>
      <trkpt lat="47.409368" lon="8.017431">
        <ele>437.452232</ele>
        <time>2021-11-22T12:27:42.843Z</time>
      </trkpt>
      <trkpt lat="47.409704" lon="8.018191">
        <ele>440.211184</ele>
        <time>2021-11-22T12:28:05.511Z</time>
      </trkpt>
      <trkpt lat="47.409896" lon="8.018648">
        <ele>442.087750</ele>
        <time>2021-11-22T12:28:19.187Z</time>
      </trkpt>
      <trkpt lat="47.410592" lon="8.020901">
        <ele>452.180891</ele>
        <time>2021-11-22T12:29:31.117Z</time>
      </trkpt>
      <trkpt lat="47.410669" lon="8.021182">
        <ele>453.787062</ele>
        <time>2021-11-22T12:29:42.246Z</time>
      </trkpt>
      <trkpt lat="47.410773" lon="8.021578">
        <ele>456.037539</ele>
        <time>2021-11-22T12:29:57.935Z</time>
      </trkpt>
      <trkpt lat="47.410787" lon="8.021634">
        <ele>456.353827</ele>
        <time>2021-11-22T12:30:00.671Z</time>
      </trkpt>
      <trkpt lat="47.410963" lon="8.022189">
        <ele>459.601065</ele>
        <time>2021-11-22T12:30:23.509Z</time>
      </trkpt>
      <trkpt lat="47.411033" lon="8.022399">
        <ele>460.841295</ele>
        <time>2021-11-22T12:30:32.381Z</time>
      </trkpt>
      <trkpt lat="47.411154" lon="8.022767">
        <ele>463.134331</ele>
        <time>2021-11-22T12:30:47.868Z</time>
      </trkpt>
      <trkpt lat="47.411314" lon="8.023137">
        <ele>465.752007</ele>
        <time>2021-11-22T12:31:04.728Z</time>
      </trkpt>
      <trkpt lat="47.411453" lon="8.023353">
        <ele>467.528970</ele>
        <time>2021-11-22T12:31:16.404Z</time>
      </trkpt>
      <trkpt lat="47.412315" lon="8.024448">
        <ele>477.542838</ele>
        <time>2021-11-22T12:32:21.614Z</time>
      </trkpt>
      <trkpt lat="47.412638" lon="8.025236">
        <ele>480.745478</ele>
        <time>2021-11-22T12:32:49.645Z</time>
      </trkpt>
      <trkpt lat="47.412713" lon="8.025420">
        <ele>481.460277</ele>
        <time>2021-11-22T12:32:56.546Z</time>
      </trkpt>
      <trkpt lat="47.412901" lon="8.025842">
        <ele>483.141567</ele>
        <time>2021-11-22T12:33:10.521Z</time>
      </trkpt>
      <trkpt lat="47.413284" lon="8.026494">
        <ele>486.014656</ele>
        <time>2021-11-22T12:33:30.705Z</time>
      </trkpt>
      <trkpt lat="47.413381" lon="8.026777">
        <ele>486.438683</ele>
        <time>2021-11-22T12:33:37.231Z</time>
      </trkpt>
      <trkpt lat="47.413451" lon="8.027278">
        <ele>485.257633</ele>
        <time>2021-11-22T12:33:45.807Z</time>
      </trkpt>
      <trkpt lat="47.413463" lon="8.027501">
        <ele>484.741171</ele>
        <time>2021-11-22T12:33:48.653Z</time>
      </trkpt>
      <trkpt lat="47.413506" lon="8.028358">
        <ele>482.757196</ele>
        <time>2021-11-22T12:33:57.160Z</time>
      </trkpt>
      <trkpt lat="47.413600" lon="8.029589">
        <ele>478.526785</ele>
        <time>2021-11-22T12:34:07.797Z</time>
      </trkpt>
      <trkpt lat="47.413715" lon="8.029962">
        <ele>475.627037</ele>
        <time>2021-11-22T12:34:11.165Z</time>
      </trkpt>
      <trkpt lat="47.413786" lon="8.030085">
        <ele>474.483306</ele>
        <time>2021-11-22T12:34:12.450Z</time>
      </trkpt>
      <trkpt lat="47.414071" lon="8.030404">
        <ele>470.745628</ele>
        <time>2021-11-22T12:34:16.736Z</time>
      </trkpt>
      <trkpt lat="47.414429" lon="8.031176">
        <ele>464.124855</ele>
        <time>2021-11-22T12:34:24.422Z</time>
      </trkpt>
      <trkpt lat="47.414541" lon="8.031507">
        <ele>461.564581</ele>
        <time>2021-11-22T12:34:27.383Z</time>
      </trkpt>
      <trkpt lat="47.414719" lon="8.032056">
        <ele>458.250769</ele>
        <time>2021-11-22T12:34:32.337Z</time>
      </trkpt>
      <trkpt lat="47.414898" lon="8.032536">
        <ele>455.267395</ele>
        <time>2021-11-22T12:34:36.943Z</time>
      </trkpt>
      <trkpt lat="47.415199" lon="8.033098">
        <ele>451.365887</ele>
        <time>2021-11-22T12:34:43.143Z</time>
      </trkpt>
      <trkpt lat="47.415294" lon="8.033184">
        <ele>450.469690</ele>
        <time>2021-11-22T12:34:44.514Z</time>
      </trkpt>
      <trkpt lat="47.415529" lon="8.033430">
        <ele>448.153049</ele>
        <time>2021-11-22T12:34:48.434Z</time>
      </trkpt>
      <trkpt lat="47.416251" lon="8.034389">
        <ele>443.650612</ele>
        <time>2021-11-22T12:35:01.924Z</time>
      </trkpt>
      <trkpt lat="47.416428" lon="8.035565">
        <ele>440.215370</ele>
        <time>2021-11-22T12:35:13.339Z</time>
      </trkpt>
      <trkpt lat="47.416494" lon="8.035808">
        <ele>439.512053</ele>
        <time>2021-11-22T12:35:15.853Z</time>
      </trkpt>
      <trkpt lat="47.416805" lon="8.036430">
        <ele>437.704201</ele>
        <time>2021-11-22T12:35:23.440Z</time>
      </trkpt>
      <trkpt lat="47.416968" lon="8.036700">
        <ele>436.858376</ele>
        <time>2021-11-22T12:35:26.881Z</time>
      </trkpt>
      <trkpt lat="47.417255" lon="8.037083">
        <ele>435.522509</ele>
        <time>2021-11-22T12:35:32.404Z</time>
      </trkpt>
      <trkpt lat="47.417307" lon="8.037152">
        <ele>435.281087</ele>
        <time>2021-11-22T12:35:33.447Z</time>
      </trkpt>
      <trkpt lat="47.417476" lon="8.037467">
        <ele>434.341390</ele>
        <time>2021-11-22T12:35:37.304Z</time>
      </trkpt>
      <trkpt lat="47.417504" lon="8.037584">
        <ele>434.051296</ele>
        <time>2021-11-22T12:35:38.555Z</time>
      </trkpt>
      <trkpt lat="47.417519" lon="8.037633">
        <ele>433.925580</ele>
        <time>2021-11-22T12:35:39.109Z</time>
      </trkpt>
      <trkpt lat="47.417542" lon="8.037802">
        <ele>433.522624</ele>
        <time>2021-11-22T12:35:40.760Z</time>
      </trkpt>
      <trkpt lat="47.417558" lon="8.038000">
        <ele>433.269663</ele>
        <time>2021-11-22T12:35:42.745Z</time>
      </trkpt>
      <trkpt lat="47.417565" lon="8.038104">
        <ele>433.143972</ele>
        <time>2021-11-22T12:35:43.855Z</time>
      </trkpt>
      <trkpt lat="47.417588" lon="8.038317">
        <ele>432.884569</ele>
        <time>2021-11-22T12:35:46.085Z</time>
      </trkpt>
      <trkpt lat="47.417599" lon="8.038451">
        <ele>432.722235</ele>
        <time>2021-11-22T12:35:47.428Z</time>
      </trkpt>
      <trkpt lat="47.417675" lon="8.038962">
        <ele>432.093020</ele>
        <time>2021-11-22T12:35:53.014Z</time>
      </trkpt>
      <trkpt lat="47.417926" lon="8.039748">
        <ele>431.047772</ele>
        <time>2021-11-22T12:36:03.365Z</time>
      </trkpt>
      <trkpt lat="47.417953" lon="8.039817">
        <ele>430.951914</ele>
        <time>2021-11-22T12:36:04.139Z</time>
      </trkpt>
      <trkpt lat="47.418234" lon="8.040562">
        <ele>430.162547</ele>
        <time>2021-11-22T12:36:13.937Z</time>
      </trkpt>
      <trkpt lat="47.418451" lon="8.041341">
        <ele>429.792184</ele>
        <time>2021-11-22T12:36:23.803Z</time>
      </trkpt>
      <trkpt lat="47.418463" lon="8.041419">
        <ele>429.757017</ele>
        <time>2021-11-22T12:36:25.127Z</time>
      </trkpt>
      <trkpt lat="47.418504" lon="8.041630">
        <ele>429.660505</ele>
        <time>2021-11-22T12:36:27.845Z</time>
      </trkpt>
      <trkpt lat="47.418527" lon="8.041802">
        <ele>429.583426</ele>
        <time>2021-11-22T12:36:29.779Z</time>
      </trkpt>
      <trkpt lat="47.418567" lon="8.042054">
        <ele>429.469630</ele>
        <time>2021-11-22T12:36:33.388Z</time>
      </trkpt>
      <trkpt lat="47.418570" lon="8.042091">
        <ele>429.453248</ele>
        <time>2021-11-22T12:36:33.852Z</time>
      </trkpt>
      <trkpt lat="47.418606" lon="8.042286">
        <ele>429.364385</ele>
        <time>2021-11-22T12:36:36.376Z</time>
      </trkpt>
      <trkpt lat="47.418671" lon="8.042513">
        <ele>429.256020</ele>
        <time>2021-11-22T12:36:39.459Z</time>
      </trkpt>
      <trkpt lat="47.418724" lon="8.042657">
        <ele>429.183953</ele>
        <time>2021-11-22T12:36:41.427Z</time>
      </trkpt>
      <trkpt lat="47.418770" lon="8.042792">
        <ele>429.166887</ele>
        <time>2021-11-22T12:36:43.162Z</time>
      </trkpt>
      <trkpt lat="47.418835" lon="8.042943">
        <ele>429.396282</ele>
        <time>2021-11-22T12:36:45.337Z</time>
      </trkpt>
      <trkpt lat="47.418882" lon="8.043051">
        <ele>429.560873</ele>
        <time>2021-11-22T12:36:47.278Z</time>
      </trkpt>
      <trkpt lat="47.418966" lon="8.043211">
        <ele>429.820449</ele>
        <time>2021-11-22T12:36:51.076Z</time>
      </trkpt>
      <trkpt lat="47.419041" lon="8.043337">
        <ele>430.035550</ele>
        <time>2021-11-22T12:36:53.285Z</time>
      </trkpt>
      <trkpt lat="47.419124" lon="8.043471">
        <ele>430.268405</ele>
        <time>2021-11-22T12:36:56.152Z</time>
      </trkpt>
      <trkpt lat="47.419124" lon="8.043471">
        <ele>430.268405</ele>
        <time>2021-11-22T12:36:56.167Z</time>
      </trkpt>
      <trkpt lat="47.419203" lon="8.043582">
        <ele>430.474895</ele>
        <time>2021-11-22T12:36:59.544Z</time>
      </trkpt>
      <trkpt lat="47.419418" lon="8.043891">
        <ele>431.043002</ele>
        <time>2021-11-22T12:37:07.222Z</time>
      </trkpt>
      <trkpt lat="47.419549" lon="8.043696">
        <ele>431.395214</ele>
        <time>2021-11-22T12:37:11.300Z</time>
      </trkpt>
      <trkpt lat="47.419655" lon="8.043531">
        <ele>431.686844</ele>
        <time>2021-11-22T12:37:15.774Z</time>
      </trkpt>
      <trkpt lat="47.419839" lon="8.043244">
        <ele>432.193613</ele>
        <time>2021-11-22T12:37:22.851Z</time>
      </trkpt>
      <trkpt lat="47.419963" lon="8.043060">
        <ele>432.526477</ele>
        <time>2021-11-22T12:37:29.591Z</time>
      </trkpt>
      <trkpt lat="47.420109" lon="8.042846">
        <ele>433.737320</ele>
        <time>2021-11-22T12:37:34.349Z</time>
      </trkpt>
      <trkpt lat="47.420118" lon="8.042829">
        <ele>433.824998</ele>
        <time>2021-11-22T12:37:34.869Z</time>
      </trkpt>
      <trkpt lat="47.420398" lon="8.042394">
        <ele>436.263742</ele>
        <time>2021-11-22T12:37:49.248Z</time>
      </trkpt>
      <trkpt lat="47.420610" lon="8.042144">
        <ele>437.891903</ele>
        <time>2021-11-22T12:37:59.167Z</time>
      </trkpt>
      <trkpt lat="47.420686" lon="8.042054">
        <ele>438.476541</ele>
        <time>2021-11-22T12:38:03.691Z</time>
      </trkpt>
      <trkpt lat="47.420713" lon="8.042016">
        <ele>438.700363</ele>
        <time>2021-11-22T12:38:06.372Z</time>
      </trkpt>
      <trkpt lat="47.421132" lon="8.041487">
        <ele>442.008536</ele>
        <time>2021-11-22T12:38:29.529Z</time>
      </trkpt>
      <trkpt lat="47.421194" lon="8.041345">
        <ele>442.694981</ele>
        <time>2021-11-22T12:38:33.602Z</time>
      </trkpt>
      <trkpt lat="47.421212" lon="8.041305">
        <ele>442.890107</ele>
        <time>2021-11-22T12:38:35.684Z</time>
      </trkpt>
      <trkpt lat="47.421369" lon="8.040943">
        <ele>445.092875</ele>
        <time>2021-11-22T12:38:47.920Z</time>
      </trkpt>
      <trkpt lat="47.421515" lon="8.040542">
        <ele>447.590867</ele>
        <time>2021-11-22T12:39:03.355Z</time>
      </trkpt>
      <trkpt lat="47.421614" lon="8.040268">
        <ele>449.294808</ele>
        <time>2021-11-22T12:39:13.509Z</time>
      </trkpt>
      <trkpt lat="47.421857" lon="8.039952">
        <ele>451.918982</ele>
        <time>2021-11-22T12:39:28.469Z</time>
      </trkpt>
      <trkpt lat="47.421926" lon="8.039862">
        <ele>452.665102</ele>
        <time>2021-11-22T12:39:32.930Z</time>
      </trkpt>
      <trkpt lat="47.422065" lon="8.039680">
        <ele>454.170682</ele>
        <time>2021-11-22T12:39:40.635Z</time>
      </trkpt>
      <trkpt lat="47.422173" lon="8.039494">
        <ele>455.515204</ele>
        <time>2021-11-22T12:39:48.870Z</time>
      </trkpt>
      <trkpt lat="47.422435" lon="8.039041">
        <ele>459.118957</ele>
        <time>2021-11-22T12:40:06.661Z</time>
      </trkpt>
      <trkpt lat="47.422474" lon="8.038973">
        <ele>459.796784</ele>
        <time>2021-11-22T12:40:10.959Z</time>
      </trkpt>
      <trkpt lat="47.422730" lon="8.038382">
        <ele>465.132653</ele>
        <time>2021-11-22T12:40:38.496Z</time>
      </trkpt>
      <trkpt lat="47.422868" lon="8.038042">
        <ele>468.147420</ele>
        <time>2021-11-22T12:40:56.574Z</time>
      </trkpt>
      <trkpt lat="47.422905" lon="8.037963">
        <ele>468.877992</ele>
        <time>2021-11-22T12:40:59.933Z</time>
      </trkpt>
      <trkpt lat="47.423244" lon="8.037267">
        <ele>475.398837</ele>
        <time>2021-11-22T12:41:36.587Z</time>
      </trkpt>
      <trkpt lat="47.423448" lon="8.036933">
        <ele>478.915246</ele>
        <time>2021-11-22T12:41:55.648Z</time>
      </trkpt>
      <trkpt lat="47.423560" lon="8.036763">
        <ele>480.968454</ele>
        <time>2021-11-22T12:42:06.142Z</time>
      </trkpt>
      <trkpt lat="47.424082" lon="8.036169">
        <ele>489.393878</ele>
        <time>2021-11-22T12:42:49.801Z</time>
      </trkpt>
      <trkpt lat="47.424388" lon="8.035926">
        <ele>493.836515</ele>
        <time>2021-11-22T12:43:13.669Z</time>
      </trkpt>
      <trkpt lat="47.424613" lon="8.035824">
        <ele>496.846436</ele>
        <time>2021-11-22T12:43:31.515Z</time>
      </trkpt>
      <trkpt lat="47.424719" lon="8.035799">
        <ele>498.219262</ele>
        <time>2021-11-22T12:43:40.195Z</time>
      </trkpt>
      <trkpt lat="47.424864" lon="8.035811">
        <ele>500.076629</ele>
        <time>2021-11-22T12:43:48.244Z</time>
      </trkpt>
      <trkpt lat="47.425031" lon="8.035847">
        <ele>501.884199</ele>
        <time>2021-11-22T12:43:59.635Z</time>
      </trkpt>
      <trkpt lat="47.425112" lon="8.035869">
        <ele>502.601514</ele>
        <time>2021-11-22T12:44:04.173Z</time>
      </trkpt>
      <trkpt lat="47.425277" lon="8.035886">
        <ele>504.042137</ele>
        <time>2021-11-22T12:44:12.740Z</time>
      </trkpt>
      <trkpt lat="47.425906" lon="8.035815">
        <ele>509.536623</ele>
        <time>2021-11-22T12:44:48.496Z</time>
      </trkpt>
      <trkpt lat="47.426010" lon="8.035820">
        <ele>510.442933</ele>
        <time>2021-11-22T12:44:52.806Z</time>
      </trkpt>
      <trkpt lat="47.426081" lon="8.035824">
        <ele>511.061786</ele>
        <time>2021-11-22T12:44:57.646Z</time>
      </trkpt>
      <trkpt lat="47.426739" lon="8.036025">
        <ele>516.836203</ele>
        <time>2021-11-22T12:45:23.151Z</time>
      </trkpt>
      <trkpt lat="47.426959" lon="8.036087">
        <ele>517.442305</ele>
        <time>2021-11-22T12:45:29.339Z</time>
      </trkpt>
      <trkpt lat="47.427288" lon="8.036127">
        <ele>518.335672</ele>
        <time>2021-11-22T12:45:39.620Z</time>
      </trkpt>
      <trkpt lat="47.427488" lon="8.036131">
        <ele>518.876974</ele>
        <time>2021-11-22T12:45:47.061Z</time>
      </trkpt>
      <trkpt lat="47.428073" lon="8.036147">
        <ele>520.460407</ele>
        <time>2021-11-22T12:46:01.820Z</time>
      </trkpt>
      <trkpt lat="47.428173" lon="8.036125">
        <ele>520.734014</ele>
        <time>2021-11-22T12:46:04.965Z</time>
      </trkpt>
      <trkpt lat="47.428425" lon="8.036042">
        <ele>521.432716</ele>
        <time>2021-11-22T12:46:12.195Z</time>
      </trkpt>
      <trkpt lat="47.428589" lon="8.035948">
        <ele>522.191197</ele>
        <time>2021-11-22T12:46:13.671Z</time>
      </trkpt>
      <trkpt lat="47.428937" lon="8.035687">
        <ele>524.490075</ele>
        <time>2021-11-22T12:46:17.541Z</time>
      </trkpt>
      <trkpt lat="47.429108" lon="8.035534">
        <ele>525.667615</ele>
        <time>2021-11-22T12:46:33.987Z</time>
      </trkpt>
      <trkpt lat="47.429183" lon="8.035457">
        <ele>526.205558</ele>
        <time>2021-11-22T12:46:34.798Z</time>
      </trkpt>
      <trkpt lat="47.429735" lon="8.034851">
        <ele>530.256151</ele>
        <time>2021-11-22T12:47:13.888Z</time>
      </trkpt>
      <trkpt lat="47.429784" lon="8.034795">
        <ele>530.621025</ele>
        <time>2021-11-22T12:47:14.415Z</time>
      </trkpt>
      <trkpt lat="47.430089" lon="8.034453">
        <ele>533.693072</ele>
        <time>2021-11-22T12:47:35.344Z</time>
      </trkpt>
      <trkpt lat="47.430169" lon="8.034362">
        <ele>535.081947</ele>
        <time>2021-11-22T12:47:46.462Z</time>
      </trkpt>
      <trkpt lat="47.430470" lon="8.034052">
        <ele>540.129399</ele>
        <time>2021-11-22T12:48:07.911Z</time>
      </trkpt>
      <trkpt lat="47.431773" lon="8.032676">
        <ele>562.343403</ele>
        <time>2021-11-22T12:50:06.365Z</time>
      </trkpt>
      <trkpt lat="47.431924" lon="8.032307">
        <ele>566.498834</ele>
        <time>2021-11-22T12:50:28.142Z</time>
      </trkpt>
      <trkpt lat="47.432025" lon="8.031663">
        <ele>572.868662</ele>
        <time>2021-11-22T12:51:02.241Z</time>
      </trkpt>
      <trkpt lat="47.432133" lon="8.030906">
        <ele>580.323156</ele>
        <time>2021-11-22T12:51:37.593Z</time>
      </trkpt>
      <trkpt lat="47.432157" lon="8.030749">
        <ele>581.874065</ele>
        <time>2021-11-22T12:51:45.304Z</time>
      </trkpt>
      <trkpt lat="47.432234" lon="8.030524">
        <ele>583.970112</ele>
        <time>2021-11-22T12:51:56.964Z</time>
      </trkpt>
      <trkpt lat="47.432409" lon="8.030404">
        <ele>586.169749</ele>
        <time>2021-11-22T12:52:09.409Z</time>
      </trkpt>
      <trkpt lat="47.432467" lon="8.030406">
        <ele>586.831267</ele>
        <time>2021-11-22T12:52:14.278Z</time>
      </trkpt>
      <trkpt lat="47.432542" lon="8.030469">
        <ele>587.814863</ele>
        <time>2021-11-22T12:52:19.226Z</time>
      </trkpt>
      <trkpt lat="47.432631" lon="8.030656">
        <ele>589.578462</ele>
        <time>2021-11-22T12:52:28.444Z</time>
      </trkpt>
      <trkpt lat="47.432675" lon="8.031189">
        <ele>593.720103</ele>
        <time>2021-11-22T12:52:51.193Z</time>
      </trkpt>
      <trkpt lat="47.432764" lon="8.031627">
        <ele>597.247610</ele>
        <time>2021-11-22T12:53:08.889Z</time>
      </trkpt>
      <trkpt lat="47.433381" lon="8.033653">
        <ele>613.822114</ele>
        <time>2021-11-22T12:54:31.070Z</time>
      </trkpt>
      <trkpt lat="47.433485" lon="8.033776">
        <ele>615.264728</ele>
        <time>2021-11-22T12:54:37.730Z</time>
      </trkpt>
      <trkpt lat="47.433621" lon="8.033768">
        <ele>616.738979</ele>
        <time>2021-11-22T12:54:47.791Z</time>
      </trkpt>
      <trkpt lat="47.433695" lon="8.033652">
        <ele>617.907234</ele>
        <time>2021-11-22T12:54:53.551Z</time>
      </trkpt>
      <trkpt lat="47.433704" lon="8.033446">
        <ele>619.419720</ele>
        <time>2021-11-22T12:55:00.600Z</time>
      </trkpt>
      <trkpt lat="47.433692" lon="8.033363">
        <ele>620.041587</ele>
        <time>2021-11-22T12:55:06.559Z</time>
      </trkpt>
      <trkpt lat="47.433630" lon="8.033110">
        <ele>622.013189</ele>
        <time>2021-11-22T12:55:16.501Z</time>
      </trkpt>
      <trkpt lat="47.433547" lon="8.032532">
        <ele>627.657626</ele>
        <time>2021-11-22T12:55:40.963Z</time>
      </trkpt>
      <trkpt lat="47.433660" lon="8.031143">
        <ele>641.531691</ele>
        <time>2021-11-22T12:56:56.198Z</time>
      </trkpt>
      <trkpt lat="47.433829" lon="8.030548">
        <ele>647.931395</ele>
        <time>2021-11-22T12:57:26.289Z</time>
      </trkpt>
      <trkpt lat="47.434108" lon="8.030185">
        <ele>652.609374</ele>
        <time>2021-11-22T12:57:57.180Z</time>
      </trkpt>
      <trkpt lat="47.434167" lon="8.030147">
        <ele>653.387154</ele>
        <time>2021-11-22T12:58:04.042Z</time>
      </trkpt>
      <trkpt lat="47.434275" lon="8.030088">
        <ele>654.778661</ele>
        <time>2021-11-22T12:58:12.575Z</time>
      </trkpt>
      <trkpt lat="47.434990" lon="8.030088">
        <ele>663.419824</ele>
        <time>2021-11-22T12:59:01.776Z</time>
      </trkpt>
      <trkpt lat="47.435436" lon="8.030087">
        <ele>668.809982</ele>
        <time>2021-11-22T12:59:24.107Z</time>
      </trkpt>
      <trkpt lat="47.435481" lon="8.030087">
        <ele>669.353831</ele>
        <time>2021-11-22T12:59:28.965Z</time>
      </trkpt>
      <trkpt lat="47.435896" lon="8.030060">
        <ele>670.632649</ele>
        <time>2021-11-22T12:59:45.779Z</time>
      </trkpt>
      <trkpt lat="47.436042" lon="8.030035">
        <ele>670.585632</ele>
        <time>2021-11-22T12:59:47.348Z</time>
      </trkpt>
      <trkpt lat="47.436700" lon="8.029803">
        <ele>670.369239</ele>
        <time>2021-11-22T12:59:57.091Z</time>
      </trkpt>
      <trkpt lat="47.436763" lon="8.029782">
        <ele>670.348579</ele>
        <time>2021-11-22T12:59:57.683Z</time>
      </trkpt>
      <trkpt lat="47.436857" lon="8.029750">
        <ele>670.317722</ele>
        <time>2021-11-22T12:59:58.597Z</time>
      </trkpt>
      <trkpt lat="47.437975" lon="8.029310">
        <ele>666.599266</ele>
        <time>2021-11-22T13:00:09.403Z</time>
      </trkpt>
      <trkpt lat="47.438761" lon="8.028824">
        <ele>661.899587</ele>
        <time>2021-11-22T13:00:17.228Z</time>
      </trkpt>
      <trkpt lat="47.439279" lon="8.028420">
        <ele>658.827122</ele>
        <time>2021-11-22T13:00:22.710Z</time>
      </trkpt>
      <trkpt lat="47.439363" lon="8.028350">
        <ele>658.349043</ele>
        <time>2021-11-22T13:00:23.601Z</time>
      </trkpt>
      <trkpt lat="47.440263" lon="8.027666">
        <ele>653.331741</ele>
        <time>2021-11-22T13:00:33.222Z</time>
      </trkpt>
      <trkpt lat="47.440647" lon="8.027439">
        <ele>651.272511</ele>
        <time>2021-11-22T13:00:37.171Z</time>
      </trkpt>
      <trkpt lat="47.441109" lon="8.027297">
        <ele>648.307682</ele>
        <time>2021-11-22T13:00:41.631Z</time>
      </trkpt>
      <trkpt lat="47.441755" lon="8.027353">
        <ele>644.241859</ele>
        <time>2021-11-22T13:00:47.556Z</time>
      </trkpt>
      <trkpt lat="47.442237" lon="8.027604">
        <ele>641.031086</ele>
        <time>2021-11-22T13:00:52.196Z</time>
      </trkpt>
      <trkpt lat="47.443354" lon="8.028536">
        <ele>630.241362</ele>
        <time>2021-11-22T13:01:03.394Z</time>
      </trkpt>
      <trkpt lat="47.443829" lon="8.028756">
        <ele>625.900723</ele>
        <time>2021-11-22T13:01:07.878Z</time>
      </trkpt>
      <trkpt lat="47.444082" lon="8.028771">
        <ele>623.693002</ele>
        <time>2021-11-22T13:01:09.967Z</time>
      </trkpt>
      <trkpt lat="47.444103" lon="8.028769">
        <ele>623.509583</ele>
        <time>2021-11-22T13:01:12.360Z</time>
      </trkpt>
      <trkpt lat="47.444130" lon="8.028762">
        <ele>623.270657</ele>
        <time>2021-11-22T13:01:12.607Z</time>
      </trkpt>
      <trkpt lat="47.444200" lon="8.028735">
        <ele>622.640108</ele>
        <time>2021-11-22T13:01:13.257Z</time>
      </trkpt>
      <trkpt lat="47.444252" lon="8.028702">
        <ele>622.146885</ele>
        <time>2021-11-22T13:01:13.720Z</time>
      </trkpt>
      <trkpt lat="47.444390" lon="8.028577">
        <ele>620.736301</ele>
        <time>2021-11-22T13:01:15.074Z</time>
      </trkpt>
      <trkpt lat="47.444512" lon="8.028362">
        <ele>619.081911</ele>
        <time>2021-11-22T13:01:16.848Z</time>
      </trkpt>
      <trkpt lat="47.444596" lon="8.027836">
        <ele>615.895992</ele>
        <time>2021-11-22T13:01:20.020Z</time>
      </trkpt>
      <trkpt lat="47.444535" lon="8.027371">
        <ele>613.103835</ele>
        <time>2021-11-22T13:01:22.877Z</time>
      </trkpt>
      <trkpt lat="47.444190" lon="8.026300">
        <ele>607.324080</ele>
        <time>2021-11-22T13:01:29.903Z</time>
      </trkpt>
      <trkpt lat="47.444094" lon="8.025849">
        <ele>605.868041</ele>
        <time>2021-11-22T13:01:32.908Z</time>
      </trkpt>
      <trkpt lat="47.444086" lon="8.025459">
        <ele>604.666467</ele>
        <time>2021-11-22T13:01:35.463Z</time>
      </trkpt>
      <trkpt lat="47.444181" lon="8.025029">
        <ele>603.273401</ele>
        <time>2021-11-22T13:01:38.513Z</time>
      </trkpt>
      <trkpt lat="47.444482" lon="8.024455">
        <ele>601.036640</ele>
        <time>2021-11-22T13:01:43.598Z</time>
      </trkpt>
      <trkpt lat="47.445020" lon="8.023772">
        <ele>598.443500</ele>
        <time>2021-11-22T13:01:51.325Z</time>
      </trkpt>
      <trkpt lat="47.445182" lon="8.023668">
        <ele>597.831984</ele>
        <time>2021-11-22T13:01:53.233Z</time>
      </trkpt>
      <trkpt lat="47.445885" lon="8.023440">
        <ele>595.339964</ele>
        <time>2021-11-22T13:02:00.447Z</time>
      </trkpt>
      <trkpt lat="47.446154" lon="8.023202">
        <ele>594.254542</ele>
        <time>2021-11-22T13:02:03.409Z</time>
      </trkpt>
      <trkpt lat="47.446349" lon="8.022919">
        <ele>592.497521</ele>
        <time>2021-11-22T13:02:05.918Z</time>
      </trkpt>
      <trkpt lat="47.446477" lon="8.022664">
        <ele>591.101761</ele>
        <time>2021-11-22T13:02:07.868Z</time>
      </trkpt>
      <trkpt lat="47.446606" lon="8.022220">
        <ele>588.977839</ele>
        <time>2021-11-22T13:02:10.805Z</time>
      </trkpt>
      <trkpt lat="47.446723" lon="8.020643">
        <ele>581.979618</ele>
        <time>2021-11-22T13:02:20.442Z</time>
      </trkpt>
      <trkpt lat="47.446778" lon="8.020358">
        <ele>580.615386</ele>
        <time>2021-11-22T13:02:22.246Z</time>
      </trkpt>
      <trkpt lat="47.446940" lon="8.020031">
        <ele>578.749529</ele>
        <time>2021-11-22T13:02:24.745Z</time>
      </trkpt>
      <trkpt lat="47.447432" lon="8.019478">
        <ele>574.543148</ele>
        <time>2021-11-22T13:02:30.337Z</time>
      </trkpt>
      <trkpt lat="47.447512" lon="8.019351">
        <ele>573.744256</ele>
        <time>2021-11-22T13:02:31.451Z</time>
      </trkpt>
      <trkpt lat="47.447593" lon="8.019200">
        <ele>572.857098</ele>
        <time>2021-11-22T13:02:32.579Z</time>
      </trkpt>
      <trkpt lat="47.447791" lon="8.018721">
        <ele>570.271961</ele>
        <time>2021-11-22T13:02:36.021Z</time>
      </trkpt>
      <trkpt lat="47.447917" lon="8.018256">
        <ele>567.879635</ele>
        <time>2021-11-22T13:02:39.046Z</time>
      </trkpt>
      <trkpt lat="47.448127" lon="8.017842">
        <ele>565.408133</ele>
        <time>2021-11-22T13:02:42.192Z</time>
      </trkpt>
      <trkpt lat="47.448218" lon="8.017755">
        <ele>564.642887</ele>
        <time>2021-11-22T13:02:43.162Z</time>
      </trkpt>
      <trkpt lat="47.448305" lon="8.017672">
        <ele>563.911733</ele>
        <time>2021-11-22T13:02:44.129Z</time>
      </trkpt>
      <trkpt lat="47.448431" lon="8.017568">
        <ele>562.892704</ele>
        <time>2021-11-22T13:02:45.385Z</time>
      </trkpt>
      <trkpt lat="47.448801" lon="8.017178">
        <ele>559.683946</ele>
        <time>2021-11-22T13:02:49.480Z</time>
      </trkpt>
      <trkpt lat="47.448929" lon="8.016978">
        <ele>558.368906</ele>
        <time>2021-11-22T13:02:51.148Z</time>
      </trkpt>
      <trkpt lat="47.448981" lon="8.016904">
        <ele>557.859263</ele>
        <time>2021-11-22T13:02:51.806Z</time>
      </trkpt>
      <trkpt lat="47.449073" lon="8.016786">
        <ele>556.887541</ele>
        <time>2021-11-22T13:02:52.897Z</time>
      </trkpt>
      <trkpt lat="47.449199" lon="8.016667">
        <ele>555.635306</ele>
        <time>2021-11-22T13:02:54.240Z</time>
      </trkpt>
      <trkpt lat="47.449353" lon="8.016588">
        <ele>554.270018</ele>
        <time>2021-11-22T13:02:55.711Z</time>
      </trkpt>
      <trkpt lat="47.449594" lon="8.016517">
        <ele>552.211772</ele>
        <time>2021-11-22T13:02:57.892Z</time>
      </trkpt>
      <trkpt lat="47.449870" lon="8.016383">
        <ele>549.778635</ele>
        <time>2021-11-22T13:03:00.573Z</time>
      </trkpt>
      <trkpt lat="47.450380" lon="8.015953">
        <ele>544.861421</ele>
        <time>2021-11-22T13:03:05.706Z</time>
      </trkpt>
      <trkpt lat="47.451269" lon="8.015462">
        <ele>534.194867</ele>
        <time>2021-11-22T13:03:13.729Z</time>
      </trkpt>
      <trkpt lat="47.451437" lon="8.015310">
        <ele>531.747647</ele>
        <time>2021-11-22T13:03:15.519Z</time>
      </trkpt>
      <trkpt lat="47.451445" lon="8.015298">
        <ele>531.606056</ele>
        <time>2021-11-22T13:03:15.618Z</time>
      </trkpt>
      <trkpt lat="47.451482" lon="8.015245">
        <ele>530.965987</ele>
        <time>2021-11-22T13:03:16.052Z</time>
      </trkpt>
      <trkpt lat="47.451647" lon="8.014819">
        <ele>526.840969</ele>
        <time>2021-11-22T13:03:18.896Z</time>
      </trkpt>
      <trkpt lat="47.451629" lon="8.014256">
        <ele>522.105134</ele>
        <time>2021-11-22T13:03:22.064Z</time>
      </trkpt>
      <trkpt lat="47.451318" lon="8.013628">
        <ele>516.212399</ele>
        <time>2021-11-22T13:03:26.501Z</time>
      </trkpt>
      <trkpt lat="47.450792" lon="8.012931">
        <ele>508.666721</ele>
        <time>2021-11-22T13:03:32.486Z</time>
      </trkpt>
      <trkpt lat="47.450695" lon="8.012685">
        <ele>506.609389</ele>
        <time>2021-11-22T13:03:34.151Z</time>
      </trkpt>
      <trkpt lat="47.450620" lon="8.012203">
        <ele>503.036114</ele>
        <time>2021-11-22T13:03:37.106Z</time>
      </trkpt>
      <trkpt lat="47.450739" lon="8.010629">
        <ele>494.208539</ele>
        <time>2021-11-22T13:03:46.566Z</time>
      </trkpt>
      <trkpt lat="47.451025" lon="8.008518">
        <ele>483.769389</ele>
        <time>2021-11-22T13:03:59.551Z</time>
      </trkpt>
      <trkpt lat="47.451125" lon="8.007964">
        <ele>481.345488</ele>
        <time>2021-11-22T13:04:03.081Z</time>
      </trkpt>
      <trkpt lat="47.451152" lon="8.007815">
        <ele>480.693404</ele>
        <time>2021-11-22T13:04:04.029Z</time>
      </trkpt>
      <trkpt lat="47.451223" lon="8.007424">
        <ele>478.981993</ele>
        <time>2021-11-22T13:04:06.556Z</time>
      </trkpt>
      <trkpt lat="47.451374" lon="8.006835">
        <ele>476.319218</ele>
        <time>2021-11-22T13:04:10.518Z</time>
      </trkpt>
      <trkpt lat="47.451459" lon="8.006532">
        <ele>475.260192</ele>
        <time>2021-11-22T13:04:12.632Z</time>
      </trkpt>
      <trkpt lat="47.451704" lon="8.006006">
        <ele>473.505685</ele>
        <time>2021-11-22T13:04:16.704Z</time>
      </trkpt>
      <trkpt lat="47.451777" lon="8.005920">
        <ele>473.126542</ele>
        <time>2021-11-22T13:04:17.571Z</time>
      </trkpt>
      <trkpt lat="47.451940" lon="8.005767">
        <ele>472.342269</ele>
        <time>2021-11-22T13:04:19.481Z</time>
      </trkpt>
      <trkpt lat="47.452304" lon="8.005472">
        <ele>470.656110</ele>
        <time>2021-11-22T13:04:23.628Z</time>
      </trkpt>
      <trkpt lat="47.452429" lon="8.005350">
        <ele>470.047706</ele>
        <time>2021-11-22T13:04:25.110Z</time>
      </trkpt>
      <trkpt lat="47.452544" lon="8.005204">
        <ele>469.432009</ele>
        <time>2021-11-22T13:04:26.701Z</time>
      </trkpt>
      <trkpt lat="47.452632" lon="8.005093">
        <ele>468.962156</ele>
        <time>2021-11-22T13:04:27.875Z</time>
      </trkpt>
      <trkpt lat="47.452707" lon="8.004978">
        <ele>468.526997</ele>
        <time>2021-11-22T13:04:28.983Z</time>
      </trkpt>
      <trkpt lat="47.452809" lon="8.004791">
        <ele>467.930988</ele>
        <time>2021-11-22T13:04:30.721Z</time>
      </trkpt>
      <trkpt lat="47.452892" lon="8.004632">
        <ele>467.432693</ele>
        <time>2021-11-22T13:04:32.067Z</time>
      </trkpt>
      <trkpt lat="47.453556" lon="8.003416">
        <ele>463.555385</ele>
        <time>2021-11-22T13:04:42.502Z</time>
      </trkpt>
      <trkpt lat="47.453815" lon="8.002812">
        <ele>461.808171</ele>
        <time>2021-11-22T13:04:47.175Z</time>
      </trkpt>
      <trkpt lat="47.453903" lon="8.002487">
        <ele>461.068628</ele>
        <time>2021-11-22T13:04:49.516Z</time>
      </trkpt>
      <trkpt lat="47.453932" lon="8.002372">
        <ele>460.809353</ele>
        <time>2021-11-22T13:04:50.323Z</time>
      </trkpt>
      <trkpt lat="47.453983" lon="8.002195">
        <ele>460.402920</ele>
        <time>2021-11-22T13:04:51.655Z</time>
      </trkpt>
      <trkpt lat="47.454027" lon="8.002090">
        <ele>460.141974</ele>
        <time>2021-11-22T13:04:52.493Z</time>
      </trkpt>
      <trkpt lat="47.454148" lon="8.001857">
        <ele>459.521368</ele>
        <time>2021-11-22T13:04:54.488Z</time>
      </trkpt>
      <trkpt lat="47.454570" lon="8.001381">
        <ele>457.863319</ele>
        <time>2021-11-22T13:05:00.082Z</time>
      </trkpt>
      <trkpt lat="47.455049" lon="8.001106">
        <ele>456.270685</ele>
        <time>2021-11-22T13:05:05.355Z</time>
      </trkpt>
      <trkpt lat="47.455740" lon="8.000709">
        <ele>454.294319</ele>
        <time>2021-11-22T13:05:13.161Z</time>
      </trkpt>
      <trkpt lat="47.456267" lon="8.000301">
        <ele>452.708447</ele>
        <time>2021-11-22T13:05:19.583Z</time>
      </trkpt>
      <trkpt lat="47.456363" lon="8.000219">
        <ele>452.412887</ele>
        <time>2021-11-22T13:05:20.581Z</time>
      </trkpt>
      <trkpt lat="47.457107" lon="7.999528">
        <ele>449.694031</ele>
        <time>2021-11-22T13:05:29.979Z</time>
      </trkpt>
      <trkpt lat="47.457133" lon="7.999505">
        <ele>449.592679</ele>
        <time>2021-11-22T13:05:30.265Z</time>
      </trkpt>
      <trkpt lat="47.457243" lon="7.999411">
        <ele>449.167674</ele>
        <time>2021-11-22T13:05:31.424Z</time>
      </trkpt>
      <trkpt lat="47.458410" lon="7.998658">
        <ele>445.077366</ele>
        <time>2021-11-22T13:05:44.126Z</time>
      </trkpt>
      <trkpt lat="47.458509" lon="7.998633">
        <ele>444.832549</ele>
        <time>2021-11-22T13:05:45.072Z</time>
      </trkpt>
      <trkpt lat="47.458630" lon="7.998609">
        <ele>444.534956</ele>
        <time>2021-11-22T13:05:46.347Z</time>
      </trkpt>
      <trkpt lat="47.459032" lon="7.998632">
        <ele>443.554298</ele>
        <time>2021-11-22T13:05:50.712Z</time>
      </trkpt>
      <trkpt lat="47.459150" lon="7.998657">
        <ele>443.263723</ele>
        <time>2021-11-22T13:05:52.010Z</time>
      </trkpt>
      <trkpt lat="47.459205" lon="7.998672">
        <ele>443.127393</ele>
        <time>2021-11-22T13:05:52.574Z</time>
      </trkpt>
      <trkpt lat="47.459283" lon="7.998698">
        <ele>442.932490</ele>
        <time>2021-11-22T13:05:53.423Z</time>
      </trkpt>
      <trkpt lat="47.459773" lon="7.998935">
        <ele>441.675810</ele>
        <time>2021-11-22T13:05:59.181Z</time>
      </trkpt>
      <trkpt lat="47.459866" lon="7.998934">
        <ele>441.449105</ele>
        <time>2021-11-22T13:06:00.188Z</time>
      </trkpt>
      <trkpt lat="47.459934" lon="7.998910">
        <ele>441.278693</ele>
        <time>2021-11-22T13:06:00.909Z</time>
      </trkpt>
      <trkpt lat="47.460218" lon="7.998745">
        <ele>440.781323</ele>
        <time>2021-11-22T13:06:04.407Z</time>
      </trkpt>
      <trkpt lat="47.460488" lon="7.998555">
        <ele>440.345826</ele>
        <time>2021-11-22T13:06:07.854Z</time>
      </trkpt>
      <trkpt lat="47.460660" lon="7.998379">
        <ele>440.041198</ele>
        <time>2021-11-22T13:06:10.194Z</time>
      </trkpt>
      <trkpt lat="47.460836" lon="7.998161">
        <ele>439.706837</ele>
        <time>2021-11-22T13:06:12.853Z</time>
      </trkpt>
      <trkpt lat="47.460857" lon="7.998139">
        <ele>439.669356</ele>
        <time>2021-11-22T13:06:13.107Z</time>
      </trkpt>
      <trkpt lat="47.460924" lon="7.998094">
        <ele>439.562180</ele>
        <time>2021-11-22T13:06:14.041Z</time>
      </trkpt>
      <trkpt lat="47.460942" lon="7.998082">
        <ele>439.533423</ele>
        <time>2021-11-22T13:06:14.295Z</time>
      </trkpt>
      <trkpt lat="47.460985" lon="7.998062">
        <ele>439.467769</ele>
        <time>2021-11-22T13:06:14.846Z</time>
      </trkpt>
      <trkpt lat="47.461062" lon="7.998039">
        <ele>439.353354</ele>
        <time>2021-11-22T13:06:15.690Z</time>
      </trkpt>
      <trkpt lat="47.461149" lon="7.998038">
        <ele>439.226634</ele>
        <time>2021-11-22T13:06:16.758Z</time>
      </trkpt>
      <trkpt lat="47.461284" lon="7.998059">
        <ele>439.028921</ele>
        <time>2021-11-22T13:06:18.263Z</time>
      </trkpt>
      <trkpt lat="47.461438" lon="7.998032">
        <ele>438.803049</ele>
        <time>2021-11-22T13:06:20.112Z</time>
      </trkpt>
      <trkpt lat="47.461502" lon="7.997997">
        <ele>438.703665</ele>
        <time>2021-11-22T13:06:20.957Z</time>
      </trkpt>
      <trkpt lat="47.461552" lon="7.997973">
        <ele>438.627101</ele>
        <time>2021-11-22T13:06:21.496Z</time>
      </trkpt>
      <trkpt lat="47.461927" lon="7.997527">
        <ele>438.328361</ele>
        <time>2021-11-22T13:06:27.804Z</time>
      </trkpt>
      <trkpt lat="47.462299" lon="7.997298">
        <ele>438.134058</ele>
        <time>2021-11-22T13:06:33.100Z</time>
      </trkpt>
      <trkpt lat="47.462350" lon="7.997293">
        <ele>438.109411</ele>
        <time>2021-11-22T13:06:33.697Z</time>
      </trkpt>
      <trkpt lat="47.462598" lon="7.997285">
        <ele>437.989791</ele>
        <time>2021-11-22T13:06:36.935Z</time>
      </trkpt>
      <trkpt lat="47.462705" lon="7.997285">
        <ele>437.938193</ele>
        <time>2021-11-22T13:06:38.337Z</time>
      </trkpt>
      <trkpt lat="47.463019" lon="7.997210">
        <ele>437.784814</ele>
        <time>2021-11-22T13:06:42.779Z</time>
      </trkpt>
      <trkpt lat="47.463107" lon="7.997172">
        <ele>437.740607</ele>
        <time>2021-11-22T13:06:44.085Z</time>
      </trkpt>
      <trkpt lat="47.463326" lon="7.997031">
        <ele>437.667016</ele>
        <time>2021-11-22T13:06:48.079Z</time>
      </trkpt>
      <trkpt lat="47.463691" lon="7.996686">
        <ele>437.709086</ele>
        <time>2021-11-22T13:06:54.959Z</time>
      </trkpt>
      <trkpt lat="47.464131" lon="7.996368">
        <ele>437.756649</ele>
        <time>2021-11-22T13:07:03.430Z</time>
      </trkpt>
      <trkpt lat="47.464249" lon="7.996297">
        <ele>437.769021</ele>
        <time>2021-11-22T13:07:05.616Z</time>
      </trkpt>
      <trkpt lat="47.465105" lon="7.995610">
        <ele>437.546942</ele>
        <time>2021-11-22T13:07:18.967Z</time>
      </trkpt>
      <trkpt lat="47.465119" lon="7.995595">
        <ele>437.530207</ele>
        <time>2021-11-22T13:07:19.454Z</time>
      </trkpt>
      <trkpt lat="47.465230" lon="7.995479">
        <ele>437.398636</ele>
        <time>2021-11-22T13:07:21.059Z</time>
      </trkpt>
      <trkpt lat="47.465613" lon="7.995104">
        <ele>436.953991</ele>
        <time>2021-11-22T13:07:26.772Z</time>
      </trkpt>
      <trkpt lat="47.465772" lon="7.994973">
        <ele>436.777799</ele>
        <time>2021-11-22T13:07:29.002Z</time>
      </trkpt>
      <trkpt lat="47.465905" lon="7.994879">
        <ele>436.635101</ele>
        <time>2021-11-22T13:07:30.672Z</time>
      </trkpt>
      <trkpt lat="47.466146" lon="7.994726">
        <ele>436.381212</ele>
        <time>2021-11-22T13:07:33.683Z</time>
      </trkpt>
      <trkpt lat="47.467154" lon="7.994150">
        <ele>435.177980</ele>
        <time>2021-11-22T13:07:46.330Z</time>
      </trkpt>
      <trkpt lat="47.467579" lon="7.993896">
        <ele>434.642299</ele>
        <time>2021-11-22T13:07:51.736Z</time>
      </trkpt>
      <trkpt lat="47.467721" lon="7.993817">
        <ele>434.465002</ele>
        <time>2021-11-22T13:07:53.712Z</time>
      </trkpt>
      <trkpt lat="47.468089" lon="7.993593">
        <ele>433.999953</ele>
        <time>2021-11-22T13:07:58.739Z</time>
      </trkpt>
      <trkpt lat="47.468375" lon="7.993424">
        <ele>433.788299</ele>
        <time>2021-11-22T13:08:02.552Z</time>
      </trkpt>
      <trkpt lat="47.469362" lon="7.992773">
        <ele>433.058129</ele>
        <time>2021-11-22T13:08:16.402Z</time>
      </trkpt>
      <trkpt lat="47.469747" lon="7.992506">
        <ele>432.772254</ele>
        <time>2021-11-22T13:08:21.858Z</time>
      </trkpt>
      <trkpt lat="47.470033" lon="7.992305">
        <ele>432.614930</ele>
        <time>2021-11-22T13:08:26.068Z</time>
      </trkpt>
      <trkpt lat="47.470749" lon="7.991887">
        <ele>432.232478</ele>
        <time>2021-11-22T13:08:37.249Z</time>
      </trkpt>
      <trkpt lat="47.471617" lon="7.991535">
        <ele>431.193944</ele>
        <time>2021-11-22T13:08:49.147Z</time>
      </trkpt>
      <trkpt lat="47.471790" lon="7.991484">
        <ele>430.573299</ele>
        <time>2021-11-22T13:08:51.205Z</time>
      </trkpt>
      <trkpt lat="47.472461" lon="7.991354">
        <ele>428.192317</ele>
        <time>2021-11-22T13:08:58.153Z</time>
      </trkpt>
      <trkpt lat="47.472796" lon="7.991311">
        <ele>427.009236</ele>
        <time>2021-11-22T13:09:01.388Z</time>
      </trkpt>
      <trkpt lat="47.473097" lon="7.991272">
        <ele>425.946154</ele>
        <time>2021-11-22T13:09:04.189Z</time>
      </trkpt>
      <trkpt lat="47.473566" lon="7.991189">
        <ele>422.949967</ele>
        <time>2021-11-22T13:09:08.492Z</time>
      </trkpt>
      <trkpt lat="47.474869" lon="7.990750">
        <ele>413.308161</ele>
        <time>2021-11-22T13:09:20.309Z</time>
      </trkpt>
      <trkpt lat="47.475384" lon="7.990744">
        <ele>410.448068</ele>
        <time>2021-11-22T13:09:24.951Z</time>
      </trkpt>
      <trkpt lat="47.475752" lon="7.990844">
        <ele>408.522506</ele>
        <time>2021-11-22T13:09:28.401Z</time>
      </trkpt>
      <trkpt lat="47.476495" lon="7.991119">
        <ele>404.580882</ele>
        <time>2021-11-22T13:09:35.723Z</time>
      </trkpt>
      <trkpt lat="47.476858" lon="7.991285">
        <ele>403.034064</ele>
        <time>2021-11-22T13:09:39.572Z</time>
      </trkpt>
      <trkpt lat="47.477212" lon="7.991382">
        <ele>402.270406</ele>
        <time>2021-11-22T13:09:43.380Z</time>
      </trkpt>
      <trkpt lat="47.477593" lon="7.991455">
        <ele>401.455498</ele>
        <time>2021-11-22T13:09:47.617Z</time>
      </trkpt>
      <trkpt lat="47.478975" lon="7.991551">
        <ele>398.817985</ele>
        <time>2021-11-22T13:10:03.395Z</time>
      </trkpt>
      <trkpt lat="47.479142" lon="7.991563">
        <ele>398.570382</ele>
        <time>2021-11-22T13:10:05.348Z</time>
      </trkpt>
      <trkpt lat="47.479179" lon="7.991567">
        <ele>398.515443</ele>
        <time>2021-11-22T13:10:05.798Z</time>
      </trkpt>
      <trkpt lat="47.479254" lon="7.991575">
        <ele>398.404086</ele>
        <time>2021-11-22T13:10:06.648Z</time>
      </trkpt>
      <trkpt lat="47.480402" lon="7.991988">
        <ele>396.646264</ele>
        <time>2021-11-22T13:10:20.397Z</time>
      </trkpt>
      <trkpt lat="47.480657" lon="7.991988">
        <ele>396.252073</ele>
        <time>2021-11-22T13:10:23.235Z</time>
      </trkpt>
      <trkpt lat="47.481096" lon="7.991850">
        <ele>395.558300</ele>
        <time>2021-11-22T13:10:28.430Z</time>
      </trkpt>
      <trkpt lat="47.481496" lon="7.991617">
        <ele>394.893771</ele>
        <time>2021-11-22T13:10:33.396Z</time>
      </trkpt>
      <trkpt lat="47.481732" lon="7.991480">
        <ele>394.501879</ele>
        <time>2021-11-22T13:10:36.244Z</time>
      </trkpt>
      <trkpt lat="47.482259" lon="7.991194">
        <ele>393.648142</ele>
        <time>2021-11-22T13:10:42.613Z</time>
      </trkpt>
      <trkpt lat="47.482872" lon="7.991012">
        <ele>392.713306</ele>
        <time>2021-11-22T13:10:49.786Z</time>
      </trkpt>
      <trkpt lat="47.483009" lon="7.990995">
        <ele>392.507742</ele>
        <time>2021-11-22T13:10:51.309Z</time>
      </trkpt>
      <trkpt lat="47.483009" lon="7.990995">
        <ele>392.507742</ele>
        <time>2021-11-22T13:10:51.311Z</time>
      </trkpt>
      <trkpt lat="47.483009" lon="7.990995">
        <ele>392.507742</ele>
        <time>2021-11-22T13:10:51.338Z</time>
      </trkpt>
      <trkpt lat="47.483302" lon="7.991001">
        <ele>392.069602</ele>
        <time>2021-11-22T13:10:54.757Z</time>
      </trkpt>
      <trkpt lat="47.483794" lon="7.991174">
        <ele>391.324022</ele>
        <time>2021-11-22T13:11:00.689Z</time>
      </trkpt>
      <trkpt lat="47.484004" lon="7.991285">
        <ele>391.050820</ele>
        <time>2021-11-22T13:11:03.380Z</time>
      </trkpt>
      <trkpt lat="47.484196" lon="7.991380">
        <ele>390.802790</ele>
        <time>2021-11-22T13:11:05.705Z</time>
      </trkpt>
      <trkpt lat="47.484597" lon="7.991511">
        <ele>390.299676</ele>
        <time>2021-11-22T13:11:10.523Z</time>
      </trkpt>
      <trkpt lat="47.485528" lon="7.991512">
        <ele>389.161170</ele>
        <time>2021-11-22T13:11:21.696Z</time>
      </trkpt>
      <trkpt lat="47.485635" lon="7.991515">
        <ele>389.059984</ele>
        <time>2021-11-22T13:11:22.911Z</time>
      </trkpt>
      <trkpt lat="47.485898" lon="7.991482">
        <ele>388.810427</ele>
        <time>2021-11-22T13:11:26.239Z</time>
      </trkpt>
      <trkpt lat="47.485991" lon="7.991440">
        <ele>388.718493</ele>
        <time>2021-11-22T13:11:27.391Z</time>
      </trkpt>
      <trkpt lat="47.486063" lon="7.991399">
        <ele>388.645551</ele>
        <time>2021-11-22T13:11:28.346Z</time>
      </trkpt>
      <trkpt lat="47.486129" lon="7.991440">
        <ele>388.577873</ele>
        <time>2021-11-22T13:11:29.622Z</time>
      </trkpt>
      <trkpt lat="47.486171" lon="7.991489">
        <ele>388.527305</ele>
        <time>2021-11-22T13:11:30.627Z</time>
      </trkpt>
      <trkpt lat="47.486260" lon="7.991591">
        <ele>388.420871</ele>
        <time>2021-11-22T13:11:32.607Z</time>
      </trkpt>
      <trkpt lat="47.486334" lon="7.991668">
        <ele>388.335339</ele>
        <time>2021-11-22T13:11:34.140Z</time>
      </trkpt>
      <trkpt lat="47.486383" lon="7.991737">
        <ele>388.271386</ele>
        <time>2021-11-22T13:11:35.351Z</time>
      </trkpt>
      <trkpt lat="47.487213" lon="7.993014">
        <ele>387.032994</ele>
        <time>2021-11-22T13:11:56.477Z</time>
      </trkpt>
      <trkpt lat="47.487633" lon="7.993524">
        <ele>386.352959</ele>
        <time>2021-11-22T13:12:05.818Z</time>
      </trkpt>
      <trkpt lat="47.488246" lon="7.994102">
        <ele>385.443166</ele>
        <time>2021-11-22T13:12:17.869Z</time>
      </trkpt>
      <trkpt lat="47.488959" lon="7.994757">
        <ele>384.039153</ele>
        <time>2021-11-22T13:12:31.406Z</time>
      </trkpt>
      <trkpt lat="47.489284" lon="7.995053">
        <ele>383.356421</ele>
        <time>2021-11-22T13:12:37.531Z</time>
      </trkpt>
      <trkpt lat="47.490780" lon="7.996642">
        <ele>379.838753</ele>
        <time>2021-11-22T13:13:06.850Z</time>
      </trkpt>
      <trkpt lat="47.491680" lon="7.997343">
        <ele>377.774803</ele>
        <time>2021-11-22T13:13:22.660Z</time>
      </trkpt>
      <trkpt lat="47.491748" lon="7.997367">
        <ele>377.627263</ele>
        <time>2021-11-22T13:13:23.623Z</time>
      </trkpt>
      <trkpt lat="47.491854" lon="7.997405">
        <ele>377.397078</ele>
        <time>2021-11-22T13:13:25.349Z</time>
      </trkpt>
      <trkpt lat="47.491886" lon="7.997365">
        <ele>377.308675</ele>
        <time>2021-11-22T13:13:25.979Z</time>
      </trkpt>
      <trkpt lat="47.492317" lon="7.997637">
        <ele>376.319791</ele>
        <time>2021-11-22T13:13:31.054Z</time>
      </trkpt>
      <trkpt lat="47.492477" lon="7.997747">
        <ele>375.947452</ele>
        <time>2021-11-22T13:13:32.931Z</time>
      </trkpt>
      <trkpt lat="47.492617" lon="7.997908">
        <ele>375.573263</ele>
        <time>2021-11-22T13:13:34.889Z</time>
      </trkpt>
      <trkpt lat="47.492722" lon="7.998050">
        <ele>375.273073</ele>
        <time>2021-11-22T13:13:36.416Z</time>
      </trkpt>
      <trkpt lat="47.492747" lon="7.998084">
        <ele>375.201416</ele>
        <time>2021-11-22T13:13:36.808Z</time>
      </trkpt>
      <trkpt lat="47.492877" lon="7.998257">
        <ele>374.832443</ele>
        <time>2021-11-22T13:13:38.728Z</time>
      </trkpt>
      <trkpt lat="47.493144" lon="7.998645">
        <ele>374.399622</ele>
        <time>2021-11-22T13:13:42.859Z</time>
      </trkpt>
      <trkpt lat="47.493296" lon="7.998833">
        <ele>374.242926</ele>
        <time>2021-11-22T13:13:45.368Z</time>
      </trkpt>
      <trkpt lat="47.493358" lon="7.998911">
        <ele>374.178557</ele>
        <time>2021-11-22T13:13:46.295Z</time>
      </trkpt>
      <trkpt lat="47.493433" lon="7.998996">
        <ele>374.103833</ele>
        <time>2021-11-22T13:13:47.529Z</time>
      </trkpt>
      <trkpt lat="47.493502" lon="7.999071">
        <ele>374.036113</ele>
        <time>2021-11-22T13:13:48.658Z</time>
      </trkpt>
      <trkpt lat="47.493603" lon="7.999152">
        <ele>373.945242</ele>
        <time>2021-11-22T13:13:50.086Z</time>
      </trkpt>
      <trkpt lat="47.493603" lon="7.999152">
        <ele>373.945242</ele>
        <time>2021-11-22T13:13:50.088Z</time>
      </trkpt>
      <trkpt lat="47.493742" lon="7.999216">
        <ele>373.830091</ele>
        <time>2021-11-22T13:13:51.917Z</time>
      </trkpt>
      <trkpt lat="47.493750" lon="7.999219">
        <ele>373.823563</ele>
        <time>2021-11-22T13:13:52.080Z</time>
      </trkpt>
      <trkpt lat="47.493937" lon="7.999285">
        <ele>373.671492</ele>
        <time>2021-11-22T13:13:54.627Z</time>
      </trkpt>
      <trkpt lat="47.493961" lon="7.999292">
        <ele>373.652142</ele>
        <time>2021-11-22T13:13:54.896Z</time>
      </trkpt>
      <trkpt lat="47.494272" lon="7.999381">
        <ele>373.401574</ele>
        <time>2021-11-22T13:13:59.416Z</time>
      </trkpt>
      <trkpt lat="47.494489" lon="7.999417">
        <ele>373.228845</ele>
        <time>2021-11-22T13:14:02.719Z</time>
      </trkpt>
      <trkpt lat="47.494643" lon="7.999430">
        <ele>373.138858</ele>
        <time>2021-11-22T13:14:05.108Z</time>
      </trkpt>
      <trkpt lat="47.494812" lon="7.999457">
        <ele>373.055680</ele>
        <time>2021-11-22T13:14:07.540Z</time>
      </trkpt>
      <trkpt lat="47.495197" lon="7.999589">
        <ele>372.862298</ele>
        <time>2021-11-22T13:14:13.106Z</time>
      </trkpt>
      <trkpt lat="47.495430" lon="7.999752">
        <ele>372.736188</ele>
        <time>2021-11-22T13:14:16.592Z</time>
      </trkpt>
      <trkpt lat="47.495718" lon="8.000005">
        <ele>372.572306</ele>
        <time>2021-11-22T13:14:21.101Z</time>
      </trkpt>
      <trkpt lat="47.496011" lon="8.000286">
        <ele>372.401463</ele>
        <time>2021-11-22T13:14:25.560Z</time>
      </trkpt>
      <trkpt lat="47.496234" lon="8.000584">
        <ele>372.134266</ele>
        <time>2021-11-22T13:14:29.211Z</time>
      </trkpt>
      <trkpt lat="47.496272" lon="8.000651">
        <ele>372.043527</ele>
        <time>2021-11-22T13:14:30.097Z</time>
      </trkpt>
      <trkpt lat="47.496280" lon="8.000664">
        <ele>372.025288</ele>
        <time>2021-11-22T13:14:30.235Z</time>
      </trkpt>
      <trkpt lat="47.496429" lon="8.000925">
        <ele>371.670855</ele>
        <time>2021-11-22T13:14:32.881Z</time>
      </trkpt>
      <trkpt lat="47.496517" lon="8.001077">
        <ele>371.463222</ele>
        <time>2021-11-22T13:14:34.633Z</time>
      </trkpt>
      <trkpt lat="47.496533" lon="8.001104">
        <ele>371.425969</ele>
        <time>2021-11-22T13:14:34.867Z</time>
      </trkpt>
      <trkpt lat="47.496535" lon="8.001108">
        <ele>371.420808</ele>
        <time>2021-11-22T13:14:34.906Z</time>
      </trkpt>
      <trkpt lat="47.496585" lon="8.001187">
        <ele>371.308525</ele>
        <time>2021-11-22T13:14:35.737Z</time>
      </trkpt>
      <trkpt lat="47.496820" lon="8.001547">
        <ele>370.789287</ele>
        <time>2021-11-22T13:14:39.616Z</time>
      </trkpt>
      <trkpt lat="47.496861" lon="8.001608">
        <ele>370.700037</ele>
        <time>2021-11-22T13:14:40.256Z</time>
      </trkpt>
      <trkpt lat="47.496908" lon="8.001680">
        <ele>370.596189</ele>
        <time>2021-11-22T13:14:41.012Z</time>
      </trkpt>
      <trkpt lat="47.496932" lon="8.001715">
        <ele>370.544463</ele>
        <time>2021-11-22T13:14:41.377Z</time>
      </trkpt>
      <trkpt lat="47.497207" lon="8.002132">
        <ele>369.940029</ele>
        <time>2021-11-22T13:14:45.682Z</time>
      </trkpt>
      <trkpt lat="47.497264" lon="8.002219">
        <ele>369.814325</ele>
        <time>2021-11-22T13:14:46.640Z</time>
      </trkpt>
      <trkpt lat="47.497307" lon="8.002279">
        <ele>369.723598</ele>
        <time>2021-11-22T13:14:47.254Z</time>
      </trkpt>
      <trkpt lat="47.497390" lon="8.002409">
        <ele>369.535903</ele>
        <time>2021-11-22T13:14:48.631Z</time>
      </trkpt>
      <trkpt lat="47.497540" lon="8.002634">
        <ele>369.144673</ele>
        <time>2021-11-22T13:14:51.005Z</time>
      </trkpt>
      <trkpt lat="47.497607" lon="8.002710">
        <ele>368.990035</ele>
        <time>2021-11-22T13:14:51.954Z</time>
      </trkpt>
      <trkpt lat="47.497951" lon="8.003094">
        <ele>368.200723</ele>
        <time>2021-11-22T13:14:56.783Z</time>
      </trkpt>
      <trkpt lat="47.498072" lon="8.003250">
        <ele>367.906761</ele>
        <time>2021-11-22T13:14:58.515Z</time>
      </trkpt>
      <trkpt lat="47.498166" lon="8.003383">
        <ele>367.668539</ele>
        <time>2021-11-22T13:14:59.994Z</time>
      </trkpt>
      <trkpt lat="47.498213" lon="8.003454">
        <ele>367.545513</ele>
        <time>2021-11-22T13:15:00.760Z</time>
      </trkpt>
      <trkpt lat="47.498450" lon="8.003874">
        <ele>366.868227</ele>
        <time>2021-11-22T13:15:04.880Z</time>
      </trkpt>
      <trkpt lat="47.498698" lon="8.004313">
        <ele>366.189956</ele>
        <time>2021-11-22T13:15:09.135Z</time>
      </trkpt>
      <trkpt lat="47.498753" lon="8.004410">
        <ele>366.083038</ele>
        <time>2021-11-22T13:15:10.085Z</time>
      </trkpt>
      <trkpt lat="47.498898" lon="8.004636">
        <ele>365.819894</ele>
        <time>2021-11-22T13:15:12.477Z</time>
      </trkpt>
      <trkpt lat="47.498965" lon="8.004710">
        <ele>365.715423</ele>
        <time>2021-11-22T13:15:13.473Z</time>
      </trkpt>
      <trkpt lat="47.499012" lon="8.004762">
        <ele>365.642092</ele>
        <time>2021-11-22T13:15:14.163Z</time>
      </trkpt>
      <trkpt lat="47.499183" lon="8.004875">
        <ele>365.408063</ele>
        <time>2021-11-22T13:15:16.406Z</time>
      </trkpt>
      <trkpt lat="47.499409" lon="8.005000">
        <ele>365.106558</ele>
        <time>2021-11-22T13:15:19.345Z</time>
      </trkpt>
      <trkpt lat="47.499496" lon="8.005059">
        <ele>364.986966</ele>
        <time>2021-11-22T13:15:20.718Z</time>
      </trkpt>
      <trkpt lat="47.499523" lon="8.005078">
        <ele>364.949605</ele>
        <time>2021-11-22T13:15:20.983Z</time>
      </trkpt>
      <trkpt lat="47.499770" lon="8.005268">
        <ele>364.601735</ele>
        <time>2021-11-22T13:15:24.654Z</time>
      </trkpt>
      <trkpt lat="47.499856" lon="8.005338">
        <ele>364.479084</ele>
        <time>2021-11-22T13:15:25.643Z</time>
      </trkpt>
      <trkpt lat="47.499880" lon="8.005358">
        <ele>364.444664</ele>
        <time>2021-11-22T13:15:25.980Z</time>
      </trkpt>
      <trkpt lat="47.499991" lon="8.005468">
        <ele>364.277729</ele>
        <time>2021-11-22T13:15:27.673Z</time>
      </trkpt>
      <trkpt lat="47.500009" lon="8.005488">
        <ele>364.249602</ele>
        <time>2021-11-22T13:15:27.995Z</time>
      </trkpt>
      <trkpt lat="47.500207" lon="8.005727">
        <ele>363.972169</ele>
        <time>2021-11-22T13:15:31.064Z</time>
      </trkpt>
      <trkpt lat="47.500252" lon="8.005784">
        <ele>363.938792</ele>
        <time>2021-11-22T13:15:31.946Z</time>
      </trkpt>
      <trkpt lat="47.500310" lon="8.005852">
        <ele>363.897096</ele>
        <time>2021-11-22T13:15:32.970Z</time>
      </trkpt>
      <trkpt lat="47.500540" lon="8.006079">
        <ele>363.741313</ele>
        <time>2021-11-22T13:15:36.445Z</time>
      </trkpt>
      <trkpt lat="47.500647" lon="8.006180">
        <ele>363.669797</ele>
        <time>2021-11-22T13:15:38.601Z</time>
      </trkpt>
      <trkpt lat="47.500764" lon="8.006290">
        <ele>363.591687</ele>
        <time>2021-11-22T13:15:40.128Z</time>
      </trkpt>
      <trkpt lat="47.500997" lon="8.006551">
        <ele>363.427023</ele>
        <time>2021-11-22T13:15:44.319Z</time>
      </trkpt>
      <trkpt lat="47.501276" lon="8.006911">
        <ele>363.218444</ele>
        <time>2021-11-22T13:15:49.571Z</time>
      </trkpt>
      <trkpt lat="47.501293" lon="8.006936">
        <ele>363.204940</ele>
        <time>2021-11-22T13:15:49.896Z</time>
      </trkpt>
      <trkpt lat="47.501496" lon="8.007247">
        <ele>363.040302</ele>
        <time>2021-11-22T13:15:53.850Z</time>
      </trkpt>
      <trkpt lat="47.501537" lon="8.007308">
        <ele>363.007543</ele>
        <time>2021-11-22T13:15:54.594Z</time>
      </trkpt>
      <trkpt lat="47.501943" lon="8.008353">
        <ele>362.103855</ele>
        <time>2021-11-22T13:16:05.067Z</time>
      </trkpt>
      <trkpt lat="47.502062" lon="8.008650">
        <ele>361.840811</ele>
        <time>2021-11-22T13:16:08.007Z</time>
      </trkpt>
      <trkpt lat="47.502158" lon="8.008808">
        <ele>361.678933</ele>
        <time>2021-11-22T13:16:09.550Z</time>
      </trkpt>
      <trkpt lat="47.502267" lon="8.008979">
        <ele>361.499839</ele>
        <time>2021-11-22T13:16:11.489Z</time>
      </trkpt>
      <trkpt lat="47.502773" lon="8.009928">
        <ele>360.102874</ele>
        <time>2021-11-22T13:16:20.769Z</time>
      </trkpt>
      <trkpt lat="47.502959" lon="8.010415">
        <ele>359.151033</ele>
        <time>2021-11-22T13:16:24.682Z</time>
      </trkpt>
      <trkpt lat="47.502991" lon="8.010405">
        <ele>359.068663</ele>
        <time>2021-11-22T13:16:24.974Z</time>
      </trkpt>
      <trkpt lat="47.503467" lon="8.010296">
        <ele>357.855577</ele>
        <time>2021-11-22T13:16:29.965Z</time>
      </trkpt>
      <trkpt lat="47.504018" lon="8.010447">
        <ele>356.444278</ele>
        <time>2021-11-22T13:16:35.897Z</time>
      </trkpt>
      <trkpt lat="47.504178" lon="8.010516">
        <ele>356.185770</ele>
        <time>2021-11-22T13:16:37.546Z</time>
      </trkpt>
      <trkpt lat="47.504256" lon="8.010566">
        <ele>356.055814</ele>
        <time>2021-11-22T13:16:38.430Z</time>
      </trkpt>
      <trkpt lat="47.504446" lon="8.010688">
        <ele>355.739171</ele>
        <time>2021-11-22T13:16:40.633Z</time>
      </trkpt>
      <trkpt lat="47.505237" lon="8.011270">
        <ele>354.388660</ele>
        <time>2021-11-22T13:16:50.635Z</time>
      </trkpt>
      <trkpt lat="47.505388" lon="8.011390">
        <ele>354.126632</ele>
        <time>2021-11-22T13:16:52.840Z</time>
      </trkpt>
      <trkpt lat="47.505808" lon="8.011926">
        <ele>353.740408</ele>
        <time>2021-11-22T13:17:00.662Z</time>
      </trkpt>
      <trkpt lat="47.506101" lon="8.012240">
        <ele>353.816045</ele>
        <time>2021-11-22T13:17:07.046Z</time>
      </trkpt>
      <trkpt lat="47.506308" lon="8.012429">
        <ele>353.866901</ele>
        <time>2021-11-22T13:17:11.372Z</time>
      </trkpt>
      <trkpt lat="47.506346" lon="8.012464">
        <ele>353.876259</ele>
        <time>2021-11-22T13:17:12.145Z</time>
      </trkpt>
      <trkpt lat="47.506389" lon="8.012514">
        <ele>353.887693</ele>
        <time>2021-11-22T13:17:13.096Z</time>
      </trkpt>
      <trkpt lat="47.506472" lon="8.012743">
        <ele>353.924401</ele>
        <time>2021-11-22T13:17:16.184Z</time>
      </trkpt>
      <trkpt lat="47.506492" lon="8.012798">
        <ele>353.933224</ele>
        <time>2021-11-22T13:17:16.987Z</time>
      </trkpt>
      <trkpt lat="47.506533" lon="8.012868">
        <ele>353.946311</ele>
        <time>2021-11-22T13:17:17.981Z</time>
      </trkpt>
      <trkpt lat="47.506633" lon="8.012949">
        <ele>353.970147</ele>
        <time>2021-11-22T13:17:19.854Z</time>
      </trkpt>
      <trkpt lat="47.506663" lon="8.012973">
        <ele>353.977278</ele>
        <time>2021-11-22T13:17:20.371Z</time>
      </trkpt>
      <trkpt lat="47.506697" lon="8.013001">
        <ele>353.985414</ele>
        <time>2021-11-22T13:17:20.959Z</time>
      </trkpt>
      <trkpt lat="47.506760" lon="8.013057">
        <ele>354.000780</ele>
        <time>2021-11-22T13:17:22.141Z</time>
      </trkpt>
      <trkpt lat="47.506825" lon="8.013107">
        <ele>354.016097</ele>
        <time>2021-11-22T13:17:23.336Z</time>
      </trkpt>
      <trkpt lat="47.506890" lon="8.013159">
        <ele>354.031546</ele>
        <time>2021-11-22T13:17:24.518Z</time>
      </trkpt>
      <trkpt lat="47.506929" lon="8.013191">
        <ele>354.040870</ele>
        <time>2021-11-22T13:17:25.166Z</time>
      </trkpt>
      <trkpt lat="47.506955" lon="8.013213">
        <ele>354.047132</ele>
        <time>2021-11-22T13:17:25.599Z</time>
      </trkpt>
      <trkpt lat="47.506989" lon="8.013246">
        <ele>354.055634</ele>
        <time>2021-11-22T13:17:26.197Z</time>
      </trkpt>
      <trkpt lat="47.507007" lon="8.013263">
        <ele>354.060098</ele>
        <time>2021-11-22T13:17:26.506Z</time>
      </trkpt>
      <trkpt lat="47.507038" lon="8.013279">
        <ele>354.021910</ele>
        <time>2021-11-22T13:17:27.031Z</time>
      </trkpt>
      <trkpt lat="47.507084" lon="8.013290">
        <ele>353.958315</ele>
        <time>2021-11-22T13:17:27.710Z</time>
      </trkpt>
      <trkpt lat="47.507106" lon="8.013288">
        <ele>353.928233</ele>
        <time>2021-11-22T13:17:28.075Z</time>
      </trkpt>
      <trkpt lat="47.507191" lon="8.013279">
        <ele>353.811928</ele>
        <time>2021-11-22T13:17:29.191Z</time>
      </trkpt>
      <trkpt lat="47.507231" lon="8.013292">
        <ele>353.756036</ele>
        <time>2021-11-22T13:17:29.738Z</time>
      </trkpt>
      <trkpt lat="47.507559" lon="8.013585">
        <ele>353.233196</ele>
        <time>2021-11-22T13:17:34.674Z</time>
      </trkpt>
      <trkpt lat="47.507595" lon="8.013616">
        <ele>353.176356</ele>
        <time>2021-11-22T13:17:35.190Z</time>
      </trkpt>
      <trkpt lat="47.508011" lon="8.013995">
        <ele>352.509697</ele>
        <time>2021-11-22T13:17:41.093Z</time>
      </trkpt>
      <trkpt lat="47.508075" lon="8.014054">
        <ele>352.406799</ele>
        <time>2021-11-22T13:17:41.944Z</time>
      </trkpt>
      <trkpt lat="47.508214" lon="8.014183">
        <ele>352.182896</ele>
        <time>2021-11-22T13:17:43.723Z</time>
      </trkpt>
      <trkpt lat="47.508281" lon="8.014277">
        <ele>352.056914</ele>
        <time>2021-11-22T13:17:44.791Z</time>
      </trkpt>
      <trkpt lat="47.508333" lon="8.014419">
        <ele>351.908004</ele>
        <time>2021-11-22T13:17:45.919Z</time>
      </trkpt>
      <trkpt lat="47.508352" lon="8.014580">
        <ele>351.757330</ele>
        <time>2021-11-22T13:17:47.042Z</time>
      </trkpt>
      <trkpt lat="47.508337" lon="8.014821">
        <ele>351.444790</ele>
        <time>2021-11-22T13:17:48.838Z</time>
      </trkpt>
      <trkpt lat="47.508294" lon="8.015081">
        <ele>350.891411</ele>
        <time>2021-11-22T13:17:50.580Z</time>
      </trkpt>
      <trkpt lat="47.508285" lon="8.015139">
        <ele>350.768383</ele>
        <time>2021-11-22T13:17:50.986Z</time>
      </trkpt>
      <trkpt lat="47.508270" lon="8.015229">
        <ele>350.576745</ele>
        <time>2021-11-22T13:17:51.671Z</time>
      </trkpt>
      <trkpt lat="47.508213" lon="8.015549">
        <ele>349.892587</ele>
        <time>2021-11-22T13:17:53.896Z</time>
      </trkpt>
      <trkpt lat="47.508171" lon="8.015782">
        <ele>349.394045</ele>
        <time>2021-11-22T13:17:55.586Z</time>
      </trkpt>
      <trkpt lat="47.508111" lon="8.016120">
        <ele>348.671563</ele>
        <time>2021-11-22T13:17:57.899Z</time>
      </trkpt>
      <trkpt lat="47.508068" lon="8.016380">
        <ele>348.118182</ele>
        <time>2021-11-22T13:17:59.861Z</time>
      </trkpt>
      <trkpt lat="47.508040" lon="8.016566">
        <ele>347.724225</ele>
        <time>2021-11-22T13:18:01.084Z</time>
      </trkpt>
      <trkpt lat="47.508035" lon="8.017016">
        <ele>346.793801</ele>
        <time>2021-11-22T13:18:04.244Z</time>
      </trkpt>
      <trkpt lat="47.508054" lon="8.017109">
        <ele>346.592938</ele>
        <time>2021-11-22T13:18:04.856Z</time>
      </trkpt>
      <trkpt lat="47.508074" lon="8.017213">
        <ele>346.369393</ele>
        <time>2021-11-22T13:18:05.603Z</time>
      </trkpt>
      <trkpt lat="47.508286" lon="8.018007">
        <ele>345.184027</ele>
        <time>2021-11-22T13:18:11.818Z</time>
      </trkpt>
      <trkpt lat="47.508346" lon="8.018180">
        <ele>344.937662</ele>
        <time>2021-11-22T13:18:13.154Z</time>
      </trkpt>
      <trkpt lat="47.508473" lon="8.018450">
        <ele>344.520854</ele>
        <time>2021-11-22T13:18:15.791Z</time>
      </trkpt>
      <trkpt lat="47.508490" lon="8.018479">
        <ele>344.472210</ele>
        <time>2021-11-22T13:18:16.046Z</time>
      </trkpt>
      <trkpt lat="47.508475" lon="8.018519">
        <ele>344.414251</ele>
        <time>2021-11-22T13:18:16.350Z</time>
      </trkpt>
      <trkpt lat="47.508493" lon="8.018648">
        <ele>344.247378</ele>
        <time>2021-11-22T13:18:17.292Z</time>
      </trkpt>
      <trkpt lat="47.508517" lon="8.018677">
        <ele>344.189277</ele>
        <time>2021-11-22T13:18:17.646Z</time>
      </trkpt>
      <trkpt lat="47.508505" lon="8.018716">
        <ele>344.134986</ele>
        <time>2021-11-22T13:18:18.007Z</time>
      </trkpt>
      <trkpt lat="47.508436" lon="8.018909">
        <ele>343.858351</ele>
        <time>2021-11-22T13:18:19.848Z</time>
      </trkpt>
      <trkpt lat="47.508403" lon="8.018982">
        <ele>343.747073</ele>
        <time>2021-11-22T13:18:20.460Z</time>
      </trkpt>
      <trkpt lat="47.508273" lon="8.019268">
        <ele>343.310360</ele>
        <time>2021-11-22T13:18:23.101Z</time>
      </trkpt>
      <trkpt lat="47.508117" lon="8.019584">
        <ele>342.814518</ele>
        <time>2021-11-22T13:18:26.308Z</time>
      </trkpt>
      <trkpt lat="47.508075" lon="8.019669">
        <ele>342.740565</ele>
        <time>2021-11-22T13:18:27.223Z</time>
      </trkpt>
      <trkpt lat="47.508029" lon="8.019761">
        <ele>342.778905</ele>
        <time>2021-11-22T13:18:28.200Z</time>
      </trkpt>
      <trkpt lat="47.507951" lon="8.019911">
        <ele>342.842313</ele>
        <time>2021-11-22T13:18:29.746Z</time>
      </trkpt>
      <trkpt lat="47.507863" lon="8.020075">
        <ele>342.912470</ele>
        <time>2021-11-22T13:18:31.587Z</time>
      </trkpt>
      <trkpt lat="47.507895" lon="8.020117">
        <ele>342.933676</ele>
        <time>2021-11-22T13:18:32.113Z</time>
      </trkpt>
      <trkpt lat="47.507995" lon="8.020296">
        <ele>343.011484</ele>
        <time>2021-11-22T13:18:34.262Z</time>
      </trkpt>
      <trkpt lat="47.508000" lon="8.020315">
        <ele>343.018314</ele>
        <time>2021-11-22T13:18:34.411Z</time>
      </trkpt>
      <trkpt lat="47.508039" lon="8.020467">
        <ele>343.072777</ele>
        <time>2021-11-22T13:18:35.874Z</time>
      </trkpt>
      <trkpt lat="47.508063" lon="8.020592">
        <ele>343.116306</ele>
        <time>2021-11-22T13:18:37.020Z</time>
      </trkpt>
      <trkpt lat="47.508194" lon="8.021281">
        <ele>343.356063</ele>
        <time>2021-11-22T13:18:44.779Z</time>
      </trkpt>
      <trkpt lat="47.508213" lon="8.021364">
        <ele>343.385418</ele>
        <time>2021-11-22T13:18:45.841Z</time>
      </trkpt>
      <trkpt lat="47.508331" lon="8.021703">
        <ele>343.513159</ele>
        <time>2021-11-22T13:18:52.611Z</time>
      </trkpt>
      <trkpt lat="47.508453" lon="8.021990">
        <ele>343.656451</ele>
        <time>2021-11-22T13:18:57.701Z</time>
      </trkpt>
      <trkpt lat="47.508643" lon="8.022392">
        <ele>344.549602</ele>
        <time>2021-11-22T13:19:05.763Z</time>
      </trkpt>
      <trkpt lat="47.508786" lon="8.022604">
        <ele>345.094995</ele>
        <time>2021-11-22T13:19:11.891Z</time>
      </trkpt>
      <trkpt lat="47.508863" lon="8.022719">
        <ele>345.389760</ele>
        <time>2021-11-22T13:19:14.519Z</time>
      </trkpt>
      <trkpt lat="47.508958" lon="8.022838">
        <ele>345.725132</ele>
        <time>2021-11-22T13:19:18.830Z</time>
      </trkpt>
      <trkpt lat="47.509187" lon="8.023037">
        <ele>346.440743</ele>
        <time>2021-11-22T13:19:26.043Z</time>
      </trkpt>
      <trkpt lat="47.509313" lon="8.023129">
        <ele>346.819362</ele>
        <time>2021-11-22T13:19:30.608Z</time>
      </trkpt>
      <trkpt lat="47.509881" lon="8.023632">
        <ele>348.456646</ele>
        <time>2021-11-22T13:19:46.460Z</time>
      </trkpt>
      <trkpt lat="47.510365" lon="8.024216">
        <ele>348.324217</ele>
        <time>2021-11-22T13:19:59.674Z</time>
      </trkpt>
      <trkpt lat="47.510388" lon="8.024167">
        <ele>348.315669</ele>
        <time>2021-11-22T13:20:00.206Z</time>
      </trkpt>
      <trkpt lat="47.510638" lon="8.023374">
        <ele>348.190300</ele>
        <time>2021-11-22T13:20:11.760Z</time>
      </trkpt>
      <trkpt lat="47.510740" lon="8.023224">
        <ele>348.159808</ele>
        <time>2021-11-22T13:20:13.766Z</time>
      </trkpt>
      <trkpt lat="47.510935" lon="8.022959">
        <ele>348.103668</ele>
        <time>2021-11-22T13:20:18.268Z</time>
      </trkpt>
      <trkpt lat="47.512343" lon="8.021241">
        <ele>343.466514</ele>
        <time>2021-11-22T13:20:45.247Z</time>
      </trkpt>
      <trkpt lat="47.512778" lon="8.020828">
        <ele>342.420517</ele>
        <time>2021-11-22T13:20:53.449Z</time>
      </trkpt>
      <trkpt lat="47.513167" lon="8.020663">
        <ele>341.633730</ele>
        <time>2021-11-22T13:20:59.772Z</time>
      </trkpt>
      <trkpt lat="47.513370" lon="8.020582">
        <ele>341.224941</ele>
        <time>2021-11-22T13:21:03.029Z</time>
      </trkpt>
      <trkpt lat="47.513856" lon="8.020390">
        <ele>340.246917</ele>
        <time>2021-11-22T13:21:11.151Z</time>
      </trkpt>
      <trkpt lat="47.514214" lon="8.020312">
        <ele>339.670060</ele>
        <time>2021-11-22T13:21:17.139Z</time>
      </trkpt>
      <trkpt lat="47.514447" lon="8.020326">
        <ele>339.428082</ele>
        <time>2021-11-22T13:21:20.974Z</time>
      </trkpt>
      <trkpt lat="47.514678" lon="8.020338">
        <ele>339.188232</ele>
        <time>2021-11-22T13:21:24.943Z</time>
      </trkpt>
      <trkpt lat="47.514794" lon="8.020346">
        <ele>339.067731</ele>
        <time>2021-11-22T13:21:26.896Z</time>
      </trkpt>
      <trkpt lat="47.515011" lon="8.020364">
        <ele>338.842202</ele>
        <time>2021-11-22T13:21:30.700Z</time>
      </trkpt>
      <trkpt lat="47.515050" lon="8.020367">
        <ele>338.801678</ele>
        <time>2021-11-22T13:21:31.374Z</time>
      </trkpt>
      <trkpt lat="47.515452" lon="8.020407">
        <ele>338.383591</ele>
        <time>2021-11-22T13:21:38.415Z</time>
      </trkpt>
      <trkpt lat="47.515648" lon="8.020395">
        <ele>338.180033</ele>
        <time>2021-11-22T13:21:41.933Z</time>
      </trkpt>
      <trkpt lat="47.515685" lon="8.020393">
        <ele>338.141613</ele>
        <time>2021-11-22T13:21:42.584Z</time>
      </trkpt>
      <trkpt lat="47.516146" lon="8.020218">
        <ele>337.887600</ele>
        <time>2021-11-22T13:21:51.264Z</time>
      </trkpt>
      <trkpt lat="47.516172" lon="8.020201">
        <ele>337.881614</ele>
        <time>2021-11-22T13:21:51.761Z</time>
      </trkpt>
      <trkpt lat="47.516265" lon="8.020138">
        <ele>337.860072</ele>
        <time>2021-11-22T13:21:53.711Z</time>
      </trkpt>
      <trkpt lat="47.516418" lon="8.020012">
        <ele>337.823196</ele>
        <time>2021-11-22T13:21:57.153Z</time>
      </trkpt>
      <trkpt lat="47.516592" lon="8.019879">
        <ele>337.781950</ele>
        <time>2021-11-22T13:22:00.830Z</time>
      </trkpt>
      <trkpt lat="47.516606" lon="8.019868">
        <ele>337.778612</ele>
        <time>2021-11-22T13:22:01.254Z</time>
      </trkpt>
      <trkpt lat="47.516775" lon="8.019794">
        <ele>337.741491</ele>
        <time>2021-11-22T13:22:04.637Z</time>
      </trkpt>
      <trkpt lat="47.516798" lon="8.019784">
        <ele>337.736442</ele>
        <time>2021-11-22T13:22:05.099Z</time>
      </trkpt>
      <trkpt lat="47.517087" lon="8.019737">
        <ele>337.675203</ele>
        <time>2021-11-22T13:22:11.047Z</time>
      </trkpt>
      <trkpt lat="47.517205" lon="8.019691">
        <ele>337.649501</ele>
        <time>2021-11-22T13:22:13.163Z</time>
      </trkpt>
      <trkpt lat="47.517322" lon="8.019626">
        <ele>337.623179</ele>
        <time>2021-11-22T13:22:16.028Z</time>
      </trkpt>
      <trkpt lat="47.517543" lon="8.019449">
        <ele>337.570256</ele>
        <time>2021-11-22T13:22:20.949Z</time>
      </trkpt>
      <trkpt lat="47.517699" lon="8.019320">
        <ele>337.542439</ele>
        <time>2021-11-22T13:22:24.208Z</time>
      </trkpt>
      <trkpt lat="47.517787" lon="8.019247">
        <ele>337.526800</ele>
        <time>2021-11-22T13:22:25.563Z</time>
      </trkpt>
      <trkpt lat="47.517873" lon="8.019154">
        <ele>337.510288</ele>
        <time>2021-11-22T13:22:27.102Z</time>
      </trkpt>
      <trkpt lat="47.517945" lon="8.019080">
        <ele>337.496699</ele>
        <time>2021-11-22T13:22:28.958Z</time>
      </trkpt>
      <trkpt lat="47.518228" lon="8.018741">
        <ele>337.440260</ele>
        <time>2021-11-22T13:22:35.080Z</time>
      </trkpt>
      <trkpt lat="47.518485" lon="8.018258">
        <ele>337.375874</ele>
        <time>2021-11-22T13:22:41.293Z</time>
      </trkpt>
      <trkpt lat="47.518569" lon="8.018073">
        <ele>337.352531</ele>
        <time>2021-11-22T13:22:43.021Z</time>
      </trkpt>
      <trkpt lat="47.518733" lon="8.017694">
        <ele>337.305399</ele>
        <time>2021-11-22T13:22:46.961Z</time>
      </trkpt>
      <trkpt lat="47.518855" lon="8.017453">
        <ele>337.165825</ele>
        <time>2021-11-22T13:22:49.563Z</time>
      </trkpt>
      <trkpt lat="47.519079" lon="8.017167">
        <ele>336.830111</ele>
        <time>2021-11-22T13:22:53.043Z</time>
      </trkpt>
      <trkpt lat="47.519096" lon="8.017126">
        <ele>336.793232</ele>
        <time>2021-11-22T13:22:53.426Z</time>
      </trkpt>
      <trkpt lat="47.519107" lon="8.017079">
        <ele>336.755103</ele>
        <time>2021-11-22T13:22:53.861Z</time>
      </trkpt>
      <trkpt lat="47.519117" lon="8.017042">
        <ele>336.724554</ele>
        <time>2021-11-22T13:22:54.184Z</time>
      </trkpt>
      <trkpt lat="47.519123" lon="8.016537">
        <ele>336.337392</ele>
        <time>2021-11-22T13:22:58.241Z</time>
      </trkpt>
      <trkpt lat="47.519126" lon="8.016373">
        <ele>336.211633</ele>
        <time>2021-11-22T13:22:59.623Z</time>
      </trkpt>
      <trkpt lat="47.519171" lon="8.016191">
        <ele>336.063067</ele>
        <time>2021-11-22T13:23:01.066Z</time>
      </trkpt>
      <trkpt lat="47.519228" lon="8.016109">
        <ele>335.972864</ele>
        <time>2021-11-22T13:23:02.051Z</time>
      </trkpt>
      <trkpt lat="47.519330" lon="8.015986">
        <ele>335.823556</ele>
        <time>2021-11-22T13:23:03.665Z</time>
      </trkpt>
      <trkpt lat="47.519346" lon="8.015845">
        <ele>335.713959</ele>
        <time>2021-11-22T13:23:04.705Z</time>
      </trkpt>
      <trkpt lat="47.519424" lon="8.015360">
        <ele>335.331793</ele>
        <time>2021-11-22T13:23:08.710Z</time>
      </trkpt>
      <trkpt lat="47.519518" lon="8.015145">
        <ele>335.198975</ele>
        <time>2021-11-22T13:23:10.777Z</time>
      </trkpt>
      <trkpt lat="47.519564" lon="8.015041">
        <ele>335.156784</ele>
        <time>2021-11-22T13:23:11.888Z</time>
      </trkpt>
      <trkpt lat="47.519666" lon="8.015011">
        <ele>335.104525</ele>
        <time>2021-11-22T13:23:13.118Z</time>
      </trkpt>
      <trkpt lat="47.520115" lon="8.014648">
        <ele>334.847451</ele>
        <time>2021-11-22T13:23:19.570Z</time>
      </trkpt>
      <trkpt lat="47.520539" lon="8.014558">
        <ele>334.632203</ele>
        <time>2021-11-22T13:23:25.891Z</time>
      </trkpt>
      <trkpt lat="47.520848" lon="8.014542">
        <ele>334.476828</ele>
        <time>2021-11-22T13:23:30.336Z</time>
      </trkpt>
      <trkpt lat="47.520953" lon="8.014530">
        <ele>334.423906</ele>
        <time>2021-11-22T13:23:31.671Z</time>
      </trkpt>
      <trkpt lat="47.521150" lon="8.014447">
        <ele>334.341325</ele>
        <time>2021-11-22T13:23:34.882Z</time>
      </trkpt>
      <trkpt lat="47.521292" lon="8.014319">
        <ele>334.326905</ele>
        <time>2021-11-22T13:23:37.083Z</time>
      </trkpt>
      <trkpt lat="47.521454" lon="8.014134">
        <ele>334.309160</ele>
        <time>2021-11-22T13:23:40.279Z</time>
      </trkpt>
      <trkpt lat="47.521508" lon="8.014076">
        <ele>334.303374</ele>
        <time>2021-11-22T13:23:41.220Z</time>
      </trkpt>
      <trkpt lat="47.521532" lon="8.014046">
        <ele>334.300649</ele>
        <time>2021-11-22T13:23:41.671Z</time>
      </trkpt>
      <trkpt lat="47.521611" lon="8.013949">
        <ele>334.291748</ele>
        <time>2021-11-22T13:23:42.934Z</time>
      </trkpt>
      <trkpt lat="47.521782" lon="8.013652">
        <ele>334.268886</ele>
        <time>2021-11-22T13:23:47.169Z</time>
      </trkpt>
      <trkpt lat="47.521857" lon="8.013314">
        <ele>334.248046</ele>
        <time>2021-11-22T13:23:50.821Z</time>
      </trkpt>
      <trkpt lat="47.521867" lon="8.013168">
        <ele>334.239450</ele>
        <time>2021-11-22T13:23:52.247Z</time>
      </trkpt>
      <trkpt lat="47.521884" lon="8.013019">
        <ele>334.230598</ele>
        <time>2021-11-22T13:23:53.987Z</time>
      </trkpt>
      <trkpt lat="47.521999" lon="8.011997">
        <ele>334.302050</ele>
        <time>2021-11-22T13:24:07.623Z</time>
      </trkpt>
      <trkpt lat="47.522135" lon="8.011541">
        <ele>334.469240</ele>
        <time>2021-11-22T13:24:14.668Z</time>
      </trkpt>
      <trkpt lat="47.522752" lon="8.010942">
        <ele>334.835657</ele>
        <time>2021-11-22T13:24:31.724Z</time>
      </trkpt>
      <trkpt lat="47.523475" lon="8.009886">
        <ele>335.323597</ele>
        <time>2021-11-22T13:24:55.789Z</time>
      </trkpt>
      <trkpt lat="47.523750" lon="8.009595">
        <ele>335.480749</ele>
        <time>2021-11-22T13:25:03.430Z</time>
      </trkpt>
      <trkpt lat="47.525125" lon="8.008474">
        <ele>335.540890</ele>
        <time>2021-11-22T13:25:36.511Z</time>
      </trkpt>
      <trkpt lat="47.525704" lon="8.008036">
        <ele>335.148498</ele>
        <time>2021-11-22T13:25:48.220Z</time>
      </trkpt>
      <trkpt lat="47.526398" lon="8.007517">
        <ele>334.381159</ele>
        <time>2021-11-22T13:26:01.196Z</time>
      </trkpt>
      <trkpt lat="47.527466" lon="8.006442">
        <ele>332.096418</ele>
        <time>2021-11-22T13:26:21.752Z</time>
      </trkpt>
      <trkpt lat="47.528852" lon="8.005150">
        <ele>329.144287</ele>
        <time>2021-11-22T13:26:47.843Z</time>
      </trkpt>
      <trkpt lat="47.529337" lon="8.004498">
        <ele>327.851900</ele>
        <time>2021-11-22T13:26:58.597Z</time>
      </trkpt>
      <trkpt lat="47.529391" lon="8.004422">
        <ele>327.684079</ele>
        <time>2021-11-22T13:26:59.785Z</time>
      </trkpt>
      <trkpt lat="47.530077" lon="8.003471">
        <ele>325.567244</ele>
        <time>2021-11-22T13:27:14.084Z</time>
      </trkpt>
      <trkpt lat="47.531127" lon="8.002157">
        <ele>322.653095</ele>
        <time>2021-11-22T13:27:35.146Z</time>
      </trkpt>
      <trkpt lat="47.531407" lon="8.001793">
        <ele>321.895519</ele>
        <time>2021-11-22T13:27:40.883Z</time>
      </trkpt>
      <trkpt lat="47.531789" lon="8.001140">
        <ele>320.709295</ele>
        <time>2021-11-22T13:27:50.128Z</time>
      </trkpt>
      <trkpt lat="47.532176" lon="8.000088">
        <ele>320.462607</ele>
        <time>2021-11-22T13:28:04.867Z</time>
      </trkpt>
      <trkpt lat="47.532283" lon="7.999633">
        <ele>320.370511</ele>
        <time>2021-11-22T13:28:11.796Z</time>
      </trkpt>
      <trkpt lat="47.532321" lon="7.999312">
        <ele>320.308217</ele>
        <time>2021-11-22T13:28:16.555Z</time>
      </trkpt>
      <trkpt lat="47.532314" lon="7.998991">
        <ele>320.246827</ele>
        <time>2021-11-22T13:28:21.000Z</time>
      </trkpt>
      <trkpt lat="47.532616" lon="7.998942">
        <ele>320.192225</ele>
        <time>2021-11-22T13:28:27.578Z</time>
      </trkpt>
      <trkpt lat="47.532745" lon="7.998891">
        <ele>320.217848</ele>
        <time>2021-11-22T13:28:30.614Z</time>
      </trkpt>
      <trkpt lat="47.532880" lon="7.998728">
        <ele>320.251273</ele>
        <time>2021-11-22T13:28:34.355Z</time>
      </trkpt>
      <trkpt lat="47.534115" lon="7.996823">
        <ele>320.289314</ele>
        <time>2021-11-22T13:29:11.889Z</time>
      </trkpt>
      <trkpt lat="47.535091" lon="7.993681">
        <ele>318.574312</ele>
        <time>2021-11-22T13:29:52.681Z</time>
      </trkpt>
      <trkpt lat="47.535530" lon="7.992828">
        <ele>317.952204</ele>
        <time>2021-11-22T13:30:04.839Z</time>
      </trkpt>
      <trkpt lat="47.535601" lon="7.992617">
        <ele>317.815464</ele>
        <time>2021-11-22T13:30:08.457Z</time>
      </trkpt>
      <trkpt lat="47.535603" lon="7.992576">
        <ele>317.802817</ele>
        <time>2021-11-22T13:30:09.477Z</time>
      </trkpt>
      <trkpt lat="47.535497" lon="7.992318">
        <ele>317.949104</ele>
        <time>2021-11-22T13:30:13.160Z</time>
      </trkpt>
      <trkpt lat="47.535110" lon="7.991631">
        <ele>318.382481</ele>
        <time>2021-11-22T13:30:26.972Z</time>
      </trkpt>
      <trkpt lat="47.534860" lon="7.991148">
        <ele>318.677272</ele>
        <time>2021-11-22T13:30:36.440Z</time>
      </trkpt>
      <trkpt lat="47.534644" lon="7.990797">
        <ele>318.907313</ele>
        <time>2021-11-22T13:30:44.205Z</time>
      </trkpt>
      <trkpt lat="47.534606" lon="7.990590">
        <ele>319.011218</ele>
        <time>2021-11-22T13:30:47.551Z</time>
      </trkpt>
      <trkpt lat="47.534607" lon="7.990484">
        <ele>319.062566</ele>
        <time>2021-11-22T13:30:49.487Z</time>
      </trkpt>
      <trkpt lat="47.534609" lon="7.990394">
        <ele>319.136053</ele>
        <time>2021-11-22T13:30:51.161Z</time>
      </trkpt>
      <trkpt lat="47.534723" lon="7.989575">
        <ele>320.211169</ele>
        <time>2021-11-22T13:31:07.830Z</time>
      </trkpt>
      <trkpt lat="47.534771" lon="7.988562">
        <ele>321.516763</ele>
        <time>2021-11-22T13:31:28.513Z</time>
      </trkpt>
      <trkpt lat="47.534795" lon="7.988078">
        <ele>322.140707</ele>
        <time>2021-11-22T13:31:37.280Z</time>
      </trkpt>
      <trkpt lat="47.534363" lon="7.987895">
        <ele>322.669194</ele>
        <time>2021-11-22T13:31:46.180Z</time>
      </trkpt>
      <trkpt lat="47.534466" lon="7.987626">
        <ele>322.797517</ele>
        <time>2021-11-22T13:31:50.084Z</time>
      </trkpt>
      <trkpt lat="47.534590" lon="7.987330">
        <ele>322.942064</ele>
        <time>2021-11-22T13:31:54.417Z</time>
      </trkpt>
      <trkpt lat="47.534974" lon="7.986602">
        <ele>323.325407</ele>
        <time>2021-11-22T13:32:04.982Z</time>
      </trkpt>
      <trkpt lat="47.535043" lon="7.986459">
        <ele>323.398341</ele>
        <time>2021-11-22T13:32:06.895Z</time>
      </trkpt>
      <trkpt lat="47.535270" lon="7.985985">
        <ele>323.634749</ele>
        <time>2021-11-22T13:32:12.672Z</time>
      </trkpt>
      <trkpt lat="47.535614" lon="7.985212">
        <ele>323.931266</ele>
        <time>2021-11-22T13:32:21.148Z</time>
      </trkpt>
      <trkpt lat="47.536026" lon="7.984206">
        <ele>324.308105</ele>
        <time>2021-11-22T13:32:33.863Z</time>
      </trkpt>
      <trkpt lat="47.536199" lon="7.983737">
        <ele>324.513442</ele>
        <time>2021-11-22T13:32:40.962Z</time>
      </trkpt>
      <trkpt lat="47.536410" lon="7.983244">
        <ele>325.578231</ele>
        <time>2021-11-22T13:32:50.119Z</time>
      </trkpt>
      <trkpt lat="47.536530" lon="7.982859">
        <ele>326.351759</ele>
        <time>2021-11-22T13:32:57.456Z</time>
      </trkpt>
      <trkpt lat="47.536764" lon="7.982225">
        <ele>327.669805</ele>
        <time>2021-11-22T13:33:11.126Z</time>
      </trkpt>
      <trkpt lat="47.536775" lon="7.982096">
        <ele>327.906987</ele>
        <time>2021-11-22T13:33:13.539Z</time>
      </trkpt>
      <trkpt lat="47.536842" lon="7.981878">
        <ele>328.343915</ele>
        <time>2021-11-22T13:33:18.281Z</time>
      </trkpt>
      <trkpt lat="47.536896" lon="7.981697">
        <ele>328.704884</ele>
        <time>2021-11-22T13:33:22.117Z</time>
      </trkpt>
      <trkpt lat="47.536959" lon="7.981602">
        <ele>328.947795</ele>
        <time>2021-11-22T13:33:24.492Z</time>
      </trkpt>
      <trkpt lat="47.537107" lon="7.981082">
        <ele>329.732821</ele>
        <time>2021-11-22T13:33:35.214Z</time>
      </trkpt>
      <trkpt lat="47.537461" lon="7.980118">
        <ele>330.976601</ele>
        <time>2021-11-22T13:33:53.767Z</time>
      </trkpt>
      <trkpt lat="47.537583" lon="7.979760">
        <ele>331.431122</ele>
        <time>2021-11-22T13:33:59.771Z</time>
      </trkpt>
      <trkpt lat="47.537955" lon="7.978125">
        <ele>331.587136</ele>
        <time>2021-11-22T13:34:16.114Z</time>
      </trkpt>
      <trkpt lat="47.538107" lon="7.977240">
        <ele>330.822908</ele>
        <time>2021-11-22T13:34:23.019Z</time>
      </trkpt>
      <trkpt lat="47.538242" lon="7.976347">
        <ele>330.012589</ele>
        <time>2021-11-22T13:34:29.878Z</time>
      </trkpt>
      <trkpt lat="47.538706" lon="7.974459">
        <ele>327.176035</ele>
        <time>2021-11-22T13:34:44.599Z</time>
      </trkpt>
      <trkpt lat="47.538841" lon="7.973806">
        <ele>326.193065</ele>
        <time>2021-11-22T13:34:49.706Z</time>
      </trkpt>
      <trkpt lat="47.539262" lon="7.971768">
        <ele>322.802896</ele>
        <time>2021-11-22T13:35:04.964Z</time>
      </trkpt>
      <trkpt lat="47.539783" lon="7.969587">
        <ele>319.387950</ele>
        <time>2021-11-22T13:35:21.631Z</time>
      </trkpt>
      <trkpt lat="47.540214" lon="7.967628">
        <ele>317.190746</ele>
        <time>2021-11-22T13:35:37.430Z</time>
      </trkpt>
      <trkpt lat="47.540896" lon="7.964711">
        <ele>315.085309</ele>
        <time>2021-11-22T13:36:03.536Z</time>
      </trkpt>
      <trkpt lat="47.541095" lon="7.964204">
        <ele>314.757286</ele>
        <time>2021-11-22T13:36:08.572Z</time>
      </trkpt>
      <trkpt lat="47.541169" lon="7.964123">
        <ele>314.681052</ele>
        <time>2021-11-22T13:36:09.531Z</time>
      </trkpt>
      <trkpt lat="47.541129" lon="7.964008">
        <ele>314.608694</ele>
        <time>2021-11-22T13:36:10.973Z</time>
      </trkpt>
      <trkpt lat="47.541019" lon="7.963815">
        <ele>314.433162</ele>
        <time>2021-11-22T13:36:13.323Z</time>
      </trkpt>
      <trkpt lat="47.541123" lon="7.963520">
        <ele>314.168254</ele>
        <time>2021-11-22T13:36:16.057Z</time>
      </trkpt>
      <trkpt lat="47.541217" lon="7.963187">
        <ele>313.880950</ele>
        <time>2021-11-22T13:36:18.959Z</time>
      </trkpt>
      <trkpt lat="47.541258" lon="7.962975">
        <ele>313.705413</ele>
        <time>2021-11-22T13:36:21.353Z</time>
      </trkpt>
      <trkpt lat="47.541293" lon="7.962730">
        <ele>313.506079</ele>
        <time>2021-11-22T13:36:23.338Z</time>
      </trkpt>
      <trkpt lat="47.541308" lon="7.962513">
        <ele>313.332447</ele>
        <time>2021-11-22T13:36:25.362Z</time>
      </trkpt>
      <trkpt lat="47.541314" lon="7.962377">
        <ele>313.223963</ele>
        <time>2021-11-22T13:36:26.715Z</time>
      </trkpt>
      <trkpt lat="47.541316" lon="7.962197">
        <ele>313.080667</ele>
        <time>2021-11-22T13:36:28.060Z</time>
      </trkpt>
      <trkpt lat="47.541242" lon="7.961294">
        <ele>312.235118</ele>
        <time>2021-11-22T13:36:35.083Z</time>
      </trkpt>
      <trkpt lat="47.541153" lon="7.960814">
        <ele>311.160091</ele>
        <time>2021-11-22T13:36:38.613Z</time>
      </trkpt>
      <trkpt lat="47.541060" lon="7.960321">
        <ele>310.054589</ele>
        <time>2021-11-22T13:36:42.203Z</time>
      </trkpt>
      <trkpt lat="47.541027" lon="7.959944">
        <ele>309.233579</ele>
        <time>2021-11-22T13:36:44.706Z</time>
      </trkpt>
      <trkpt lat="47.541019" lon="7.959792">
        <ele>308.904314</ele>
        <time>2021-11-22T13:36:45.751Z</time>
      </trkpt>
      <trkpt lat="47.541012" lon="7.959578">
        <ele>308.441604</ele>
        <time>2021-11-22T13:36:47.225Z</time>
      </trkpt>
      <trkpt lat="47.541016" lon="7.959388">
        <ele>308.031068</ele>
        <time>2021-11-22T13:36:48.428Z</time>
      </trkpt>
      <trkpt lat="47.541081" lon="7.958828">
        <ele>306.803909</ele>
        <time>2021-11-22T13:36:52.197Z</time>
      </trkpt>
      <trkpt lat="47.541226" lon="7.958150">
        <ele>305.347107</ele>
        <time>2021-11-22T13:36:56.957Z</time>
      </trkpt>
      <trkpt lat="47.541305" lon="7.957787">
        <ele>304.569821</ele>
        <time>2021-11-22T13:36:59.442Z</time>
      </trkpt>
      <trkpt lat="47.541355" lon="7.957559">
        <ele>304.081256</ele>
        <time>2021-11-22T13:37:01.143Z</time>
      </trkpt>
      <trkpt lat="47.541450" lon="7.956897">
        <ele>302.701962</ele>
        <time>2021-11-22T13:37:05.777Z</time>
      </trkpt>
      <trkpt lat="47.541464" lon="7.956698">
        <ele>302.294207</ele>
        <time>2021-11-22T13:37:07.183Z</time>
      </trkpt>
      <trkpt lat="47.541533" lon="7.955526">
        <ele>300.995536</ele>
        <time>2021-11-22T13:37:16.017Z</time>
      </trkpt>
      <trkpt lat="47.541554" lon="7.955311">
        <ele>300.914101</ele>
        <time>2021-11-22T13:37:18.055Z</time>
      </trkpt>
      <trkpt lat="47.541735" lon="7.953892">
        <ele>300.372751</ele>
        <time>2021-11-22T13:37:32.263Z</time>
      </trkpt>
      <trkpt lat="47.541773" lon="7.953695">
        <ele>300.295947</ele>
        <time>2021-11-22T13:37:34.511Z</time>
      </trkpt>
      <trkpt lat="47.541791" lon="7.953601">
        <ele>300.259319</ele>
        <time>2021-11-22T13:37:35.546Z</time>
      </trkpt>
      <trkpt lat="47.541991" lon="7.952667">
        <ele>300.416819</ele>
        <time>2021-11-22T13:37:46.402Z</time>
      </trkpt>
      <trkpt lat="47.542169" lon="7.951815">
        <ele>300.580368</ele>
        <time>2021-11-22T13:37:56.139Z</time>
      </trkpt>
      <trkpt lat="47.542192" lon="7.951713">
        <ele>300.600089</ele>
        <time>2021-11-22T13:37:57.402Z</time>
      </trkpt>
      <trkpt lat="47.542357" lon="7.951037">
        <ele>300.731906</ele>
        <time>2021-11-22T13:38:04.866Z</time>
      </trkpt>
      <trkpt lat="47.542444" lon="7.950687">
        <ele>300.820089</ele>
        <time>2021-11-22T13:38:08.697Z</time>
      </trkpt>
      <trkpt lat="47.542546" lon="7.950274">
        <ele>300.924453</ele>
        <time>2021-11-22T13:38:13.044Z</time>
      </trkpt>
      <trkpt lat="47.542554" lon="7.950231">
        <ele>300.935038</ele>
        <time>2021-11-22T13:38:13.531Z</time>
      </trkpt>
      <trkpt lat="47.542560" lon="7.950202">
        <ele>300.942236</ele>
        <time>2021-11-22T13:38:13.864Z</time>
      </trkpt>
      <trkpt lat="47.542609" lon="7.949914">
        <ele>301.012719</ele>
        <time>2021-11-22T13:38:16.863Z</time>
      </trkpt>
      <trkpt lat="47.542719" lon="7.949175">
        <ele>301.192306</ele>
        <time>2021-11-22T13:38:24.767Z</time>
      </trkpt>
      <trkpt lat="47.542826" lon="7.948298">
        <ele>301.537306</ele>
        <time>2021-11-22T13:38:35.709Z</time>
      </trkpt>
      <trkpt lat="47.542838" lon="7.948225">
        <ele>301.617032</ele>
        <time>2021-11-22T13:38:36.537Z</time>
      </trkpt>
      <trkpt lat="47.542875" lon="7.948001">
        <ele>301.861735</ele>
        <time>2021-11-22T13:38:39.420Z</time>
      </trkpt>
      <trkpt lat="47.542928" lon="7.947798">
        <ele>302.092692</ele>
        <time>2021-11-22T13:38:42.343Z</time>
      </trkpt>
      <trkpt lat="47.542957" lon="7.947651">
        <ele>302.255201</ele>
        <time>2021-11-22T13:38:44.051Z</time>
      </trkpt>
      <trkpt lat="47.543050" lon="7.947411">
        <ele>302.548845</ele>
        <time>2021-11-22T13:38:48.416Z</time>
      </trkpt>
      <trkpt lat="47.543087" lon="7.947317">
        <ele>302.664308</ele>
        <time>2021-11-22T13:38:49.695Z</time>
      </trkpt>
      <trkpt lat="47.543092" lon="7.947257">
        <ele>302.728459</ele>
        <time>2021-11-22T13:38:50.484Z</time>
      </trkpt>
      <trkpt lat="47.543097" lon="7.947186">
        <ele>302.804206</ele>
        <time>2021-11-22T13:38:51.334Z</time>
      </trkpt>
      <trkpt lat="47.543086" lon="7.947052">
        <ele>302.947443</ele>
        <time>2021-11-22T13:38:53.163Z</time>
      </trkpt>
      <trkpt lat="47.543056" lon="7.946935">
        <ele>303.080248</ele>
        <time>2021-11-22T13:38:55.530Z</time>
      </trkpt>
      <trkpt lat="47.543045" lon="7.946881">
        <ele>303.140101</ele>
        <time>2021-11-22T13:38:56.642Z</time>
      </trkpt>
      <trkpt lat="47.542982" lon="7.946547">
        <ele>303.508089</ele>
        <time>2021-11-22T13:39:01.242Z</time>
      </trkpt>
      <trkpt lat="47.542974" lon="7.946495">
        <ele>303.564682</ele>
        <time>2021-11-22T13:39:02.455Z</time>
      </trkpt>
      <trkpt lat="47.542960" lon="7.946400">
        <ele>303.667862</ele>
        <time>2021-11-22T13:39:04.291Z</time>
      </trkpt>
      <trkpt lat="47.542916" lon="7.945730">
        <ele>304.373291</ele>
        <time>2021-11-22T13:39:14.868Z</time>
      </trkpt>
      <trkpt lat="47.542913" lon="7.945267">
        <ele>304.841595</ele>
        <time>2021-11-22T13:39:22.354Z</time>
      </trkpt>
      <trkpt lat="47.543007" lon="7.943867">
        <ele>306.264553</ele>
        <time>2021-11-22T13:39:43.093Z</time>
      </trkpt>
      <trkpt lat="47.543161" lon="7.942213">
        <ele>306.493468</ele>
        <time>2021-11-22T13:40:01.500Z</time>
      </trkpt>
      <trkpt lat="47.543435" lon="7.940670">
        <ele>305.896642</ele>
        <time>2021-11-22T13:40:14.448Z</time>
      </trkpt>
      <trkpt lat="47.543826" lon="7.939433">
        <ele>304.338599</ele>
        <time>2021-11-22T13:40:24.849Z</time>
      </trkpt>
      <trkpt lat="47.544472" lon="7.937932">
        <ele>302.279873</ele>
        <time>2021-11-22T13:40:38.173Z</time>
      </trkpt>
      <trkpt lat="47.544705" lon="7.937395">
        <ele>301.528811</ele>
        <time>2021-11-22T13:40:43.012Z</time>
      </trkpt>
      <trkpt lat="47.544903" lon="7.936917">
        <ele>300.868985</ele>
        <time>2021-11-22T13:40:47.273Z</time>
      </trkpt>
      <trkpt lat="47.545074" lon="7.936484">
        <ele>300.278769</ele>
        <time>2021-11-22T13:40:51.104Z</time>
      </trkpt>
      <trkpt lat="47.545457" lon="7.935110">
        <ele>299.105214</ele>
        <time>2021-11-22T13:41:02.472Z</time>
      </trkpt>
      <trkpt lat="47.545674" lon="7.933625">
        <ele>298.201696</ele>
        <time>2021-11-22T13:41:15.552Z</time>
      </trkpt>
      <trkpt lat="47.545702" lon="7.933290">
        <ele>298.267218</ele>
        <time>2021-11-22T13:41:19.132Z</time>
      </trkpt>
      <trkpt lat="47.545724" lon="7.932758">
        <ele>298.733422</ele>
        <time>2021-11-22T13:41:25.399Z</time>
      </trkpt>
      <trkpt lat="47.545721" lon="7.931992">
        <ele>299.403440</ele>
        <time>2021-11-22T13:41:35.439Z</time>
      </trkpt>
      <trkpt lat="47.545696" lon="7.931497">
        <ele>299.837618</ele>
        <time>2021-11-22T13:41:42.644Z</time>
      </trkpt>
      <trkpt lat="47.545661" lon="7.930955">
        <ele>300.313861</ele>
        <time>2021-11-22T13:41:51.339Z</time>
      </trkpt>
      <trkpt lat="47.545563" lon="7.929641">
        <ele>301.494520</ele>
        <time>2021-11-22T13:42:13.679Z</time>
      </trkpt>
      <trkpt lat="47.545475" lon="7.928419">
        <ele>302.594824</ele>
        <time>2021-11-22T13:42:29.982Z</time>
      </trkpt>
      <trkpt lat="47.545421" lon="7.927686">
        <ele>302.053841</ele>
        <time>2021-11-22T13:42:36.085Z</time>
      </trkpt>
      <trkpt lat="47.545406" lon="7.927306">
        <ele>301.442240</ele>
        <time>2021-11-22T13:42:38.989Z</time>
      </trkpt>
      <trkpt lat="47.545407" lon="7.927001">
        <ele>300.952181</ele>
        <time>2021-11-22T13:42:41.276Z</time>
      </trkpt>
      <trkpt lat="47.545409" lon="7.926773">
        <ele>300.585815</ele>
        <time>2021-11-22T13:42:42.905Z</time>
      </trkpt>
      <trkpt lat="47.545417" lon="7.925848">
        <ele>299.099466</ele>
        <time>2021-11-22T13:42:49.240Z</time>
      </trkpt>
      <trkpt lat="47.545446" lon="7.925350">
        <ele>298.178381</ele>
        <time>2021-11-22T13:42:52.532Z</time>
      </trkpt>
      <trkpt lat="47.545466" lon="7.924880">
        <ele>297.061063</ele>
        <time>2021-11-22T13:42:55.585Z</time>
      </trkpt>
      <trkpt lat="47.545481" lon="7.924396">
        <ele>295.911533</ele>
        <time>2021-11-22T13:42:58.668Z</time>
      </trkpt>
      <trkpt lat="47.545521" lon="7.923709">
        <ele>294.275531</ele>
        <time>2021-11-22T13:43:03.194Z</time>
      </trkpt>
      <trkpt lat="47.545536" lon="7.923407">
        <ele>293.557081</ele>
        <time>2021-11-22T13:43:05.583Z</time>
      </trkpt>
      <trkpt lat="47.545553" lon="7.923142">
        <ele>292.925520</ele>
        <time>2021-11-22T13:43:07.304Z</time>
      </trkpt>
      <trkpt lat="47.545587" lon="7.922895">
        <ele>292.327437</ele>
        <time>2021-11-22T13:43:09.705Z</time>
      </trkpt>
      <trkpt lat="47.545641" lon="7.922610">
        <ele>292.012734</ele>
        <time>2021-11-22T13:43:11.704Z</time>
      </trkpt>
      <trkpt lat="47.545690" lon="7.922369">
        <ele>291.803492</ele>
        <time>2021-11-22T13:43:14.395Z</time>
      </trkpt>
      <trkpt lat="47.545699" lon="7.922325">
        <ele>291.765271</ele>
        <time>2021-11-22T13:43:14.656Z</time>
      </trkpt>
      <trkpt lat="47.545714" lon="7.922249">
        <ele>291.699444</ele>
        <time>2021-11-22T13:43:15.246Z</time>
      </trkpt>
      <trkpt lat="47.545778" lon="7.921947">
        <ele>291.436300</ele>
        <time>2021-11-22T13:43:18.402Z</time>
      </trkpt>
      <trkpt lat="47.545810" lon="7.921755">
        <ele>291.271892</ele>
        <time>2021-11-22T13:43:19.760Z</time>
      </trkpt>
      <trkpt lat="47.545881" lon="7.921096">
        <ele>290.717112</ele>
        <time>2021-11-22T13:43:25.108Z</time>
      </trkpt>
      <trkpt lat="47.545913" lon="7.920765">
        <ele>290.439135</ele>
        <time>2021-11-22T13:43:27.975Z</time>
      </trkpt>
      <trkpt lat="47.545973" lon="7.920313">
        <ele>290.056178</ele>
        <time>2021-11-22T13:43:33.122Z</time>
      </trkpt>
      <trkpt lat="47.546128" lon="7.919617">
        <ele>289.828948</ele>
        <time>2021-11-22T13:43:39.585Z</time>
      </trkpt>
      <trkpt lat="47.546262" lon="7.919081">
        <ele>289.678123</ele>
        <time>2021-11-22T13:43:45.584Z</time>
      </trkpt>
      <trkpt lat="47.546821" lon="7.916867">
        <ele>289.032642</ele>
        <time>2021-11-22T13:44:06.337Z</time>
      </trkpt>
      <trkpt lat="47.547032" lon="7.916218">
        <ele>288.825973</ele>
        <time>2021-11-22T13:44:12.828Z</time>
      </trkpt>
      <trkpt lat="47.547091" lon="7.916039">
        <ele>288.768823</ele>
        <time>2021-11-22T13:44:14.645Z</time>
      </trkpt>
      <trkpt lat="47.547113" lon="7.915971">
        <ele>288.747189</ele>
        <time>2021-11-22T13:44:15.244Z</time>
      </trkpt>
      <trkpt lat="47.547423" lon="7.915080">
        <ele>288.602917</ele>
        <time>2021-11-22T13:44:24.888Z</time>
      </trkpt>
      <trkpt lat="47.547994" lon="7.913433">
        <ele>289.030848</ele>
        <time>2021-11-22T13:44:44.608Z</time>
      </trkpt>
      <trkpt lat="47.548027" lon="7.913334">
        <ele>289.056366</ele>
        <time>2021-11-22T13:44:45.967Z</time>
      </trkpt>
      <trkpt lat="47.548412" lon="7.912168">
        <ele>289.797926</ele>
        <time>2021-11-22T13:45:02.370Z</time>
      </trkpt>
      <trkpt lat="47.549012" lon="7.910340">
        <ele>291.348904</ele>
        <time>2021-11-22T13:45:29.329Z</time>
      </trkpt>
      <trkpt lat="47.549102" lon="7.910058">
        <ele>291.646346</ele>
        <time>2021-11-22T13:45:33.498Z</time>
      </trkpt>
      <trkpt lat="47.549195" lon="7.909756">
        <ele>291.962870</ele>
        <time>2021-11-22T13:45:37.752Z</time>
      </trkpt>
      <trkpt lat="47.549253" lon="7.909561">
        <ele>292.166062</ele>
        <time>2021-11-22T13:45:40.576Z</time>
      </trkpt>
      <trkpt lat="47.549325" lon="7.909325">
        <ele>292.413016</ele>
        <time>2021-11-22T13:45:43.839Z</time>
      </trkpt>
      <trkpt lat="47.549520" lon="7.908678">
        <ele>293.088662</ele>
        <time>2021-11-22T13:45:53.070Z</time>
      </trkpt>
      <trkpt lat="47.549539" lon="7.908625">
        <ele>293.145885</ele>
        <time>2021-11-22T13:45:53.824Z</time>
      </trkpt>
      <trkpt lat="47.550497" lon="7.905558">
        <ele>298.395716</ele>
        <time>2021-11-22T13:46:48.667Z</time>
      </trkpt>
      <trkpt lat="47.550283" lon="7.905413">
        <ele>299.264988</ele>
        <time>2021-11-22T13:46:56.833Z</time>
      </trkpt>
      <trkpt lat="47.550067" lon="7.905245">
        <ele>300.166166</ele>
        <time>2021-11-22T13:47:05.519Z</time>
      </trkpt>
      <trkpt lat="47.549867" lon="7.905155">
        <ele>300.938302</ele>
        <time>2021-11-22T13:47:13.148Z</time>
      </trkpt>
      <trkpt lat="47.549868" lon="7.905010">
        <ele>301.299849</ele>
        <time>2021-11-22T13:47:16.553Z</time>
      </trkpt>
      <trkpt lat="47.550025" lon="7.904774">
        <ele>302.126041</ele>
        <time>2021-11-22T13:47:24.704Z</time>
      </trkpt>
      <trkpt lat="47.550302" lon="7.904164">
        <ele>303.959122</ele>
        <time>2021-11-22T13:47:43.003Z</time>
      </trkpt>
      <trkpt lat="47.550498" lon="7.903445">
        <ele>305.881318</ele>
        <time>2021-11-22T13:48:02.575Z</time>
      </trkpt>
      <trkpt lat="47.550688" lon="7.902451">
        <ele>308.434753</ele>
        <time>2021-11-22T13:48:25.123Z</time>
      </trkpt>
      <trkpt lat="47.550757" lon="7.901591">
        <ele>310.575324</ele>
        <time>2021-11-22T13:48:44.920Z</time>
      </trkpt>
      <trkpt lat="47.550769" lon="7.901362">
        <ele>311.143031</ele>
        <time>2021-11-22T13:48:50.828Z</time>
      </trkpt>
      <trkpt lat="47.550801" lon="7.900244">
        <ele>314.351183</ele>
        <time>2021-11-22T13:49:15.225Z</time>
      </trkpt>
      <trkpt lat="47.550819" lon="7.898109">
        <ele>319.878213</ele>
        <time>2021-11-22T13:50:02.265Z</time>
      </trkpt>
      <trkpt lat="47.550648" lon="7.896481">
        <ele>322.848850</ele>
        <time>2021-11-22T13:50:29.920Z</time>
      </trkpt>
      <trkpt lat="47.550639" lon="7.896345">
        <ele>323.095236</ele>
        <time>2021-11-22T13:50:32.296Z</time>
      </trkpt>
      <trkpt lat="47.550660" lon="7.896255">
        <ele>323.266931</ele>
        <time>2021-11-22T13:50:33.096Z</time>
      </trkpt>
      <trkpt lat="47.550838" lon="7.895509">
        <ele>324.151332</ele>
        <time>2021-11-22T13:50:43.264Z</time>
      </trkpt>
      <trkpt lat="47.550878" lon="7.895158">
        <ele>324.457522</ele>
        <time>2021-11-22T13:50:47.326Z</time>
      </trkpt>
      <trkpt lat="47.550908" lon="7.894308">
        <ele>325.189655</ele>
        <time>2021-11-22T13:50:57.799Z</time>
      </trkpt>
      <trkpt lat="47.550892" lon="7.893176">
        <ele>326.650120</ele>
        <time>2021-11-22T13:51:12.516Z</time>
      </trkpt>
      <trkpt lat="47.550904" lon="7.891725">
        <ele>330.727503</ele>
        <time>2021-11-22T13:51:42.278Z</time>
      </trkpt>
      <trkpt lat="47.550915" lon="7.890600">
        <ele>334.116794</ele>
        <time>2021-11-22T13:52:11.118Z</time>
      </trkpt>
      <trkpt lat="47.550833" lon="7.889069">
        <ele>340.607867</ele>
        <time>2021-11-22T13:52:53.752Z</time>
      </trkpt>
      <trkpt lat="47.550831" lon="7.888611">
        <ele>342.543634</ele>
        <time>2021-11-22T13:53:06.322Z</time>
      </trkpt>
      <trkpt lat="47.550789" lon="7.887816">
        <ele>345.798359</ele>
        <time>2021-11-22T13:53:26.934Z</time>
      </trkpt>
      <trkpt lat="47.550758" lon="7.887295">
        <ele>347.798379</ele>
        <time>2021-11-22T13:53:40.755Z</time>
      </trkpt>
      <trkpt lat="47.550677" lon="7.886476">
        <ele>350.963667</ele>
        <time>2021-11-22T13:54:02.244Z</time>
      </trkpt>
      <trkpt lat="47.550548" lon="7.885799">
        <ele>353.653700</ele>
        <time>2021-11-22T13:54:19.447Z</time>
      </trkpt>
      <trkpt lat="47.550391" lon="7.885109">
        <ele>356.063254</ele>
        <time>2021-11-22T13:54:37.085Z</time>
      </trkpt>
      <trkpt lat="47.550332" lon="7.884727">
        <ele>357.198750</ele>
        <time>2021-11-22T13:54:45.775Z</time>
      </trkpt>
      <trkpt lat="47.550234" lon="7.883221">
        <ele>361.582782</ele>
        <time>2021-11-22T13:55:18.607Z</time>
      </trkpt>
      <trkpt lat="47.549927" lon="7.881490">
        <ele>366.102408</ele>
        <time>2021-11-22T13:55:50.870Z</time>
      </trkpt>
      <trkpt lat="47.549726" lon="7.880786">
        <ele>367.962214</ele>
        <time>2021-11-22T13:56:06.847Z</time>
      </trkpt>
      <trkpt lat="47.549327" lon="7.879547">
        <ele>371.643011</ele>
        <time>2021-11-22T13:56:36.631Z</time>
      </trkpt>
      <trkpt lat="47.549318" lon="7.879398">
        <ele>372.063194</ele>
        <time>2021-11-22T13:56:39.819Z</time>
      </trkpt>
      <trkpt lat="47.549140" lon="7.879391">
        <ele>372.804194</ele>
        <time>2021-11-22T13:56:46.689Z</time>
      </trkpt>
      <trkpt lat="47.548718" lon="7.879258">
        <ele>374.599622</ele>
        <time>2021-11-22T13:57:00.360Z</time>
      </trkpt>
      <trkpt lat="47.548422" lon="7.878959">
        <ele>376.090475</ele>
        <time>2021-11-22T13:57:11.007Z</time>
      </trkpt>
      <trkpt lat="47.548234" lon="7.878638">
        <ele>376.721769</ele>
        <time>2021-11-22T13:57:19.439Z</time>
      </trkpt>
      <trkpt lat="47.547992" lon="7.877974">
        <ele>377.145878</ele>
        <time>2021-11-22T13:57:32.536Z</time>
      </trkpt>
      <trkpt lat="47.547574" lon="7.876801">
        <ele>377.891367</ele>
        <time>2021-11-22T13:57:46.300Z</time>
      </trkpt>
      <trkpt lat="47.547126" lon="7.875801">
        <ele>375.861246</ele>
        <time>2021-11-22T13:57:55.082Z</time>
      </trkpt>
      <trkpt lat="47.546309" lon="7.874154">
        <ele>371.262045</ele>
        <time>2021-11-22T13:58:08.271Z</time>
      </trkpt>
      <trkpt lat="47.546135" lon="7.873859">
        <ele>371.262045</ele>
        <time>2021-11-22T13:58:10.653Z</time>
      </trkpt>
      <trkpt lat="47.546077" lon="7.873763">
        <ele>371.262045</ele>
        <time>2021-11-22T13:58:11.464Z</time>
      </trkpt>
      <trkpt lat="47.545934" lon="7.873549">
        <ele>371.262045</ele>
        <time>2021-11-22T13:58:13.268Z</time>
      </trkpt>
      <trkpt lat="47.545746" lon="7.873302">
        <ele>371.262045</ele>
        <time>2021-11-22T13:58:15.557Z</time>
      </trkpt>
      <trkpt lat="47.545515" lon="7.873015">
        <ele>371.262045</ele>
        <time>2021-11-22T13:58:18.234Z</time>
      </trkpt>
      <trkpt lat="47.545478" lon="7.872968">
        <ele>371.262045</ele>
        <time>2021-11-22T13:58:18.680Z</time>
      </trkpt>
      <trkpt lat="47.545375" lon="7.872836">
        <ele>371.262045</ele>
        <time>2021-11-22T13:58:19.874Z</time>
      </trkpt>
      <trkpt lat="47.545131" lon="7.872664">
        <ele>371.262045</ele>
        <time>2021-11-22T13:58:22.351Z</time>
      </trkpt>
      <trkpt lat="47.544883" lon="7.872555">
        <ele>371.262045</ele>
        <time>2021-11-22T13:58:24.690Z</time>
      </trkpt>
      <trkpt lat="47.544390" lon="7.872423">
        <ele>371.262045</ele>
        <time>2021-11-22T13:58:29.330Z</time>
      </trkpt>
      <trkpt lat="47.544252" lon="7.872398">
        <ele>371.262045</ele>
        <time>2021-11-22T13:58:30.609Z</time>
      </trkpt>
    </trkseg>
  </trk>
</gpx>